<?xml version="1.0" encoding="UTF-8" standalone="no" ?>
<gpx xmlns="http://www.topografix.com/GPX/1/1" xmlns:xsi="http://www.w3.org/2001/XMLSchema-instance" xsi:schemaLocation="http://www.topografix.com/GPX/1/1 http://www.topografix.com/GPX/1/1/gpx.xsd" version="1.1" creator="VisuGPX - https://www.visugpx.com">
  <metadata>
    <name>Pornichet 08/05/2022</name>
    <desc><![CDATA[Sortie dimanche 08 mai 2022]]></desc>
  </metadata>
  <trk>
    <name><![CDATA[Pornichet Cyclisme]]></name>
    <trkseg>
      <trkpt lat="47.26387" lon="-2.31553">
        <ele>9</ele>
        <time>2022-05-08T07:00:24.000Z</time>
      </trkpt>
      <trkpt lat="47.26389" lon="-2.31573">
        <ele>9</ele>
        <time>2022-05-08T07:00:27.000Z</time>
      </trkpt>
      <trkpt lat="47.26389" lon="-2.3158">
        <ele>9</ele>
        <time>2022-05-08T07:00:28.000Z</time>
      </trkpt>
      <trkpt lat="47.26391" lon="-2.31594">
        <ele>9.1</ele>
        <time>2022-05-08T07:00:30.000Z</time>
      </trkpt>
      <trkpt lat="47.26394" lon="-2.31614">
        <ele>9.1</ele>
        <time>2022-05-08T07:00:33.000Z</time>
      </trkpt>
      <trkpt lat="47.26394" lon="-2.31624">
        <ele>9.1</ele>
        <time>2022-05-08T07:00:35.000Z</time>
      </trkpt>
      <trkpt lat="47.26387" lon="-2.31633">
        <ele>8.9</ele>
        <time>2022-05-08T07:00:38.000Z</time>
      </trkpt>
      <trkpt lat="47.26379" lon="-2.31637">
        <ele>8.6</ele>
        <time>2022-05-08T07:00:40.000Z</time>
      </trkpt>
      <trkpt lat="47.26371" lon="-2.31642">
        <ele>8.3</ele>
        <time>2022-05-08T07:00:42.000Z</time>
      </trkpt>
      <trkpt lat="47.26362" lon="-2.31648">
        <ele>8</ele>
        <time>2022-05-08T07:00:44.000Z</time>
      </trkpt>
      <trkpt lat="47.26347" lon="-2.31655">
        <ele>7.5</ele>
        <time>2022-05-08T07:00:47.000Z</time>
      </trkpt>
      <trkpt lat="47.26342" lon="-2.31658">
        <ele>-0.80000001192093</ele>
        <time>2022-05-08T07:00:48.000Z</time>
      </trkpt>
      <trkpt lat="47.26337" lon="-2.31661">
        <ele>-1.3999999761581</ele>
        <time>2022-05-08T07:00:49.000Z</time>
      </trkpt>
      <trkpt lat="47.26333" lon="-2.31664">
        <ele>-1.7999999523163</ele>
        <time>2022-05-08T07:00:50.000Z</time>
      </trkpt>
      <trkpt lat="47.26328" lon="-2.31667">
        <ele>-2.2000000476837</ele>
        <time>2022-05-08T07:00:51.000Z</time>
      </trkpt>
      <trkpt lat="47.26323" lon="-2.31668">
        <ele>-2.2000000476837</ele>
        <time>2022-05-08T07:00:52.000Z</time>
      </trkpt>
      <trkpt lat="47.26318" lon="-2.3167">
        <ele>-2.2000000476837</ele>
        <time>2022-05-08T07:00:53.000Z</time>
      </trkpt>
      <trkpt lat="47.26298" lon="-2.31681">
        <ele>-2.5999999046326</ele>
        <time>2022-05-08T07:00:57.000Z</time>
      </trkpt>
      <trkpt lat="47.26295" lon="-2.31686">
        <ele>-3</ele>
        <time>2022-05-08T07:00:58.000Z</time>
      </trkpt>
      <trkpt lat="47.26293" lon="-2.31692">
        <ele>-3.4000000953674</ele>
        <time>2022-05-08T07:00:59.000Z</time>
      </trkpt>
      <trkpt lat="47.26291" lon="-2.31698">
        <ele>-3.7999999523163</ele>
        <time>2022-05-08T07:01:00.000Z</time>
      </trkpt>
      <trkpt lat="47.2629" lon="-2.31704">
        <ele>-4.1999998092651</ele>
        <time>2022-05-08T07:01:01.000Z</time>
      </trkpt>
      <trkpt lat="47.2629" lon="-2.31711">
        <ele>-4.1999998092651</ele>
        <time>2022-05-08T07:01:02.000Z</time>
      </trkpt>
      <trkpt lat="47.26291" lon="-2.31725">
        <ele>-4.1999998092651</ele>
        <time>2022-05-08T07:01:04.000Z</time>
      </trkpt>
      <trkpt lat="47.26291" lon="-2.31745">
        <ele>-4.1999998092651</ele>
        <time>2022-05-08T07:01:07.000Z</time>
      </trkpt>
      <trkpt lat="47.26291" lon="-2.31752">
        <ele>-4.1999998092651</ele>
        <time>2022-05-08T07:01:08.000Z</time>
      </trkpt>
      <trkpt lat="47.2629" lon="-2.31765">
        <ele>-4.1999998092651</ele>
        <time>2022-05-08T07:01:10.000Z</time>
      </trkpt>
      <trkpt lat="47.26288" lon="-2.31779">
        <ele>-4.1999998092651</ele>
        <time>2022-05-08T07:01:12.000Z</time>
      </trkpt>
      <trkpt lat="47.26287" lon="-2.31831">
        <ele>-4.1999998092651</ele>
        <time>2022-05-08T07:01:19.000Z</time>
      </trkpt>
      <trkpt lat="47.26286" lon="-2.31844">
        <ele>-4.1999998092651</ele>
        <time>2022-05-08T07:01:21.000Z</time>
      </trkpt>
      <trkpt lat="47.26282" lon="-2.31854">
        <ele>-4.1999998092651</ele>
        <time>2022-05-08T07:01:23.000Z</time>
      </trkpt>
      <trkpt lat="47.26276" lon="-2.31862">
        <ele>-4.1999998092651</ele>
        <time>2022-05-08T07:01:25.000Z</time>
      </trkpt>
      <trkpt lat="47.26266" lon="-2.31876">
        <ele>-4.1999998092651</ele>
        <time>2022-05-08T07:01:28.000Z</time>
      </trkpt>
      <trkpt lat="47.26257" lon="-2.31892">
        <ele>-4.1999998092651</ele>
        <time>2022-05-08T07:01:31.000Z</time>
      </trkpt>
      <trkpt lat="47.2625" lon="-2.31908">
        <ele>-4.1999998092651</ele>
        <time>2022-05-08T07:01:34.000Z</time>
      </trkpt>
      <trkpt lat="47.2624" lon="-2.31919">
        <ele>-4.1999998092651</ele>
        <time>2022-05-08T07:01:37.000Z</time>
      </trkpt>
      <trkpt lat="47.26236" lon="-2.31922">
        <ele>-4.5999999046326</ele>
        <time>2022-05-08T07:01:38.000Z</time>
      </trkpt>
      <trkpt lat="47.26231" lon="-2.31925">
        <ele>-5</ele>
        <time>2022-05-08T07:01:39.000Z</time>
      </trkpt>
      <trkpt lat="47.26228" lon="-2.31928">
        <ele>-5.4000000953674</ele>
        <time>2022-05-08T07:01:40.000Z</time>
      </trkpt>
      <trkpt lat="47.26225" lon="-2.31932">
        <ele>-5.8000001907349</ele>
        <time>2022-05-08T07:01:41.000Z</time>
      </trkpt>
      <trkpt lat="47.26222" lon="-2.31935">
        <ele>-6.1999998092651</ele>
        <time>2022-05-08T07:01:42.000Z</time>
      </trkpt>
      <trkpt lat="47.26205" lon="-2.31952">
        <ele>-6.1999998092651</ele>
        <time>2022-05-08T07:01:48.000Z</time>
      </trkpt>
      <trkpt lat="47.26199" lon="-2.3197">
        <ele>-6.1999998092651</ele>
        <time>2022-05-08T07:01:52.000Z</time>
      </trkpt>
      <trkpt lat="47.26197" lon="-2.31972">
        <ele>-6.1999998092651</ele>
        <time>2022-05-08T07:01:53.000Z</time>
      </trkpt>
      <trkpt lat="47.26189" lon="-2.31976">
        <ele>-6.1999998092651</ele>
        <time>2022-05-08T07:01:56.000Z</time>
      </trkpt>
      <trkpt lat="47.26172" lon="-2.3198">
        <ele>-6.1999998092651</ele>
        <time>2022-05-08T07:02:00.000Z</time>
      </trkpt>
      <trkpt lat="47.26168" lon="-2.31985">
        <ele>-6.1999998092651</ele>
        <time>2022-05-08T07:02:01.000Z</time>
      </trkpt>
      <trkpt lat="47.26157" lon="-2.32">
        <ele>-6.1999998092651</ele>
        <time>2022-05-08T07:02:04.000Z</time>
      </trkpt>
      <trkpt lat="47.26141" lon="-2.3204">
        <ele>-6.1999998092651</ele>
        <time>2022-05-08T07:02:10.000Z</time>
      </trkpt>
      <trkpt lat="47.26127" lon="-2.32091">
        <ele>-6.1999998092651</ele>
        <time>2022-05-08T07:02:18.000Z</time>
      </trkpt>
      <trkpt lat="47.26123" lon="-2.32103">
        <ele>-6.1999998092651</ele>
        <time>2022-05-08T07:02:20.000Z</time>
      </trkpt>
      <trkpt lat="47.26113" lon="-2.32129">
        <ele>-6.1999998092651</ele>
        <time>2022-05-08T07:02:24.000Z</time>
      </trkpt>
      <trkpt lat="47.26092" lon="-2.32178">
        <ele>-6.1999998092651</ele>
        <time>2022-05-08T07:02:32.000Z</time>
      </trkpt>
      <trkpt lat="47.26065" lon="-2.32213">
        <ele>-6.1999998092651</ele>
        <time>2022-05-08T07:02:39.000Z</time>
      </trkpt>
      <trkpt lat="47.26028" lon="-2.32251">
        <ele>-6.1999998092651</ele>
        <time>2022-05-08T07:02:47.000Z</time>
      </trkpt>
      <trkpt lat="47.25991" lon="-2.32294">
        <ele>-6.1999998092651</ele>
        <time>2022-05-08T07:02:55.000Z</time>
      </trkpt>
      <trkpt lat="47.25966" lon="-2.32326">
        <ele>-6.1999998092651</ele>
        <time>2022-05-08T07:03:01.000Z</time>
      </trkpt>
      <trkpt lat="47.25927" lon="-2.32377">
        <ele>-6.1999998092651</ele>
        <time>2022-05-08T07:03:10.000Z</time>
      </trkpt>
      <trkpt lat="47.259" lon="-2.32412">
        <ele>-6.1999998092651</ele>
        <time>2022-05-08T07:03:16.000Z</time>
      </trkpt>
      <trkpt lat="47.25892" lon="-2.32422">
        <ele>-6.1999998092651</ele>
        <time>2022-05-08T07:03:18.000Z</time>
      </trkpt>
      <trkpt lat="47.25878" lon="-2.32431">
        <ele>-6.1999998092651</ele>
        <time>2022-05-08T07:03:21.000Z</time>
      </trkpt>
      <trkpt lat="47.25874" lon="-2.32434">
        <ele>-6.1999998092651</ele>
        <time>2022-05-08T07:03:22.000Z</time>
      </trkpt>
      <trkpt lat="47.25868" lon="-2.32436">
        <ele>-6.1999998092651</ele>
        <time>2022-05-08T07:03:23.000Z</time>
      </trkpt>
      <trkpt lat="47.25852" lon="-2.3244">
        <ele>-6.1999998092651</ele>
        <time>2022-05-08T07:03:26.000Z</time>
      </trkpt>
      <trkpt lat="47.25833" lon="-2.32441">
        <ele>-6.1999998092651</ele>
        <time>2022-05-08T07:03:29.000Z</time>
      </trkpt>
      <trkpt lat="47.25821" lon="-2.32437">
        <ele>-6.1999998092651</ele>
        <time>2022-05-08T07:03:31.000Z</time>
      </trkpt>
      <trkpt lat="47.25809" lon="-2.32431">
        <ele>-5.4000000953674</ele>
        <time>2022-05-08T07:03:33.000Z</time>
      </trkpt>
      <trkpt lat="47.25804" lon="-2.32429">
        <ele>-5</ele>
        <time>2022-05-08T07:03:34.000Z</time>
      </trkpt>
      <trkpt lat="47.25798" lon="-2.32427">
        <ele>-4.5999999046326</ele>
        <time>2022-05-08T07:03:35.000Z</time>
      </trkpt>
      <trkpt lat="47.25792" lon="-2.32426">
        <ele>-4.1999998092651</ele>
        <time>2022-05-08T07:03:36.000Z</time>
      </trkpt>
      <trkpt lat="47.25771" lon="-2.32425">
        <ele>-4.1999998092651</ele>
        <time>2022-05-08T07:03:40.000Z</time>
      </trkpt>
      <trkpt lat="47.25759" lon="-2.32411">
        <ele>-4.1999998092651</ele>
        <time>2022-05-08T07:03:43.000Z</time>
      </trkpt>
      <trkpt lat="47.25743" lon="-2.32395">
        <ele>-4.1999998092651</ele>
        <time>2022-05-08T07:03:47.000Z</time>
      </trkpt>
      <trkpt lat="47.25731" lon="-2.32394">
        <ele>-4.1999998092651</ele>
        <time>2022-05-08T07:03:49.000Z</time>
      </trkpt>
      <trkpt lat="47.25719" lon="-2.32393">
        <ele>-4.1999998092651</ele>
        <time>2022-05-08T07:03:51.000Z</time>
      </trkpt>
      <trkpt lat="47.25683" lon="-2.32391">
        <ele>-4.1999998092651</ele>
        <time>2022-05-08T07:03:57.000Z</time>
      </trkpt>
      <trkpt lat="47.25658" lon="-2.32402">
        <ele>-4.1999998092651</ele>
        <time>2022-05-08T07:04:03.000Z</time>
      </trkpt>
      <trkpt lat="47.25654" lon="-2.3241">
        <ele>-4.1999998092651</ele>
        <time>2022-05-08T07:04:04.000Z</time>
      </trkpt>
      <trkpt lat="47.25652" lon="-2.32434">
        <ele>-4.1999998092651</ele>
        <time>2022-05-08T07:04:07.000Z</time>
      </trkpt>
      <trkpt lat="47.25659" lon="-2.32461">
        <ele>-3.7999999523163</ele>
        <time>2022-05-08T07:04:11.000Z</time>
      </trkpt>
      <trkpt lat="47.25661" lon="-2.32468">
        <ele>-3.4000000953674</ele>
        <time>2022-05-08T07:04:12.000Z</time>
      </trkpt>
      <trkpt lat="47.25663" lon="-2.32474">
        <ele>-3</ele>
        <time>2022-05-08T07:04:13.000Z</time>
      </trkpt>
      <trkpt lat="47.25665" lon="-2.3248">
        <ele>-2.5999999046326</ele>
        <time>2022-05-08T07:04:14.000Z</time>
      </trkpt>
      <trkpt lat="47.25667" lon="-2.32488">
        <ele>-2.2000000476837</ele>
        <time>2022-05-08T07:04:15.000Z</time>
      </trkpt>
      <trkpt lat="47.25674" lon="-2.32514">
        <ele>-2.2000000476837</ele>
        <time>2022-05-08T07:04:19.000Z</time>
      </trkpt>
      <trkpt lat="47.2568" lon="-2.32533">
        <ele>-2.2000000476837</ele>
        <time>2022-05-08T07:04:22.000Z</time>
      </trkpt>
      <trkpt lat="47.25684" lon="-2.32546">
        <ele>-1.7999999523163</ele>
        <time>2022-05-08T07:04:24.000Z</time>
      </trkpt>
      <trkpt lat="47.25686" lon="-2.32553">
        <ele>-1.3999999761581</ele>
        <time>2022-05-08T07:04:25.000Z</time>
      </trkpt>
      <trkpt lat="47.25688" lon="-2.32559">
        <ele>-1</ele>
        <time>2022-05-08T07:04:26.000Z</time>
      </trkpt>
      <trkpt lat="47.25689" lon="-2.32565">
        <ele>-0.40000000596046</ele>
        <time>2022-05-08T07:04:27.000Z</time>
      </trkpt>
      <trkpt lat="47.25691" lon="-2.32571">
        <ele>9.7</ele>
        <time>2022-05-08T07:04:28.000Z</time>
      </trkpt>
      <trkpt lat="47.25698" lon="-2.32604">
        <ele>9.9</ele>
        <time>2022-05-08T07:04:33.000Z</time>
      </trkpt>
      <trkpt lat="47.25697" lon="-2.32611">
        <ele>9.9</ele>
        <time>2022-05-08T07:04:34.000Z</time>
      </trkpt>
      <trkpt lat="47.25687" lon="-2.32624">
        <ele>10.3</ele>
        <time>2022-05-08T07:04:37.000Z</time>
      </trkpt>
      <trkpt lat="47.25675" lon="-2.32629">
        <ele>10.7</ele>
        <time>2022-05-08T07:04:40.000Z</time>
      </trkpt>
      <trkpt lat="47.25667" lon="-2.32634">
        <ele>0.40000000596046</ele>
        <time>2022-05-08T07:04:42.000Z</time>
      </trkpt>
      <trkpt lat="47.25663" lon="-2.32636">
        <ele>0.80000001192093</ele>
        <time>2022-05-08T07:04:43.000Z</time>
      </trkpt>
      <trkpt lat="47.25659" lon="-2.32637">
        <ele>1.2000000476837</ele>
        <time>2022-05-08T07:04:44.000Z</time>
      </trkpt>
      <trkpt lat="47.25655" lon="-2.32639">
        <ele>1.6000000238419</ele>
        <time>2022-05-08T07:04:45.000Z</time>
      </trkpt>
      <trkpt lat="47.25651" lon="-2.32642">
        <ele>2</ele>
        <time>2022-05-08T07:04:46.000Z</time>
      </trkpt>
      <trkpt lat="47.25641" lon="-2.32645">
        <ele>2</ele>
        <time>2022-05-08T07:04:48.000Z</time>
      </trkpt>
      <trkpt lat="47.25637" lon="-2.32647">
        <ele>2</ele>
        <time>2022-05-08T07:04:49.000Z</time>
      </trkpt>
      <trkpt lat="47.25616" lon="-2.32658">
        <ele>2.4000000953674</ele>
        <time>2022-05-08T07:04:54.000Z</time>
      </trkpt>
      <trkpt lat="47.25612" lon="-2.32659">
        <ele>2.7999999523163</ele>
        <time>2022-05-08T07:04:55.000Z</time>
      </trkpt>
      <trkpt lat="47.25607" lon="-2.32661">
        <ele>3.2000000476837</ele>
        <time>2022-05-08T07:04:56.000Z</time>
      </trkpt>
      <trkpt lat="47.25603" lon="-2.32664">
        <ele>3.5999999046326</ele>
        <time>2022-05-08T07:04:57.000Z</time>
      </trkpt>
      <trkpt lat="47.25599" lon="-2.32665">
        <ele>4</ele>
        <time>2022-05-08T07:04:58.000Z</time>
      </trkpt>
      <trkpt lat="47.25585" lon="-2.32671">
        <ele>4</ele>
        <time>2022-05-08T07:05:01.000Z</time>
      </trkpt>
      <trkpt lat="47.25547" lon="-2.32689">
        <ele>4</ele>
        <time>2022-05-08T07:05:09.000Z</time>
      </trkpt>
      <trkpt lat="47.25518" lon="-2.32699">
        <ele>4</ele>
        <time>2022-05-08T07:05:15.000Z</time>
      </trkpt>
      <trkpt lat="47.25488" lon="-2.32702">
        <ele>4</ele>
        <time>2022-05-08T07:05:21.000Z</time>
      </trkpt>
      <trkpt lat="47.25469" lon="-2.32713">
        <ele>4</ele>
        <time>2022-05-08T07:05:25.000Z</time>
      </trkpt>
      <trkpt lat="47.25465" lon="-2.32717">
        <ele>4</ele>
        <time>2022-05-08T07:05:26.000Z</time>
      </trkpt>
      <trkpt lat="47.25456" lon="-2.32726">
        <ele>4</ele>
        <time>2022-05-08T07:05:28.000Z</time>
      </trkpt>
      <trkpt lat="47.25442" lon="-2.32747">
        <ele>4</ele>
        <time>2022-05-08T07:05:32.000Z</time>
      </trkpt>
      <trkpt lat="47.25432" lon="-2.32763">
        <ele>4</ele>
        <time>2022-05-08T07:05:35.000Z</time>
      </trkpt>
      <trkpt lat="47.25425" lon="-2.32782">
        <ele>4</ele>
        <time>2022-05-08T07:05:38.000Z</time>
      </trkpt>
      <trkpt lat="47.25413" lon="-2.32799">
        <ele>4</ele>
        <time>2022-05-08T07:05:41.000Z</time>
      </trkpt>
      <trkpt lat="47.25409" lon="-2.32805">
        <ele>4</ele>
        <time>2022-05-08T07:05:42.000Z</time>
      </trkpt>
      <trkpt lat="47.25377" lon="-2.32848">
        <ele>4</ele>
        <time>2022-05-08T07:05:49.000Z</time>
      </trkpt>
      <trkpt lat="47.25343" lon="-2.32884">
        <ele>4</ele>
        <time>2022-05-08T07:05:56.000Z</time>
      </trkpt>
      <trkpt lat="47.25303" lon="-2.32924">
        <ele>4</ele>
        <time>2022-05-08T07:06:04.000Z</time>
      </trkpt>
      <trkpt lat="47.25302" lon="-2.32941">
        <ele>4</ele>
        <time>2022-05-08T07:06:06.000Z</time>
      </trkpt>
      <trkpt lat="47.25309" lon="-2.32965">
        <ele>4</ele>
        <time>2022-05-08T07:06:09.000Z</time>
      </trkpt>
      <trkpt lat="47.25311" lon="-2.32973">
        <ele>4</ele>
        <time>2022-05-08T07:06:10.000Z</time>
      </trkpt>
      <trkpt lat="47.25328" lon="-2.33012">
        <ele>4</ele>
        <time>2022-05-08T07:06:15.000Z</time>
      </trkpt>
      <trkpt lat="47.25349" lon="-2.33061">
        <ele>4</ele>
        <time>2022-05-08T07:06:22.000Z</time>
      </trkpt>
      <trkpt lat="47.25353" lon="-2.33073">
        <ele>3.5999999046326</ele>
        <time>2022-05-08T07:06:24.000Z</time>
      </trkpt>
      <trkpt lat="47.25354" lon="-2.33077">
        <ele>3.2000000476837</ele>
        <time>2022-05-08T07:06:25.000Z</time>
      </trkpt>
      <trkpt lat="47.25355" lon="-2.33079">
        <ele>2.7999999523163</ele>
        <time>2022-05-08T07:06:26.000Z</time>
      </trkpt>
      <trkpt lat="47.25357" lon="-2.33082">
        <ele>2</ele>
        <time>2022-05-08T07:06:27.000Z</time>
      </trkpt>
      <trkpt lat="47.25365" lon="-2.33095">
        <ele>2</ele>
        <time>2022-05-08T07:06:32.000Z</time>
      </trkpt>
      <trkpt lat="47.25367" lon="-2.33097">
        <ele>2</ele>
        <time>2022-05-08T07:06:36.000Z</time>
      </trkpt>
      <trkpt lat="47.25368" lon="-2.33103">
        <ele>2</ele>
        <time>2022-05-08T07:08:18.000Z</time>
      </trkpt>
      <trkpt lat="47.25371" lon="-2.33109">
        <ele>2</ele>
        <time>2022-05-08T07:08:21.000Z</time>
      </trkpt>
      <trkpt lat="47.25379" lon="-2.33128">
        <ele>2</ele>
        <time>2022-05-08T07:08:28.000Z</time>
      </trkpt>
      <trkpt lat="47.25383" lon="-2.33135">
        <ele>2</ele>
        <time>2022-05-08T07:08:32.000Z</time>
      </trkpt>
      <trkpt lat="47.25386" lon="-2.33135">
        <ele>2</ele>
        <time>2022-05-08T07:08:33.000Z</time>
      </trkpt>
      <trkpt lat="47.25396" lon="-2.33128">
        <ele>2</ele>
        <time>2022-05-08T07:08:37.000Z</time>
      </trkpt>
      <trkpt lat="47.25414" lon="-2.33121">
        <ele>2</ele>
        <time>2022-05-08T07:08:43.000Z</time>
      </trkpt>
      <trkpt lat="47.25439" lon="-2.33112">
        <ele>2</ele>
        <time>2022-05-08T07:08:50.000Z</time>
      </trkpt>
      <trkpt lat="47.25462" lon="-2.33103">
        <ele>2</ele>
        <time>2022-05-08T07:08:57.000Z</time>
      </trkpt>
      <trkpt lat="47.25482" lon="-2.33091">
        <ele>2</ele>
        <time>2022-05-08T07:09:04.000Z</time>
      </trkpt>
      <trkpt lat="47.25495" lon="-2.33076">
        <ele>2</ele>
        <time>2022-05-08T07:09:09.000Z</time>
      </trkpt>
      <trkpt lat="47.25501" lon="-2.33067">
        <ele>2</ele>
        <time>2022-05-08T07:09:11.000Z</time>
      </trkpt>
      <trkpt lat="47.25508" lon="-2.33059">
        <ele>2</ele>
        <time>2022-05-08T07:09:13.000Z</time>
      </trkpt>
      <trkpt lat="47.25512" lon="-2.33056">
        <ele>2</ele>
        <time>2022-05-08T07:09:14.000Z</time>
      </trkpt>
      <trkpt lat="47.25531" lon="-2.33045">
        <ele>2</ele>
        <time>2022-05-08T07:09:20.000Z</time>
      </trkpt>
      <trkpt lat="47.2555" lon="-2.33039">
        <ele>2</ele>
        <time>2022-05-08T07:09:26.000Z</time>
      </trkpt>
      <trkpt lat="47.2556" lon="-2.33037">
        <ele>2.4000000953674</ele>
        <time>2022-05-08T07:09:29.000Z</time>
      </trkpt>
      <trkpt lat="47.25564" lon="-2.33037">
        <ele>2.7999999523163</ele>
        <time>2022-05-08T07:09:30.000Z</time>
      </trkpt>
      <trkpt lat="47.25567" lon="-2.33036">
        <ele>3.2000000476837</ele>
        <time>2022-05-08T07:09:31.000Z</time>
      </trkpt>
      <trkpt lat="47.25571" lon="-2.33035">
        <ele>3.5999999046326</ele>
        <time>2022-05-08T07:09:32.000Z</time>
      </trkpt>
      <trkpt lat="47.25574" lon="-2.33034">
        <ele>4.1999998092651</ele>
        <time>2022-05-08T07:09:33.000Z</time>
      </trkpt>
      <trkpt lat="47.256" lon="-2.33031">
        <ele>4.1999998092651</ele>
        <time>2022-05-08T07:09:40.000Z</time>
      </trkpt>
      <trkpt lat="47.25614" lon="-2.33018">
        <ele>4.1999998092651</ele>
        <time>2022-05-08T07:09:45.000Z</time>
      </trkpt>
      <trkpt lat="47.25615" lon="-2.33011">
        <ele>4.5999999046326</ele>
        <time>2022-05-08T07:09:46.000Z</time>
      </trkpt>
      <trkpt lat="47.25615" lon="-2.33005">
        <ele>5</ele>
        <time>2022-05-08T07:09:47.000Z</time>
      </trkpt>
      <trkpt lat="47.25614" lon="-2.33">
        <ele>5.4000000953674</ele>
        <time>2022-05-08T07:09:48.000Z</time>
      </trkpt>
      <trkpt lat="47.25613" lon="-2.32994">
        <ele>5.8000001907349</ele>
        <time>2022-05-08T07:09:49.000Z</time>
      </trkpt>
      <trkpt lat="47.25612" lon="-2.32988">
        <ele>6.1999998092651</ele>
        <time>2022-05-08T07:09:50.000Z</time>
      </trkpt>
      <trkpt lat="47.25608" lon="-2.3296">
        <ele>6.1999998092651</ele>
        <time>2022-05-08T07:09:55.000Z</time>
      </trkpt>
      <trkpt lat="47.25605" lon="-2.32941">
        <ele>6.1999998092651</ele>
        <time>2022-05-08T07:09:58.000Z</time>
      </trkpt>
      <trkpt lat="47.25602" lon="-2.32922">
        <ele>6.1999998092651</ele>
        <time>2022-05-08T07:10:01.000Z</time>
      </trkpt>
      <trkpt lat="47.25596" lon="-2.3289">
        <ele>6.5999999046326</ele>
        <time>2022-05-08T07:10:06.000Z</time>
      </trkpt>
      <trkpt lat="47.25595" lon="-2.32883">
        <ele>7</ele>
        <time>2022-05-08T07:10:07.000Z</time>
      </trkpt>
      <trkpt lat="47.25595" lon="-2.32877">
        <ele>7.4000000953674</ele>
        <time>2022-05-08T07:10:08.000Z</time>
      </trkpt>
      <trkpt lat="47.25594" lon="-2.3287">
        <ele>8.3999996185303</ele>
        <time>2022-05-08T07:10:09.000Z</time>
      </trkpt>
      <trkpt lat="47.25591" lon="-2.32832">
        <ele>8.3999996185303</ele>
        <time>2022-05-08T07:10:15.000Z</time>
      </trkpt>
      <trkpt lat="47.25591" lon="-2.32825">
        <ele>8.3999996185303</ele>
        <time>2022-05-08T07:10:16.000Z</time>
      </trkpt>
      <trkpt lat="47.25594" lon="-2.32812">
        <ele>8.3999996185303</ele>
        <time>2022-05-08T07:10:18.000Z</time>
      </trkpt>
      <trkpt lat="47.25596" lon="-2.32798">
        <ele>8.3999996185303</ele>
        <time>2022-05-08T07:10:20.000Z</time>
      </trkpt>
      <trkpt lat="47.256" lon="-2.32778">
        <ele>8.3999996185303</ele>
        <time>2022-05-08T07:10:23.000Z</time>
      </trkpt>
      <trkpt lat="47.25602" lon="-2.32751">
        <ele>8.3999996185303</ele>
        <time>2022-05-08T07:10:27.000Z</time>
      </trkpt>
      <trkpt lat="47.25605" lon="-2.32706">
        <ele>8.3999996185303</ele>
        <time>2022-05-08T07:10:34.000Z</time>
      </trkpt>
      <trkpt lat="47.25605" lon="-2.32681">
        <ele>8.3999996185303</ele>
        <time>2022-05-08T07:10:38.000Z</time>
      </trkpt>
      <trkpt lat="47.25608" lon="-2.32668">
        <ele>8.3999996185303</ele>
        <time>2022-05-08T07:10:41.000Z</time>
      </trkpt>
      <trkpt lat="47.2562" lon="-2.32657">
        <ele>8.3999996185303</ele>
        <time>2022-05-08T07:10:45.000Z</time>
      </trkpt>
      <trkpt lat="47.25628" lon="-2.32652">
        <ele>8.3999996185303</ele>
        <time>2022-05-08T07:10:47.000Z</time>
      </trkpt>
      <trkpt lat="47.25638" lon="-2.32648">
        <ele>8.3999996185303</ele>
        <time>2022-05-08T07:10:49.000Z</time>
      </trkpt>
      <trkpt lat="47.25643" lon="-2.32646">
        <ele>8.3999996185303</ele>
        <time>2022-05-08T07:10:50.000Z</time>
      </trkpt>
      <trkpt lat="47.25677" lon="-2.32632">
        <ele>8.3999996185303</ele>
        <time>2022-05-08T07:10:57.000Z</time>
      </trkpt>
      <trkpt lat="47.25706" lon="-2.32616">
        <ele>7.8000001907349</ele>
        <time>2022-05-08T07:11:03.000Z</time>
      </trkpt>
      <trkpt lat="47.25709" lon="-2.32611">
        <ele>7.4000000953674</ele>
        <time>2022-05-08T07:11:04.000Z</time>
      </trkpt>
      <trkpt lat="47.2571" lon="-2.32606">
        <ele>6.8000001907349</ele>
        <time>2022-05-08T07:11:05.000Z</time>
      </trkpt>
      <trkpt lat="47.2571" lon="-2.32598">
        <ele>6.4000000953674</ele>
        <time>2022-05-08T07:11:06.000Z</time>
      </trkpt>
      <trkpt lat="47.25709" lon="-2.32591">
        <ele>5.8000001907349</ele>
        <time>2022-05-08T07:11:07.000Z</time>
      </trkpt>
      <trkpt lat="47.25703" lon="-2.3257">
        <ele>5.8000001907349</ele>
        <time>2022-05-08T07:11:10.000Z</time>
      </trkpt>
      <trkpt lat="47.25688" lon="-2.32525">
        <ele>5.8000001907349</ele>
        <time>2022-05-08T07:11:16.000Z</time>
      </trkpt>
      <trkpt lat="47.25678" lon="-2.32491">
        <ele>5.4000000953674</ele>
        <time>2022-05-08T07:11:20.000Z</time>
      </trkpt>
      <trkpt lat="47.25676" lon="-2.32483">
        <ele>5</ele>
        <time>2022-05-08T07:11:21.000Z</time>
      </trkpt>
      <trkpt lat="47.25673" lon="-2.32476">
        <ele>4.5999999046326</ele>
        <time>2022-05-08T07:11:22.000Z</time>
      </trkpt>
      <trkpt lat="47.2567" lon="-2.32468">
        <ele>3.5999999046326</ele>
        <time>2022-05-08T07:11:23.000Z</time>
      </trkpt>
      <trkpt lat="47.25661" lon="-2.32436">
        <ele>3.5999999046326</ele>
        <time>2022-05-08T07:11:27.000Z</time>
      </trkpt>
      <trkpt lat="47.2566" lon="-2.32428">
        <ele>3.5999999046326</ele>
        <time>2022-05-08T07:11:28.000Z</time>
      </trkpt>
      <trkpt lat="47.25657" lon="-2.32414">
        <ele>3.5999999046326</ele>
        <time>2022-05-08T07:11:30.000Z</time>
      </trkpt>
      <trkpt lat="47.25661" lon="-2.32401">
        <ele>3.5999999046326</ele>
        <time>2022-05-08T07:11:33.000Z</time>
      </trkpt>
      <trkpt lat="47.25664" lon="-2.32402">
        <ele>3.2000000476837</ele>
        <time>2022-05-08T07:11:34.000Z</time>
      </trkpt>
      <trkpt lat="47.25667" lon="-2.32406">
        <ele>2.7999999523163</ele>
        <time>2022-05-08T07:11:35.000Z</time>
      </trkpt>
      <trkpt lat="47.25669" lon="-2.32411">
        <ele>2.4000000953674</ele>
        <time>2022-05-08T07:11:36.000Z</time>
      </trkpt>
      <trkpt lat="47.25673" lon="-2.32415">
        <ele>2</ele>
        <time>2022-05-08T07:11:37.000Z</time>
      </trkpt>
      <trkpt lat="47.25677" lon="-2.32419">
        <ele>1.6000000238419</ele>
        <time>2022-05-08T07:11:38.000Z</time>
      </trkpt>
      <trkpt lat="47.25688" lon="-2.32421">
        <ele>1.6000000238419</ele>
        <time>2022-05-08T07:11:40.000Z</time>
      </trkpt>
      <trkpt lat="47.25721" lon="-2.32424">
        <ele>1.6000000238419</ele>
        <time>2022-05-08T07:11:46.000Z</time>
      </trkpt>
      <trkpt lat="47.25758" lon="-2.32423">
        <ele>1.6000000238419</ele>
        <time>2022-05-08T07:11:53.000Z</time>
      </trkpt>
      <trkpt lat="47.25766" lon="-2.32418">
        <ele>1.6000000238419</ele>
        <time>2022-05-08T07:11:55.000Z</time>
      </trkpt>
      <trkpt lat="47.25774" lon="-2.32415">
        <ele>1.6000000238419</ele>
        <time>2022-05-08T07:11:57.000Z</time>
      </trkpt>
      <trkpt lat="47.25786" lon="-2.32426">
        <ele>1.6000000238419</ele>
        <time>2022-05-08T07:12:00.000Z</time>
      </trkpt>
      <trkpt lat="47.25791" lon="-2.32437">
        <ele>1.6000000238419</ele>
        <time>2022-05-08T07:12:02.000Z</time>
      </trkpt>
      <trkpt lat="47.25798" lon="-2.3245">
        <ele>1.6000000238419</ele>
        <time>2022-05-08T07:12:04.000Z</time>
      </trkpt>
      <trkpt lat="47.25803" lon="-2.32455">
        <ele>1.6000000238419</ele>
        <time>2022-05-08T07:12:05.000Z</time>
      </trkpt>
      <trkpt lat="47.25818" lon="-2.32465">
        <ele>1.6000000238419</ele>
        <time>2022-05-08T07:12:08.000Z</time>
      </trkpt>
      <trkpt lat="47.25834" lon="-2.32472">
        <ele>1.6000000238419</ele>
        <time>2022-05-08T07:12:11.000Z</time>
      </trkpt>
      <trkpt lat="47.25855" lon="-2.32477">
        <ele>1.6000000238419</ele>
        <time>2022-05-08T07:12:15.000Z</time>
      </trkpt>
      <trkpt lat="47.25866" lon="-2.32476">
        <ele>1.6000000238419</ele>
        <time>2022-05-08T07:12:17.000Z</time>
      </trkpt>
      <trkpt lat="47.25887" lon="-2.32471">
        <ele>1.6000000238419</ele>
        <time>2022-05-08T07:12:21.000Z</time>
      </trkpt>
      <trkpt lat="47.25893" lon="-2.32468">
        <ele>1.6000000238419</ele>
        <time>2022-05-08T07:12:22.000Z</time>
      </trkpt>
      <trkpt lat="47.25906" lon="-2.32453">
        <ele>1.6000000238419</ele>
        <time>2022-05-08T07:12:25.000Z</time>
      </trkpt>
      <trkpt lat="47.25914" lon="-2.32442">
        <ele>1.6000000238419</ele>
        <time>2022-05-08T07:12:27.000Z</time>
      </trkpt>
      <trkpt lat="47.25922" lon="-2.3243">
        <ele>1.6000000238419</ele>
        <time>2022-05-08T07:12:29.000Z</time>
      </trkpt>
      <trkpt lat="47.25935" lon="-2.32413">
        <ele>1.6000000238419</ele>
        <time>2022-05-08T07:12:32.000Z</time>
      </trkpt>
      <trkpt lat="47.25947" lon="-2.32396">
        <ele>1.6000000238419</ele>
        <time>2022-05-08T07:12:35.000Z</time>
      </trkpt>
      <trkpt lat="47.2596" lon="-2.32382">
        <ele>1.6000000238419</ele>
        <time>2022-05-08T07:12:38.000Z</time>
      </trkpt>
      <trkpt lat="47.25989" lon="-2.32343">
        <ele>1.6000000238419</ele>
        <time>2022-05-08T07:12:45.000Z</time>
      </trkpt>
      <trkpt lat="47.26017" lon="-2.32307">
        <ele>1.6000000238419</ele>
        <time>2022-05-08T07:12:52.000Z</time>
      </trkpt>
      <trkpt lat="47.2605" lon="-2.3227">
        <ele>1.6000000238419</ele>
        <time>2022-05-08T07:13:00.000Z</time>
      </trkpt>
      <trkpt lat="47.26075" lon="-2.32241">
        <ele>1.6000000238419</ele>
        <time>2022-05-08T07:13:06.000Z</time>
      </trkpt>
      <trkpt lat="47.2609" lon="-2.3222">
        <ele>1.6000000238419</ele>
        <time>2022-05-08T07:13:10.000Z</time>
      </trkpt>
      <trkpt lat="47.26097" lon="-2.32208">
        <ele>1.6000000238419</ele>
        <time>2022-05-08T07:13:12.000Z</time>
      </trkpt>
      <trkpt lat="47.26112" lon="-2.32174">
        <ele>1.6000000238419</ele>
        <time>2022-05-08T07:13:17.000Z</time>
      </trkpt>
      <trkpt lat="47.26133" lon="-2.32113">
        <ele>1.6000000238419</ele>
        <time>2022-05-08T07:13:25.000Z</time>
      </trkpt>
      <trkpt lat="47.26154" lon="-2.32044">
        <ele>1.6000000238419</ele>
        <time>2022-05-08T07:13:34.000Z</time>
      </trkpt>
      <trkpt lat="47.26158" lon="-2.3203">
        <ele>1.6000000238419</ele>
        <time>2022-05-08T07:13:36.000Z</time>
      </trkpt>
      <trkpt lat="47.26163" lon="-2.32022">
        <ele>1.6000000238419</ele>
        <time>2022-05-08T07:13:38.000Z</time>
      </trkpt>
      <trkpt lat="47.26174" lon="-2.3202">
        <ele>1.6000000238419</ele>
        <time>2022-05-08T07:13:41.000Z</time>
      </trkpt>
      <trkpt lat="47.26187" lon="-2.32025">
        <ele>1.6000000238419</ele>
        <time>2022-05-08T07:13:45.000Z</time>
      </trkpt>
      <trkpt lat="47.26192" lon="-2.32025">
        <ele>1.6000000238419</ele>
        <time>2022-05-08T07:13:47.000Z</time>
      </trkpt>
      <trkpt lat="47.26195" lon="-2.3202">
        <ele>1.6000000238419</ele>
        <time>2022-05-08T07:13:49.000Z</time>
      </trkpt>
      <trkpt lat="47.262" lon="-2.32007">
        <ele>1.6000000238419</ele>
        <time>2022-05-08T07:13:53.000Z</time>
      </trkpt>
      <trkpt lat="47.26208" lon="-2.32001">
        <ele>1.6000000238419</ele>
        <time>2022-05-08T07:13:56.000Z</time>
      </trkpt>
      <trkpt lat="47.26216" lon="-2.31992">
        <ele>1.6000000238419</ele>
        <time>2022-05-08T07:13:59.000Z</time>
      </trkpt>
      <trkpt lat="47.26226" lon="-2.31978">
        <ele>1.6000000238419</ele>
        <time>2022-05-08T07:14:02.000Z</time>
      </trkpt>
      <trkpt lat="47.26238" lon="-2.31968">
        <ele>1.6000000238419</ele>
        <time>2022-05-08T07:14:05.000Z</time>
      </trkpt>
      <trkpt lat="47.26247" lon="-2.31951">
        <ele>1.6000000238419</ele>
        <time>2022-05-08T07:14:09.000Z</time>
      </trkpt>
      <trkpt lat="47.26255" lon="-2.31934">
        <ele>1.6000000238419</ele>
        <time>2022-05-08T07:14:13.000Z</time>
      </trkpt>
      <trkpt lat="47.26279" lon="-2.31907">
        <ele>1.6000000238419</ele>
        <time>2022-05-08T07:14:19.000Z</time>
      </trkpt>
      <trkpt lat="47.26284" lon="-2.31903">
        <ele>1.6000000238419</ele>
        <time>2022-05-08T07:14:20.000Z</time>
      </trkpt>
      <trkpt lat="47.2629" lon="-2.31905">
        <ele>1.6000000238419</ele>
        <time>2022-05-08T07:14:22.000Z</time>
      </trkpt>
      <trkpt lat="47.26293" lon="-2.3192">
        <ele>1.6000000238419</ele>
        <time>2022-05-08T07:14:26.000Z</time>
      </trkpt>
      <trkpt lat="47.26298" lon="-2.31935">
        <ele>1.6000000238419</ele>
        <time>2022-05-08T07:14:30.000Z</time>
      </trkpt>
      <trkpt lat="47.26314" lon="-2.31934">
        <ele>1.6000000238419</ele>
        <time>2022-05-08T07:14:34.000Z</time>
      </trkpt>
      <trkpt lat="47.26318" lon="-2.31933">
        <ele>1.6000000238419</ele>
        <time>2022-05-08T07:14:35.000Z</time>
      </trkpt>
      <trkpt lat="47.26337" lon="-2.31939">
        <ele>1.6000000238419</ele>
        <time>2022-05-08T07:14:39.000Z</time>
      </trkpt>
      <trkpt lat="47.26341" lon="-2.31944">
        <ele>1.6000000238419</ele>
        <time>2022-05-08T07:14:40.000Z</time>
      </trkpt>
      <trkpt lat="47.26354" lon="-2.31968">
        <ele>1.6000000238419</ele>
        <time>2022-05-08T07:14:45.000Z</time>
      </trkpt>
      <trkpt lat="47.26367" lon="-2.31983">
        <ele>2</ele>
        <time>2022-05-08T07:14:49.000Z</time>
      </trkpt>
      <trkpt lat="47.26371" lon="-2.31985">
        <ele>2.4000000953674</ele>
        <time>2022-05-08T07:14:50.000Z</time>
      </trkpt>
      <trkpt lat="47.26374" lon="-2.31987">
        <ele>2.7999999523163</ele>
        <time>2022-05-08T07:14:51.000Z</time>
      </trkpt>
      <trkpt lat="47.26378" lon="-2.31988">
        <ele>3.2000000476837</ele>
        <time>2022-05-08T07:14:52.000Z</time>
      </trkpt>
      <trkpt lat="47.26382" lon="-2.31988">
        <ele>3.7999999523163</ele>
        <time>2022-05-08T07:14:53.000Z</time>
      </trkpt>
      <trkpt lat="47.26385" lon="-2.31989">
        <ele>3.7999999523163</ele>
        <time>2022-05-08T07:14:54.000Z</time>
      </trkpt>
      <trkpt lat="47.26396" lon="-2.31992">
        <ele>4.1999998092651</ele>
        <time>2022-05-08T07:14:57.000Z</time>
      </trkpt>
      <trkpt lat="47.264" lon="-2.31994">
        <ele>4.5999999046326</ele>
        <time>2022-05-08T07:14:58.000Z</time>
      </trkpt>
      <trkpt lat="47.26403" lon="-2.31995">
        <ele>5</ele>
        <time>2022-05-08T07:14:59.000Z</time>
      </trkpt>
      <trkpt lat="47.26406" lon="-2.31996">
        <ele>5.4000000953674</ele>
        <time>2022-05-08T07:15:00.000Z</time>
      </trkpt>
      <trkpt lat="47.2641" lon="-2.31997">
        <ele>5.8000001907349</ele>
        <time>2022-05-08T07:15:01.000Z</time>
      </trkpt>
      <trkpt lat="47.26426" lon="-2.32">
        <ele>6.1999998092651</ele>
        <time>2022-05-08T07:15:05.000Z</time>
      </trkpt>
      <trkpt lat="47.26429" lon="-2.32">
        <ele>6.5999999046326</ele>
        <time>2022-05-08T07:15:06.000Z</time>
      </trkpt>
      <trkpt lat="47.26433" lon="-2.32">
        <ele>7</ele>
        <time>2022-05-08T07:15:07.000Z</time>
      </trkpt>
      <trkpt lat="47.26437" lon="-2.31999">
        <ele>7.4000000953674</ele>
        <time>2022-05-08T07:15:08.000Z</time>
      </trkpt>
      <trkpt lat="47.26441" lon="-2.31999">
        <ele>7.8000001907349</ele>
        <time>2022-05-08T07:15:09.000Z</time>
      </trkpt>
      <trkpt lat="47.26458" lon="-2.31999">
        <ele>8.1999998092651</ele>
        <time>2022-05-08T07:15:13.000Z</time>
      </trkpt>
      <trkpt lat="47.26462" lon="-2.31999">
        <ele>8.6000003814697</ele>
        <time>2022-05-08T07:15:14.000Z</time>
      </trkpt>
      <trkpt lat="47.26467" lon="-2.31999">
        <ele>9</ele>
        <time>2022-05-08T07:15:15.000Z</time>
      </trkpt>
      <trkpt lat="47.26471" lon="-2.32">
        <ele>9.3999996185303</ele>
        <time>2022-05-08T07:15:16.000Z</time>
      </trkpt>
      <trkpt lat="47.26475" lon="-2.32">
        <ele>9.8000001907349</ele>
        <time>2022-05-08T07:15:17.000Z</time>
      </trkpt>
      <trkpt lat="47.26497" lon="-2.32001">
        <ele>9.8000001907349</ele>
        <time>2022-05-08T07:15:22.000Z</time>
      </trkpt>
      <trkpt lat="47.26501" lon="-2.32001">
        <ele>10.39999961853</ele>
        <time>2022-05-08T07:15:23.000Z</time>
      </trkpt>
      <trkpt lat="47.26504" lon="-2.32">
        <ele>10.800000190735</ele>
        <time>2022-05-08T07:15:24.000Z</time>
      </trkpt>
      <trkpt lat="47.26508" lon="-2.32">
        <ele>11.199999809265</ele>
        <time>2022-05-08T07:15:25.000Z</time>
      </trkpt>
      <trkpt lat="47.26511" lon="-2.31999">
        <ele>11.60000038147</ele>
        <time>2022-05-08T07:15:26.000Z</time>
      </trkpt>
      <trkpt lat="47.26515" lon="-2.31998">
        <ele>12.199999809265</ele>
        <time>2022-05-08T07:15:27.000Z</time>
      </trkpt>
      <trkpt lat="47.2652" lon="-2.31998">
        <ele>12.60000038147</ele>
        <time>2022-05-08T07:15:29.000Z</time>
      </trkpt>
      <trkpt lat="47.26523" lon="-2.31999">
        <ele>13.39999961853</ele>
        <time>2022-05-08T07:15:30.000Z</time>
      </trkpt>
      <trkpt lat="47.26525" lon="-2.32">
        <ele>14</ele>
        <time>2022-05-08T07:15:31.000Z</time>
      </trkpt>
      <trkpt lat="47.26528" lon="-2.32002">
        <ele>14.39999961853</ele>
        <time>2022-05-08T07:15:32.000Z</time>
      </trkpt>
      <trkpt lat="47.26541" lon="-2.32021">
        <ele>14.39999961853</ele>
        <time>2022-05-08T07:15:38.000Z</time>
      </trkpt>
      <trkpt lat="47.26543" lon="-2.3203">
        <ele>14.800000190735</ele>
        <time>2022-05-08T07:15:40.000Z</time>
      </trkpt>
      <trkpt lat="47.26545" lon="-2.32033">
        <ele>15.199999809265</ele>
        <time>2022-05-08T07:15:41.000Z</time>
      </trkpt>
      <trkpt lat="47.26547" lon="-2.32035">
        <ele>15.60000038147</ele>
        <time>2022-05-08T07:15:42.000Z</time>
      </trkpt>
      <trkpt lat="47.26549" lon="-2.32036">
        <ele>16</ele>
        <time>2022-05-08T07:15:43.000Z</time>
      </trkpt>
      <trkpt lat="47.26552" lon="-2.32036">
        <ele>16.39999961853</ele>
        <time>2022-05-08T07:15:44.000Z</time>
      </trkpt>
      <trkpt lat="47.26555" lon="-2.32035">
        <ele>16.39999961853</ele>
        <time>2022-05-08T07:15:45.000Z</time>
      </trkpt>
      <trkpt lat="47.26561" lon="-2.32033">
        <ele>16.39999961853</ele>
        <time>2022-05-08T07:15:47.000Z</time>
      </trkpt>
      <trkpt lat="47.26582" lon="-2.32026">
        <ele>17.39999961853</ele>
        <time>2022-05-08T07:15:54.000Z</time>
      </trkpt>
      <trkpt lat="47.26584" lon="-2.32025">
        <ele>17.799999237061</ele>
        <time>2022-05-08T07:15:55.000Z</time>
      </trkpt>
      <trkpt lat="47.26586" lon="-2.32024">
        <ele>18.200000762939</ele>
        <time>2022-05-08T07:15:56.000Z</time>
      </trkpt>
      <trkpt lat="47.26588" lon="-2.32024">
        <ele>18.60000038147</ele>
        <time>2022-05-08T07:15:57.000Z</time>
      </trkpt>
      <trkpt lat="47.26596" lon="-2.3202">
        <ele>18.60000038147</ele>
        <time>2022-05-08T07:16:01.000Z</time>
      </trkpt>
      <trkpt lat="47.26617" lon="-2.32015">
        <ele>18.60000038147</ele>
        <time>2022-05-08T07:16:07.000Z</time>
      </trkpt>
      <trkpt lat="47.2662" lon="-2.32014">
        <ele>19</ele>
        <time>2022-05-08T07:16:08.000Z</time>
      </trkpt>
      <trkpt lat="47.26623" lon="-2.32012">
        <ele>19.39999961853</ele>
        <time>2022-05-08T07:16:09.000Z</time>
      </trkpt>
      <trkpt lat="47.26627" lon="-2.32011">
        <ele>19.799999237061</ele>
        <time>2022-05-08T07:16:10.000Z</time>
      </trkpt>
      <trkpt lat="47.26631" lon="-2.3201">
        <ele>20.200000762939</ele>
        <time>2022-05-08T07:16:11.000Z</time>
      </trkpt>
      <trkpt lat="47.26634" lon="-2.32008">
        <ele>20.60000038147</ele>
        <time>2022-05-08T07:16:12.000Z</time>
      </trkpt>
      <trkpt lat="47.26645" lon="-2.32005">
        <ele>20.60000038147</ele>
        <time>2022-05-08T07:16:17.000Z</time>
      </trkpt>
      <trkpt lat="47.26646" lon="-2.32005">
        <ele>20.60000038147</ele>
        <time>2022-05-08T07:16:18.000Z</time>
      </trkpt>
      <trkpt lat="47.26647" lon="-2.32006">
        <ele>20.60000038147</ele>
        <time>2022-05-08T07:16:44.000Z</time>
      </trkpt>
      <trkpt lat="47.26648" lon="-2.3201">
        <ele>20.60000038147</ele>
        <time>2022-05-08T07:16:46.000Z</time>
      </trkpt>
      <trkpt lat="47.26653" lon="-2.32021">
        <ele>20.60000038147</ele>
        <time>2022-05-08T07:16:49.000Z</time>
      </trkpt>
      <trkpt lat="47.26656" lon="-2.32031">
        <ele>20.60000038147</ele>
        <time>2022-05-08T07:16:51.000Z</time>
      </trkpt>
      <trkpt lat="47.26664" lon="-2.32069">
        <ele>20.60000038147</ele>
        <time>2022-05-08T07:16:58.000Z</time>
      </trkpt>
      <trkpt lat="47.26676" lon="-2.32118">
        <ele>20.60000038147</ele>
        <time>2022-05-08T07:17:07.000Z</time>
      </trkpt>
      <trkpt lat="47.26678" lon="-2.32121">
        <ele>20.60000038147</ele>
        <time>2022-05-08T07:17:08.000Z</time>
      </trkpt>
      <trkpt lat="47.26682" lon="-2.32119">
        <ele>20.60000038147</ele>
        <time>2022-05-08T07:17:10.000Z</time>
      </trkpt>
      <trkpt lat="47.26684" lon="-2.32101">
        <ele>20.60000038147</ele>
        <time>2022-05-08T07:17:14.000Z</time>
      </trkpt>
      <trkpt lat="47.26683" lon="-2.32096">
        <ele>20.60000038147</ele>
        <time>2022-05-08T07:17:15.000Z</time>
      </trkpt>
      <trkpt lat="47.26683" lon="-2.32066">
        <ele>20.60000038147</ele>
        <time>2022-05-08T07:17:20.000Z</time>
      </trkpt>
      <trkpt lat="47.26686" lon="-2.32035">
        <ele>20.60000038147</ele>
        <time>2022-05-08T07:17:26.000Z</time>
      </trkpt>
      <trkpt lat="47.26699" lon="-2.32008">
        <ele>20.60000038147</ele>
        <time>2022-05-08T07:17:32.000Z</time>
      </trkpt>
      <trkpt lat="47.26718" lon="-2.31993">
        <ele>20.60000038147</ele>
        <time>2022-05-08T07:17:37.000Z</time>
      </trkpt>
      <trkpt lat="47.26733" lon="-2.31983">
        <ele>20.200000762939</ele>
        <time>2022-05-08T07:17:40.000Z</time>
      </trkpt>
      <trkpt lat="47.26738" lon="-2.31978">
        <ele>19.799999237061</ele>
        <time>2022-05-08T07:17:41.000Z</time>
      </trkpt>
      <trkpt lat="47.26742" lon="-2.31973">
        <ele>19.39999961853</ele>
        <time>2022-05-08T07:17:42.000Z</time>
      </trkpt>
      <trkpt lat="47.26747" lon="-2.31967">
        <ele>19</ele>
        <time>2022-05-08T07:17:43.000Z</time>
      </trkpt>
      <trkpt lat="47.26751" lon="-2.31961">
        <ele>18.60000038147</ele>
        <time>2022-05-08T07:17:44.000Z</time>
      </trkpt>
      <trkpt lat="47.26758" lon="-2.3195">
        <ele>18.60000038147</ele>
        <time>2022-05-08T07:17:46.000Z</time>
      </trkpt>
      <trkpt lat="47.26765" lon="-2.31949">
        <ele>18.60000038147</ele>
        <time>2022-05-08T07:17:48.000Z</time>
      </trkpt>
      <trkpt lat="47.26772" lon="-2.31956">
        <ele>18.60000038147</ele>
        <time>2022-05-08T07:17:50.000Z</time>
      </trkpt>
      <trkpt lat="47.26775" lon="-2.31961">
        <ele>18.60000038147</ele>
        <time>2022-05-08T07:17:51.000Z</time>
      </trkpt>
      <trkpt lat="47.26778" lon="-2.31967">
        <ele>18.60000038147</ele>
        <time>2022-05-08T07:17:52.000Z</time>
      </trkpt>
      <trkpt lat="47.26782" lon="-2.31974">
        <ele>18.200000762939</ele>
        <time>2022-05-08T07:17:53.000Z</time>
      </trkpt>
      <trkpt lat="47.26786" lon="-2.31981">
        <ele>17.799999237061</ele>
        <time>2022-05-08T07:17:54.000Z</time>
      </trkpt>
      <trkpt lat="47.2679" lon="-2.31988">
        <ele>17.39999961853</ele>
        <time>2022-05-08T07:17:55.000Z</time>
      </trkpt>
      <trkpt lat="47.26795" lon="-2.31995">
        <ele>17</ele>
        <time>2022-05-08T07:17:56.000Z</time>
      </trkpt>
      <trkpt lat="47.26799" lon="-2.32002">
        <ele>16.60000038147</ele>
        <time>2022-05-08T07:17:57.000Z</time>
      </trkpt>
      <trkpt lat="47.26803" lon="-2.32011">
        <ele>16.60000038147</ele>
        <time>2022-05-08T07:17:58.000Z</time>
      </trkpt>
      <trkpt lat="47.2681" lon="-2.32028">
        <ele>16.60000038147</ele>
        <time>2022-05-08T07:18:00.000Z</time>
      </trkpt>
      <trkpt lat="47.26813" lon="-2.32038">
        <ele>16.200000762939</ele>
        <time>2022-05-08T07:18:01.000Z</time>
      </trkpt>
      <trkpt lat="47.26816" lon="-2.32047">
        <ele>15.800000190735</ele>
        <time>2022-05-08T07:18:02.000Z</time>
      </trkpt>
      <trkpt lat="47.26819" lon="-2.32056">
        <ele>15.39999961853</ele>
        <time>2022-05-08T07:18:03.000Z</time>
      </trkpt>
      <trkpt lat="47.26821" lon="-2.32065">
        <ele>15</ele>
        <time>2022-05-08T07:18:04.000Z</time>
      </trkpt>
      <trkpt lat="47.26824" lon="-2.32074">
        <ele>14.60000038147</ele>
        <time>2022-05-08T07:18:05.000Z</time>
      </trkpt>
      <trkpt lat="47.26829" lon="-2.32091">
        <ele>14.60000038147</ele>
        <time>2022-05-08T07:18:07.000Z</time>
      </trkpt>
      <trkpt lat="47.26843" lon="-2.32141">
        <ele>14.60000038147</ele>
        <time>2022-05-08T07:18:13.000Z</time>
      </trkpt>
      <trkpt lat="47.26851" lon="-2.32163">
        <ele>14.199999809265</ele>
        <time>2022-05-08T07:18:16.000Z</time>
      </trkpt>
      <trkpt lat="47.26854" lon="-2.32171">
        <ele>13.800000190735</ele>
        <time>2022-05-08T07:18:17.000Z</time>
      </trkpt>
      <trkpt lat="47.26857" lon="-2.32178">
        <ele>13.39999961853</ele>
        <time>2022-05-08T07:18:18.000Z</time>
      </trkpt>
      <trkpt lat="47.2686" lon="-2.32186">
        <ele>13</ele>
        <time>2022-05-08T07:18:19.000Z</time>
      </trkpt>
      <trkpt lat="47.26863" lon="-2.32193">
        <ele>12.60000038147</ele>
        <time>2022-05-08T07:18:20.000Z</time>
      </trkpt>
      <trkpt lat="47.26878" lon="-2.32226">
        <ele>12.60000038147</ele>
        <time>2022-05-08T07:18:25.000Z</time>
      </trkpt>
      <trkpt lat="47.26884" lon="-2.32236">
        <ele>12.199999809265</ele>
        <time>2022-05-08T07:18:27.000Z</time>
      </trkpt>
      <trkpt lat="47.26887" lon="-2.32241">
        <ele>11.60000038147</ele>
        <time>2022-05-08T07:18:28.000Z</time>
      </trkpt>
      <trkpt lat="47.26891" lon="-2.32246">
        <ele>11.199999809265</ele>
        <time>2022-05-08T07:18:29.000Z</time>
      </trkpt>
      <trkpt lat="47.26895" lon="-2.3225">
        <ele>10.800000190735</ele>
        <time>2022-05-08T07:18:30.000Z</time>
      </trkpt>
      <trkpt lat="47.26898" lon="-2.32256">
        <ele>10.199999809265</ele>
        <time>2022-05-08T07:18:31.000Z</time>
      </trkpt>
      <trkpt lat="47.26913" lon="-2.32282">
        <ele>10.199999809265</ele>
        <time>2022-05-08T07:18:35.000Z</time>
      </trkpt>
      <trkpt lat="47.26919" lon="-2.32296">
        <ele>10.199999809265</ele>
        <time>2022-05-08T07:18:37.000Z</time>
      </trkpt>
      <trkpt lat="47.26921" lon="-2.32304">
        <ele>9.8000001907349</ele>
        <time>2022-05-08T07:18:38.000Z</time>
      </trkpt>
      <trkpt lat="47.26922" lon="-2.3231">
        <ele>9.3999996185303</ele>
        <time>2022-05-08T07:18:39.000Z</time>
      </trkpt>
      <trkpt lat="47.26923" lon="-2.32316">
        <ele>9</ele>
        <time>2022-05-08T07:18:40.000Z</time>
      </trkpt>
      <trkpt lat="47.26924" lon="-2.32321">
        <ele>8.6000003814697</ele>
        <time>2022-05-08T07:18:41.000Z</time>
      </trkpt>
      <trkpt lat="47.26925" lon="-2.32326">
        <ele>8.1999998092651</ele>
        <time>2022-05-08T07:18:42.000Z</time>
      </trkpt>
      <trkpt lat="47.26928" lon="-2.32333">
        <ele>8.1999998092651</ele>
        <time>2022-05-08T07:18:44.000Z</time>
      </trkpt>
      <trkpt lat="47.26938" lon="-2.32352">
        <ele>8.1999998092651</ele>
        <time>2022-05-08T07:18:48.000Z</time>
      </trkpt>
      <trkpt lat="47.26953" lon="-2.32391">
        <ele>8.1999998092651</ele>
        <time>2022-05-08T07:18:54.000Z</time>
      </trkpt>
      <trkpt lat="47.26963" lon="-2.32416">
        <ele>8.1999998092651</ele>
        <time>2022-05-08T07:18:57.000Z</time>
      </trkpt>
      <trkpt lat="47.26975" lon="-2.32437">
        <ele>8.1999998092651</ele>
        <time>2022-05-08T07:19:00.000Z</time>
      </trkpt>
      <trkpt lat="47.26986" lon="-2.32456">
        <ele>7.8000001907349</ele>
        <time>2022-05-08T07:19:03.000Z</time>
      </trkpt>
      <trkpt lat="47.2699" lon="-2.32462">
        <ele>7.4000000953674</ele>
        <time>2022-05-08T07:19:04.000Z</time>
      </trkpt>
      <trkpt lat="47.26993" lon="-2.32469">
        <ele>7</ele>
        <time>2022-05-08T07:19:05.000Z</time>
      </trkpt>
      <trkpt lat="47.26996" lon="-2.32477">
        <ele>6.5999999046326</ele>
        <time>2022-05-08T07:19:06.000Z</time>
      </trkpt>
      <trkpt lat="47.26999" lon="-2.32484">
        <ele>6.1999998092651</ele>
        <time>2022-05-08T07:19:07.000Z</time>
      </trkpt>
      <trkpt lat="47.27006" lon="-2.32496">
        <ele>6.1999998092651</ele>
        <time>2022-05-08T07:19:09.000Z</time>
      </trkpt>
      <trkpt lat="47.2701" lon="-2.32499">
        <ele>6.1999998092651</ele>
        <time>2022-05-08T07:19:10.000Z</time>
      </trkpt>
      <trkpt lat="47.27024" lon="-2.32496">
        <ele>6.1999998092651</ele>
        <time>2022-05-08T07:19:13.000Z</time>
      </trkpt>
      <trkpt lat="47.27028" lon="-2.32494">
        <ele>6.1999998092651</ele>
        <time>2022-05-08T07:19:14.000Z</time>
      </trkpt>
      <trkpt lat="47.27033" lon="-2.32483">
        <ele>6.1999998092651</ele>
        <time>2022-05-08T07:19:16.000Z</time>
      </trkpt>
      <trkpt lat="47.27035" lon="-2.32451">
        <ele>6.1999998092651</ele>
        <time>2022-05-08T07:19:20.000Z</time>
      </trkpt>
      <trkpt lat="47.27034" lon="-2.32442">
        <ele>6.1999998092651</ele>
        <time>2022-05-08T07:19:21.000Z</time>
      </trkpt>
      <trkpt lat="47.2703" lon="-2.32399">
        <ele>6.1999998092651</ele>
        <time>2022-05-08T07:19:26.000Z</time>
      </trkpt>
      <trkpt lat="47.27025" lon="-2.32351">
        <ele>6.1999998092651</ele>
        <time>2022-05-08T07:19:32.000Z</time>
      </trkpt>
      <trkpt lat="47.27023" lon="-2.32316">
        <ele>5.8000001907349</ele>
        <time>2022-05-08T07:19:36.000Z</time>
      </trkpt>
      <trkpt lat="47.27023" lon="-2.32307">
        <ele>5.4000000953674</ele>
        <time>2022-05-08T07:19:37.000Z</time>
      </trkpt>
      <trkpt lat="47.27024" lon="-2.32298">
        <ele>5</ele>
        <time>2022-05-08T07:19:38.000Z</time>
      </trkpt>
      <trkpt lat="47.27024" lon="-2.32289">
        <ele>4.5999999046326</ele>
        <time>2022-05-08T07:19:39.000Z</time>
      </trkpt>
      <trkpt lat="47.27024" lon="-2.3228">
        <ele>4.1999998092651</ele>
        <time>2022-05-08T07:19:40.000Z</time>
      </trkpt>
      <trkpt lat="47.27023" lon="-2.32248">
        <ele>4.1999998092651</ele>
        <time>2022-05-08T07:19:44.000Z</time>
      </trkpt>
      <trkpt lat="47.27015" lon="-2.32202">
        <ele>4.1999998092651</ele>
        <time>2022-05-08T07:19:50.000Z</time>
      </trkpt>
      <trkpt lat="47.27013" lon="-2.32195">
        <ele>4.1999998092651</ele>
        <time>2022-05-08T07:19:51.000Z</time>
      </trkpt>
      <trkpt lat="47.27007" lon="-2.32181">
        <ele>4.1999998092651</ele>
        <time>2022-05-08T07:19:53.000Z</time>
      </trkpt>
      <trkpt lat="47.26992" lon="-2.32164">
        <ele>4.1999998092651</ele>
        <time>2022-05-08T07:19:56.000Z</time>
      </trkpt>
      <trkpt lat="47.26987" lon="-2.32158">
        <ele>4.1999998092651</ele>
        <time>2022-05-08T07:19:57.000Z</time>
      </trkpt>
      <trkpt lat="47.26985" lon="-2.32147">
        <ele>4.1999998092651</ele>
        <time>2022-05-08T07:19:59.000Z</time>
      </trkpt>
      <trkpt lat="47.26991" lon="-2.32133">
        <ele>4.1999998092651</ele>
        <time>2022-05-08T07:20:03.000Z</time>
      </trkpt>
      <trkpt lat="47.27002" lon="-2.32114">
        <ele>4.1999998092651</ele>
        <time>2022-05-08T07:20:08.000Z</time>
      </trkpt>
      <trkpt lat="47.27007" lon="-2.32097">
        <ele>4.1999998092651</ele>
        <time>2022-05-08T07:20:11.000Z</time>
      </trkpt>
      <trkpt lat="47.27008" lon="-2.3209">
        <ele>4.5999999046326</ele>
        <time>2022-05-08T07:20:12.000Z</time>
      </trkpt>
      <trkpt lat="47.27009" lon="-2.32082">
        <ele>5</ele>
        <time>2022-05-08T07:20:13.000Z</time>
      </trkpt>
      <trkpt lat="47.27009" lon="-2.32074">
        <ele>5.4000000953674</ele>
        <time>2022-05-08T07:20:14.000Z</time>
      </trkpt>
      <trkpt lat="47.2701" lon="-2.32067">
        <ele>5.8000001907349</ele>
        <time>2022-05-08T07:20:15.000Z</time>
      </trkpt>
      <trkpt lat="47.2701" lon="-2.3206">
        <ele>6.1999998092651</ele>
        <time>2022-05-08T07:20:16.000Z</time>
      </trkpt>
      <trkpt lat="47.2701" lon="-2.32042">
        <ele>6.1999998092651</ele>
        <time>2022-05-08T07:20:19.000Z</time>
      </trkpt>
      <trkpt lat="47.27009" lon="-2.32036">
        <ele>6.1999998092651</ele>
        <time>2022-05-08T07:20:20.000Z</time>
      </trkpt>
      <trkpt lat="47.27005" lon="-2.32018">
        <ele>6.5999999046326</ele>
        <time>2022-05-08T07:20:23.000Z</time>
      </trkpt>
      <trkpt lat="47.27004" lon="-2.32013">
        <ele>7</ele>
        <time>2022-05-08T07:20:24.000Z</time>
      </trkpt>
      <trkpt lat="47.27003" lon="-2.32008">
        <ele>7.8000001907349</ele>
        <time>2022-05-08T07:20:25.000Z</time>
      </trkpt>
      <trkpt lat="47.27002" lon="-2.32002">
        <ele>8.1999998092651</ele>
        <time>2022-05-08T07:20:26.000Z</time>
      </trkpt>
      <trkpt lat="47.27003" lon="-2.3199">
        <ele>8.1999998092651</ele>
        <time>2022-05-08T07:20:28.000Z</time>
      </trkpt>
      <trkpt lat="47.27007" lon="-2.31982">
        <ele>8.1999998092651</ele>
        <time>2022-05-08T07:20:30.000Z</time>
      </trkpt>
      <trkpt lat="47.27019" lon="-2.3197">
        <ele>8.1999998092651</ele>
        <time>2022-05-08T07:20:34.000Z</time>
      </trkpt>
      <trkpt lat="47.27039" lon="-2.31959">
        <ele>8.1999998092651</ele>
        <time>2022-05-08T07:20:39.000Z</time>
      </trkpt>
      <trkpt lat="47.27044" lon="-2.3196">
        <ele>8.1999998092651</ele>
        <time>2022-05-08T07:20:40.000Z</time>
      </trkpt>
      <trkpt lat="47.27062" lon="-2.31962">
        <ele>8.1999998092651</ele>
        <time>2022-05-08T07:20:44.000Z</time>
      </trkpt>
      <trkpt lat="47.27068" lon="-2.31959">
        <ele>8.1999998092651</ele>
        <time>2022-05-08T07:20:47.000Z</time>
      </trkpt>
      <trkpt lat="47.27069" lon="-2.31956">
        <ele>8.1999998092651</ele>
        <time>2022-05-08T07:20:48.000Z</time>
      </trkpt>
      <trkpt lat="47.27072" lon="-2.31939">
        <ele>8.1999998092651</ele>
        <time>2022-05-08T07:20:53.000Z</time>
      </trkpt>
      <trkpt lat="47.27074" lon="-2.31926">
        <ele>8.1999998092651</ele>
        <time>2022-05-08T07:20:57.000Z</time>
      </trkpt>
      <trkpt lat="47.2707" lon="-2.31908">
        <ele>8.1999998092651</ele>
        <time>2022-05-08T07:21:02.000Z</time>
      </trkpt>
      <trkpt lat="47.27069" lon="-2.31904">
        <ele>8.6000003814697</ele>
        <time>2022-05-08T07:21:03.000Z</time>
      </trkpt>
      <trkpt lat="47.27069" lon="-2.31901">
        <ele>9</ele>
        <time>2022-05-08T07:21:04.000Z</time>
      </trkpt>
      <trkpt lat="47.27069" lon="-2.31898">
        <ele>9.3999996185303</ele>
        <time>2022-05-08T07:21:05.000Z</time>
      </trkpt>
      <trkpt lat="47.27069" lon="-2.31895">
        <ele>10</ele>
        <time>2022-05-08T07:21:06.000Z</time>
      </trkpt>
      <trkpt lat="47.2707" lon="-2.31891">
        <ele>10.39999961853</ele>
        <time>2022-05-08T07:21:07.000Z</time>
      </trkpt>
      <trkpt lat="47.2707" lon="-2.31888">
        <ele>10.39999961853</ele>
        <time>2022-05-08T07:21:08.000Z</time>
      </trkpt>
      <trkpt lat="47.27075" lon="-2.31867">
        <ele>10.39999961853</ele>
        <time>2022-05-08T07:21:13.000Z</time>
      </trkpt>
      <trkpt lat="47.27063" lon="-2.31851">
        <ele>10.39999961853</ele>
        <time>2022-05-08T07:21:17.000Z</time>
      </trkpt>
      <trkpt lat="47.2706" lon="-2.3184">
        <ele>10.39999961853</ele>
        <time>2022-05-08T07:21:19.000Z</time>
      </trkpt>
      <trkpt lat="47.27059" lon="-2.3183">
        <ele>10.39999961853</ele>
        <time>2022-05-08T07:21:21.000Z</time>
      </trkpt>
      <trkpt lat="47.27058" lon="-2.31819">
        <ele>10.800000190735</ele>
        <time>2022-05-08T07:21:23.000Z</time>
      </trkpt>
      <trkpt lat="47.27058" lon="-2.31814">
        <ele>11.199999809265</ele>
        <time>2022-05-08T07:21:24.000Z</time>
      </trkpt>
      <trkpt lat="47.27057" lon="-2.31809">
        <ele>11.60000038147</ele>
        <time>2022-05-08T07:21:25.000Z</time>
      </trkpt>
      <trkpt lat="47.27057" lon="-2.31804">
        <ele>12</ele>
        <time>2022-05-08T07:21:26.000Z</time>
      </trkpt>
      <trkpt lat="47.27056" lon="-2.318">
        <ele>12.39999961853</ele>
        <time>2022-05-08T07:21:27.000Z</time>
      </trkpt>
      <trkpt lat="47.27055" lon="-2.31791">
        <ele>12.39999961853</ele>
        <time>2022-05-08T07:21:29.000Z</time>
      </trkpt>
      <trkpt lat="47.27052" lon="-2.3177">
        <ele>12.39999961853</ele>
        <time>2022-05-08T07:21:34.000Z</time>
      </trkpt>
      <trkpt lat="47.2705" lon="-2.31746">
        <ele>12.39999961853</ele>
        <time>2022-05-08T07:21:40.000Z</time>
      </trkpt>
      <trkpt lat="47.27052" lon="-2.3174">
        <ele>12.39999961853</ele>
        <time>2022-05-08T07:21:42.000Z</time>
      </trkpt>
      <trkpt lat="47.27055" lon="-2.31739">
        <ele>12.800000190735</ele>
        <time>2022-05-08T07:21:43.000Z</time>
      </trkpt>
      <trkpt lat="47.27058" lon="-2.31739">
        <ele>13.199999809265</ele>
        <time>2022-05-08T07:21:44.000Z</time>
      </trkpt>
      <trkpt lat="47.27061" lon="-2.31741">
        <ele>13.60000038147</ele>
        <time>2022-05-08T07:21:45.000Z</time>
      </trkpt>
      <trkpt lat="47.27065" lon="-2.31743">
        <ele>14</ele>
        <time>2022-05-08T07:21:46.000Z</time>
      </trkpt>
      <trkpt lat="47.27068" lon="-2.31746">
        <ele>14.39999961853</ele>
        <time>2022-05-08T07:21:47.000Z</time>
      </trkpt>
      <trkpt lat="47.27072" lon="-2.31749">
        <ele>14.39999961853</ele>
        <time>2022-05-08T07:21:48.000Z</time>
      </trkpt>
      <trkpt lat="47.27099" lon="-2.31771">
        <ele>14.39999961853</ele>
        <time>2022-05-08T07:21:54.000Z</time>
      </trkpt>
      <trkpt lat="47.27125" lon="-2.31795">
        <ele>14.39999961853</ele>
        <time>2022-05-08T07:21:59.000Z</time>
      </trkpt>
      <trkpt lat="47.2713" lon="-2.31802">
        <ele>14.39999961853</ele>
        <time>2022-05-08T07:22:00.000Z</time>
      </trkpt>
      <trkpt lat="47.27139" lon="-2.31815">
        <ele>14</ele>
        <time>2022-05-08T07:22:02.000Z</time>
      </trkpt>
      <trkpt lat="47.27144" lon="-2.31821">
        <ele>13.60000038147</ele>
        <time>2022-05-08T07:22:03.000Z</time>
      </trkpt>
      <trkpt lat="47.27148" lon="-2.31827">
        <ele>12.800000190735</ele>
        <time>2022-05-08T07:22:04.000Z</time>
      </trkpt>
      <trkpt lat="47.27153" lon="-2.31833">
        <ele>12.39999961853</ele>
        <time>2022-05-08T07:22:05.000Z</time>
      </trkpt>
      <trkpt lat="47.27161" lon="-2.31844">
        <ele>12.39999961853</ele>
        <time>2022-05-08T07:22:07.000Z</time>
      </trkpt>
      <trkpt lat="47.27189" lon="-2.31882">
        <ele>12</ele>
        <time>2022-05-08T07:22:13.000Z</time>
      </trkpt>
      <trkpt lat="47.27195" lon="-2.31888">
        <ele>11.60000038147</ele>
        <time>2022-05-08T07:22:14.000Z</time>
      </trkpt>
      <trkpt lat="47.272" lon="-2.31894">
        <ele>11.199999809265</ele>
        <time>2022-05-08T07:22:15.000Z</time>
      </trkpt>
      <trkpt lat="47.27205" lon="-2.31899">
        <ele>10.800000190735</ele>
        <time>2022-05-08T07:22:16.000Z</time>
      </trkpt>
      <trkpt lat="47.27209" lon="-2.31903">
        <ele>10.39999961853</ele>
        <time>2022-05-08T07:22:17.000Z</time>
      </trkpt>
      <trkpt lat="47.27219" lon="-2.3191">
        <ele>10.39999961853</ele>
        <time>2022-05-08T07:22:19.000Z</time>
      </trkpt>
      <trkpt lat="47.27224" lon="-2.31913">
        <ele>10.39999961853</ele>
        <time>2022-05-08T07:22:20.000Z</time>
      </trkpt>
      <trkpt lat="47.27242" lon="-2.31922">
        <ele>10.39999961853</ele>
        <time>2022-05-08T07:22:24.000Z</time>
      </trkpt>
      <trkpt lat="47.27251" lon="-2.31926">
        <ele>10.39999961853</ele>
        <time>2022-05-08T07:22:26.000Z</time>
      </trkpt>
      <trkpt lat="47.27265" lon="-2.3193">
        <ele>10.39999961853</ele>
        <time>2022-05-08T07:22:29.000Z</time>
      </trkpt>
      <trkpt lat="47.2727" lon="-2.31932">
        <ele>10.39999961853</ele>
        <time>2022-05-08T07:22:30.000Z</time>
      </trkpt>
      <trkpt lat="47.27298" lon="-2.31945">
        <ele>10.39999961853</ele>
        <time>2022-05-08T07:22:35.000Z</time>
      </trkpt>
      <trkpt lat="47.2732" lon="-2.31963">
        <ele>10</ele>
        <time>2022-05-08T07:22:39.000Z</time>
      </trkpt>
      <trkpt lat="47.27325" lon="-2.31968">
        <ele>9.6000003814697</ele>
        <time>2022-05-08T07:22:40.000Z</time>
      </trkpt>
      <trkpt lat="47.2733" lon="-2.31974">
        <ele>9.1999998092651</ele>
        <time>2022-05-08T07:22:41.000Z</time>
      </trkpt>
      <trkpt lat="47.27335" lon="-2.3198">
        <ele>8.6000003814697</ele>
        <time>2022-05-08T07:22:42.000Z</time>
      </trkpt>
      <trkpt lat="47.2734" lon="-2.31985">
        <ele>8.1999998092651</ele>
        <time>2022-05-08T07:22:43.000Z</time>
      </trkpt>
      <trkpt lat="47.27362" lon="-2.32011">
        <ele>8.1999998092651</ele>
        <time>2022-05-08T07:22:48.000Z</time>
      </trkpt>
      <trkpt lat="47.27398" lon="-2.3205">
        <ele>8.1999998092651</ele>
        <time>2022-05-08T07:22:57.000Z</time>
      </trkpt>
      <trkpt lat="47.27405" lon="-2.32057">
        <ele>8.8000001907349</ele>
        <time>2022-05-08T07:22:59.000Z</time>
      </trkpt>
      <trkpt lat="47.27409" lon="-2.32061">
        <ele>9.1999998092651</ele>
        <time>2022-05-08T07:23:00.000Z</time>
      </trkpt>
      <trkpt lat="47.27413" lon="-2.32065">
        <ele>9.8000001907349</ele>
        <time>2022-05-08T07:23:01.000Z</time>
      </trkpt>
      <trkpt lat="47.27417" lon="-2.32068">
        <ele>10.199999809265</ele>
        <time>2022-05-08T07:23:02.000Z</time>
      </trkpt>
      <trkpt lat="47.27421" lon="-2.32072">
        <ele>10.60000038147</ele>
        <time>2022-05-08T07:23:03.000Z</time>
      </trkpt>
      <trkpt lat="47.27428" lon="-2.32081">
        <ele>10.60000038147</ele>
        <time>2022-05-08T07:23:05.000Z</time>
      </trkpt>
      <trkpt lat="47.27451" lon="-2.32107">
        <ele>11</ele>
        <time>2022-05-08T07:23:11.000Z</time>
      </trkpt>
      <trkpt lat="47.27455" lon="-2.32112">
        <ele>11.39999961853</ele>
        <time>2022-05-08T07:23:12.000Z</time>
      </trkpt>
      <trkpt lat="47.27458" lon="-2.32117">
        <ele>12</ele>
        <time>2022-05-08T07:23:13.000Z</time>
      </trkpt>
      <trkpt lat="47.27462" lon="-2.32122">
        <ele>12.39999961853</ele>
        <time>2022-05-08T07:23:14.000Z</time>
      </trkpt>
      <trkpt lat="47.27465" lon="-2.32127">
        <ele>12.800000190735</ele>
        <time>2022-05-08T07:23:15.000Z</time>
      </trkpt>
      <trkpt lat="47.27482" lon="-2.32152">
        <ele>12.800000190735</ele>
        <time>2022-05-08T07:23:20.000Z</time>
      </trkpt>
      <trkpt lat="47.27504" lon="-2.32177">
        <ele>12.800000190735</ele>
        <time>2022-05-08T07:23:26.000Z</time>
      </trkpt>
      <trkpt lat="47.27526" lon="-2.32205">
        <ele>13.199999809265</ele>
        <time>2022-05-08T07:23:33.000Z</time>
      </trkpt>
      <trkpt lat="47.2753" lon="-2.32209">
        <ele>13.60000038147</ele>
        <time>2022-05-08T07:23:34.000Z</time>
      </trkpt>
      <trkpt lat="47.27533" lon="-2.32213">
        <ele>14</ele>
        <time>2022-05-08T07:23:35.000Z</time>
      </trkpt>
      <trkpt lat="47.27536" lon="-2.32216">
        <ele>14.39999961853</ele>
        <time>2022-05-08T07:23:36.000Z</time>
      </trkpt>
      <trkpt lat="47.27539" lon="-2.3222">
        <ele>14.800000190735</ele>
        <time>2022-05-08T07:23:37.000Z</time>
      </trkpt>
      <trkpt lat="47.2755" lon="-2.3223">
        <ele>14.800000190735</ele>
        <time>2022-05-08T07:23:40.000Z</time>
      </trkpt>
      <trkpt lat="47.27554" lon="-2.32233">
        <ele>15.199999809265</ele>
        <time>2022-05-08T07:23:41.000Z</time>
      </trkpt>
      <trkpt lat="47.27557" lon="-2.32236">
        <ele>15.60000038147</ele>
        <time>2022-05-08T07:23:42.000Z</time>
      </trkpt>
      <trkpt lat="47.2756" lon="-2.32239">
        <ele>16.60000038147</ele>
        <time>2022-05-08T07:23:43.000Z</time>
      </trkpt>
      <trkpt lat="47.27563" lon="-2.32242">
        <ele>17</ele>
        <time>2022-05-08T07:23:44.000Z</time>
      </trkpt>
      <trkpt lat="47.27573" lon="-2.32252">
        <ele>17</ele>
        <time>2022-05-08T07:23:47.000Z</time>
      </trkpt>
      <trkpt lat="47.27583" lon="-2.3226">
        <ele>17.39999961853</ele>
        <time>2022-05-08T07:23:50.000Z</time>
      </trkpt>
      <trkpt lat="47.27586" lon="-2.32264">
        <ele>17.799999237061</ele>
        <time>2022-05-08T07:23:51.000Z</time>
      </trkpt>
      <trkpt lat="47.27589" lon="-2.32267">
        <ele>18.200000762939</ele>
        <time>2022-05-08T07:23:52.000Z</time>
      </trkpt>
      <trkpt lat="47.27593" lon="-2.3227">
        <ele>18.60000038147</ele>
        <time>2022-05-08T07:23:53.000Z</time>
      </trkpt>
      <trkpt lat="47.27596" lon="-2.32272">
        <ele>19</ele>
        <time>2022-05-08T07:23:54.000Z</time>
      </trkpt>
      <trkpt lat="47.27599" lon="-2.32275">
        <ele>19</ele>
        <time>2022-05-08T07:23:55.000Z</time>
      </trkpt>
      <trkpt lat="47.2761" lon="-2.32284">
        <ele>19.39999961853</ele>
        <time>2022-05-08T07:23:59.000Z</time>
      </trkpt>
      <trkpt lat="47.2761" lon="-2.32287">
        <ele>19.799999237061</ele>
        <time>2022-05-08T07:24:00.000Z</time>
      </trkpt>
      <trkpt lat="47.2761" lon="-2.32291">
        <ele>20.200000762939</ele>
        <time>2022-05-08T07:24:01.000Z</time>
      </trkpt>
      <trkpt lat="47.2761" lon="-2.32295">
        <ele>20.60000038147</ele>
        <time>2022-05-08T07:24:02.000Z</time>
      </trkpt>
      <trkpt lat="47.27609" lon="-2.323">
        <ele>21.200000762939</ele>
        <time>2022-05-08T07:24:03.000Z</time>
      </trkpt>
      <trkpt lat="47.27607" lon="-2.32306">
        <ele>21.200000762939</ele>
        <time>2022-05-08T07:24:04.000Z</time>
      </trkpt>
      <trkpt lat="47.27605" lon="-2.32317">
        <ele>21.200000762939</ele>
        <time>2022-05-08T07:24:06.000Z</time>
      </trkpt>
      <trkpt lat="47.27597" lon="-2.32335">
        <ele>21.200000762939</ele>
        <time>2022-05-08T07:24:09.000Z</time>
      </trkpt>
      <trkpt lat="47.27592" lon="-2.32348">
        <ele>21.200000762939</ele>
        <time>2022-05-08T07:24:11.000Z</time>
      </trkpt>
      <trkpt lat="47.27585" lon="-2.32357">
        <ele>21.200000762939</ele>
        <time>2022-05-08T07:24:13.000Z</time>
      </trkpt>
      <trkpt lat="47.27577" lon="-2.32373">
        <ele>21.200000762939</ele>
        <time>2022-05-08T07:24:16.000Z</time>
      </trkpt>
      <trkpt lat="47.27575" lon="-2.32379">
        <ele>21.200000762939</ele>
        <time>2022-05-08T07:24:17.000Z</time>
      </trkpt>
      <trkpt lat="47.27569" lon="-2.32397">
        <ele>21.200000762939</ele>
        <time>2022-05-08T07:24:21.000Z</time>
      </trkpt>
      <trkpt lat="47.27567" lon="-2.32419">
        <ele>21.200000762939</ele>
        <time>2022-05-08T07:24:25.000Z</time>
      </trkpt>
      <trkpt lat="47.27566" lon="-2.32432">
        <ele>21.200000762939</ele>
        <time>2022-05-08T07:24:27.000Z</time>
      </trkpt>
      <trkpt lat="47.27562" lon="-2.32452">
        <ele>21.200000762939</ele>
        <time>2022-05-08T07:24:30.000Z</time>
      </trkpt>
      <trkpt lat="47.27556" lon="-2.32482">
        <ele>20.799999237061</ele>
        <time>2022-05-08T07:24:34.000Z</time>
      </trkpt>
      <trkpt lat="47.27554" lon="-2.32489">
        <ele>20.200000762939</ele>
        <time>2022-05-08T07:24:35.000Z</time>
      </trkpt>
      <trkpt lat="47.27551" lon="-2.32497">
        <ele>19.799999237061</ele>
        <time>2022-05-08T07:24:36.000Z</time>
      </trkpt>
      <trkpt lat="47.27549" lon="-2.32504">
        <ele>19.39999961853</ele>
        <time>2022-05-08T07:24:37.000Z</time>
      </trkpt>
      <trkpt lat="47.27546" lon="-2.32511">
        <ele>18.799999237061</ele>
        <time>2022-05-08T07:24:38.000Z</time>
      </trkpt>
      <trkpt lat="47.27543" lon="-2.32518">
        <ele>18.200000762939</ele>
        <time>2022-05-08T07:24:39.000Z</time>
      </trkpt>
      <trkpt lat="47.27541" lon="-2.32525">
        <ele>17.60000038147</ele>
        <time>2022-05-08T07:24:40.000Z</time>
      </trkpt>
      <trkpt lat="47.27539" lon="-2.32532">
        <ele>17</ele>
        <time>2022-05-08T07:24:41.000Z</time>
      </trkpt>
      <trkpt lat="47.27538" lon="-2.32539">
        <ele>16.39999961853</ele>
        <time>2022-05-08T07:24:42.000Z</time>
      </trkpt>
      <trkpt lat="47.27537" lon="-2.32547">
        <ele>15.60000038147</ele>
        <time>2022-05-08T07:24:43.000Z</time>
      </trkpt>
      <trkpt lat="47.27537" lon="-2.32553">
        <ele>15</ele>
        <time>2022-05-08T07:24:44.000Z</time>
      </trkpt>
      <trkpt lat="47.27538" lon="-2.32559">
        <ele>14.39999961853</ele>
        <time>2022-05-08T07:24:45.000Z</time>
      </trkpt>
      <trkpt lat="47.27541" lon="-2.32564">
        <ele>13.800000190735</ele>
        <time>2022-05-08T07:24:46.000Z</time>
      </trkpt>
      <trkpt lat="47.27544" lon="-2.32569">
        <ele>13.39999961853</ele>
        <time>2022-05-08T07:24:47.000Z</time>
      </trkpt>
      <trkpt lat="47.27547" lon="-2.32575">
        <ele>12.800000190735</ele>
        <time>2022-05-08T07:24:48.000Z</time>
      </trkpt>
      <trkpt lat="47.2755" lon="-2.32581">
        <ele>12.199999809265</ele>
        <time>2022-05-08T07:24:49.000Z</time>
      </trkpt>
      <trkpt lat="47.27551" lon="-2.32586">
        <ele>11.60000038147</ele>
        <time>2022-05-08T07:24:50.000Z</time>
      </trkpt>
      <trkpt lat="47.27547" lon="-2.32606">
        <ele>11.60000038147</ele>
        <time>2022-05-08T07:24:54.000Z</time>
      </trkpt>
      <trkpt lat="47.2753" lon="-2.32617">
        <ele>11.60000038147</ele>
        <time>2022-05-08T07:24:57.000Z</time>
      </trkpt>
      <trkpt lat="47.27525" lon="-2.3262">
        <ele>11.60000038147</ele>
        <time>2022-05-08T07:24:58.000Z</time>
      </trkpt>
      <trkpt lat="47.27521" lon="-2.32624">
        <ele>11.60000038147</ele>
        <time>2022-05-08T07:24:59.000Z</time>
      </trkpt>
      <trkpt lat="47.27511" lon="-2.32641">
        <ele>11.60000038147</ele>
        <time>2022-05-08T07:25:02.000Z</time>
      </trkpt>
      <trkpt lat="47.27509" lon="-2.32648">
        <ele>11.60000038147</ele>
        <time>2022-05-08T07:25:03.000Z</time>
      </trkpt>
      <trkpt lat="47.27505" lon="-2.32663">
        <ele>11.60000038147</ele>
        <time>2022-05-08T07:25:05.000Z</time>
      </trkpt>
      <trkpt lat="47.27497" lon="-2.32672">
        <ele>11.60000038147</ele>
        <time>2022-05-08T07:25:07.000Z</time>
      </trkpt>
      <trkpt lat="47.27478" lon="-2.32681">
        <ele>11.60000038147</ele>
        <time>2022-05-08T07:25:11.000Z</time>
      </trkpt>
      <trkpt lat="47.27471" lon="-2.3269">
        <ele>11.60000038147</ele>
        <time>2022-05-08T07:25:13.000Z</time>
      </trkpt>
      <trkpt lat="47.27465" lon="-2.32699">
        <ele>11.60000038147</ele>
        <time>2022-05-08T07:25:15.000Z</time>
      </trkpt>
      <trkpt lat="47.27457" lon="-2.32719">
        <ele>12.199999809265</ele>
        <time>2022-05-08T07:25:19.000Z</time>
      </trkpt>
      <trkpt lat="47.27455" lon="-2.32724">
        <ele>12.60000038147</ele>
        <time>2022-05-08T07:25:20.000Z</time>
      </trkpt>
      <trkpt lat="47.27452" lon="-2.32729">
        <ele>13</ele>
        <time>2022-05-08T07:25:21.000Z</time>
      </trkpt>
      <trkpt lat="47.2745" lon="-2.32734">
        <ele>14</ele>
        <time>2022-05-08T07:25:22.000Z</time>
      </trkpt>
      <trkpt lat="47.27448" lon="-2.32743">
        <ele>14.39999961853</ele>
        <time>2022-05-08T07:25:24.000Z</time>
      </trkpt>
      <trkpt lat="47.27446" lon="-2.32748">
        <ele>14.800000190735</ele>
        <time>2022-05-08T07:25:25.000Z</time>
      </trkpt>
      <trkpt lat="47.27445" lon="-2.32753">
        <ele>15.199999809265</ele>
        <time>2022-05-08T07:25:26.000Z</time>
      </trkpt>
      <trkpt lat="47.27444" lon="-2.3276">
        <ele>15.60000038147</ele>
        <time>2022-05-08T07:25:27.000Z</time>
      </trkpt>
      <trkpt lat="47.27443" lon="-2.32765">
        <ele>16</ele>
        <time>2022-05-08T07:25:28.000Z</time>
      </trkpt>
      <trkpt lat="47.27441" lon="-2.32775">
        <ele>16</ele>
        <time>2022-05-08T07:25:30.000Z</time>
      </trkpt>
      <trkpt lat="47.27438" lon="-2.32788">
        <ele>16</ele>
        <time>2022-05-08T07:25:32.000Z</time>
      </trkpt>
      <trkpt lat="47.27437" lon="-2.32795">
        <ele>16.39999961853</ele>
        <time>2022-05-08T07:25:33.000Z</time>
      </trkpt>
      <trkpt lat="47.27436" lon="-2.32802">
        <ele>17</ele>
        <time>2022-05-08T07:25:34.000Z</time>
      </trkpt>
      <trkpt lat="47.27435" lon="-2.32809">
        <ele>17.39999961853</ele>
        <time>2022-05-08T07:25:35.000Z</time>
      </trkpt>
      <trkpt lat="47.27432" lon="-2.32816">
        <ele>17.799999237061</ele>
        <time>2022-05-08T07:25:36.000Z</time>
      </trkpt>
      <trkpt lat="47.2743" lon="-2.32824">
        <ele>18.39999961853</ele>
        <time>2022-05-08T07:25:37.000Z</time>
      </trkpt>
      <trkpt lat="47.27425" lon="-2.32838">
        <ele>18.39999961853</ele>
        <time>2022-05-08T07:25:39.000Z</time>
      </trkpt>
      <trkpt lat="47.27418" lon="-2.32856">
        <ele>18.39999961853</ele>
        <time>2022-05-08T07:25:42.000Z</time>
      </trkpt>
      <trkpt lat="47.27406" lon="-2.32886">
        <ele>18.799999237061</ele>
        <time>2022-05-08T07:25:48.000Z</time>
      </trkpt>
      <trkpt lat="47.27403" lon="-2.32892">
        <ele>19.200000762939</ele>
        <time>2022-05-08T07:25:49.000Z</time>
      </trkpt>
      <trkpt lat="47.27401" lon="-2.32895">
        <ele>19.60000038147</ele>
        <time>2022-05-08T07:25:50.000Z</time>
      </trkpt>
      <trkpt lat="47.27399" lon="-2.32898">
        <ele>20</ele>
        <time>2022-05-08T07:25:51.000Z</time>
      </trkpt>
      <trkpt lat="47.27397" lon="-2.32902">
        <ele>20.39999961853</ele>
        <time>2022-05-08T07:25:52.000Z</time>
      </trkpt>
      <trkpt lat="47.27392" lon="-2.32914">
        <ele>20.39999961853</ele>
        <time>2022-05-08T07:25:55.000Z</time>
      </trkpt>
      <trkpt lat="47.27393" lon="-2.32919">
        <ele>20.39999961853</ele>
        <time>2022-05-08T07:25:56.000Z</time>
      </trkpt>
      <trkpt lat="47.27399" lon="-2.32937">
        <ele>20.39999961853</ele>
        <time>2022-05-08T07:26:00.000Z</time>
      </trkpt>
      <trkpt lat="47.27401" lon="-2.32941">
        <ele>20.39999961853</ele>
        <time>2022-05-08T07:26:01.000Z</time>
      </trkpt>
      <trkpt lat="47.27407" lon="-2.32961">
        <ele>20.799999237061</ele>
        <time>2022-05-08T07:26:05.000Z</time>
      </trkpt>
      <trkpt lat="47.27409" lon="-2.32967">
        <ele>21.200000762939</ele>
        <time>2022-05-08T07:26:06.000Z</time>
      </trkpt>
      <trkpt lat="47.2741" lon="-2.32972">
        <ele>21.60000038147</ele>
        <time>2022-05-08T07:26:07.000Z</time>
      </trkpt>
      <trkpt lat="47.27412" lon="-2.32977">
        <ele>22</ele>
        <time>2022-05-08T07:26:08.000Z</time>
      </trkpt>
      <trkpt lat="47.27413" lon="-2.32982">
        <ele>22.39999961853</ele>
        <time>2022-05-08T07:26:09.000Z</time>
      </trkpt>
      <trkpt lat="47.27423" lon="-2.33016">
        <ele>22.799999237061</ele>
        <time>2022-05-08T07:26:16.000Z</time>
      </trkpt>
      <trkpt lat="47.27425" lon="-2.3302">
        <ele>23.200000762939</ele>
        <time>2022-05-08T07:26:17.000Z</time>
      </trkpt>
      <trkpt lat="47.27426" lon="-2.33024">
        <ele>23.60000038147</ele>
        <time>2022-05-08T07:26:18.000Z</time>
      </trkpt>
      <trkpt lat="47.27428" lon="-2.33029">
        <ele>24</ele>
        <time>2022-05-08T07:26:19.000Z</time>
      </trkpt>
      <trkpt lat="47.27429" lon="-2.33032">
        <ele>24.39999961853</ele>
        <time>2022-05-08T07:26:20.000Z</time>
      </trkpt>
      <trkpt lat="47.27435" lon="-2.33046">
        <ele>24.39999961853</ele>
        <time>2022-05-08T07:26:24.000Z</time>
      </trkpt>
      <trkpt lat="47.27444" lon="-2.33047">
        <ele>24.799999237061</ele>
        <time>2022-05-08T07:26:28.000Z</time>
      </trkpt>
      <trkpt lat="47.27446" lon="-2.33046">
        <ele>25.200000762939</ele>
        <time>2022-05-08T07:26:29.000Z</time>
      </trkpt>
      <trkpt lat="47.27449" lon="-2.33045">
        <ele>25.60000038147</ele>
        <time>2022-05-08T07:26:30.000Z</time>
      </trkpt>
      <trkpt lat="47.27452" lon="-2.33044">
        <ele>26</ele>
        <time>2022-05-08T07:26:31.000Z</time>
      </trkpt>
      <trkpt lat="47.27455" lon="-2.33042">
        <ele>26.39999961853</ele>
        <time>2022-05-08T07:26:32.000Z</time>
      </trkpt>
      <trkpt lat="47.27457" lon="-2.3304">
        <ele>26.39999961853</ele>
        <time>2022-05-08T07:26:33.000Z</time>
      </trkpt>
      <trkpt lat="47.27465" lon="-2.33022">
        <ele>26.39999961853</ele>
        <time>2022-05-08T07:26:37.000Z</time>
      </trkpt>
      <trkpt lat="47.27468" lon="-2.33011">
        <ele>26.39999961853</ele>
        <time>2022-05-08T07:26:39.000Z</time>
      </trkpt>
      <trkpt lat="47.27476" lon="-2.32988">
        <ele>26.39999961853</ele>
        <time>2022-05-08T07:26:43.000Z</time>
      </trkpt>
      <trkpt lat="47.27485" lon="-2.32965">
        <ele>26</ele>
        <time>2022-05-08T07:26:47.000Z</time>
      </trkpt>
      <trkpt lat="47.27487" lon="-2.3296">
        <ele>25.60000038147</ele>
        <time>2022-05-08T07:26:48.000Z</time>
      </trkpt>
      <trkpt lat="47.27489" lon="-2.32955">
        <ele>25.200000762939</ele>
        <time>2022-05-08T07:26:49.000Z</time>
      </trkpt>
      <trkpt lat="47.27491" lon="-2.3295">
        <ele>24.799999237061</ele>
        <time>2022-05-08T07:26:50.000Z</time>
      </trkpt>
      <trkpt lat="47.27493" lon="-2.32944">
        <ele>24.39999961853</ele>
        <time>2022-05-08T07:26:51.000Z</time>
      </trkpt>
      <trkpt lat="47.27498" lon="-2.32932">
        <ele>24.39999961853</ele>
        <time>2022-05-08T07:26:53.000Z</time>
      </trkpt>
      <trkpt lat="47.27499" lon="-2.32926">
        <ele>24.39999961853</ele>
        <time>2022-05-08T07:26:54.000Z</time>
      </trkpt>
      <trkpt lat="47.27502" lon="-2.32906">
        <ele>24</ele>
        <time>2022-05-08T07:26:57.000Z</time>
      </trkpt>
      <trkpt lat="47.27503" lon="-2.32899">
        <ele>23.60000038147</ele>
        <time>2022-05-08T07:26:58.000Z</time>
      </trkpt>
      <trkpt lat="47.27505" lon="-2.32893">
        <ele>23.200000762939</ele>
        <time>2022-05-08T07:26:59.000Z</time>
      </trkpt>
      <trkpt lat="47.27507" lon="-2.32886">
        <ele>22.39999961853</ele>
        <time>2022-05-08T07:27:00.000Z</time>
      </trkpt>
      <trkpt lat="47.27519" lon="-2.32863">
        <ele>22.39999961853</ele>
        <time>2022-05-08T07:27:04.000Z</time>
      </trkpt>
      <trkpt lat="47.27529" lon="-2.32852">
        <ele>22.39999961853</ele>
        <time>2022-05-08T07:27:07.000Z</time>
      </trkpt>
      <trkpt lat="47.27533" lon="-2.32848">
        <ele>22.39999961853</ele>
        <time>2022-05-08T07:27:08.000Z</time>
      </trkpt>
      <trkpt lat="47.27537" lon="-2.32847">
        <ele>22.39999961853</ele>
        <time>2022-05-08T07:27:09.000Z</time>
      </trkpt>
      <trkpt lat="47.27552" lon="-2.32839">
        <ele>22.39999961853</ele>
        <time>2022-05-08T07:27:13.000Z</time>
      </trkpt>
      <trkpt lat="47.27564" lon="-2.32833">
        <ele>22</ele>
        <time>2022-05-08T07:27:16.000Z</time>
      </trkpt>
      <trkpt lat="47.27568" lon="-2.32831">
        <ele>21.60000038147</ele>
        <time>2022-05-08T07:27:17.000Z</time>
      </trkpt>
      <trkpt lat="47.27571" lon="-2.32829">
        <ele>21.200000762939</ele>
        <time>2022-05-08T07:27:18.000Z</time>
      </trkpt>
      <trkpt lat="47.27574" lon="-2.32827">
        <ele>20.799999237061</ele>
        <time>2022-05-08T07:27:19.000Z</time>
      </trkpt>
      <trkpt lat="47.27575" lon="-2.32824">
        <ele>20.39999961853</ele>
        <time>2022-05-08T07:27:20.000Z</time>
      </trkpt>
      <trkpt lat="47.27575" lon="-2.32817">
        <ele>20.39999961853</ele>
        <time>2022-05-08T07:27:25.000Z</time>
      </trkpt>
      <trkpt lat="47.27573" lon="-2.32816">
        <ele>20.39999961853</ele>
        <time>2022-05-08T07:27:26.000Z</time>
      </trkpt>
      <trkpt lat="47.27568" lon="-2.32807">
        <ele>20.39999961853</ele>
        <time>2022-05-08T07:27:31.000Z</time>
      </trkpt>
      <trkpt lat="47.27569" lon="-2.32802">
        <ele>19.799999237061</ele>
        <time>2022-05-08T07:27:33.000Z</time>
      </trkpt>
      <trkpt lat="47.2757" lon="-2.32799">
        <ele>19.39999961853</ele>
        <time>2022-05-08T07:27:34.000Z</time>
      </trkpt>
      <trkpt lat="47.27572" lon="-2.32795">
        <ele>19</ele>
        <time>2022-05-08T07:27:35.000Z</time>
      </trkpt>
      <trkpt lat="47.27572" lon="-2.32791">
        <ele>18.60000038147</ele>
        <time>2022-05-08T07:27:36.000Z</time>
      </trkpt>
      <trkpt lat="47.27574" lon="-2.32786">
        <ele>18.200000762939</ele>
        <time>2022-05-08T07:27:37.000Z</time>
      </trkpt>
      <trkpt lat="47.27579" lon="-2.32772">
        <ele>18.200000762939</ele>
        <time>2022-05-08T07:27:40.000Z</time>
      </trkpt>
      <trkpt lat="47.27583" lon="-2.32759">
        <ele>18.200000762939</ele>
        <time>2022-05-08T07:27:43.000Z</time>
      </trkpt>
      <trkpt lat="47.27582" lon="-2.32754">
        <ele>18.200000762939</ele>
        <time>2022-05-08T07:27:44.000Z</time>
      </trkpt>
      <trkpt lat="47.27581" lon="-2.32738">
        <ele>17.60000038147</ele>
        <time>2022-05-08T07:27:47.000Z</time>
      </trkpt>
      <trkpt lat="47.27582" lon="-2.32732">
        <ele>17.200000762939</ele>
        <time>2022-05-08T07:27:48.000Z</time>
      </trkpt>
      <trkpt lat="47.27583" lon="-2.32726">
        <ele>16</ele>
        <time>2022-05-08T07:27:49.000Z</time>
      </trkpt>
      <trkpt lat="47.27585" lon="-2.3272">
        <ele>15.60000038147</ele>
        <time>2022-05-08T07:27:50.000Z</time>
      </trkpt>
      <trkpt lat="47.27587" lon="-2.32714">
        <ele>15</ele>
        <time>2022-05-08T07:27:51.000Z</time>
      </trkpt>
      <trkpt lat="47.2759" lon="-2.32708">
        <ele>14.60000038147</ele>
        <time>2022-05-08T07:27:52.000Z</time>
      </trkpt>
      <trkpt lat="47.27592" lon="-2.32703">
        <ele>14</ele>
        <time>2022-05-08T07:27:53.000Z</time>
      </trkpt>
      <trkpt lat="47.27595" lon="-2.327">
        <ele>13.60000038147</ele>
        <time>2022-05-08T07:27:54.000Z</time>
      </trkpt>
      <trkpt lat="47.27605" lon="-2.327">
        <ele>13.60000038147</ele>
        <time>2022-05-08T07:27:57.000Z</time>
      </trkpt>
      <trkpt lat="47.27609" lon="-2.32703">
        <ele>13.60000038147</ele>
        <time>2022-05-08T07:27:58.000Z</time>
      </trkpt>
      <trkpt lat="47.27631" lon="-2.32711">
        <ele>13.60000038147</ele>
        <time>2022-05-08T07:28:03.000Z</time>
      </trkpt>
      <trkpt lat="47.27663" lon="-2.32729">
        <ele>13.60000038147</ele>
        <time>2022-05-08T07:28:10.000Z</time>
      </trkpt>
      <trkpt lat="47.27677" lon="-2.32727">
        <ele>13.60000038147</ele>
        <time>2022-05-08T07:28:14.000Z</time>
      </trkpt>
      <trkpt lat="47.27692" lon="-2.32716">
        <ele>13.60000038147</ele>
        <time>2022-05-08T07:28:19.000Z</time>
      </trkpt>
      <trkpt lat="47.27707" lon="-2.32699">
        <ele>13.60000038147</ele>
        <time>2022-05-08T07:28:24.000Z</time>
      </trkpt>
      <trkpt lat="47.27722" lon="-2.32675">
        <ele>14</ele>
        <time>2022-05-08T07:28:30.000Z</time>
      </trkpt>
      <trkpt lat="47.27725" lon="-2.32671">
        <ele>14.39999961853</ele>
        <time>2022-05-08T07:28:31.000Z</time>
      </trkpt>
      <trkpt lat="47.27728" lon="-2.32667">
        <ele>14.800000190735</ele>
        <time>2022-05-08T07:28:32.000Z</time>
      </trkpt>
      <trkpt lat="47.2773" lon="-2.32663">
        <ele>15.39999961853</ele>
        <time>2022-05-08T07:28:33.000Z</time>
      </trkpt>
      <trkpt lat="47.27732" lon="-2.32659">
        <ele>15.800000190735</ele>
        <time>2022-05-08T07:28:34.000Z</time>
      </trkpt>
      <trkpt lat="47.27736" lon="-2.32652">
        <ele>16.200000762939</ele>
        <time>2022-05-08T07:28:36.000Z</time>
      </trkpt>
      <trkpt lat="47.27738" lon="-2.32648">
        <ele>16.799999237061</ele>
        <time>2022-05-08T07:28:37.000Z</time>
      </trkpt>
      <trkpt lat="47.2774" lon="-2.32645">
        <ele>17.200000762939</ele>
        <time>2022-05-08T07:28:38.000Z</time>
      </trkpt>
      <trkpt lat="47.27741" lon="-2.3264">
        <ele>18</ele>
        <time>2022-05-08T07:28:39.000Z</time>
      </trkpt>
      <trkpt lat="47.27743" lon="-2.32637">
        <ele>18.60000038147</ele>
        <time>2022-05-08T07:28:40.000Z</time>
      </trkpt>
      <trkpt lat="47.27745" lon="-2.32634">
        <ele>19</ele>
        <time>2022-05-08T07:28:41.000Z</time>
      </trkpt>
      <trkpt lat="47.27747" lon="-2.3263">
        <ele>19.39999961853</ele>
        <time>2022-05-08T07:28:42.000Z</time>
      </trkpt>
      <trkpt lat="47.27748" lon="-2.32626">
        <ele>19.799999237061</ele>
        <time>2022-05-08T07:28:43.000Z</time>
      </trkpt>
      <trkpt lat="47.2775" lon="-2.32623">
        <ele>20.39999961853</ele>
        <time>2022-05-08T07:28:44.000Z</time>
      </trkpt>
      <trkpt lat="47.27762" lon="-2.326">
        <ele>20.39999961853</ele>
        <time>2022-05-08T07:28:50.000Z</time>
      </trkpt>
      <trkpt lat="47.2777" lon="-2.32584">
        <ele>20.799999237061</ele>
        <time>2022-05-08T07:28:54.000Z</time>
      </trkpt>
      <trkpt lat="47.27773" lon="-2.32581">
        <ele>21.200000762939</ele>
        <time>2022-05-08T07:28:55.000Z</time>
      </trkpt>
      <trkpt lat="47.27776" lon="-2.32576">
        <ele>21.60000038147</ele>
        <time>2022-05-08T07:28:56.000Z</time>
      </trkpt>
      <trkpt lat="47.27779" lon="-2.32572">
        <ele>22</ele>
        <time>2022-05-08T07:28:57.000Z</time>
      </trkpt>
      <trkpt lat="47.27782" lon="-2.32568">
        <ele>22.39999961853</ele>
        <time>2022-05-08T07:28:58.000Z</time>
      </trkpt>
      <trkpt lat="47.27792" lon="-2.32556">
        <ele>22.39999961853</ele>
        <time>2022-05-08T07:29:02.000Z</time>
      </trkpt>
      <trkpt lat="47.27806" lon="-2.32531">
        <ele>22.39999961853</ele>
        <time>2022-05-08T07:29:09.000Z</time>
      </trkpt>
      <trkpt lat="47.27823" lon="-2.32506">
        <ele>22.39999961853</ele>
        <time>2022-05-08T07:29:15.000Z</time>
      </trkpt>
      <trkpt lat="47.27838" lon="-2.32483">
        <ele>22.39999961853</ele>
        <time>2022-05-08T07:29:21.000Z</time>
      </trkpt>
      <trkpt lat="47.27851" lon="-2.3247">
        <ele>22.39999961853</ele>
        <time>2022-05-08T07:29:26.000Z</time>
      </trkpt>
      <trkpt lat="47.27862" lon="-2.32455">
        <ele>22.39999961853</ele>
        <time>2022-05-08T07:29:31.000Z</time>
      </trkpt>
      <trkpt lat="47.27875" lon="-2.32434">
        <ele>22.39999961853</ele>
        <time>2022-05-08T07:29:36.000Z</time>
      </trkpt>
      <trkpt lat="47.27885" lon="-2.32418">
        <ele>22.39999961853</ele>
        <time>2022-05-08T07:29:41.000Z</time>
      </trkpt>
      <trkpt lat="47.2789" lon="-2.32407">
        <ele>22.39999961853</ele>
        <time>2022-05-08T07:29:48.000Z</time>
      </trkpt>
      <trkpt lat="47.27891" lon="-2.324">
        <ele>22.39999961853</ele>
        <time>2022-05-08T07:29:52.000Z</time>
      </trkpt>
      <trkpt lat="47.27893" lon="-2.32394">
        <ele>22.39999961853</ele>
        <time>2022-05-08T07:29:55.000Z</time>
      </trkpt>
      <trkpt lat="47.27899" lon="-2.32388">
        <ele>22.39999961853</ele>
        <time>2022-05-08T07:30:00.000Z</time>
      </trkpt>
      <trkpt lat="47.27906" lon="-2.32389">
        <ele>22.39999961853</ele>
        <time>2022-05-08T07:30:11.000Z</time>
      </trkpt>
      <trkpt lat="47.27917" lon="-2.32396">
        <ele>22.39999961853</ele>
        <time>2022-05-08T07:30:16.000Z</time>
      </trkpt>
      <trkpt lat="47.27929" lon="-2.32401">
        <ele>22.39999961853</ele>
        <time>2022-05-08T07:30:20.000Z</time>
      </trkpt>
      <trkpt lat="47.27948" lon="-2.32403">
        <ele>22.39999961853</ele>
        <time>2022-05-08T07:30:26.000Z</time>
      </trkpt>
      <trkpt lat="47.2795" lon="-2.32402">
        <ele>22.39999961853</ele>
        <time>2022-05-08T07:30:28.000Z</time>
      </trkpt>
      <trkpt lat="47.27953" lon="-2.32399">
        <ele>22.39999961853</ele>
        <time>2022-05-08T07:30:56.000Z</time>
      </trkpt>
      <trkpt lat="47.27954" lon="-2.32397">
        <ele>22.39999961853</ele>
        <time>2022-05-08T07:30:57.000Z</time>
      </trkpt>
      <trkpt lat="47.27957" lon="-2.32379">
        <ele>22.39999961853</ele>
        <time>2022-05-08T07:31:02.000Z</time>
      </trkpt>
      <trkpt lat="47.27958" lon="-2.3235">
        <ele>22.39999961853</ele>
        <time>2022-05-08T07:31:09.000Z</time>
      </trkpt>
      <trkpt lat="47.27966" lon="-2.32329">
        <ele>22.799999237061</ele>
        <time>2022-05-08T07:31:13.000Z</time>
      </trkpt>
      <trkpt lat="47.27969" lon="-2.32324">
        <ele>23.200000762939</ele>
        <time>2022-05-08T07:31:14.000Z</time>
      </trkpt>
      <trkpt lat="47.27972" lon="-2.32319">
        <ele>23.60000038147</ele>
        <time>2022-05-08T07:31:15.000Z</time>
      </trkpt>
      <trkpt lat="47.27975" lon="-2.32313">
        <ele>24</ele>
        <time>2022-05-08T07:31:16.000Z</time>
      </trkpt>
      <trkpt lat="47.27979" lon="-2.32307">
        <ele>24.60000038147</ele>
        <time>2022-05-08T07:31:17.000Z</time>
      </trkpt>
      <trkpt lat="47.27983" lon="-2.32302">
        <ele>24.60000038147</ele>
        <time>2022-05-08T07:31:18.000Z</time>
      </trkpt>
      <trkpt lat="47.27995" lon="-2.32286">
        <ele>24.60000038147</ele>
        <time>2022-05-08T07:31:21.000Z</time>
      </trkpt>
      <trkpt lat="47.28017" lon="-2.32254">
        <ele>24.60000038147</ele>
        <time>2022-05-08T07:31:27.000Z</time>
      </trkpt>
      <trkpt lat="47.2804" lon="-2.32215">
        <ele>24.60000038147</ele>
        <time>2022-05-08T07:31:34.000Z</time>
      </trkpt>
      <trkpt lat="47.28043" lon="-2.3221">
        <ele>25</ele>
        <time>2022-05-08T07:31:35.000Z</time>
      </trkpt>
      <trkpt lat="47.28047" lon="-2.32205">
        <ele>25.39999961853</ele>
        <time>2022-05-08T07:31:36.000Z</time>
      </trkpt>
      <trkpt lat="47.2805" lon="-2.32199">
        <ele>25.799999237061</ele>
        <time>2022-05-08T07:31:37.000Z</time>
      </trkpt>
      <trkpt lat="47.28053" lon="-2.32194">
        <ele>26.200000762939</ele>
        <time>2022-05-08T07:31:38.000Z</time>
      </trkpt>
      <trkpt lat="47.28056" lon="-2.32188">
        <ele>26.60000038147</ele>
        <time>2022-05-08T07:31:39.000Z</time>
      </trkpt>
      <trkpt lat="47.28062" lon="-2.32177">
        <ele>26.60000038147</ele>
        <time>2022-05-08T07:31:41.000Z</time>
      </trkpt>
      <trkpt lat="47.28078" lon="-2.3214">
        <ele>26.60000038147</ele>
        <time>2022-05-08T07:31:47.000Z</time>
      </trkpt>
      <trkpt lat="47.28078" lon="-2.32133">
        <ele>26.60000038147</ele>
        <time>2022-05-08T07:31:48.000Z</time>
      </trkpt>
      <trkpt lat="47.28073" lon="-2.32113">
        <ele>26.60000038147</ele>
        <time>2022-05-08T07:31:51.000Z</time>
      </trkpt>
      <trkpt lat="47.2807" lon="-2.32107">
        <ele>26.60000038147</ele>
        <time>2022-05-08T07:31:52.000Z</time>
      </trkpt>
      <trkpt lat="47.28052" lon="-2.32072">
        <ele>26.60000038147</ele>
        <time>2022-05-08T07:31:58.000Z</time>
      </trkpt>
      <trkpt lat="47.28031" lon="-2.32027">
        <ele>26.60000038147</ele>
        <time>2022-05-08T07:32:06.000Z</time>
      </trkpt>
      <trkpt lat="47.28028" lon="-2.32021">
        <ele>26.60000038147</ele>
        <time>2022-05-08T07:32:07.000Z</time>
      </trkpt>
      <trkpt lat="47.28023" lon="-2.3201">
        <ele>26.60000038147</ele>
        <time>2022-05-08T07:32:09.000Z</time>
      </trkpt>
      <trkpt lat="47.2802" lon="-2.32005">
        <ele>27</ele>
        <time>2022-05-08T07:32:10.000Z</time>
      </trkpt>
      <trkpt lat="47.28017" lon="-2.32">
        <ele>27.39999961853</ele>
        <time>2022-05-08T07:32:11.000Z</time>
      </trkpt>
      <trkpt lat="47.28013" lon="-2.31995">
        <ele>27.799999237061</ele>
        <time>2022-05-08T07:32:12.000Z</time>
      </trkpt>
      <trkpt lat="47.28009" lon="-2.31989">
        <ele>28.200000762939</ele>
        <time>2022-05-08T07:32:13.000Z</time>
      </trkpt>
      <trkpt lat="47.28006" lon="-2.31985">
        <ele>28.60000038147</ele>
        <time>2022-05-08T07:32:14.000Z</time>
      </trkpt>
      <trkpt lat="47.27994" lon="-2.31971">
        <ele>28.60000038147</ele>
        <time>2022-05-08T07:32:17.000Z</time>
      </trkpt>
      <trkpt lat="47.27966" lon="-2.31942">
        <ele>28.60000038147</ele>
        <time>2022-05-08T07:32:24.000Z</time>
      </trkpt>
      <trkpt lat="47.27942" lon="-2.31918">
        <ele>28.60000038147</ele>
        <time>2022-05-08T07:32:30.000Z</time>
      </trkpt>
      <trkpt lat="47.27938" lon="-2.31916">
        <ele>28.60000038147</ele>
        <time>2022-05-08T07:32:31.000Z</time>
      </trkpt>
      <trkpt lat="47.2792" lon="-2.31904">
        <ele>28.60000038147</ele>
        <time>2022-05-08T07:32:35.000Z</time>
      </trkpt>
      <trkpt lat="47.2789" lon="-2.31883">
        <ele>28.60000038147</ele>
        <time>2022-05-08T07:32:42.000Z</time>
      </trkpt>
      <trkpt lat="47.27882" lon="-2.31876">
        <ele>28.60000038147</ele>
        <time>2022-05-08T07:32:44.000Z</time>
      </trkpt>
      <trkpt lat="47.27879" lon="-2.31864">
        <ele>28.60000038147</ele>
        <time>2022-05-08T07:32:46.000Z</time>
      </trkpt>
      <trkpt lat="47.27878" lon="-2.3185">
        <ele>28.60000038147</ele>
        <time>2022-05-08T07:32:48.000Z</time>
      </trkpt>
      <trkpt lat="47.27875" lon="-2.31828">
        <ele>28.60000038147</ele>
        <time>2022-05-08T07:32:51.000Z</time>
      </trkpt>
      <trkpt lat="47.27871" lon="-2.31773">
        <ele>28.60000038147</ele>
        <time>2022-05-08T07:32:58.000Z</time>
      </trkpt>
      <trkpt lat="47.2787" lon="-2.3175">
        <ele>28.60000038147</ele>
        <time>2022-05-08T07:33:01.000Z</time>
      </trkpt>
      <trkpt lat="47.27876" lon="-2.31738">
        <ele>28.60000038147</ele>
        <time>2022-05-08T07:33:03.000Z</time>
      </trkpt>
      <trkpt lat="47.27891" lon="-2.31726">
        <ele>28.60000038147</ele>
        <time>2022-05-08T07:33:06.000Z</time>
      </trkpt>
      <trkpt lat="47.27896" lon="-2.31723">
        <ele>28.60000038147</ele>
        <time>2022-05-08T07:33:07.000Z</time>
      </trkpt>
      <trkpt lat="47.27932" lon="-2.31696">
        <ele>28.60000038147</ele>
        <time>2022-05-08T07:33:14.000Z</time>
      </trkpt>
      <trkpt lat="47.27968" lon="-2.31668">
        <ele>28.60000038147</ele>
        <time>2022-05-08T07:33:21.000Z</time>
      </trkpt>
      <trkpt lat="47.27978" lon="-2.31661">
        <ele>28.200000762939</ele>
        <time>2022-05-08T07:33:23.000Z</time>
      </trkpt>
      <trkpt lat="47.27984" lon="-2.31658">
        <ele>27.799999237061</ele>
        <time>2022-05-08T07:33:24.000Z</time>
      </trkpt>
      <trkpt lat="47.2799" lon="-2.31655">
        <ele>27.39999961853</ele>
        <time>2022-05-08T07:33:25.000Z</time>
      </trkpt>
      <trkpt lat="47.27996" lon="-2.31651">
        <ele>27</ele>
        <time>2022-05-08T07:33:26.000Z</time>
      </trkpt>
      <trkpt lat="47.28002" lon="-2.31649">
        <ele>26.60000038147</ele>
        <time>2022-05-08T07:33:27.000Z</time>
      </trkpt>
      <trkpt lat="47.28008" lon="-2.31646">
        <ele>26.60000038147</ele>
        <time>2022-05-08T07:33:28.000Z</time>
      </trkpt>
      <trkpt lat="47.28048" lon="-2.3163">
        <ele>26.60000038147</ele>
        <time>2022-05-08T07:33:34.000Z</time>
      </trkpt>
      <trkpt lat="47.28066" lon="-2.31626">
        <ele>26.60000038147</ele>
        <time>2022-05-08T07:33:37.000Z</time>
      </trkpt>
      <trkpt lat="47.28083" lon="-2.31626">
        <ele>26.60000038147</ele>
        <time>2022-05-08T07:33:40.000Z</time>
      </trkpt>
      <trkpt lat="47.28118" lon="-2.31626">
        <ele>26.60000038147</ele>
        <time>2022-05-08T07:33:46.000Z</time>
      </trkpt>
      <trkpt lat="47.28165" lon="-2.31623">
        <ele>26.60000038147</ele>
        <time>2022-05-08T07:33:55.000Z</time>
      </trkpt>
      <trkpt lat="47.282" lon="-2.31617">
        <ele>26.60000038147</ele>
        <time>2022-05-08T07:34:02.000Z</time>
      </trkpt>
      <trkpt lat="47.28205" lon="-2.31616">
        <ele>26.60000038147</ele>
        <time>2022-05-08T07:34:03.000Z</time>
      </trkpt>
      <trkpt lat="47.28224" lon="-2.31611">
        <ele>26.60000038147</ele>
        <time>2022-05-08T07:34:07.000Z</time>
      </trkpt>
      <trkpt lat="47.28257" lon="-2.31603">
        <ele>26.60000038147</ele>
        <time>2022-05-08T07:34:14.000Z</time>
      </trkpt>
      <trkpt lat="47.28276" lon="-2.31596">
        <ele>27</ele>
        <time>2022-05-08T07:34:18.000Z</time>
      </trkpt>
      <trkpt lat="47.2828" lon="-2.31594">
        <ele>27.39999961853</ele>
        <time>2022-05-08T07:34:19.000Z</time>
      </trkpt>
      <trkpt lat="47.28284" lon="-2.31593">
        <ele>27.799999237061</ele>
        <time>2022-05-08T07:34:20.000Z</time>
      </trkpt>
      <trkpt lat="47.28289" lon="-2.31591">
        <ele>28.200000762939</ele>
        <time>2022-05-08T07:34:21.000Z</time>
      </trkpt>
      <trkpt lat="47.28293" lon="-2.31591">
        <ele>28.60000038147</ele>
        <time>2022-05-08T07:34:22.000Z</time>
      </trkpt>
      <trkpt lat="47.28307" lon="-2.31589">
        <ele>28.60000038147</ele>
        <time>2022-05-08T07:34:26.000Z</time>
      </trkpt>
      <trkpt lat="47.28326" lon="-2.31584">
        <ele>28.60000038147</ele>
        <time>2022-05-08T07:34:32.000Z</time>
      </trkpt>
      <trkpt lat="47.28345" lon="-2.3158">
        <ele>28.60000038147</ele>
        <time>2022-05-08T07:34:36.000Z</time>
      </trkpt>
      <trkpt lat="47.28349" lon="-2.31578">
        <ele>28.60000038147</ele>
        <time>2022-05-08T07:34:37.000Z</time>
      </trkpt>
      <trkpt lat="47.28396" lon="-2.31561">
        <ele>28.60000038147</ele>
        <time>2022-05-08T07:34:46.000Z</time>
      </trkpt>
      <trkpt lat="47.28426" lon="-2.31546">
        <ele>28.60000038147</ele>
        <time>2022-05-08T07:34:52.000Z</time>
      </trkpt>
      <trkpt lat="47.2843" lon="-2.31541">
        <ele>28.60000038147</ele>
        <time>2022-05-08T07:34:53.000Z</time>
      </trkpt>
      <trkpt lat="47.28458" lon="-2.31517">
        <ele>28.60000038147</ele>
        <time>2022-05-08T07:34:59.000Z</time>
      </trkpt>
      <trkpt lat="47.28463" lon="-2.31514">
        <ele>28.60000038147</ele>
        <time>2022-05-08T07:35:00.000Z</time>
      </trkpt>
      <trkpt lat="47.28488" lon="-2.31508">
        <ele>28.60000038147</ele>
        <time>2022-05-08T07:35:05.000Z</time>
      </trkpt>
      <trkpt lat="47.28534" lon="-2.31499">
        <ele>28.60000038147</ele>
        <time>2022-05-08T07:35:14.000Z</time>
      </trkpt>
      <trkpt lat="47.28552" lon="-2.31495">
        <ele>29</ele>
        <time>2022-05-08T07:35:18.000Z</time>
      </trkpt>
      <trkpt lat="47.28556" lon="-2.31494">
        <ele>29.39999961853</ele>
        <time>2022-05-08T07:35:19.000Z</time>
      </trkpt>
      <trkpt lat="47.28561" lon="-2.31493">
        <ele>29.799999237061</ele>
        <time>2022-05-08T07:35:20.000Z</time>
      </trkpt>
      <trkpt lat="47.28566" lon="-2.31491">
        <ele>30.200000762939</ele>
        <time>2022-05-08T07:35:21.000Z</time>
      </trkpt>
      <trkpt lat="47.2857" lon="-2.31489">
        <ele>30.799999237061</ele>
        <time>2022-05-08T07:35:22.000Z</time>
      </trkpt>
      <trkpt lat="47.28611" lon="-2.31471">
        <ele>30.799999237061</ele>
        <time>2022-05-08T07:35:31.000Z</time>
      </trkpt>
      <trkpt lat="47.28621" lon="-2.31467">
        <ele>31.200000762939</ele>
        <time>2022-05-08T07:35:33.000Z</time>
      </trkpt>
      <trkpt lat="47.28626" lon="-2.31465">
        <ele>31.60000038147</ele>
        <time>2022-05-08T07:35:34.000Z</time>
      </trkpt>
      <trkpt lat="47.2863" lon="-2.31463">
        <ele>32</ele>
        <time>2022-05-08T07:35:35.000Z</time>
      </trkpt>
      <trkpt lat="47.28635" lon="-2.3146">
        <ele>32.400001525879</ele>
        <time>2022-05-08T07:35:36.000Z</time>
      </trkpt>
      <trkpt lat="47.28639" lon="-2.31458">
        <ele>32.799999237061</ele>
        <time>2022-05-08T07:35:37.000Z</time>
      </trkpt>
      <trkpt lat="47.28644" lon="-2.31456">
        <ele>32.799999237061</ele>
        <time>2022-05-08T07:35:38.000Z</time>
      </trkpt>
      <trkpt lat="47.28669" lon="-2.31442">
        <ele>32.799999237061</ele>
        <time>2022-05-08T07:35:44.000Z</time>
      </trkpt>
      <trkpt lat="47.28677" lon="-2.31433">
        <ele>32.799999237061</ele>
        <time>2022-05-08T07:35:46.000Z</time>
      </trkpt>
      <trkpt lat="47.28685" lon="-2.31401">
        <ele>32.799999237061</ele>
        <time>2022-05-08T07:35:50.000Z</time>
      </trkpt>
      <trkpt lat="47.28679" lon="-2.31376">
        <ele>32.799999237061</ele>
        <time>2022-05-08T07:35:53.000Z</time>
      </trkpt>
      <trkpt lat="47.28667" lon="-2.31353">
        <ele>32.799999237061</ele>
        <time>2022-05-08T07:35:56.000Z</time>
      </trkpt>
      <trkpt lat="47.2866" lon="-2.31336">
        <ele>32.799999237061</ele>
        <time>2022-05-08T07:35:58.000Z</time>
      </trkpt>
      <trkpt lat="47.28658" lon="-2.31326">
        <ele>32.400001525879</ele>
        <time>2022-05-08T07:35:59.000Z</time>
      </trkpt>
      <trkpt lat="47.28655" lon="-2.31317">
        <ele>32</ele>
        <time>2022-05-08T07:36:00.000Z</time>
      </trkpt>
      <trkpt lat="47.28653" lon="-2.31308">
        <ele>31.60000038147</ele>
        <time>2022-05-08T07:36:01.000Z</time>
      </trkpt>
      <trkpt lat="47.28651" lon="-2.31298">
        <ele>31.200000762939</ele>
        <time>2022-05-08T07:36:02.000Z</time>
      </trkpt>
      <trkpt lat="47.2865" lon="-2.31289">
        <ele>30.799999237061</ele>
        <time>2022-05-08T07:36:03.000Z</time>
      </trkpt>
      <trkpt lat="47.28649" lon="-2.3127">
        <ele>30.799999237061</ele>
        <time>2022-05-08T07:36:05.000Z</time>
      </trkpt>
      <trkpt lat="47.28652" lon="-2.31251">
        <ele>30.799999237061</ele>
        <time>2022-05-08T07:36:07.000Z</time>
      </trkpt>
      <trkpt lat="47.28663" lon="-2.31228">
        <ele>30.39999961853</ele>
        <time>2022-05-08T07:36:10.000Z</time>
      </trkpt>
      <trkpt lat="47.28667" lon="-2.31221">
        <ele>29.799999237061</ele>
        <time>2022-05-08T07:36:11.000Z</time>
      </trkpt>
      <trkpt lat="47.28671" lon="-2.31215">
        <ele>29.39999961853</ele>
        <time>2022-05-08T07:36:12.000Z</time>
      </trkpt>
      <trkpt lat="47.28675" lon="-2.31208">
        <ele>29</ele>
        <time>2022-05-08T07:36:13.000Z</time>
      </trkpt>
      <trkpt lat="47.28679" lon="-2.31203">
        <ele>28.60000038147</ele>
        <time>2022-05-08T07:36:14.000Z</time>
      </trkpt>
      <trkpt lat="47.28691" lon="-2.31188">
        <ele>28.60000038147</ele>
        <time>2022-05-08T07:36:17.000Z</time>
      </trkpt>
      <trkpt lat="47.28709" lon="-2.31167">
        <ele>28.200000762939</ele>
        <time>2022-05-08T07:36:21.000Z</time>
      </trkpt>
      <trkpt lat="47.28713" lon="-2.3116">
        <ele>27.799999237061</ele>
        <time>2022-05-08T07:36:22.000Z</time>
      </trkpt>
      <trkpt lat="47.28716" lon="-2.31153">
        <ele>27.39999961853</ele>
        <time>2022-05-08T07:36:23.000Z</time>
      </trkpt>
      <trkpt lat="47.28718" lon="-2.31145">
        <ele>27</ele>
        <time>2022-05-08T07:36:24.000Z</time>
      </trkpt>
      <trkpt lat="47.28721" lon="-2.31137">
        <ele>26.60000038147</ele>
        <time>2022-05-08T07:36:25.000Z</time>
      </trkpt>
      <trkpt lat="47.28724" lon="-2.3112">
        <ele>26.60000038147</ele>
        <time>2022-05-08T07:36:27.000Z</time>
      </trkpt>
      <trkpt lat="47.28732" lon="-2.31077">
        <ele>26.60000038147</ele>
        <time>2022-05-08T07:36:32.000Z</time>
      </trkpt>
      <trkpt lat="47.28738" lon="-2.3106">
        <ele>26.60000038147</ele>
        <time>2022-05-08T07:36:34.000Z</time>
      </trkpt>
      <trkpt lat="47.28744" lon="-2.31042">
        <ele>26.200000762939</ele>
        <time>2022-05-08T07:36:36.000Z</time>
      </trkpt>
      <trkpt lat="47.28747" lon="-2.31033">
        <ele>25.799999237061</ele>
        <time>2022-05-08T07:36:37.000Z</time>
      </trkpt>
      <trkpt lat="47.2875" lon="-2.31023">
        <ele>25.200000762939</ele>
        <time>2022-05-08T07:36:38.000Z</time>
      </trkpt>
      <trkpt lat="47.28754" lon="-2.31014">
        <ele>24.799999237061</ele>
        <time>2022-05-08T07:36:39.000Z</time>
      </trkpt>
      <trkpt lat="47.28757" lon="-2.31005">
        <ele>24.39999961853</ele>
        <time>2022-05-08T07:36:40.000Z</time>
      </trkpt>
      <trkpt lat="47.28776" lon="-2.30951">
        <ele>24.39999961853</ele>
        <time>2022-05-08T07:36:46.000Z</time>
      </trkpt>
      <trkpt lat="47.28787" lon="-2.30927">
        <ele>24</ele>
        <time>2022-05-08T07:36:49.000Z</time>
      </trkpt>
      <trkpt lat="47.28791" lon="-2.30919">
        <ele>23.60000038147</ele>
        <time>2022-05-08T07:36:50.000Z</time>
      </trkpt>
      <trkpt lat="47.28794" lon="-2.30911">
        <ele>23.200000762939</ele>
        <time>2022-05-08T07:36:51.000Z</time>
      </trkpt>
      <trkpt lat="47.28797" lon="-2.30904">
        <ele>22.799999237061</ele>
        <time>2022-05-08T07:36:52.000Z</time>
      </trkpt>
      <trkpt lat="47.28801" lon="-2.30896">
        <ele>22.39999961853</ele>
        <time>2022-05-08T07:36:53.000Z</time>
      </trkpt>
      <trkpt lat="47.28819" lon="-2.3086">
        <ele>22.39999961853</ele>
        <time>2022-05-08T07:36:58.000Z</time>
      </trkpt>
      <trkpt lat="47.28838" lon="-2.30824">
        <ele>21.799999237061</ele>
        <time>2022-05-08T07:37:03.000Z</time>
      </trkpt>
      <trkpt lat="47.28842" lon="-2.30817">
        <ele>21.39999961853</ele>
        <time>2022-05-08T07:37:04.000Z</time>
      </trkpt>
      <trkpt lat="47.28846" lon="-2.3081">
        <ele>21</ele>
        <time>2022-05-08T07:37:05.000Z</time>
      </trkpt>
      <trkpt lat="47.28849" lon="-2.30802">
        <ele>20.60000038147</ele>
        <time>2022-05-08T07:37:06.000Z</time>
      </trkpt>
      <trkpt lat="47.28853" lon="-2.30795">
        <ele>20.200000762939</ele>
        <time>2022-05-08T07:37:07.000Z</time>
      </trkpt>
      <trkpt lat="47.28869" lon="-2.30768">
        <ele>20.200000762939</ele>
        <time>2022-05-08T07:37:11.000Z</time>
      </trkpt>
      <trkpt lat="47.289" lon="-2.30723">
        <ele>19.39999961853</ele>
        <time>2022-05-08T07:37:18.000Z</time>
      </trkpt>
      <trkpt lat="47.28904" lon="-2.30716">
        <ele>19</ele>
        <time>2022-05-08T07:37:19.000Z</time>
      </trkpt>
      <trkpt lat="47.28909" lon="-2.3071">
        <ele>18.60000038147</ele>
        <time>2022-05-08T07:37:20.000Z</time>
      </trkpt>
      <trkpt lat="47.28913" lon="-2.30703">
        <ele>18.200000762939</ele>
        <time>2022-05-08T07:37:21.000Z</time>
      </trkpt>
      <trkpt lat="47.28938" lon="-2.3067">
        <ele>18.200000762939</ele>
        <time>2022-05-08T07:37:26.000Z</time>
      </trkpt>
      <trkpt lat="47.28976" lon="-2.30636">
        <ele>18.200000762939</ele>
        <time>2022-05-08T07:37:33.000Z</time>
      </trkpt>
      <trkpt lat="47.28997" lon="-2.30619">
        <ele>18.200000762939</ele>
        <time>2022-05-08T07:37:37.000Z</time>
      </trkpt>
      <trkpt lat="47.29001" lon="-2.30612">
        <ele>18.200000762939</ele>
        <time>2022-05-08T07:37:38.000Z</time>
      </trkpt>
      <trkpt lat="47.29002" lon="-2.30588">
        <ele>18.200000762939</ele>
        <time>2022-05-08T07:37:41.000Z</time>
      </trkpt>
      <trkpt lat="47.28999" lon="-2.30565">
        <ele>18.200000762939</ele>
        <time>2022-05-08T07:37:44.000Z</time>
      </trkpt>
      <trkpt lat="47.28996" lon="-2.30551">
        <ele>18.200000762939</ele>
        <time>2022-05-08T07:37:46.000Z</time>
      </trkpt>
      <trkpt lat="47.28988" lon="-2.30501">
        <ele>18.200000762939</ele>
        <time>2022-05-08T07:37:53.000Z</time>
      </trkpt>
      <trkpt lat="47.2898" lon="-2.30442">
        <ele>18.200000762939</ele>
        <time>2022-05-08T07:38:00.000Z</time>
      </trkpt>
      <trkpt lat="47.28976" lon="-2.30383">
        <ele>18.200000762939</ele>
        <time>2022-05-08T07:38:07.000Z</time>
      </trkpt>
      <trkpt lat="47.28976" lon="-2.30328">
        <ele>18.200000762939</ele>
        <time>2022-05-08T07:38:14.000Z</time>
      </trkpt>
      <trkpt lat="47.28972" lon="-2.30276">
        <ele>17.60000038147</ele>
        <time>2022-05-08T07:38:21.000Z</time>
      </trkpt>
      <trkpt lat="47.28973" lon="-2.3027">
        <ele>17.200000762939</ele>
        <time>2022-05-08T07:38:22.000Z</time>
      </trkpt>
      <trkpt lat="47.28974" lon="-2.30265">
        <ele>16.799999237061</ele>
        <time>2022-05-08T07:38:23.000Z</time>
      </trkpt>
      <trkpt lat="47.28977" lon="-2.30261">
        <ele>16.39999961853</ele>
        <time>2022-05-08T07:38:24.000Z</time>
      </trkpt>
      <trkpt lat="47.28979" lon="-2.30258">
        <ele>16</ele>
        <time>2022-05-08T07:38:25.000Z</time>
      </trkpt>
      <trkpt lat="47.28984" lon="-2.30256">
        <ele>16</ele>
        <time>2022-05-08T07:38:27.000Z</time>
      </trkpt>
      <trkpt lat="47.28989" lon="-2.30259">
        <ele>16</ele>
        <time>2022-05-08T07:38:29.000Z</time>
      </trkpt>
      <trkpt lat="47.29002" lon="-2.30258">
        <ele>16</ele>
        <time>2022-05-08T07:38:34.000Z</time>
      </trkpt>
      <trkpt lat="47.29017" lon="-2.30254">
        <ele>16</ele>
        <time>2022-05-08T07:38:41.000Z</time>
      </trkpt>
      <trkpt lat="47.29017" lon="-2.30254">
        <ele>16</ele>
        <time>2022-05-08T07:38:43.000Z</time>
      </trkpt>
      <trkpt lat="47.29019" lon="-2.30254">
        <ele>16</ele>
        <time>2022-05-08T07:39:29.000Z</time>
      </trkpt>
      <trkpt lat="47.29022" lon="-2.30254">
        <ele>16</ele>
        <time>2022-05-08T07:39:30.000Z</time>
      </trkpt>
      <trkpt lat="47.29035" lon="-2.30247">
        <ele>16</ele>
        <time>2022-05-08T07:39:35.000Z</time>
      </trkpt>
      <trkpt lat="47.29061" lon="-2.30235">
        <ele>16</ele>
        <time>2022-05-08T07:39:41.000Z</time>
      </trkpt>
      <trkpt lat="47.29071" lon="-2.30231">
        <ele>16</ele>
        <time>2022-05-08T07:39:43.000Z</time>
      </trkpt>
      <trkpt lat="47.29091" lon="-2.3022">
        <ele>16</ele>
        <time>2022-05-08T07:39:47.000Z</time>
      </trkpt>
      <trkpt lat="47.29128" lon="-2.30201">
        <ele>16</ele>
        <time>2022-05-08T07:39:54.000Z</time>
      </trkpt>
      <trkpt lat="47.29168" lon="-2.30179">
        <ele>16</ele>
        <time>2022-05-08T07:40:02.000Z</time>
      </trkpt>
      <trkpt lat="47.292" lon="-2.3016">
        <ele>16</ele>
        <time>2022-05-08T07:40:08.000Z</time>
      </trkpt>
      <trkpt lat="47.29205" lon="-2.30158">
        <ele>16</ele>
        <time>2022-05-08T07:40:09.000Z</time>
      </trkpt>
      <trkpt lat="47.29225" lon="-2.30148">
        <ele>16</ele>
        <time>2022-05-08T07:40:13.000Z</time>
      </trkpt>
      <trkpt lat="47.29245" lon="-2.30142">
        <ele>16</ele>
        <time>2022-05-08T07:40:17.000Z</time>
      </trkpt>
      <trkpt lat="47.29255" lon="-2.30139">
        <ele>15.60000038147</ele>
        <time>2022-05-08T07:40:19.000Z</time>
      </trkpt>
      <trkpt lat="47.2926" lon="-2.30138">
        <ele>15.199999809265</ele>
        <time>2022-05-08T07:40:20.000Z</time>
      </trkpt>
      <trkpt lat="47.29266" lon="-2.30137">
        <ele>14.800000190735</ele>
        <time>2022-05-08T07:40:21.000Z</time>
      </trkpt>
      <trkpt lat="47.29271" lon="-2.30137">
        <ele>14.39999961853</ele>
        <time>2022-05-08T07:40:22.000Z</time>
      </trkpt>
      <trkpt lat="47.29276" lon="-2.30137">
        <ele>14</ele>
        <time>2022-05-08T07:40:23.000Z</time>
      </trkpt>
      <trkpt lat="47.29281" lon="-2.30137">
        <ele>14</ele>
        <time>2022-05-08T07:40:24.000Z</time>
      </trkpt>
      <trkpt lat="47.29322" lon="-2.30136">
        <ele>14</ele>
        <time>2022-05-08T07:40:32.000Z</time>
      </trkpt>
      <trkpt lat="47.29328" lon="-2.30131">
        <ele>14</ele>
        <time>2022-05-08T07:40:34.000Z</time>
      </trkpt>
      <trkpt lat="47.29329" lon="-2.30126">
        <ele>14</ele>
        <time>2022-05-08T07:40:35.000Z</time>
      </trkpt>
      <trkpt lat="47.29335" lon="-2.30112">
        <ele>14</ele>
        <time>2022-05-08T07:40:38.000Z</time>
      </trkpt>
      <trkpt lat="47.29338" lon="-2.301">
        <ele>14</ele>
        <time>2022-05-08T07:40:40.000Z</time>
      </trkpt>
      <trkpt lat="47.29341" lon="-2.30081">
        <ele>14</ele>
        <time>2022-05-08T07:40:43.000Z</time>
      </trkpt>
      <trkpt lat="47.29341" lon="-2.30062">
        <ele>14</ele>
        <time>2022-05-08T07:40:46.000Z</time>
      </trkpt>
      <trkpt lat="47.29342" lon="-2.30056">
        <ele>14</ele>
        <time>2022-05-08T07:40:47.000Z</time>
      </trkpt>
      <trkpt lat="47.29342" lon="-2.30043">
        <ele>14</ele>
        <time>2022-05-08T07:40:49.000Z</time>
      </trkpt>
      <trkpt lat="47.29344" lon="-2.30025">
        <ele>14</ele>
        <time>2022-05-08T07:40:52.000Z</time>
      </trkpt>
      <trkpt lat="47.29347" lon="-2.30003">
        <ele>14</ele>
        <time>2022-05-08T07:40:57.000Z</time>
      </trkpt>
      <trkpt lat="47.29357" lon="-2.30007">
        <ele>14</ele>
        <time>2022-05-08T07:41:00.000Z</time>
      </trkpt>
      <trkpt lat="47.29361" lon="-2.30009">
        <ele>14</ele>
        <time>2022-05-08T07:41:01.000Z</time>
      </trkpt>
      <trkpt lat="47.29365" lon="-2.30011">
        <ele>14</ele>
        <time>2022-05-08T07:41:02.000Z</time>
      </trkpt>
      <trkpt lat="47.29381" lon="-2.30019">
        <ele>14</ele>
        <time>2022-05-08T07:41:05.000Z</time>
      </trkpt>
      <trkpt lat="47.29386" lon="-2.30021">
        <ele>14</ele>
        <time>2022-05-08T07:41:06.000Z</time>
      </trkpt>
      <trkpt lat="47.29409" lon="-2.30028">
        <ele>14</ele>
        <time>2022-05-08T07:41:10.000Z</time>
      </trkpt>
      <trkpt lat="47.29444" lon="-2.30029">
        <ele>14</ele>
        <time>2022-05-08T07:41:16.000Z</time>
      </trkpt>
      <trkpt lat="47.2949" lon="-2.30028">
        <ele>14</ele>
        <time>2022-05-08T07:41:24.000Z</time>
      </trkpt>
      <trkpt lat="47.29501" lon="-2.30027">
        <ele>14</ele>
        <time>2022-05-08T07:41:26.000Z</time>
      </trkpt>
      <trkpt lat="47.29518" lon="-2.30027">
        <ele>14</ele>
        <time>2022-05-08T07:41:29.000Z</time>
      </trkpt>
      <trkpt lat="47.29524" lon="-2.3003">
        <ele>13.60000038147</ele>
        <time>2022-05-08T07:41:30.000Z</time>
      </trkpt>
      <trkpt lat="47.2953" lon="-2.30031">
        <ele>13.199999809265</ele>
        <time>2022-05-08T07:41:31.000Z</time>
      </trkpt>
      <trkpt lat="47.29536" lon="-2.3003">
        <ele>12.800000190735</ele>
        <time>2022-05-08T07:41:32.000Z</time>
      </trkpt>
      <trkpt lat="47.29541" lon="-2.30027">
        <ele>12.39999961853</ele>
        <time>2022-05-08T07:41:33.000Z</time>
      </trkpt>
      <trkpt lat="47.29547" lon="-2.30025">
        <ele>12</ele>
        <time>2022-05-08T07:41:34.000Z</time>
      </trkpt>
      <trkpt lat="47.29552" lon="-2.30022">
        <ele>12</ele>
        <time>2022-05-08T07:41:35.000Z</time>
      </trkpt>
      <trkpt lat="47.29581" lon="-2.30012">
        <ele>12</ele>
        <time>2022-05-08T07:41:40.000Z</time>
      </trkpt>
      <trkpt lat="47.29627" lon="-2.29997">
        <ele>12</ele>
        <time>2022-05-08T07:41:48.000Z</time>
      </trkpt>
      <trkpt lat="47.29641" lon="-2.29988">
        <ele>12</ele>
        <time>2022-05-08T07:41:51.000Z</time>
      </trkpt>
      <trkpt lat="47.29649" lon="-2.29985">
        <ele>12</ele>
        <time>2022-05-08T07:41:53.000Z</time>
      </trkpt>
      <trkpt lat="47.29662" lon="-2.29995">
        <ele>12</ele>
        <time>2022-05-08T07:41:56.000Z</time>
      </trkpt>
      <trkpt lat="47.29674" lon="-2.30001">
        <ele>12</ele>
        <time>2022-05-08T07:41:58.000Z</time>
      </trkpt>
      <trkpt lat="47.29687" lon="-2.30002">
        <ele>12</ele>
        <time>2022-05-08T07:42:00.000Z</time>
      </trkpt>
      <trkpt lat="47.29724" lon="-2.29996">
        <ele>12</ele>
        <time>2022-05-08T07:42:06.000Z</time>
      </trkpt>
      <trkpt lat="47.29755" lon="-2.29977">
        <ele>12</ele>
        <time>2022-05-08T07:42:12.000Z</time>
      </trkpt>
      <trkpt lat="47.29784" lon="-2.29956">
        <ele>12</ele>
        <time>2022-05-08T07:42:18.000Z</time>
      </trkpt>
      <trkpt lat="47.29788" lon="-2.29953">
        <ele>12</ele>
        <time>2022-05-08T07:42:19.000Z</time>
      </trkpt>
      <trkpt lat="47.29804" lon="-2.29952">
        <ele>12</ele>
        <time>2022-05-08T07:42:22.000Z</time>
      </trkpt>
      <trkpt lat="47.2981" lon="-2.29953">
        <ele>12</ele>
        <time>2022-05-08T07:42:23.000Z</time>
      </trkpt>
      <trkpt lat="47.29838" lon="-2.29954">
        <ele>12</ele>
        <time>2022-05-08T07:42:28.000Z</time>
      </trkpt>
      <trkpt lat="47.29843" lon="-2.29952">
        <ele>12</ele>
        <time>2022-05-08T07:42:29.000Z</time>
      </trkpt>
      <trkpt lat="47.29873" lon="-2.29945">
        <ele>12</ele>
        <time>2022-05-08T07:42:34.000Z</time>
      </trkpt>
      <trkpt lat="47.29902" lon="-2.29936">
        <ele>12</ele>
        <time>2022-05-08T07:42:39.000Z</time>
      </trkpt>
      <trkpt lat="47.29907" lon="-2.29923">
        <ele>12</ele>
        <time>2022-05-08T07:42:41.000Z</time>
      </trkpt>
      <trkpt lat="47.29906" lon="-2.29902">
        <ele>12</ele>
        <time>2022-05-08T07:42:44.000Z</time>
      </trkpt>
      <trkpt lat="47.29905" lon="-2.29896">
        <ele>12</ele>
        <time>2022-05-08T07:42:45.000Z</time>
      </trkpt>
      <trkpt lat="47.299" lon="-2.29856">
        <ele>12</ele>
        <time>2022-05-08T07:42:51.000Z</time>
      </trkpt>
      <trkpt lat="47.29901" lon="-2.29843">
        <ele>12</ele>
        <time>2022-05-08T07:42:53.000Z</time>
      </trkpt>
      <trkpt lat="47.29909" lon="-2.29824">
        <ele>12</ele>
        <time>2022-05-08T07:42:57.000Z</time>
      </trkpt>
      <trkpt lat="47.29922" lon="-2.29813">
        <ele>12</ele>
        <time>2022-05-08T07:43:01.000Z</time>
      </trkpt>
      <trkpt lat="47.29934" lon="-2.29802">
        <ele>12</ele>
        <time>2022-05-08T07:43:06.000Z</time>
      </trkpt>
      <trkpt lat="47.29944" lon="-2.29786">
        <ele>12</ele>
        <time>2022-05-08T07:43:10.000Z</time>
      </trkpt>
      <trkpt lat="47.29944" lon="-2.2978">
        <ele>12</ele>
        <time>2022-05-08T07:43:11.000Z</time>
      </trkpt>
      <trkpt lat="47.29942" lon="-2.29767">
        <ele>12</ele>
        <time>2022-05-08T07:43:13.000Z</time>
      </trkpt>
      <trkpt lat="47.29938" lon="-2.29754">
        <ele>12</ele>
        <time>2022-05-08T07:43:15.000Z</time>
      </trkpt>
      <trkpt lat="47.29931" lon="-2.29736">
        <ele>12</ele>
        <time>2022-05-08T07:43:18.000Z</time>
      </trkpt>
      <trkpt lat="47.29919" lon="-2.29695">
        <ele>12</ele>
        <time>2022-05-08T07:43:25.000Z</time>
      </trkpt>
      <trkpt lat="47.29917" lon="-2.29668">
        <ele>12</ele>
        <time>2022-05-08T07:43:31.000Z</time>
      </trkpt>
      <trkpt lat="47.29928" lon="-2.29658">
        <ele>12</ele>
        <time>2022-05-08T07:43:35.000Z</time>
      </trkpt>
      <trkpt lat="47.2994" lon="-2.2965">
        <ele>12</ele>
        <time>2022-05-08T07:43:38.000Z</time>
      </trkpt>
      <trkpt lat="47.29953" lon="-2.29643">
        <ele>12</ele>
        <time>2022-05-08T07:43:41.000Z</time>
      </trkpt>
      <trkpt lat="47.29967" lon="-2.2964">
        <ele>12</ele>
        <time>2022-05-08T07:43:44.000Z</time>
      </trkpt>
      <trkpt lat="47.29977" lon="-2.2964">
        <ele>12</ele>
        <time>2022-05-08T07:43:46.000Z</time>
      </trkpt>
      <trkpt lat="47.29982" lon="-2.29638">
        <ele>12</ele>
        <time>2022-05-08T07:43:47.000Z</time>
      </trkpt>
      <trkpt lat="47.29996" lon="-2.29634">
        <ele>12</ele>
        <time>2022-05-08T07:43:50.000Z</time>
      </trkpt>
      <trkpt lat="47.30001" lon="-2.29634">
        <ele>12</ele>
        <time>2022-05-08T07:43:51.000Z</time>
      </trkpt>
      <trkpt lat="47.30028" lon="-2.29631">
        <ele>12</ele>
        <time>2022-05-08T07:43:56.000Z</time>
      </trkpt>
      <trkpt lat="47.30049" lon="-2.29631">
        <ele>12</ele>
        <time>2022-05-08T07:44:00.000Z</time>
      </trkpt>
      <trkpt lat="47.3007" lon="-2.29636">
        <ele>12</ele>
        <time>2022-05-08T07:44:02.000Z</time>
      </trkpt>
      <trkpt lat="47.30109" lon="-2.29649">
        <ele>12</ele>
        <time>2022-05-08T07:44:11.000Z</time>
      </trkpt>
      <trkpt lat="47.30149" lon="-2.29664">
        <ele>12</ele>
        <time>2022-05-08T07:44:18.000Z</time>
      </trkpt>
      <trkpt lat="47.30178" lon="-2.29678">
        <ele>11.39999961853</ele>
        <time>2022-05-08T07:44:23.000Z</time>
      </trkpt>
      <trkpt lat="47.30183" lon="-2.29681">
        <ele>11</ele>
        <time>2022-05-08T07:44:24.000Z</time>
      </trkpt>
      <trkpt lat="47.30189" lon="-2.29684">
        <ele>10.60000038147</ele>
        <time>2022-05-08T07:44:25.000Z</time>
      </trkpt>
      <trkpt lat="47.30195" lon="-2.29688">
        <ele>10.199999809265</ele>
        <time>2022-05-08T07:44:26.000Z</time>
      </trkpt>
      <trkpt lat="47.30201" lon="-2.29692">
        <ele>9.8000001907349</ele>
        <time>2022-05-08T07:44:27.000Z</time>
      </trkpt>
      <trkpt lat="47.30224" lon="-2.29703">
        <ele>9.8000001907349</ele>
        <time>2022-05-08T07:44:31.000Z</time>
      </trkpt>
      <trkpt lat="47.30244" lon="-2.29712">
        <ele>9.8000001907349</ele>
        <time>2022-05-08T07:44:36.000Z</time>
      </trkpt>
      <trkpt lat="47.30247" lon="-2.29714">
        <ele>9.8000001907349</ele>
        <time>2022-05-08T07:44:38.000Z</time>
      </trkpt>
      <trkpt lat="47.30248" lon="-2.29715">
        <ele>9.8000001907349</ele>
        <time>2022-05-08T07:44:39.000Z</time>
      </trkpt>
      <trkpt lat="47.30245" lon="-2.29721">
        <ele>9.8000001907349</ele>
        <time>2022-05-08T07:44:42.000Z</time>
      </trkpt>
      <trkpt lat="47.30233" lon="-2.29739">
        <ele>9.8000001907349</ele>
        <time>2022-05-08T07:44:49.000Z</time>
      </trkpt>
      <trkpt lat="47.30231" lon="-2.29741">
        <ele>9.3999996185303</ele>
        <time>2022-05-08T07:44:50.000Z</time>
      </trkpt>
      <trkpt lat="47.3023" lon="-2.29743">
        <ele>9</ele>
        <time>2022-05-08T07:44:51.000Z</time>
      </trkpt>
      <trkpt lat="47.30228" lon="-2.29745">
        <ele>8.6000003814697</ele>
        <time>2022-05-08T07:44:52.000Z</time>
      </trkpt>
      <trkpt lat="47.30226" lon="-2.29747">
        <ele>8.1999998092651</ele>
        <time>2022-05-08T07:44:53.000Z</time>
      </trkpt>
      <trkpt lat="47.30224" lon="-2.29749">
        <ele>7.8000001907349</ele>
        <time>2022-05-08T07:44:54.000Z</time>
      </trkpt>
      <trkpt lat="47.3022" lon="-2.29755">
        <ele>7.8000001907349</ele>
        <time>2022-05-08T07:44:56.000Z</time>
      </trkpt>
      <trkpt lat="47.30208" lon="-2.29778">
        <ele>7.8000001907349</ele>
        <time>2022-05-08T07:45:02.000Z</time>
      </trkpt>
      <trkpt lat="47.3019" lon="-2.29801">
        <ele>7.8000001907349</ele>
        <time>2022-05-08T07:45:09.000Z</time>
      </trkpt>
      <trkpt lat="47.30178" lon="-2.29819">
        <ele>7.8000001907349</ele>
        <time>2022-05-08T07:45:15.000Z</time>
      </trkpt>
      <trkpt lat="47.30164" lon="-2.29838">
        <ele>7.8000001907349</ele>
        <time>2022-05-08T07:45:21.000Z</time>
      </trkpt>
      <trkpt lat="47.30148" lon="-2.29861">
        <ele>7.8000001907349</ele>
        <time>2022-05-08T07:45:27.000Z</time>
      </trkpt>
      <trkpt lat="47.30145" lon="-2.29864">
        <ele>7.8000001907349</ele>
        <time>2022-05-08T07:45:28.000Z</time>
      </trkpt>
      <trkpt lat="47.30138" lon="-2.29866">
        <ele>7.8000001907349</ele>
        <time>2022-05-08T07:45:30.000Z</time>
      </trkpt>
      <trkpt lat="47.30125" lon="-2.29879">
        <ele>7.8000001907349</ele>
        <time>2022-05-08T07:45:34.000Z</time>
      </trkpt>
      <trkpt lat="47.30105" lon="-2.29904">
        <ele>7.8000001907349</ele>
        <time>2022-05-08T07:45:41.000Z</time>
      </trkpt>
      <trkpt lat="47.30095" lon="-2.29911">
        <ele>7.8000001907349</ele>
        <time>2022-05-08T07:45:45.000Z</time>
      </trkpt>
      <trkpt lat="47.30094" lon="-2.29914">
        <ele>7.8000001907349</ele>
        <time>2022-05-08T07:45:46.000Z</time>
      </trkpt>
      <trkpt lat="47.30094" lon="-2.29932">
        <ele>7.8000001907349</ele>
        <time>2022-05-08T07:45:51.000Z</time>
      </trkpt>
      <trkpt lat="47.301" lon="-2.29952">
        <ele>7.8000001907349</ele>
        <time>2022-05-08T07:45:56.000Z</time>
      </trkpt>
      <trkpt lat="47.30101" lon="-2.29971">
        <ele>7.8000001907349</ele>
        <time>2022-05-08T07:46:01.000Z</time>
      </trkpt>
      <trkpt lat="47.3011" lon="-2.29989">
        <ele>7.8000001907349</ele>
        <time>2022-05-08T07:46:07.000Z</time>
      </trkpt>
      <trkpt lat="47.30121" lon="-2.30001">
        <ele>7.8000001907349</ele>
        <time>2022-05-08T07:46:12.000Z</time>
      </trkpt>
      <trkpt lat="47.30128" lon="-2.30013">
        <ele>8.1999998092651</ele>
        <time>2022-05-08T07:46:15.000Z</time>
      </trkpt>
      <trkpt lat="47.3013" lon="-2.30018">
        <ele>8.6000003814697</ele>
        <time>2022-05-08T07:46:16.000Z</time>
      </trkpt>
      <trkpt lat="47.30132" lon="-2.30024">
        <ele>9</ele>
        <time>2022-05-08T07:46:17.000Z</time>
      </trkpt>
      <trkpt lat="47.30135" lon="-2.30029">
        <ele>9.3999996185303</ele>
        <time>2022-05-08T07:46:18.000Z</time>
      </trkpt>
      <trkpt lat="47.30137" lon="-2.30035">
        <ele>9.8000001907349</ele>
        <time>2022-05-08T07:46:19.000Z</time>
      </trkpt>
      <trkpt lat="47.30146" lon="-2.30058">
        <ele>9.8000001907349</ele>
        <time>2022-05-08T07:46:23.000Z</time>
      </trkpt>
      <trkpt lat="47.30148" lon="-2.30063">
        <ele>9.8000001907349</ele>
        <time>2022-05-08T07:46:24.000Z</time>
      </trkpt>
      <trkpt lat="47.3016" lon="-2.30089">
        <ele>9.8000001907349</ele>
        <time>2022-05-08T07:46:29.000Z</time>
      </trkpt>
      <trkpt lat="47.30174" lon="-2.30133">
        <ele>9.8000001907349</ele>
        <time>2022-05-08T07:46:37.000Z</time>
      </trkpt>
      <trkpt lat="47.30189" lon="-2.30172">
        <ele>9.8000001907349</ele>
        <time>2022-05-08T07:46:44.000Z</time>
      </trkpt>
      <trkpt lat="47.30198" lon="-2.302">
        <ele>9.8000001907349</ele>
        <time>2022-05-08T07:46:50.000Z</time>
      </trkpt>
      <trkpt lat="47.30201" lon="-2.30215">
        <ele>9.8000001907349</ele>
        <time>2022-05-08T07:46:53.000Z</time>
      </trkpt>
      <trkpt lat="47.302" lon="-2.30221">
        <ele>9.8000001907349</ele>
        <time>2022-05-08T07:46:54.000Z</time>
      </trkpt>
      <trkpt lat="47.3019" lon="-2.30235">
        <ele>9.8000001907349</ele>
        <time>2022-05-08T07:46:57.000Z</time>
      </trkpt>
      <trkpt lat="47.30185" lon="-2.30238">
        <ele>10.199999809265</ele>
        <time>2022-05-08T07:46:58.000Z</time>
      </trkpt>
      <trkpt lat="47.3018" lon="-2.30242">
        <ele>10.60000038147</ele>
        <time>2022-05-08T07:46:59.000Z</time>
      </trkpt>
      <trkpt lat="47.30176" lon="-2.30245">
        <ele>11</ele>
        <time>2022-05-08T07:47:00.000Z</time>
      </trkpt>
      <trkpt lat="47.30171" lon="-2.30247">
        <ele>11.39999961853</ele>
        <time>2022-05-08T07:47:01.000Z</time>
      </trkpt>
      <trkpt lat="47.30166" lon="-2.30249">
        <ele>11.800000190735</ele>
        <time>2022-05-08T07:47:02.000Z</time>
      </trkpt>
      <trkpt lat="47.30161" lon="-2.3025">
        <ele>11.800000190735</ele>
        <time>2022-05-08T07:47:03.000Z</time>
      </trkpt>
      <trkpt lat="47.30125" lon="-2.30262">
        <ele>11.800000190735</ele>
        <time>2022-05-08T07:47:11.000Z</time>
      </trkpt>
      <trkpt lat="47.30121" lon="-2.30263">
        <ele>11.800000190735</ele>
        <time>2022-05-08T07:47:12.000Z</time>
      </trkpt>
      <trkpt lat="47.30107" lon="-2.30274">
        <ele>11.800000190735</ele>
        <time>2022-05-08T07:47:16.000Z</time>
      </trkpt>
      <trkpt lat="47.30104" lon="-2.30291">
        <ele>11.800000190735</ele>
        <time>2022-05-08T07:47:20.000Z</time>
      </trkpt>
      <trkpt lat="47.30105" lon="-2.30301">
        <ele>11.800000190735</ele>
        <time>2022-05-08T07:47:22.000Z</time>
      </trkpt>
      <trkpt lat="47.30109" lon="-2.30319">
        <ele>11.800000190735</ele>
        <time>2022-05-08T07:47:25.000Z</time>
      </trkpt>
      <trkpt lat="47.30111" lon="-2.30325">
        <ele>11.800000190735</ele>
        <time>2022-05-08T07:47:26.000Z</time>
      </trkpt>
      <trkpt lat="47.30126" lon="-2.30375">
        <ele>11.800000190735</ele>
        <time>2022-05-08T07:47:34.000Z</time>
      </trkpt>
      <trkpt lat="47.3014" lon="-2.30425">
        <ele>11.800000190735</ele>
        <time>2022-05-08T07:47:41.000Z</time>
      </trkpt>
      <trkpt lat="47.30157" lon="-2.30464">
        <ele>11.800000190735</ele>
        <time>2022-05-08T07:47:47.000Z</time>
      </trkpt>
      <trkpt lat="47.30182" lon="-2.30501">
        <ele>11.800000190735</ele>
        <time>2022-05-08T07:47:54.000Z</time>
      </trkpt>
      <trkpt lat="47.30194" lon="-2.30513">
        <ele>11.800000190735</ele>
        <time>2022-05-08T07:47:57.000Z</time>
      </trkpt>
      <trkpt lat="47.30202" lon="-2.30519">
        <ele>11.800000190735</ele>
        <time>2022-05-08T07:47:59.000Z</time>
      </trkpt>
      <trkpt lat="47.3021" lon="-2.30527">
        <ele>11.800000190735</ele>
        <time>2022-05-08T07:48:01.000Z</time>
      </trkpt>
      <trkpt lat="47.30217" lon="-2.30534">
        <ele>11.800000190735</ele>
        <time>2022-05-08T07:48:03.000Z</time>
      </trkpt>
      <trkpt lat="47.30224" lon="-2.30543">
        <ele>11.800000190735</ele>
        <time>2022-05-08T07:48:05.000Z</time>
      </trkpt>
      <trkpt lat="47.30232" lon="-2.30562">
        <ele>11.800000190735</ele>
        <time>2022-05-08T07:48:09.000Z</time>
      </trkpt>
      <trkpt lat="47.30236" lon="-2.30568">
        <ele>11.800000190735</ele>
        <time>2022-05-08T07:48:11.000Z</time>
      </trkpt>
      <trkpt lat="47.30238" lon="-2.30572">
        <ele>11.800000190735</ele>
        <time>2022-05-08T07:48:12.000Z</time>
      </trkpt>
      <trkpt lat="47.30237" lon="-2.3058">
        <ele>11.800000190735</ele>
        <time>2022-05-08T07:48:14.000Z</time>
      </trkpt>
      <trkpt lat="47.30224" lon="-2.30593">
        <ele>11.800000190735</ele>
        <time>2022-05-08T07:48:18.000Z</time>
      </trkpt>
      <trkpt lat="47.3022" lon="-2.30595">
        <ele>11.800000190735</ele>
        <time>2022-05-08T07:48:19.000Z</time>
      </trkpt>
      <trkpt lat="47.30202" lon="-2.30605">
        <ele>11.800000190735</ele>
        <time>2022-05-08T07:48:24.000Z</time>
      </trkpt>
      <trkpt lat="47.30189" lon="-2.30625">
        <ele>11.800000190735</ele>
        <time>2022-05-08T07:48:29.000Z</time>
      </trkpt>
      <trkpt lat="47.3017" lon="-2.30639">
        <ele>11.800000190735</ele>
        <time>2022-05-08T07:48:34.000Z</time>
      </trkpt>
      <trkpt lat="47.30167" lon="-2.30645">
        <ele>11.800000190735</ele>
        <time>2022-05-08T07:48:35.000Z</time>
      </trkpt>
      <trkpt lat="47.30165" lon="-2.3067">
        <ele>11.800000190735</ele>
        <time>2022-05-08T07:48:38.000Z</time>
      </trkpt>
      <trkpt lat="47.30168" lon="-2.30688">
        <ele>11.800000190735</ele>
        <time>2022-05-08T07:48:40.000Z</time>
      </trkpt>
      <trkpt lat="47.30171" lon="-2.30722">
        <ele>11.800000190735</ele>
        <time>2022-05-08T07:48:44.000Z</time>
      </trkpt>
      <trkpt lat="47.30174" lon="-2.3075">
        <ele>11.800000190735</ele>
        <time>2022-05-08T07:48:48.000Z</time>
      </trkpt>
      <trkpt lat="47.30175" lon="-2.30774">
        <ele>11.800000190735</ele>
        <time>2022-05-08T07:48:52.000Z</time>
      </trkpt>
      <trkpt lat="47.30177" lon="-2.30809">
        <ele>11.800000190735</ele>
        <time>2022-05-08T07:48:57.000Z</time>
      </trkpt>
      <trkpt lat="47.30186" lon="-2.30829">
        <ele>11.800000190735</ele>
        <time>2022-05-08T07:49:01.000Z</time>
      </trkpt>
      <trkpt lat="47.30208" lon="-2.30849">
        <ele>11.800000190735</ele>
        <time>2022-05-08T07:49:06.000Z</time>
      </trkpt>
      <trkpt lat="47.30237" lon="-2.30876">
        <ele>11.800000190735</ele>
        <time>2022-05-08T07:49:12.000Z</time>
      </trkpt>
      <trkpt lat="47.30245" lon="-2.30886">
        <ele>12.39999961853</ele>
        <time>2022-05-08T07:49:14.000Z</time>
      </trkpt>
      <trkpt lat="47.30249" lon="-2.3089">
        <ele>12.800000190735</ele>
        <time>2022-05-08T07:49:15.000Z</time>
      </trkpt>
      <trkpt lat="47.30253" lon="-2.30895">
        <ele>13.199999809265</ele>
        <time>2022-05-08T07:49:16.000Z</time>
      </trkpt>
      <trkpt lat="47.30257" lon="-2.309">
        <ele>13.60000038147</ele>
        <time>2022-05-08T07:49:17.000Z</time>
      </trkpt>
      <trkpt lat="47.30261" lon="-2.30905">
        <ele>14</ele>
        <time>2022-05-08T07:49:18.000Z</time>
      </trkpt>
      <trkpt lat="47.30265" lon="-2.3091">
        <ele>14</ele>
        <time>2022-05-08T07:49:19.000Z</time>
      </trkpt>
      <trkpt lat="47.3028" lon="-2.30929">
        <ele>14</ele>
        <time>2022-05-08T07:49:23.000Z</time>
      </trkpt>
      <trkpt lat="47.30283" lon="-2.30934">
        <ele>14.39999961853</ele>
        <time>2022-05-08T07:49:24.000Z</time>
      </trkpt>
      <trkpt lat="47.30287" lon="-2.30939">
        <ele>14.800000190735</ele>
        <time>2022-05-08T07:49:25.000Z</time>
      </trkpt>
      <trkpt lat="47.3029" lon="-2.30944">
        <ele>15.39999961853</ele>
        <time>2022-05-08T07:49:26.000Z</time>
      </trkpt>
      <trkpt lat="47.30294" lon="-2.30949">
        <ele>15.800000190735</ele>
        <time>2022-05-08T07:49:27.000Z</time>
      </trkpt>
      <trkpt lat="47.30297" lon="-2.30954">
        <ele>16.200000762939</ele>
        <time>2022-05-08T07:49:28.000Z</time>
      </trkpt>
      <trkpt lat="47.30304" lon="-2.30964">
        <ele>16.200000762939</ele>
        <time>2022-05-08T07:49:30.000Z</time>
      </trkpt>
      <trkpt lat="47.30325" lon="-2.30993">
        <ele>16.60000038147</ele>
        <time>2022-05-08T07:49:37.000Z</time>
      </trkpt>
      <trkpt lat="47.30328" lon="-2.30996">
        <ele>17</ele>
        <time>2022-05-08T07:49:38.000Z</time>
      </trkpt>
      <trkpt lat="47.3033" lon="-2.31">
        <ele>17.799999237061</ele>
        <time>2022-05-08T07:49:39.000Z</time>
      </trkpt>
      <trkpt lat="47.30333" lon="-2.31004">
        <ele>18.200000762939</ele>
        <time>2022-05-08T07:49:40.000Z</time>
      </trkpt>
      <trkpt lat="47.30343" lon="-2.31019">
        <ele>18.200000762939</ele>
        <time>2022-05-08T07:49:44.000Z</time>
      </trkpt>
      <trkpt lat="47.30353" lon="-2.31031">
        <ele>18.799999237061</ele>
        <time>2022-05-08T07:49:47.000Z</time>
      </trkpt>
      <trkpt lat="47.30356" lon="-2.31035">
        <ele>19.200000762939</ele>
        <time>2022-05-08T07:49:48.000Z</time>
      </trkpt>
      <trkpt lat="47.30359" lon="-2.31039">
        <ele>19.60000038147</ele>
        <time>2022-05-08T07:49:49.000Z</time>
      </trkpt>
      <trkpt lat="47.30362" lon="-2.31043">
        <ele>20</ele>
        <time>2022-05-08T07:49:50.000Z</time>
      </trkpt>
      <trkpt lat="47.30365" lon="-2.31047">
        <ele>20.60000038147</ele>
        <time>2022-05-08T07:49:51.000Z</time>
      </trkpt>
      <trkpt lat="47.30391" lon="-2.31083">
        <ele>20.60000038147</ele>
        <time>2022-05-08T07:49:59.000Z</time>
      </trkpt>
      <trkpt lat="47.30411" lon="-2.31102">
        <ele>20.60000038147</ele>
        <time>2022-05-08T07:50:04.000Z</time>
      </trkpt>
      <trkpt lat="47.30415" lon="-2.31105">
        <ele>20.60000038147</ele>
        <time>2022-05-08T07:50:05.000Z</time>
      </trkpt>
      <trkpt lat="47.30419" lon="-2.31108">
        <ele>21</ele>
        <time>2022-05-08T07:50:06.000Z</time>
      </trkpt>
      <trkpt lat="47.30423" lon="-2.31111">
        <ele>21.39999961853</ele>
        <time>2022-05-08T07:50:07.000Z</time>
      </trkpt>
      <trkpt lat="47.30427" lon="-2.31114">
        <ele>21.799999237061</ele>
        <time>2022-05-08T07:50:08.000Z</time>
      </trkpt>
      <trkpt lat="47.30431" lon="-2.31117">
        <ele>22.200000762939</ele>
        <time>2022-05-08T07:50:09.000Z</time>
      </trkpt>
      <trkpt lat="47.30434" lon="-2.3112">
        <ele>22.60000038147</ele>
        <time>2022-05-08T07:50:10.000Z</time>
      </trkpt>
      <trkpt lat="47.30438" lon="-2.31124">
        <ele>22.60000038147</ele>
        <time>2022-05-08T07:50:11.000Z</time>
      </trkpt>
      <trkpt lat="47.30446" lon="-2.31139">
        <ele>22.60000038147</ele>
        <time>2022-05-08T07:50:14.000Z</time>
      </trkpt>
      <trkpt lat="47.30449" lon="-2.3115">
        <ele>22.60000038147</ele>
        <time>2022-05-08T07:50:16.000Z</time>
      </trkpt>
      <trkpt lat="47.30458" lon="-2.31179">
        <ele>22.60000038147</ele>
        <time>2022-05-08T07:50:21.000Z</time>
      </trkpt>
      <trkpt lat="47.30472" lon="-2.3122">
        <ele>22.60000038147</ele>
        <time>2022-05-08T07:50:27.000Z</time>
      </trkpt>
      <trkpt lat="47.30481" lon="-2.3124">
        <ele>22.60000038147</ele>
        <time>2022-05-08T07:50:30.000Z</time>
      </trkpt>
      <trkpt lat="47.30495" lon="-2.31265">
        <ele>22.60000038147</ele>
        <time>2022-05-08T07:50:34.000Z</time>
      </trkpt>
      <trkpt lat="47.30523" lon="-2.31306">
        <ele>22.60000038147</ele>
        <time>2022-05-08T07:50:41.000Z</time>
      </trkpt>
      <trkpt lat="47.30549" lon="-2.31347">
        <ele>22.60000038147</ele>
        <time>2022-05-08T07:50:48.000Z</time>
      </trkpt>
      <trkpt lat="47.30564" lon="-2.31374">
        <ele>22.60000038147</ele>
        <time>2022-05-08T07:50:53.000Z</time>
      </trkpt>
      <trkpt lat="47.30576" lon="-2.31395">
        <ele>22.60000038147</ele>
        <time>2022-05-08T07:50:57.000Z</time>
      </trkpt>
      <trkpt lat="47.30581" lon="-2.31407">
        <ele>22.60000038147</ele>
        <time>2022-05-08T07:50:59.000Z</time>
      </trkpt>
      <trkpt lat="47.30603" lon="-2.31457">
        <ele>22.60000038147</ele>
        <time>2022-05-08T07:51:07.000Z</time>
      </trkpt>
      <trkpt lat="47.30608" lon="-2.31469">
        <ele>22.60000038147</ele>
        <time>2022-05-08T07:51:09.000Z</time>
      </trkpt>
      <trkpt lat="47.30619" lon="-2.31495">
        <ele>22.60000038147</ele>
        <time>2022-05-08T07:51:13.000Z</time>
      </trkpt>
      <trkpt lat="47.30626" lon="-2.31507">
        <ele>22.60000038147</ele>
        <time>2022-05-08T07:51:15.000Z</time>
      </trkpt>
      <trkpt lat="47.30633" lon="-2.31527">
        <ele>22.60000038147</ele>
        <time>2022-05-08T07:51:18.000Z</time>
      </trkpt>
      <trkpt lat="47.30654" lon="-2.31574">
        <ele>22.60000038147</ele>
        <time>2022-05-08T07:51:25.000Z</time>
      </trkpt>
      <trkpt lat="47.30664" lon="-2.31595">
        <ele>22.200000762939</ele>
        <time>2022-05-08T07:51:28.000Z</time>
      </trkpt>
      <trkpt lat="47.30667" lon="-2.31602">
        <ele>21.799999237061</ele>
        <time>2022-05-08T07:51:29.000Z</time>
      </trkpt>
      <trkpt lat="47.3067" lon="-2.3161">
        <ele>21.200000762939</ele>
        <time>2022-05-08T07:51:30.000Z</time>
      </trkpt>
      <trkpt lat="47.30673" lon="-2.31618">
        <ele>20.799999237061</ele>
        <time>2022-05-08T07:51:31.000Z</time>
      </trkpt>
      <trkpt lat="47.30676" lon="-2.31627">
        <ele>20.39999961853</ele>
        <time>2022-05-08T07:51:32.000Z</time>
      </trkpt>
      <trkpt lat="47.30679" lon="-2.31636">
        <ele>20.39999961853</ele>
        <time>2022-05-08T07:51:33.000Z</time>
      </trkpt>
      <trkpt lat="47.30687" lon="-2.31662">
        <ele>20.39999961853</ele>
        <time>2022-05-08T07:51:36.000Z</time>
      </trkpt>
      <trkpt lat="47.30693" lon="-2.31677">
        <ele>20.39999961853</ele>
        <time>2022-05-08T07:51:38.000Z</time>
      </trkpt>
      <trkpt lat="47.30702" lon="-2.31696">
        <ele>20.39999961853</ele>
        <time>2022-05-08T07:51:41.000Z</time>
      </trkpt>
      <trkpt lat="47.30707" lon="-2.31708">
        <ele>20.39999961853</ele>
        <time>2022-05-08T07:51:43.000Z</time>
      </trkpt>
      <trkpt lat="47.30712" lon="-2.31719">
        <ele>20.39999961853</ele>
        <time>2022-05-08T07:51:45.000Z</time>
      </trkpt>
      <trkpt lat="47.30719" lon="-2.31734">
        <ele>20.39999961853</ele>
        <time>2022-05-08T07:51:48.000Z</time>
      </trkpt>
      <trkpt lat="47.30721" lon="-2.31739">
        <ele>20.39999961853</ele>
        <time>2022-05-08T07:51:49.000Z</time>
      </trkpt>
      <trkpt lat="47.30725" lon="-2.31751">
        <ele>20.39999961853</ele>
        <time>2022-05-08T07:51:51.000Z</time>
      </trkpt>
      <trkpt lat="47.30729" lon="-2.31756">
        <ele>20.39999961853</ele>
        <time>2022-05-08T07:51:53.000Z</time>
      </trkpt>
      <trkpt lat="47.30739" lon="-2.31755">
        <ele>20.39999961853</ele>
        <time>2022-05-08T07:51:57.000Z</time>
      </trkpt>
      <trkpt lat="47.30749" lon="-2.31755">
        <ele>20.39999961853</ele>
        <time>2022-05-08T07:52:01.000Z</time>
      </trkpt>
      <trkpt lat="47.30759" lon="-2.31743">
        <ele>20.39999961853</ele>
        <time>2022-05-08T07:52:06.000Z</time>
      </trkpt>
      <trkpt lat="47.30763" lon="-2.31739">
        <ele>20.39999961853</ele>
        <time>2022-05-08T07:52:08.000Z</time>
      </trkpt>
      <trkpt lat="47.30772" lon="-2.31728">
        <ele>20.39999961853</ele>
        <time>2022-05-08T07:52:13.000Z</time>
      </trkpt>
      <trkpt lat="47.30783" lon="-2.31714">
        <ele>20.39999961853</ele>
        <time>2022-05-08T07:52:18.000Z</time>
      </trkpt>
      <trkpt lat="47.30799" lon="-2.31697">
        <ele>20.799999237061</ele>
        <time>2022-05-08T07:52:23.000Z</time>
      </trkpt>
      <trkpt lat="47.30803" lon="-2.31693">
        <ele>21.200000762939</ele>
        <time>2022-05-08T07:52:24.000Z</time>
      </trkpt>
      <trkpt lat="47.30806" lon="-2.31689">
        <ele>21.799999237061</ele>
        <time>2022-05-08T07:52:25.000Z</time>
      </trkpt>
      <trkpt lat="47.30809" lon="-2.31686">
        <ele>22.200000762939</ele>
        <time>2022-05-08T07:52:26.000Z</time>
      </trkpt>
      <trkpt lat="47.30812" lon="-2.31682">
        <ele>22.60000038147</ele>
        <time>2022-05-08T07:52:27.000Z</time>
      </trkpt>
      <trkpt lat="47.30831" lon="-2.31659">
        <ele>22.60000038147</ele>
        <time>2022-05-08T07:52:33.000Z</time>
      </trkpt>
      <trkpt lat="47.30834" lon="-2.31656">
        <ele>23</ele>
        <time>2022-05-08T07:52:34.000Z</time>
      </trkpt>
      <trkpt lat="47.30837" lon="-2.31652">
        <ele>23.39999961853</ele>
        <time>2022-05-08T07:52:35.000Z</time>
      </trkpt>
      <trkpt lat="47.30841" lon="-2.31649">
        <ele>23.799999237061</ele>
        <time>2022-05-08T07:52:36.000Z</time>
      </trkpt>
      <trkpt lat="47.30844" lon="-2.31648">
        <ele>24.200000762939</ele>
        <time>2022-05-08T07:52:37.000Z</time>
      </trkpt>
      <trkpt lat="47.30848" lon="-2.3165">
        <ele>24.60000038147</ele>
        <time>2022-05-08T07:52:38.000Z</time>
      </trkpt>
      <trkpt lat="47.30858" lon="-2.31661">
        <ele>24.60000038147</ele>
        <time>2022-05-08T07:52:41.000Z</time>
      </trkpt>
      <trkpt lat="47.30861" lon="-2.31666">
        <ele>24.60000038147</ele>
        <time>2022-05-08T07:52:42.000Z</time>
      </trkpt>
      <trkpt lat="47.30888" lon="-2.31698">
        <ele>24.60000038147</ele>
        <time>2022-05-08T07:52:49.000Z</time>
      </trkpt>
      <trkpt lat="47.3092" lon="-2.31736">
        <ele>24.60000038147</ele>
        <time>2022-05-08T07:52:57.000Z</time>
      </trkpt>
      <trkpt lat="47.30951" lon="-2.31772">
        <ele>24.60000038147</ele>
        <time>2022-05-08T07:53:04.000Z</time>
      </trkpt>
      <trkpt lat="47.30985" lon="-2.31806">
        <ele>24.60000038147</ele>
        <time>2022-05-08T07:53:11.000Z</time>
      </trkpt>
      <trkpt lat="47.31" lon="-2.31824">
        <ele>24.60000038147</ele>
        <time>2022-05-08T07:53:15.000Z</time>
      </trkpt>
      <trkpt lat="47.31001" lon="-2.3183">
        <ele>24.60000038147</ele>
        <time>2022-05-08T07:53:16.000Z</time>
      </trkpt>
      <trkpt lat="47.30998" lon="-2.31849">
        <ele>24.60000038147</ele>
        <time>2022-05-08T07:53:19.000Z</time>
      </trkpt>
      <trkpt lat="47.30994" lon="-2.3186">
        <ele>24.60000038147</ele>
        <time>2022-05-08T07:53:21.000Z</time>
      </trkpt>
      <trkpt lat="47.3099" lon="-2.31872">
        <ele>24.60000038147</ele>
        <time>2022-05-08T07:53:23.000Z</time>
      </trkpt>
      <trkpt lat="47.30988" lon="-2.31884">
        <ele>24.60000038147</ele>
        <time>2022-05-08T07:53:25.000Z</time>
      </trkpt>
      <trkpt lat="47.30985" lon="-2.31902">
        <ele>24.60000038147</ele>
        <time>2022-05-08T07:53:28.000Z</time>
      </trkpt>
      <trkpt lat="47.30981" lon="-2.31912">
        <ele>24.60000038147</ele>
        <time>2022-05-08T07:53:30.000Z</time>
      </trkpt>
      <trkpt lat="47.30975" lon="-2.31924">
        <ele>24.60000038147</ele>
        <time>2022-05-08T07:53:32.000Z</time>
      </trkpt>
      <trkpt lat="47.30968" lon="-2.31949">
        <ele>24.60000038147</ele>
        <time>2022-05-08T07:53:36.000Z</time>
      </trkpt>
      <trkpt lat="47.3097" lon="-2.31974">
        <ele>24.60000038147</ele>
        <time>2022-05-08T07:53:40.000Z</time>
      </trkpt>
      <trkpt lat="47.30972" lon="-2.3198">
        <ele>24.60000038147</ele>
        <time>2022-05-08T07:53:41.000Z</time>
      </trkpt>
      <trkpt lat="47.30974" lon="-2.31986">
        <ele>24.60000038147</ele>
        <time>2022-05-08T07:53:42.000Z</time>
      </trkpt>
      <trkpt lat="47.30981" lon="-2.32008">
        <ele>24.60000038147</ele>
        <time>2022-05-08T07:53:46.000Z</time>
      </trkpt>
      <trkpt lat="47.30995" lon="-2.32046">
        <ele>24.60000038147</ele>
        <time>2022-05-08T07:53:53.000Z</time>
      </trkpt>
      <trkpt lat="47.31018" lon="-2.32084">
        <ele>24.60000038147</ele>
        <time>2022-05-08T07:54:01.000Z</time>
      </trkpt>
      <trkpt lat="47.31037" lon="-2.32113">
        <ele>24.60000038147</ele>
        <time>2022-05-08T07:54:08.000Z</time>
      </trkpt>
      <trkpt lat="47.31047" lon="-2.32126">
        <ele>24.60000038147</ele>
        <time>2022-05-08T07:54:11.000Z</time>
      </trkpt>
      <trkpt lat="47.31056" lon="-2.3214">
        <ele>25</ele>
        <time>2022-05-08T07:54:14.000Z</time>
      </trkpt>
      <trkpt lat="47.31059" lon="-2.32145">
        <ele>25.39999961853</ele>
        <time>2022-05-08T07:54:15.000Z</time>
      </trkpt>
      <trkpt lat="47.31062" lon="-2.3215">
        <ele>26</ele>
        <time>2022-05-08T07:54:16.000Z</time>
      </trkpt>
      <trkpt lat="47.31065" lon="-2.32155">
        <ele>26.39999961853</ele>
        <time>2022-05-08T07:54:17.000Z</time>
      </trkpt>
      <trkpt lat="47.31068" lon="-2.3216">
        <ele>26.799999237061</ele>
        <time>2022-05-08T07:54:18.000Z</time>
      </trkpt>
      <trkpt lat="47.31077" lon="-2.32177">
        <ele>26.799999237061</ele>
        <time>2022-05-08T07:54:22.000Z</time>
      </trkpt>
      <trkpt lat="47.3109" lon="-2.32205">
        <ele>26.799999237061</ele>
        <time>2022-05-08T07:54:28.000Z</time>
      </trkpt>
      <trkpt lat="47.31097" lon="-2.32224">
        <ele>27.200000762939</ele>
        <time>2022-05-08T07:54:32.000Z</time>
      </trkpt>
      <trkpt lat="47.31098" lon="-2.32228">
        <ele>27.60000038147</ele>
        <time>2022-05-08T07:54:33.000Z</time>
      </trkpt>
      <trkpt lat="47.311" lon="-2.32233">
        <ele>28.200000762939</ele>
        <time>2022-05-08T07:54:34.000Z</time>
      </trkpt>
      <trkpt lat="47.31101" lon="-2.32238">
        <ele>29</ele>
        <time>2022-05-08T07:54:35.000Z</time>
      </trkpt>
      <trkpt lat="47.31113" lon="-2.32263">
        <ele>29</ele>
        <time>2022-05-08T07:54:41.000Z</time>
      </trkpt>
      <trkpt lat="47.31119" lon="-2.32274">
        <ele>29.39999961853</ele>
        <time>2022-05-08T07:54:44.000Z</time>
      </trkpt>
      <trkpt lat="47.31121" lon="-2.32278">
        <ele>29.799999237061</ele>
        <time>2022-05-08T07:54:45.000Z</time>
      </trkpt>
      <trkpt lat="47.31124" lon="-2.32282">
        <ele>30.200000762939</ele>
        <time>2022-05-08T07:54:46.000Z</time>
      </trkpt>
      <trkpt lat="47.31126" lon="-2.32286">
        <ele>30.799999237061</ele>
        <time>2022-05-08T07:54:47.000Z</time>
      </trkpt>
      <trkpt lat="47.31128" lon="-2.32291">
        <ele>31.200000762939</ele>
        <time>2022-05-08T07:54:48.000Z</time>
      </trkpt>
      <trkpt lat="47.31137" lon="-2.3232">
        <ele>31.200000762939</ele>
        <time>2022-05-08T07:54:53.000Z</time>
      </trkpt>
      <trkpt lat="47.31144" lon="-2.32353">
        <ele>32</ele>
        <time>2022-05-08T07:54:59.000Z</time>
      </trkpt>
      <trkpt lat="47.31144" lon="-2.32358">
        <ele>32.400001525879</ele>
        <time>2022-05-08T07:55:00.000Z</time>
      </trkpt>
      <trkpt lat="47.31144" lon="-2.32363">
        <ele>32.799999237061</ele>
        <time>2022-05-08T07:55:01.000Z</time>
      </trkpt>
      <trkpt lat="47.31145" lon="-2.32369">
        <ele>33.200000762939</ele>
        <time>2022-05-08T07:55:02.000Z</time>
      </trkpt>
      <trkpt lat="47.31146" lon="-2.32392">
        <ele>33.200000762939</ele>
        <time>2022-05-08T07:55:06.000Z</time>
      </trkpt>
      <trkpt lat="47.31148" lon="-2.32418">
        <ele>33.200000762939</ele>
        <time>2022-05-08T07:55:11.000Z</time>
      </trkpt>
      <trkpt lat="47.3115" lon="-2.32421">
        <ele>33.200000762939</ele>
        <time>2022-05-08T07:55:12.000Z</time>
      </trkpt>
      <trkpt lat="47.31158" lon="-2.32426">
        <ele>33.200000762939</ele>
        <time>2022-05-08T07:55:15.000Z</time>
      </trkpt>
      <trkpt lat="47.31165" lon="-2.32429">
        <ele>33.200000762939</ele>
        <time>2022-05-08T07:55:17.000Z</time>
      </trkpt>
      <trkpt lat="47.31174" lon="-2.32434">
        <ele>33.200000762939</ele>
        <time>2022-05-08T07:55:20.000Z</time>
      </trkpt>
      <trkpt lat="47.31176" lon="-2.32436">
        <ele>33.200000762939</ele>
        <time>2022-05-08T07:55:21.000Z</time>
      </trkpt>
      <trkpt lat="47.31177" lon="-2.32437">
        <ele>33.200000762939</ele>
        <time>2022-05-08T07:55:22.000Z</time>
      </trkpt>
      <trkpt lat="47.31177" lon="-2.32443">
        <ele>33.200000762939</ele>
        <time>2022-05-08T07:55:38.000Z</time>
      </trkpt>
      <trkpt lat="47.31177" lon="-2.32446">
        <ele>33.200000762939</ele>
        <time>2022-05-08T07:55:39.000Z</time>
      </trkpt>
      <trkpt lat="47.31176" lon="-2.32466">
        <ele>33.200000762939</ele>
        <time>2022-05-08T07:55:45.000Z</time>
      </trkpt>
      <trkpt lat="47.31175" lon="-2.32502">
        <ele>33.599998474121</ele>
        <time>2022-05-08T07:55:51.000Z</time>
      </trkpt>
      <trkpt lat="47.31175" lon="-2.32508">
        <ele>34</ele>
        <time>2022-05-08T07:55:52.000Z</time>
      </trkpt>
      <trkpt lat="47.31175" lon="-2.32513">
        <ele>34.400001525879</ele>
        <time>2022-05-08T07:55:53.000Z</time>
      </trkpt>
      <trkpt lat="47.31175" lon="-2.32519">
        <ele>34.799999237061</ele>
        <time>2022-05-08T07:55:54.000Z</time>
      </trkpt>
      <trkpt lat="47.31175" lon="-2.32525">
        <ele>35.200000762939</ele>
        <time>2022-05-08T07:55:55.000Z</time>
      </trkpt>
      <trkpt lat="47.31176" lon="-2.32536">
        <ele>35.200000762939</ele>
        <time>2022-05-08T07:55:57.000Z</time>
      </trkpt>
      <trkpt lat="47.31175" lon="-2.3258">
        <ele>35.200000762939</ele>
        <time>2022-05-08T07:56:04.000Z</time>
      </trkpt>
      <trkpt lat="47.31175" lon="-2.32619">
        <ele>35.200000762939</ele>
        <time>2022-05-08T07:56:10.000Z</time>
      </trkpt>
      <trkpt lat="47.31176" lon="-2.32625">
        <ele>35.200000762939</ele>
        <time>2022-05-08T07:56:11.000Z</time>
      </trkpt>
      <trkpt lat="47.31185" lon="-2.32665">
        <ele>35.200000762939</ele>
        <time>2022-05-08T07:56:18.000Z</time>
      </trkpt>
      <trkpt lat="47.31187" lon="-2.3267">
        <ele>35.599998474121</ele>
        <time>2022-05-08T07:56:19.000Z</time>
      </trkpt>
      <trkpt lat="47.31189" lon="-2.32676">
        <ele>36</ele>
        <time>2022-05-08T07:56:20.000Z</time>
      </trkpt>
      <trkpt lat="47.31192" lon="-2.32682">
        <ele>36.400001525879</ele>
        <time>2022-05-08T07:56:21.000Z</time>
      </trkpt>
      <trkpt lat="47.31194" lon="-2.32688">
        <ele>36.799999237061</ele>
        <time>2022-05-08T07:56:22.000Z</time>
      </trkpt>
      <trkpt lat="47.31197" lon="-2.32695">
        <ele>37.200000762939</ele>
        <time>2022-05-08T07:56:23.000Z</time>
      </trkpt>
      <trkpt lat="47.31198" lon="-2.32702">
        <ele>37.200000762939</ele>
        <time>2022-05-08T07:56:24.000Z</time>
      </trkpt>
      <trkpt lat="47.31202" lon="-2.32716">
        <ele>37.200000762939</ele>
        <time>2022-05-08T07:56:26.000Z</time>
      </trkpt>
      <trkpt lat="47.31211" lon="-2.32736">
        <ele>37.200000762939</ele>
        <time>2022-05-08T07:56:30.000Z</time>
      </trkpt>
      <trkpt lat="47.31215" lon="-2.32739">
        <ele>37.200000762939</ele>
        <time>2022-05-08T07:56:31.000Z</time>
      </trkpt>
      <trkpt lat="47.31232" lon="-2.32749">
        <ele>37.200000762939</ele>
        <time>2022-05-08T07:56:34.000Z</time>
      </trkpt>
      <trkpt lat="47.31252" lon="-2.32764">
        <ele>37.200000762939</ele>
        <time>2022-05-08T07:56:38.000Z</time>
      </trkpt>
      <trkpt lat="47.31268" lon="-2.32773">
        <ele>37.200000762939</ele>
        <time>2022-05-08T07:56:41.000Z</time>
      </trkpt>
      <trkpt lat="47.31278" lon="-2.32782">
        <ele>37.200000762939</ele>
        <time>2022-05-08T07:56:43.000Z</time>
      </trkpt>
      <trkpt lat="47.31284" lon="-2.32794">
        <ele>37.200000762939</ele>
        <time>2022-05-08T07:56:45.000Z</time>
      </trkpt>
      <trkpt lat="47.31297" lon="-2.32819">
        <ele>37.200000762939</ele>
        <time>2022-05-08T07:56:49.000Z</time>
      </trkpt>
      <trkpt lat="47.31308" lon="-2.32837">
        <ele>37.200000762939</ele>
        <time>2022-05-08T07:56:52.000Z</time>
      </trkpt>
      <trkpt lat="47.31333" lon="-2.3287">
        <ele>37.200000762939</ele>
        <time>2022-05-08T07:56:58.000Z</time>
      </trkpt>
      <trkpt lat="47.31348" lon="-2.32893">
        <ele>37.200000762939</ele>
        <time>2022-05-08T07:57:02.000Z</time>
      </trkpt>
      <trkpt lat="47.31348" lon="-2.32907">
        <ele>37.200000762939</ele>
        <time>2022-05-08T07:57:04.000Z</time>
      </trkpt>
      <trkpt lat="47.31341" lon="-2.32924">
        <ele>37.200000762939</ele>
        <time>2022-05-08T07:57:07.000Z</time>
      </trkpt>
      <trkpt lat="47.31338" lon="-2.3293">
        <ele>37.200000762939</ele>
        <time>2022-05-08T07:57:08.000Z</time>
      </trkpt>
      <trkpt lat="47.31315" lon="-2.32975">
        <ele>37.200000762939</ele>
        <time>2022-05-08T07:57:15.000Z</time>
      </trkpt>
      <trkpt lat="47.31298" lon="-2.33006">
        <ele>37.200000762939</ele>
        <time>2022-05-08T07:57:20.000Z</time>
      </trkpt>
      <trkpt lat="47.31273" lon="-2.33049">
        <ele>37.200000762939</ele>
        <time>2022-05-08T07:57:27.000Z</time>
      </trkpt>
      <trkpt lat="47.31253" lon="-2.33082">
        <ele>37.200000762939</ele>
        <time>2022-05-08T07:57:33.000Z</time>
      </trkpt>
      <trkpt lat="47.31236" lon="-2.33118">
        <ele>37.200000762939</ele>
        <time>2022-05-08T07:57:39.000Z</time>
      </trkpt>
      <trkpt lat="47.3123" lon="-2.33137">
        <ele>37.200000762939</ele>
        <time>2022-05-08T07:57:42.000Z</time>
      </trkpt>
      <trkpt lat="47.31223" lon="-2.33145">
        <ele>37.200000762939</ele>
        <time>2022-05-08T07:57:44.000Z</time>
      </trkpt>
      <trkpt lat="47.31206" lon="-2.33153">
        <ele>37.200000762939</ele>
        <time>2022-05-08T07:57:47.000Z</time>
      </trkpt>
      <trkpt lat="47.31195" lon="-2.33158">
        <ele>37.200000762939</ele>
        <time>2022-05-08T07:57:49.000Z</time>
      </trkpt>
      <trkpt lat="47.31161" lon="-2.3318">
        <ele>37.200000762939</ele>
        <time>2022-05-08T07:57:56.000Z</time>
      </trkpt>
      <trkpt lat="47.31134" lon="-2.33197">
        <ele>37.200000762939</ele>
        <time>2022-05-08T07:58:02.000Z</time>
      </trkpt>
      <trkpt lat="47.31129" lon="-2.332">
        <ele>37.599998474121</ele>
        <time>2022-05-08T07:58:03.000Z</time>
      </trkpt>
      <trkpt lat="47.31124" lon="-2.33202">
        <ele>38</ele>
        <time>2022-05-08T07:58:04.000Z</time>
      </trkpt>
      <trkpt lat="47.31118" lon="-2.33205">
        <ele>38.400001525879</ele>
        <time>2022-05-08T07:58:05.000Z</time>
      </trkpt>
      <trkpt lat="47.31114" lon="-2.33209">
        <ele>38.799999237061</ele>
        <time>2022-05-08T07:58:06.000Z</time>
      </trkpt>
      <trkpt lat="47.3111" lon="-2.33215">
        <ele>39.200000762939</ele>
        <time>2022-05-08T07:58:07.000Z</time>
      </trkpt>
      <trkpt lat="47.31107" lon="-2.33222">
        <ele>39.200000762939</ele>
        <time>2022-05-08T07:58:08.000Z</time>
      </trkpt>
      <trkpt lat="47.31105" lon="-2.33236">
        <ele>39.200000762939</ele>
        <time>2022-05-08T07:58:10.000Z</time>
      </trkpt>
      <trkpt lat="47.31103" lon="-2.33258">
        <ele>39.200000762939</ele>
        <time>2022-05-08T07:58:13.000Z</time>
      </trkpt>
      <trkpt lat="47.311" lon="-2.33312">
        <ele>39.200000762939</ele>
        <time>2022-05-08T07:58:20.000Z</time>
      </trkpt>
      <trkpt lat="47.31098" lon="-2.33361">
        <ele>39.599998474121</ele>
        <time>2022-05-08T07:58:26.000Z</time>
      </trkpt>
      <trkpt lat="47.31097" lon="-2.33369">
        <ele>40</ele>
        <time>2022-05-08T07:58:27.000Z</time>
      </trkpt>
      <trkpt lat="47.31097" lon="-2.33377">
        <ele>40.400001525879</ele>
        <time>2022-05-08T07:58:28.000Z</time>
      </trkpt>
      <trkpt lat="47.31096" lon="-2.33385">
        <ele>40.799999237061</ele>
        <time>2022-05-08T07:58:29.000Z</time>
      </trkpt>
      <trkpt lat="47.31096" lon="-2.33393">
        <ele>41.200000762939</ele>
        <time>2022-05-08T07:58:30.000Z</time>
      </trkpt>
      <trkpt lat="47.31096" lon="-2.33435">
        <ele>41.200000762939</ele>
        <time>2022-05-08T07:58:35.000Z</time>
      </trkpt>
      <trkpt lat="47.31098" lon="-2.33494">
        <ele>41.200000762939</ele>
        <time>2022-05-08T07:58:42.000Z</time>
      </trkpt>
      <trkpt lat="47.31099" lon="-2.33503">
        <ele>41.599998474121</ele>
        <time>2022-05-08T07:58:43.000Z</time>
      </trkpt>
      <trkpt lat="47.311" lon="-2.33511">
        <ele>42.200000762939</ele>
        <time>2022-05-08T07:58:44.000Z</time>
      </trkpt>
      <trkpt lat="47.31101" lon="-2.3352">
        <ele>42.599998474121</ele>
        <time>2022-05-08T07:58:45.000Z</time>
      </trkpt>
      <trkpt lat="47.31102" lon="-2.33528">
        <ele>43</ele>
        <time>2022-05-08T07:58:46.000Z</time>
      </trkpt>
      <trkpt lat="47.31103" lon="-2.33536">
        <ele>43.400001525879</ele>
        <time>2022-05-08T07:58:47.000Z</time>
      </trkpt>
      <trkpt lat="47.31106" lon="-2.33551">
        <ele>43.400001525879</ele>
        <time>2022-05-08T07:58:49.000Z</time>
      </trkpt>
      <trkpt lat="47.31109" lon="-2.33603">
        <ele>43.400001525879</ele>
        <time>2022-05-08T07:58:55.000Z</time>
      </trkpt>
      <trkpt lat="47.31104" lon="-2.33674">
        <ele>43.400001525879</ele>
        <time>2022-05-08T07:59:03.000Z</time>
      </trkpt>
      <trkpt lat="47.31097" lon="-2.3373">
        <ele>43.400001525879</ele>
        <time>2022-05-08T07:59:09.000Z</time>
      </trkpt>
      <trkpt lat="47.31091" lon="-2.33756">
        <ele>43.400001525879</ele>
        <time>2022-05-08T07:59:12.000Z</time>
      </trkpt>
      <trkpt lat="47.31084" lon="-2.33773">
        <ele>43.400001525879</ele>
        <time>2022-05-08T07:59:14.000Z</time>
      </trkpt>
      <trkpt lat="47.31066" lon="-2.33824">
        <ele>43.400001525879</ele>
        <time>2022-05-08T07:59:20.000Z</time>
      </trkpt>
      <trkpt lat="47.31063" lon="-2.33869">
        <ele>43.400001525879</ele>
        <time>2022-05-08T07:59:25.000Z</time>
      </trkpt>
      <trkpt lat="47.31061" lon="-2.33935">
        <ele>43.400001525879</ele>
        <time>2022-05-08T07:59:32.000Z</time>
      </trkpt>
      <trkpt lat="47.31064" lon="-2.34019">
        <ele>43.400001525879</ele>
        <time>2022-05-08T07:59:41.000Z</time>
      </trkpt>
      <trkpt lat="47.3107" lon="-2.34072">
        <ele>43.400001525879</ele>
        <time>2022-05-08T07:59:47.000Z</time>
      </trkpt>
      <trkpt lat="47.31073" lon="-2.34081">
        <ele>43.400001525879</ele>
        <time>2022-05-08T07:59:48.000Z</time>
      </trkpt>
      <trkpt lat="47.31096" lon="-2.34131">
        <ele>43.400001525879</ele>
        <time>2022-05-08T07:59:54.000Z</time>
      </trkpt>
      <trkpt lat="47.31106" lon="-2.34149">
        <ele>42.799999237061</ele>
        <time>2022-05-08T07:59:56.000Z</time>
      </trkpt>
      <trkpt lat="47.31111" lon="-2.34158">
        <ele>42.400001525879</ele>
        <time>2022-05-08T07:59:57.000Z</time>
      </trkpt>
      <trkpt lat="47.31115" lon="-2.34168">
        <ele>42</ele>
        <time>2022-05-08T07:59:58.000Z</time>
      </trkpt>
      <trkpt lat="47.31121" lon="-2.34177">
        <ele>41.400001525879</ele>
        <time>2022-05-08T07:59:59.000Z</time>
      </trkpt>
      <trkpt lat="47.31126" lon="-2.34187">
        <ele>41</ele>
        <time>2022-05-08T08:00:00.000Z</time>
      </trkpt>
      <trkpt lat="47.31132" lon="-2.34198">
        <ele>40.400001525879</ele>
        <time>2022-05-08T08:00:01.000Z</time>
      </trkpt>
      <trkpt lat="47.31137" lon="-2.34208">
        <ele>39.799999237061</ele>
        <time>2022-05-08T08:00:02.000Z</time>
      </trkpt>
      <trkpt lat="47.31143" lon="-2.34218">
        <ele>39.200000762939</ele>
        <time>2022-05-08T08:00:03.000Z</time>
      </trkpt>
      <trkpt lat="47.31148" lon="-2.34229">
        <ele>38.799999237061</ele>
        <time>2022-05-08T08:00:04.000Z</time>
      </trkpt>
      <trkpt lat="47.31153" lon="-2.3424">
        <ele>38.400001525879</ele>
        <time>2022-05-08T08:00:05.000Z</time>
      </trkpt>
      <trkpt lat="47.31158" lon="-2.3425">
        <ele>37.799999237061</ele>
        <time>2022-05-08T08:00:06.000Z</time>
      </trkpt>
      <trkpt lat="47.31163" lon="-2.3426">
        <ele>37.400001525879</ele>
        <time>2022-05-08T08:00:07.000Z</time>
      </trkpt>
      <trkpt lat="47.31168" lon="-2.34269">
        <ele>37</ele>
        <time>2022-05-08T08:00:08.000Z</time>
      </trkpt>
      <trkpt lat="47.31173" lon="-2.34278">
        <ele>36.599998474121</ele>
        <time>2022-05-08T08:00:09.000Z</time>
      </trkpt>
      <trkpt lat="47.31185" lon="-2.34304">
        <ele>36.599998474121</ele>
        <time>2022-05-08T08:00:12.000Z</time>
      </trkpt>
      <trkpt lat="47.31209" lon="-2.34339">
        <ele>36.599998474121</ele>
        <time>2022-05-08T08:00:17.000Z</time>
      </trkpt>
      <trkpt lat="47.31215" lon="-2.34344">
        <ele>36.599998474121</ele>
        <time>2022-05-08T08:00:18.000Z</time>
      </trkpt>
      <trkpt lat="47.3123" lon="-2.3435">
        <ele>36.599998474121</ele>
        <time>2022-05-08T08:00:21.000Z</time>
      </trkpt>
      <trkpt lat="47.31249" lon="-2.34362">
        <ele>36.599998474121</ele>
        <time>2022-05-08T08:00:25.000Z</time>
      </trkpt>
      <trkpt lat="47.31253" lon="-2.34369">
        <ele>36.599998474121</ele>
        <time>2022-05-08T08:00:26.000Z</time>
      </trkpt>
      <trkpt lat="47.31265" lon="-2.34398">
        <ele>36.599998474121</ele>
        <time>2022-05-08T08:00:30.000Z</time>
      </trkpt>
      <trkpt lat="47.31267" lon="-2.34407">
        <ele>36.599998474121</ele>
        <time>2022-05-08T08:00:31.000Z</time>
      </trkpt>
      <trkpt lat="47.31271" lon="-2.34439">
        <ele>36.599998474121</ele>
        <time>2022-05-08T08:00:35.000Z</time>
      </trkpt>
      <trkpt lat="47.31275" lon="-2.34465">
        <ele>37</ele>
        <time>2022-05-08T08:00:38.000Z</time>
      </trkpt>
      <trkpt lat="47.31276" lon="-2.34473">
        <ele>37.400001525879</ele>
        <time>2022-05-08T08:00:39.000Z</time>
      </trkpt>
      <trkpt lat="47.31276" lon="-2.34482">
        <ele>37.799999237061</ele>
        <time>2022-05-08T08:00:40.000Z</time>
      </trkpt>
      <trkpt lat="47.31277" lon="-2.3449">
        <ele>38.200000762939</ele>
        <time>2022-05-08T08:00:41.000Z</time>
      </trkpt>
      <trkpt lat="47.31278" lon="-2.34498">
        <ele>38.599998474121</ele>
        <time>2022-05-08T08:00:42.000Z</time>
      </trkpt>
      <trkpt lat="47.31284" lon="-2.34555">
        <ele>39</ele>
        <time>2022-05-08T08:00:49.000Z</time>
      </trkpt>
      <trkpt lat="47.31285" lon="-2.34563">
        <ele>39.400001525879</ele>
        <time>2022-05-08T08:00:50.000Z</time>
      </trkpt>
      <trkpt lat="47.31286" lon="-2.3457">
        <ele>39.799999237061</ele>
        <time>2022-05-08T08:00:51.000Z</time>
      </trkpt>
      <trkpt lat="47.31286" lon="-2.34578">
        <ele>40.200000762939</ele>
        <time>2022-05-08T08:00:52.000Z</time>
      </trkpt>
      <trkpt lat="47.31287" lon="-2.34585">
        <ele>40.599998474121</ele>
        <time>2022-05-08T08:00:53.000Z</time>
      </trkpt>
      <trkpt lat="47.31291" lon="-2.34614">
        <ele>40.599998474121</ele>
        <time>2022-05-08T08:00:57.000Z</time>
      </trkpt>
      <trkpt lat="47.31292" lon="-2.34621">
        <ele>40.599998474121</ele>
        <time>2022-05-08T08:00:58.000Z</time>
      </trkpt>
      <trkpt lat="47.31293" lon="-2.34634">
        <ele>40.599998474121</ele>
        <time>2022-05-08T08:01:00.000Z</time>
      </trkpt>
      <trkpt lat="47.31293" lon="-2.34641">
        <ele>41</ele>
        <time>2022-05-08T08:01:01.000Z</time>
      </trkpt>
      <trkpt lat="47.31294" lon="-2.34646">
        <ele>41.599998474121</ele>
        <time>2022-05-08T08:01:02.000Z</time>
      </trkpt>
      <trkpt lat="47.31295" lon="-2.34652">
        <ele>42</ele>
        <time>2022-05-08T08:01:03.000Z</time>
      </trkpt>
      <trkpt lat="47.31298" lon="-2.34657">
        <ele>42.400001525879</ele>
        <time>2022-05-08T08:01:04.000Z</time>
      </trkpt>
      <trkpt lat="47.313" lon="-2.34661">
        <ele>42.799999237061</ele>
        <time>2022-05-08T08:01:05.000Z</time>
      </trkpt>
      <trkpt lat="47.31302" lon="-2.34666">
        <ele>42.799999237061</ele>
        <time>2022-05-08T08:01:06.000Z</time>
      </trkpt>
      <trkpt lat="47.31297" lon="-2.34676">
        <ele>42.799999237061</ele>
        <time>2022-05-08T08:01:08.000Z</time>
      </trkpt>
      <trkpt lat="47.31286" lon="-2.34689">
        <ele>42.799999237061</ele>
        <time>2022-05-08T08:01:11.000Z</time>
      </trkpt>
      <trkpt lat="47.31282" lon="-2.34694">
        <ele>42.799999237061</ele>
        <time>2022-05-08T08:01:12.000Z</time>
      </trkpt>
      <trkpt lat="47.3128" lon="-2.347">
        <ele>42.799999237061</ele>
        <time>2022-05-08T08:01:13.000Z</time>
      </trkpt>
      <trkpt lat="47.31278" lon="-2.34714">
        <ele>42.799999237061</ele>
        <time>2022-05-08T08:01:15.000Z</time>
      </trkpt>
      <trkpt lat="47.31279" lon="-2.34722">
        <ele>43.200000762939</ele>
        <time>2022-05-08T08:01:16.000Z</time>
      </trkpt>
      <trkpt lat="47.3128" lon="-2.3473">
        <ele>43.599998474121</ele>
        <time>2022-05-08T08:01:17.000Z</time>
      </trkpt>
      <trkpt lat="47.31281" lon="-2.34737">
        <ele>44</ele>
        <time>2022-05-08T08:01:18.000Z</time>
      </trkpt>
      <trkpt lat="47.31282" lon="-2.34745">
        <ele>44.400001525879</ele>
        <time>2022-05-08T08:01:19.000Z</time>
      </trkpt>
      <trkpt lat="47.31283" lon="-2.34752">
        <ele>44.799999237061</ele>
        <time>2022-05-08T08:01:20.000Z</time>
      </trkpt>
      <trkpt lat="47.31284" lon="-2.3476">
        <ele>44.799999237061</ele>
        <time>2022-05-08T08:01:21.000Z</time>
      </trkpt>
      <trkpt lat="47.31296" lon="-2.34822">
        <ele>44.799999237061</ele>
        <time>2022-05-08T08:01:29.000Z</time>
      </trkpt>
      <trkpt lat="47.31311" lon="-2.34887">
        <ele>44.799999237061</ele>
        <time>2022-05-08T08:01:37.000Z</time>
      </trkpt>
      <trkpt lat="47.3133" lon="-2.34944">
        <ele>44.799999237061</ele>
        <time>2022-05-08T08:01:44.000Z</time>
      </trkpt>
      <trkpt lat="47.31342" lon="-2.35004">
        <ele>44.799999237061</ele>
        <time>2022-05-08T08:01:51.000Z</time>
      </trkpt>
      <trkpt lat="47.31342" lon="-2.35013">
        <ele>44.799999237061</ele>
        <time>2022-05-08T08:01:52.000Z</time>
      </trkpt>
      <trkpt lat="47.31344" lon="-2.35039">
        <ele>44.799999237061</ele>
        <time>2022-05-08T08:01:55.000Z</time>
      </trkpt>
      <trkpt lat="47.31344" lon="-2.35048">
        <ele>44.799999237061</ele>
        <time>2022-05-08T08:01:56.000Z</time>
      </trkpt>
      <trkpt lat="47.31344" lon="-2.35122">
        <ele>44.799999237061</ele>
        <time>2022-05-08T08:02:04.000Z</time>
      </trkpt>
      <trkpt lat="47.31341" lon="-2.35207">
        <ele>44.799999237061</ele>
        <time>2022-05-08T08:02:13.000Z</time>
      </trkpt>
      <trkpt lat="47.3134" lon="-2.35261">
        <ele>44.799999237061</ele>
        <time>2022-05-08T08:02:19.000Z</time>
      </trkpt>
      <trkpt lat="47.31337" lon="-2.35333">
        <ele>44.799999237061</ele>
        <time>2022-05-08T08:02:27.000Z</time>
      </trkpt>
      <trkpt lat="47.31334" lon="-2.35376">
        <ele>44.799999237061</ele>
        <time>2022-05-08T08:02:32.000Z</time>
      </trkpt>
      <trkpt lat="47.31332" lon="-2.35392">
        <ele>44.799999237061</ele>
        <time>2022-05-08T08:02:34.000Z</time>
      </trkpt>
      <trkpt lat="47.31332" lon="-2.35437">
        <ele>44.799999237061</ele>
        <time>2022-05-08T08:02:40.000Z</time>
      </trkpt>
      <trkpt lat="47.3133" lon="-2.35496">
        <ele>44.799999237061</ele>
        <time>2022-05-08T08:02:47.000Z</time>
      </trkpt>
      <trkpt lat="47.31329" lon="-2.35536">
        <ele>44.799999237061</ele>
        <time>2022-05-08T08:02:52.000Z</time>
      </trkpt>
      <trkpt lat="47.31327" lon="-2.3557">
        <ele>44.799999237061</ele>
        <time>2022-05-08T08:02:56.000Z</time>
      </trkpt>
      <trkpt lat="47.31327" lon="-2.35579">
        <ele>44.799999237061</ele>
        <time>2022-05-08T08:02:57.000Z</time>
      </trkpt>
      <trkpt lat="47.3133" lon="-2.35612">
        <ele>44.799999237061</ele>
        <time>2022-05-08T08:03:01.000Z</time>
      </trkpt>
      <trkpt lat="47.3133" lon="-2.35621">
        <ele>45.200000762939</ele>
        <time>2022-05-08T08:03:02.000Z</time>
      </trkpt>
      <trkpt lat="47.31331" lon="-2.35629">
        <ele>45.599998474121</ele>
        <time>2022-05-08T08:03:03.000Z</time>
      </trkpt>
      <trkpt lat="47.31331" lon="-2.35637">
        <ele>46.200000762939</ele>
        <time>2022-05-08T08:03:04.000Z</time>
      </trkpt>
      <trkpt lat="47.31331" lon="-2.35645">
        <ele>46.599998474121</ele>
        <time>2022-05-08T08:03:05.000Z</time>
      </trkpt>
      <trkpt lat="47.31332" lon="-2.35653">
        <ele>47</ele>
        <time>2022-05-08T08:03:06.000Z</time>
      </trkpt>
      <trkpt lat="47.31333" lon="-2.35678">
        <ele>47</ele>
        <time>2022-05-08T08:03:09.000Z</time>
      </trkpt>
      <trkpt lat="47.31331" lon="-2.3574">
        <ele>47</ele>
        <time>2022-05-08T08:03:16.000Z</time>
      </trkpt>
      <trkpt lat="47.31333" lon="-2.35785">
        <ele>47</ele>
        <time>2022-05-08T08:03:21.000Z</time>
      </trkpt>
      <trkpt lat="47.31337" lon="-2.35848">
        <ele>47</ele>
        <time>2022-05-08T08:03:28.000Z</time>
      </trkpt>
      <trkpt lat="47.31339" lon="-2.35857">
        <ele>47</ele>
        <time>2022-05-08T08:03:29.000Z</time>
      </trkpt>
      <trkpt lat="47.31347" lon="-2.35883">
        <ele>47</ele>
        <time>2022-05-08T08:03:32.000Z</time>
      </trkpt>
      <trkpt lat="47.31355" lon="-2.35897">
        <ele>47</ele>
        <time>2022-05-08T08:03:34.000Z</time>
      </trkpt>
      <trkpt lat="47.31371" lon="-2.35926">
        <ele>47</ele>
        <time>2022-05-08T08:03:38.000Z</time>
      </trkpt>
      <trkpt lat="47.31392" lon="-2.35962">
        <ele>47</ele>
        <time>2022-05-08T08:03:43.000Z</time>
      </trkpt>
      <trkpt lat="47.31395" lon="-2.35969">
        <ele>47</ele>
        <time>2022-05-08T08:03:44.000Z</time>
      </trkpt>
      <trkpt lat="47.31397" lon="-2.35977">
        <ele>47</ele>
        <time>2022-05-08T08:03:45.000Z</time>
      </trkpt>
      <trkpt lat="47.31405" lon="-2.35998">
        <ele>47</ele>
        <time>2022-05-08T08:03:48.000Z</time>
      </trkpt>
      <trkpt lat="47.31417" lon="-2.36031">
        <ele>47</ele>
        <time>2022-05-08T08:03:53.000Z</time>
      </trkpt>
      <trkpt lat="47.31419" lon="-2.36037">
        <ele>47</ele>
        <time>2022-05-08T08:03:54.000Z</time>
      </trkpt>
      <trkpt lat="47.31432" lon="-2.36076">
        <ele>47</ele>
        <time>2022-05-08T08:04:00.000Z</time>
      </trkpt>
      <trkpt lat="47.31434" lon="-2.36083">
        <ele>47.400001525879</ele>
        <time>2022-05-08T08:04:01.000Z</time>
      </trkpt>
      <trkpt lat="47.31436" lon="-2.36089">
        <ele>47.799999237061</ele>
        <time>2022-05-08T08:04:02.000Z</time>
      </trkpt>
      <trkpt lat="47.31439" lon="-2.36096">
        <ele>48.400001525879</ele>
        <time>2022-05-08T08:04:03.000Z</time>
      </trkpt>
      <trkpt lat="47.31441" lon="-2.36101">
        <ele>49.200000762939</ele>
        <time>2022-05-08T08:04:04.000Z</time>
      </trkpt>
      <trkpt lat="47.31447" lon="-2.36113">
        <ele>49.200000762939</ele>
        <time>2022-05-08T08:04:06.000Z</time>
      </trkpt>
      <trkpt lat="47.31457" lon="-2.36147">
        <ele>49.200000762939</ele>
        <time>2022-05-08T08:04:12.000Z</time>
      </trkpt>
      <trkpt lat="47.31462" lon="-2.36173">
        <ele>49.200000762939</ele>
        <time>2022-05-08T08:04:17.000Z</time>
      </trkpt>
      <trkpt lat="47.31465" lon="-2.362">
        <ele>49.200000762939</ele>
        <time>2022-05-08T08:04:24.000Z</time>
      </trkpt>
      <trkpt lat="47.31469" lon="-2.36219">
        <ele>49.200000762939</ele>
        <time>2022-05-08T08:04:30.000Z</time>
      </trkpt>
      <trkpt lat="47.31473" lon="-2.36238">
        <ele>49.200000762939</ele>
        <time>2022-05-08T08:04:37.000Z</time>
      </trkpt>
      <trkpt lat="47.31477" lon="-2.36263">
        <ele>49.200000762939</ele>
        <time>2022-05-08T08:04:43.000Z</time>
      </trkpt>
      <trkpt lat="47.31482" lon="-2.36285">
        <ele>49.200000762939</ele>
        <time>2022-05-08T08:04:47.000Z</time>
      </trkpt>
      <trkpt lat="47.31484" lon="-2.36298">
        <ele>49.200000762939</ele>
        <time>2022-05-08T08:04:49.000Z</time>
      </trkpt>
      <trkpt lat="47.31485" lon="-2.36306">
        <ele>48.799999237061</ele>
        <time>2022-05-08T08:04:50.000Z</time>
      </trkpt>
      <trkpt lat="47.31487" lon="-2.36313">
        <ele>48.400001525879</ele>
        <time>2022-05-08T08:04:51.000Z</time>
      </trkpt>
      <trkpt lat="47.31488" lon="-2.36321">
        <ele>48</ele>
        <time>2022-05-08T08:04:52.000Z</time>
      </trkpt>
      <trkpt lat="47.31489" lon="-2.36329">
        <ele>47.200000762939</ele>
        <time>2022-05-08T08:04:53.000Z</time>
      </trkpt>
      <trkpt lat="47.3149" lon="-2.36337">
        <ele>47.200000762939</ele>
        <time>2022-05-08T08:04:54.000Z</time>
      </trkpt>
      <trkpt lat="47.3149" lon="-2.36346">
        <ele>47.200000762939</ele>
        <time>2022-05-08T08:04:55.000Z</time>
      </trkpt>
      <trkpt lat="47.3149" lon="-2.3638">
        <ele>47.200000762939</ele>
        <time>2022-05-08T08:04:59.000Z</time>
      </trkpt>
      <trkpt lat="47.31491" lon="-2.36388">
        <ele>47.200000762939</ele>
        <time>2022-05-08T08:05:00.000Z</time>
      </trkpt>
      <trkpt lat="47.31491" lon="-2.36398">
        <ele>46.799999237061</ele>
        <time>2022-05-08T08:05:01.000Z</time>
      </trkpt>
      <trkpt lat="47.31491" lon="-2.36408">
        <ele>46.400001525879</ele>
        <time>2022-05-08T08:05:02.000Z</time>
      </trkpt>
      <trkpt lat="47.31491" lon="-2.36418">
        <ele>46</ele>
        <time>2022-05-08T08:05:03.000Z</time>
      </trkpt>
      <trkpt lat="47.31492" lon="-2.36429">
        <ele>45.400001525879</ele>
        <time>2022-05-08T08:05:04.000Z</time>
      </trkpt>
      <trkpt lat="47.31492" lon="-2.36439">
        <ele>45</ele>
        <time>2022-05-08T08:05:05.000Z</time>
      </trkpt>
      <trkpt lat="47.31494" lon="-2.36469">
        <ele>44.599998474121</ele>
        <time>2022-05-08T08:05:08.000Z</time>
      </trkpt>
      <trkpt lat="47.31496" lon="-2.36478">
        <ele>44.200000762939</ele>
        <time>2022-05-08T08:05:09.000Z</time>
      </trkpt>
      <trkpt lat="47.31497" lon="-2.36487">
        <ele>43.799999237061</ele>
        <time>2022-05-08T08:05:10.000Z</time>
      </trkpt>
      <trkpt lat="47.31496" lon="-2.36496">
        <ele>43.400001525879</ele>
        <time>2022-05-08T08:05:11.000Z</time>
      </trkpt>
      <trkpt lat="47.31495" lon="-2.36505">
        <ele>43</ele>
        <time>2022-05-08T08:05:12.000Z</time>
      </trkpt>
      <trkpt lat="47.31494" lon="-2.3652">
        <ele>43</ele>
        <time>2022-05-08T08:05:14.000Z</time>
      </trkpt>
      <trkpt lat="47.31493" lon="-2.36528">
        <ele>43</ele>
        <time>2022-05-08T08:05:15.000Z</time>
      </trkpt>
      <trkpt lat="47.31494" lon="-2.36541">
        <ele>43</ele>
        <time>2022-05-08T08:05:17.000Z</time>
      </trkpt>
      <trkpt lat="47.31495" lon="-2.36556">
        <ele>42.599998474121</ele>
        <time>2022-05-08T08:05:19.000Z</time>
      </trkpt>
      <trkpt lat="47.31496" lon="-2.36563">
        <ele>42.200000762939</ele>
        <time>2022-05-08T08:05:20.000Z</time>
      </trkpt>
      <trkpt lat="47.31496" lon="-2.36571">
        <ele>41.799999237061</ele>
        <time>2022-05-08T08:05:21.000Z</time>
      </trkpt>
      <trkpt lat="47.31495" lon="-2.36578">
        <ele>41.400001525879</ele>
        <time>2022-05-08T08:05:22.000Z</time>
      </trkpt>
      <trkpt lat="47.31493" lon="-2.36585">
        <ele>41</ele>
        <time>2022-05-08T08:05:23.000Z</time>
      </trkpt>
      <trkpt lat="47.31492" lon="-2.36591">
        <ele>41</ele>
        <time>2022-05-08T08:05:24.000Z</time>
      </trkpt>
      <trkpt lat="47.31494" lon="-2.3661">
        <ele>41</ele>
        <time>2022-05-08T08:05:27.000Z</time>
      </trkpt>
      <trkpt lat="47.31496" lon="-2.36618">
        <ele>41</ele>
        <time>2022-05-08T08:05:28.000Z</time>
      </trkpt>
      <trkpt lat="47.31508" lon="-2.36656">
        <ele>41</ele>
        <time>2022-05-08T08:05:33.000Z</time>
      </trkpt>
      <trkpt lat="47.31523" lon="-2.3671">
        <ele>41</ele>
        <time>2022-05-08T08:05:40.000Z</time>
      </trkpt>
      <trkpt lat="47.31529" lon="-2.36732">
        <ele>41.400001525879</ele>
        <time>2022-05-08T08:05:43.000Z</time>
      </trkpt>
      <trkpt lat="47.31531" lon="-2.3674">
        <ele>41.799999237061</ele>
        <time>2022-05-08T08:05:44.000Z</time>
      </trkpt>
      <trkpt lat="47.31533" lon="-2.36747">
        <ele>42.400001525879</ele>
        <time>2022-05-08T08:05:45.000Z</time>
      </trkpt>
      <trkpt lat="47.31534" lon="-2.36755">
        <ele>42.799999237061</ele>
        <time>2022-05-08T08:05:46.000Z</time>
      </trkpt>
      <trkpt lat="47.31536" lon="-2.36763">
        <ele>43.200000762939</ele>
        <time>2022-05-08T08:05:47.000Z</time>
      </trkpt>
      <trkpt lat="47.31548" lon="-2.36809">
        <ele>43.200000762939</ele>
        <time>2022-05-08T08:05:54.000Z</time>
      </trkpt>
      <trkpt lat="47.31551" lon="-2.36821">
        <ele>43.599998474121</ele>
        <time>2022-05-08T08:05:56.000Z</time>
      </trkpt>
      <trkpt lat="47.31552" lon="-2.36826">
        <ele>44.200000762939</ele>
        <time>2022-05-08T08:05:57.000Z</time>
      </trkpt>
      <trkpt lat="47.31554" lon="-2.36832">
        <ele>44.599998474121</ele>
        <time>2022-05-08T08:05:58.000Z</time>
      </trkpt>
      <trkpt lat="47.31556" lon="-2.36838">
        <ele>45</ele>
        <time>2022-05-08T08:05:59.000Z</time>
      </trkpt>
      <trkpt lat="47.31558" lon="-2.36844">
        <ele>45.400001525879</ele>
        <time>2022-05-08T08:06:00.000Z</time>
      </trkpt>
      <trkpt lat="47.31567" lon="-2.36874">
        <ele>45.400001525879</ele>
        <time>2022-05-08T08:06:05.000Z</time>
      </trkpt>
      <trkpt lat="47.31571" lon="-2.36886">
        <ele>45.400001525879</ele>
        <time>2022-05-08T08:06:07.000Z</time>
      </trkpt>
      <trkpt lat="47.31573" lon="-2.36891">
        <ele>46.200000762939</ele>
        <time>2022-05-08T08:06:08.000Z</time>
      </trkpt>
      <trkpt lat="47.31575" lon="-2.36897">
        <ele>46.599998474121</ele>
        <time>2022-05-08T08:06:09.000Z</time>
      </trkpt>
      <trkpt lat="47.31577" lon="-2.36903">
        <ele>47</ele>
        <time>2022-05-08T08:06:10.000Z</time>
      </trkpt>
      <trkpt lat="47.31578" lon="-2.36908">
        <ele>47.599998474121</ele>
        <time>2022-05-08T08:06:11.000Z</time>
      </trkpt>
      <trkpt lat="47.31588" lon="-2.36937">
        <ele>48</ele>
        <time>2022-05-08T08:06:16.000Z</time>
      </trkpt>
      <trkpt lat="47.3159" lon="-2.36943">
        <ele>48.400001525879</ele>
        <time>2022-05-08T08:06:17.000Z</time>
      </trkpt>
      <trkpt lat="47.31591" lon="-2.36949">
        <ele>48.799999237061</ele>
        <time>2022-05-08T08:06:18.000Z</time>
      </trkpt>
      <trkpt lat="47.31593" lon="-2.36955">
        <ele>49.200000762939</ele>
        <time>2022-05-08T08:06:19.000Z</time>
      </trkpt>
      <trkpt lat="47.31594" lon="-2.36961">
        <ele>49.599998474121</ele>
        <time>2022-05-08T08:06:20.000Z</time>
      </trkpt>
      <trkpt lat="47.31604" lon="-2.3699">
        <ele>49.599998474121</ele>
        <time>2022-05-08T08:06:25.000Z</time>
      </trkpt>
      <trkpt lat="47.31613" lon="-2.37018">
        <ele>50</ele>
        <time>2022-05-08T08:06:30.000Z</time>
      </trkpt>
      <trkpt lat="47.31614" lon="-2.37023">
        <ele>50.400001525879</ele>
        <time>2022-05-08T08:06:31.000Z</time>
      </trkpt>
      <trkpt lat="47.31616" lon="-2.37028">
        <ele>51.200000762939</ele>
        <time>2022-05-08T08:06:32.000Z</time>
      </trkpt>
      <trkpt lat="47.31618" lon="-2.37033">
        <ele>51.599998474121</ele>
        <time>2022-05-08T08:06:33.000Z</time>
      </trkpt>
      <trkpt lat="47.31633" lon="-2.37069">
        <ele>51.599998474121</ele>
        <time>2022-05-08T08:06:40.000Z</time>
      </trkpt>
      <trkpt lat="47.3164" lon="-2.37084">
        <ele>51.599998474121</ele>
        <time>2022-05-08T08:06:43.000Z</time>
      </trkpt>
      <trkpt lat="47.31648" lon="-2.37099">
        <ele>51.599998474121</ele>
        <time>2022-05-08T08:06:46.000Z</time>
      </trkpt>
      <trkpt lat="47.31663" lon="-2.37129">
        <ele>52</ele>
        <time>2022-05-08T08:06:52.000Z</time>
      </trkpt>
      <trkpt lat="47.31667" lon="-2.37134">
        <ele>52.400001525879</ele>
        <time>2022-05-08T08:06:53.000Z</time>
      </trkpt>
      <trkpt lat="47.3167" lon="-2.37139">
        <ele>52.799999237061</ele>
        <time>2022-05-08T08:06:54.000Z</time>
      </trkpt>
      <trkpt lat="47.31673" lon="-2.37145">
        <ele>53.200000762939</ele>
        <time>2022-05-08T08:06:55.000Z</time>
      </trkpt>
      <trkpt lat="47.31676" lon="-2.37151">
        <ele>53.599998474121</ele>
        <time>2022-05-08T08:06:56.000Z</time>
      </trkpt>
      <trkpt lat="47.3169" lon="-2.37182">
        <ele>53.599998474121</ele>
        <time>2022-05-08T08:07:01.000Z</time>
      </trkpt>
      <trkpt lat="47.31689" lon="-2.37211">
        <ele>53.599998474121</ele>
        <time>2022-05-08T08:07:05.000Z</time>
      </trkpt>
      <trkpt lat="47.31678" lon="-2.37237">
        <ele>53.599998474121</ele>
        <time>2022-05-08T08:07:09.000Z</time>
      </trkpt>
      <trkpt lat="47.31664" lon="-2.37253">
        <ele>53.599998474121</ele>
        <time>2022-05-08T08:07:12.000Z</time>
      </trkpt>
      <trkpt lat="47.31659" lon="-2.37257">
        <ele>53.599998474121</ele>
        <time>2022-05-08T08:07:13.000Z</time>
      </trkpt>
      <trkpt lat="47.31654" lon="-2.37261">
        <ele>53.599998474121</ele>
        <time>2022-05-08T08:07:14.000Z</time>
      </trkpt>
      <trkpt lat="47.31626" lon="-2.3729">
        <ele>53.599998474121</ele>
        <time>2022-05-08T08:07:20.000Z</time>
      </trkpt>
      <trkpt lat="47.31623" lon="-2.37298">
        <ele>53.599998474121</ele>
        <time>2022-05-08T08:07:21.000Z</time>
      </trkpt>
      <trkpt lat="47.31621" lon="-2.37325">
        <ele>53.599998474121</ele>
        <time>2022-05-08T08:07:24.000Z</time>
      </trkpt>
      <trkpt lat="47.31627" lon="-2.3736">
        <ele>53.599998474121</ele>
        <time>2022-05-08T08:07:28.000Z</time>
      </trkpt>
      <trkpt lat="47.31629" lon="-2.37369">
        <ele>53.599998474121</ele>
        <time>2022-05-08T08:07:29.000Z</time>
      </trkpt>
      <trkpt lat="47.31636" lon="-2.3741">
        <ele>53.599998474121</ele>
        <time>2022-05-08T08:07:34.000Z</time>
      </trkpt>
      <trkpt lat="47.31638" lon="-2.37468">
        <ele>53.599998474121</ele>
        <time>2022-05-08T08:07:41.000Z</time>
      </trkpt>
      <trkpt lat="47.31638" lon="-2.37486">
        <ele>53.200000762939</ele>
        <time>2022-05-08T08:07:43.000Z</time>
      </trkpt>
      <trkpt lat="47.31637" lon="-2.37494">
        <ele>52.799999237061</ele>
        <time>2022-05-08T08:07:44.000Z</time>
      </trkpt>
      <trkpt lat="47.31636" lon="-2.37503">
        <ele>52.400001525879</ele>
        <time>2022-05-08T08:07:45.000Z</time>
      </trkpt>
      <trkpt lat="47.31634" lon="-2.37511">
        <ele>52</ele>
        <time>2022-05-08T08:07:46.000Z</time>
      </trkpt>
      <trkpt lat="47.31631" lon="-2.37519">
        <ele>51.599998474121</ele>
        <time>2022-05-08T08:07:47.000Z</time>
      </trkpt>
      <trkpt lat="47.31616" lon="-2.37574">
        <ele>51.599998474121</ele>
        <time>2022-05-08T08:07:54.000Z</time>
      </trkpt>
      <trkpt lat="47.31615" lon="-2.37583">
        <ele>51.599998474121</ele>
        <time>2022-05-08T08:07:55.000Z</time>
      </trkpt>
      <trkpt lat="47.31617" lon="-2.37632">
        <ele>51.599998474121</ele>
        <time>2022-05-08T08:08:01.000Z</time>
      </trkpt>
      <trkpt lat="47.31627" lon="-2.37651">
        <ele>51.599998474121</ele>
        <time>2022-05-08T08:08:04.000Z</time>
      </trkpt>
      <trkpt lat="47.31642" lon="-2.3766">
        <ele>51.599998474121</ele>
        <time>2022-05-08T08:08:07.000Z</time>
      </trkpt>
      <trkpt lat="47.31647" lon="-2.37662">
        <ele>51.599998474121</ele>
        <time>2022-05-08T08:08:08.000Z</time>
      </trkpt>
      <trkpt lat="47.31651" lon="-2.37665">
        <ele>51.599998474121</ele>
        <time>2022-05-08T08:08:09.000Z</time>
      </trkpt>
      <trkpt lat="47.31666" lon="-2.37683">
        <ele>51.599998474121</ele>
        <time>2022-05-08T08:08:13.000Z</time>
      </trkpt>
      <trkpt lat="47.31669" lon="-2.37687">
        <ele>51.599998474121</ele>
        <time>2022-05-08T08:08:14.000Z</time>
      </trkpt>
      <trkpt lat="47.31682" lon="-2.37699">
        <ele>51.599998474121</ele>
        <time>2022-05-08T08:08:17.000Z</time>
      </trkpt>
      <trkpt lat="47.31706" lon="-2.37713">
        <ele>51.599998474121</ele>
        <time>2022-05-08T08:08:22.000Z</time>
      </trkpt>
      <trkpt lat="47.3173" lon="-2.3771">
        <ele>51.599998474121</ele>
        <time>2022-05-08T08:08:27.000Z</time>
      </trkpt>
      <trkpt lat="47.3174" lon="-2.37706">
        <ele>51.599998474121</ele>
        <time>2022-05-08T08:08:29.000Z</time>
      </trkpt>
      <trkpt lat="47.31759" lon="-2.37693">
        <ele>51.599998474121</ele>
        <time>2022-05-08T08:08:33.000Z</time>
      </trkpt>
      <trkpt lat="47.31785" lon="-2.37666">
        <ele>51.599998474121</ele>
        <time>2022-05-08T08:08:39.000Z</time>
      </trkpt>
      <trkpt lat="47.31799" lon="-2.37656">
        <ele>51.599998474121</ele>
        <time>2022-05-08T08:08:42.000Z</time>
      </trkpt>
      <trkpt lat="47.31806" lon="-2.37653">
        <ele>51.200000762939</ele>
        <time>2022-05-08T08:08:44.000Z</time>
      </trkpt>
      <trkpt lat="47.31809" lon="-2.37651">
        <ele>50.799999237061</ele>
        <time>2022-05-08T08:08:45.000Z</time>
      </trkpt>
      <trkpt lat="47.31813" lon="-2.3765">
        <ele>50.400001525879</ele>
        <time>2022-05-08T08:08:46.000Z</time>
      </trkpt>
      <trkpt lat="47.31816" lon="-2.37649">
        <ele>49.799999237061</ele>
        <time>2022-05-08T08:08:47.000Z</time>
      </trkpt>
      <trkpt lat="47.31819" lon="-2.37647">
        <ele>49.400001525879</ele>
        <time>2022-05-08T08:08:48.000Z</time>
      </trkpt>
      <trkpt lat="47.31825" lon="-2.37646">
        <ele>49.400001525879</ele>
        <time>2022-05-08T08:08:50.000Z</time>
      </trkpt>
      <trkpt lat="47.31828" lon="-2.37649">
        <ele>49.400001525879</ele>
        <time>2022-05-08T08:08:51.000Z</time>
      </trkpt>
      <trkpt lat="47.31829" lon="-2.37656">
        <ele>49.400001525879</ele>
        <time>2022-05-08T08:08:53.000Z</time>
      </trkpt>
      <trkpt lat="47.31826" lon="-2.37672">
        <ele>49.400001525879</ele>
        <time>2022-05-08T08:08:57.000Z</time>
      </trkpt>
      <trkpt lat="47.31823" lon="-2.37691">
        <ele>49.400001525879</ele>
        <time>2022-05-08T08:09:00.000Z</time>
      </trkpt>
      <trkpt lat="47.31822" lon="-2.37697">
        <ele>49.400001525879</ele>
        <time>2022-05-08T08:09:01.000Z</time>
      </trkpt>
      <trkpt lat="47.31815" lon="-2.37744">
        <ele>49.400001525879</ele>
        <time>2022-05-08T08:09:07.000Z</time>
      </trkpt>
      <trkpt lat="47.3181" lon="-2.37797">
        <ele>49.400001525879</ele>
        <time>2022-05-08T08:09:13.000Z</time>
      </trkpt>
      <trkpt lat="47.31801" lon="-2.37871">
        <ele>49.400001525879</ele>
        <time>2022-05-08T08:09:21.000Z</time>
      </trkpt>
      <trkpt lat="47.31798" lon="-2.37909">
        <ele>49</ele>
        <time>2022-05-08T08:09:25.000Z</time>
      </trkpt>
      <trkpt lat="47.31797" lon="-2.37918">
        <ele>48.200000762939</ele>
        <time>2022-05-08T08:09:26.000Z</time>
      </trkpt>
      <trkpt lat="47.31796" lon="-2.37928">
        <ele>47.799999237061</ele>
        <time>2022-05-08T08:09:27.000Z</time>
      </trkpt>
      <trkpt lat="47.31795" lon="-2.37938">
        <ele>47.400001525879</ele>
        <time>2022-05-08T08:09:28.000Z</time>
      </trkpt>
      <trkpt lat="47.31795" lon="-2.37958">
        <ele>47.400001525879</ele>
        <time>2022-05-08T08:09:30.000Z</time>
      </trkpt>
      <trkpt lat="47.31794" lon="-2.37989">
        <ele>47</ele>
        <time>2022-05-08T08:09:33.000Z</time>
      </trkpt>
      <trkpt lat="47.31794" lon="-2.37999">
        <ele>46.400001525879</ele>
        <time>2022-05-08T08:09:34.000Z</time>
      </trkpt>
      <trkpt lat="47.31794" lon="-2.3801">
        <ele>46</ele>
        <time>2022-05-08T08:09:35.000Z</time>
      </trkpt>
      <trkpt lat="47.31794" lon="-2.3802">
        <ele>45.599998474121</ele>
        <time>2022-05-08T08:09:36.000Z</time>
      </trkpt>
      <trkpt lat="47.31795" lon="-2.3803">
        <ele>45.200000762939</ele>
        <time>2022-05-08T08:09:37.000Z</time>
      </trkpt>
      <trkpt lat="47.31795" lon="-2.3804">
        <ele>45.200000762939</ele>
        <time>2022-05-08T08:09:38.000Z</time>
      </trkpt>
      <trkpt lat="47.318" lon="-2.38098">
        <ele>45.200000762939</ele>
        <time>2022-05-08T08:09:44.000Z</time>
      </trkpt>
      <trkpt lat="47.31803" lon="-2.38164">
        <ele>45.200000762939</ele>
        <time>2022-05-08T08:09:51.000Z</time>
      </trkpt>
      <trkpt lat="47.31807" lon="-2.38222">
        <ele>45.200000762939</ele>
        <time>2022-05-08T08:09:58.000Z</time>
      </trkpt>
      <trkpt lat="47.31809" lon="-2.38282">
        <ele>45.599998474121</ele>
        <time>2022-05-08T08:10:05.000Z</time>
      </trkpt>
      <trkpt lat="47.31809" lon="-2.3829">
        <ele>46</ele>
        <time>2022-05-08T08:10:06.000Z</time>
      </trkpt>
      <trkpt lat="47.3181" lon="-2.38299">
        <ele>46.400001525879</ele>
        <time>2022-05-08T08:10:07.000Z</time>
      </trkpt>
      <trkpt lat="47.3181" lon="-2.38307">
        <ele>46.799999237061</ele>
        <time>2022-05-08T08:10:08.000Z</time>
      </trkpt>
      <trkpt lat="47.3181" lon="-2.38316">
        <ele>47.200000762939</ele>
        <time>2022-05-08T08:10:09.000Z</time>
      </trkpt>
      <trkpt lat="47.3181" lon="-2.38349">
        <ele>47.200000762939</ele>
        <time>2022-05-08T08:10:13.000Z</time>
      </trkpt>
      <trkpt lat="47.3181" lon="-2.38357">
        <ele>47.799999237061</ele>
        <time>2022-05-08T08:10:14.000Z</time>
      </trkpt>
      <trkpt lat="47.31811" lon="-2.38365">
        <ele>48.599998474121</ele>
        <time>2022-05-08T08:10:15.000Z</time>
      </trkpt>
      <trkpt lat="47.31811" lon="-2.38374">
        <ele>49</ele>
        <time>2022-05-08T08:10:16.000Z</time>
      </trkpt>
      <trkpt lat="47.31811" lon="-2.38382">
        <ele>49.400001525879</ele>
        <time>2022-05-08T08:10:17.000Z</time>
      </trkpt>
      <trkpt lat="47.31811" lon="-2.38407">
        <ele>49.400001525879</ele>
        <time>2022-05-08T08:10:20.000Z</time>
      </trkpt>
      <trkpt lat="47.31811" lon="-2.38448">
        <ele>49.400001525879</ele>
        <time>2022-05-08T08:10:25.000Z</time>
      </trkpt>
      <trkpt lat="47.3181" lon="-2.38464">
        <ele>49.799999237061</ele>
        <time>2022-05-08T08:10:27.000Z</time>
      </trkpt>
      <trkpt lat="47.3181" lon="-2.38471">
        <ele>50.200000762939</ele>
        <time>2022-05-08T08:10:28.000Z</time>
      </trkpt>
      <trkpt lat="47.3181" lon="-2.38479">
        <ele>50.599998474121</ele>
        <time>2022-05-08T08:10:29.000Z</time>
      </trkpt>
      <trkpt lat="47.3181" lon="-2.38487">
        <ele>51</ele>
        <time>2022-05-08T08:10:30.000Z</time>
      </trkpt>
      <trkpt lat="47.3181" lon="-2.38494">
        <ele>51.400001525879</ele>
        <time>2022-05-08T08:10:31.000Z</time>
      </trkpt>
      <trkpt lat="47.31807" lon="-2.38529">
        <ele>51.400001525879</ele>
        <time>2022-05-08T08:10:36.000Z</time>
      </trkpt>
      <trkpt lat="47.318" lon="-2.38538">
        <ele>51.400001525879</ele>
        <time>2022-05-08T08:10:38.000Z</time>
      </trkpt>
      <trkpt lat="47.31788" lon="-2.38545">
        <ele>51.400001525879</ele>
        <time>2022-05-08T08:10:41.000Z</time>
      </trkpt>
      <trkpt lat="47.31784" lon="-2.38547">
        <ele>51.400001525879</ele>
        <time>2022-05-08T08:10:42.000Z</time>
      </trkpt>
      <trkpt lat="47.31763" lon="-2.38559">
        <ele>51.400001525879</ele>
        <time>2022-05-08T08:10:48.000Z</time>
      </trkpt>
      <trkpt lat="47.31731" lon="-2.38576">
        <ele>51.400001525879</ele>
        <time>2022-05-08T08:10:57.000Z</time>
      </trkpt>
      <trkpt lat="47.31698" lon="-2.38595">
        <ele>51.400001525879</ele>
        <time>2022-05-08T08:11:05.000Z</time>
      </trkpt>
      <trkpt lat="47.31662" lon="-2.38619">
        <ele>51.400001525879</ele>
        <time>2022-05-08T08:11:13.000Z</time>
      </trkpt>
      <trkpt lat="47.31633" lon="-2.38651">
        <ele>51.400001525879</ele>
        <time>2022-05-08T08:11:20.000Z</time>
      </trkpt>
      <trkpt lat="47.31604" lon="-2.38695">
        <ele>51.400001525879</ele>
        <time>2022-05-08T08:11:28.000Z</time>
      </trkpt>
      <trkpt lat="47.31579" lon="-2.38732">
        <ele>51.400001525879</ele>
        <time>2022-05-08T08:11:35.000Z</time>
      </trkpt>
      <trkpt lat="47.31553" lon="-2.38771">
        <ele>51.400001525879</ele>
        <time>2022-05-08T08:11:42.000Z</time>
      </trkpt>
      <trkpt lat="47.31529" lon="-2.38813">
        <ele>51.400001525879</ele>
        <time>2022-05-08T08:11:49.000Z</time>
      </trkpt>
      <trkpt lat="47.31503" lon="-2.38863">
        <ele>51.400001525879</ele>
        <time>2022-05-08T08:11:57.000Z</time>
      </trkpt>
      <trkpt lat="47.3148" lon="-2.3891">
        <ele>51.799999237061</ele>
        <time>2022-05-08T08:12:04.000Z</time>
      </trkpt>
      <trkpt lat="47.31477" lon="-2.38917">
        <ele>52.400001525879</ele>
        <time>2022-05-08T08:12:05.000Z</time>
      </trkpt>
      <trkpt lat="47.31473" lon="-2.38923">
        <ele>52.799999237061</ele>
        <time>2022-05-08T08:12:06.000Z</time>
      </trkpt>
      <trkpt lat="47.3147" lon="-2.3893">
        <ele>53.200000762939</ele>
        <time>2022-05-08T08:12:07.000Z</time>
      </trkpt>
      <trkpt lat="47.31467" lon="-2.38937">
        <ele>53.599998474121</ele>
        <time>2022-05-08T08:12:08.000Z</time>
      </trkpt>
      <trkpt lat="47.31453" lon="-2.38965">
        <ele>53.599998474121</ele>
        <time>2022-05-08T08:12:12.000Z</time>
      </trkpt>
      <trkpt lat="47.31428" lon="-2.39021">
        <ele>53.599998474121</ele>
        <time>2022-05-08T08:12:20.000Z</time>
      </trkpt>
      <trkpt lat="47.31419" lon="-2.39043">
        <ele>53.599998474121</ele>
        <time>2022-05-08T08:12:23.000Z</time>
      </trkpt>
      <trkpt lat="47.31411" lon="-2.39058">
        <ele>53.599998474121</ele>
        <time>2022-05-08T08:12:25.000Z</time>
      </trkpt>
      <trkpt lat="47.31395" lon="-2.39082">
        <ele>54</ele>
        <time>2022-05-08T08:12:29.000Z</time>
      </trkpt>
      <trkpt lat="47.31391" lon="-2.39088">
        <ele>54.400001525879</ele>
        <time>2022-05-08T08:12:30.000Z</time>
      </trkpt>
      <trkpt lat="47.31387" lon="-2.39093">
        <ele>54.799999237061</ele>
        <time>2022-05-08T08:12:31.000Z</time>
      </trkpt>
      <trkpt lat="47.31383" lon="-2.39098">
        <ele>55.200000762939</ele>
        <time>2022-05-08T08:12:32.000Z</time>
      </trkpt>
      <trkpt lat="47.31379" lon="-2.39103">
        <ele>55.599998474121</ele>
        <time>2022-05-08T08:12:33.000Z</time>
      </trkpt>
      <trkpt lat="47.31362" lon="-2.39121">
        <ele>55.599998474121</ele>
        <time>2022-05-08T08:12:37.000Z</time>
      </trkpt>
      <trkpt lat="47.31335" lon="-2.3915">
        <ele>55.599998474121</ele>
        <time>2022-05-08T08:12:43.000Z</time>
      </trkpt>
      <trkpt lat="47.313" lon="-2.39189">
        <ele>55.599998474121</ele>
        <time>2022-05-08T08:12:51.000Z</time>
      </trkpt>
      <trkpt lat="47.31284" lon="-2.39207">
        <ele>55.599998474121</ele>
        <time>2022-05-08T08:12:55.000Z</time>
      </trkpt>
      <trkpt lat="47.31276" lon="-2.39218">
        <ele>55.599998474121</ele>
        <time>2022-05-08T08:12:57.000Z</time>
      </trkpt>
      <trkpt lat="47.31243" lon="-2.39263">
        <ele>55.599998474121</ele>
        <time>2022-05-08T08:13:05.000Z</time>
      </trkpt>
      <trkpt lat="47.31229" lon="-2.3928">
        <ele>55.599998474121</ele>
        <time>2022-05-08T08:13:08.000Z</time>
      </trkpt>
      <trkpt lat="47.31217" lon="-2.3929">
        <ele>55.599998474121</ele>
        <time>2022-05-08T08:13:10.000Z</time>
      </trkpt>
      <trkpt lat="47.31176" lon="-2.39323">
        <ele>55.599998474121</ele>
        <time>2022-05-08T08:13:17.000Z</time>
      </trkpt>
      <trkpt lat="47.31134" lon="-2.39357">
        <ele>55.599998474121</ele>
        <time>2022-05-08T08:13:24.000Z</time>
      </trkpt>
      <trkpt lat="47.31108" lon="-2.39388">
        <ele>55.200000762939</ele>
        <time>2022-05-08T08:13:29.000Z</time>
      </trkpt>
      <trkpt lat="47.31104" lon="-2.39394">
        <ele>54.799999237061</ele>
        <time>2022-05-08T08:13:30.000Z</time>
      </trkpt>
      <trkpt lat="47.31099" lon="-2.394">
        <ele>54.200000762939</ele>
        <time>2022-05-08T08:13:31.000Z</time>
      </trkpt>
      <trkpt lat="47.31094" lon="-2.39406">
        <ele>53.400001525879</ele>
        <time>2022-05-08T08:13:32.000Z</time>
      </trkpt>
      <trkpt lat="47.3106" lon="-2.39449">
        <ele>53.400001525879</ele>
        <time>2022-05-08T08:13:39.000Z</time>
      </trkpt>
      <trkpt lat="47.31046" lon="-2.39462">
        <ele>53.400001525879</ele>
        <time>2022-05-08T08:13:42.000Z</time>
      </trkpt>
      <trkpt lat="47.31045" lon="-2.39467">
        <ele>53.400001525879</ele>
        <time>2022-05-08T08:13:43.000Z</time>
      </trkpt>
      <trkpt lat="47.31047" lon="-2.39484">
        <ele>53.400001525879</ele>
        <time>2022-05-08T08:13:46.000Z</time>
      </trkpt>
      <trkpt lat="47.31053" lon="-2.39499">
        <ele>53.400001525879</ele>
        <time>2022-05-08T08:13:49.000Z</time>
      </trkpt>
      <trkpt lat="47.31057" lon="-2.39511">
        <ele>53.400001525879</ele>
        <time>2022-05-08T08:13:51.000Z</time>
      </trkpt>
      <trkpt lat="47.31063" lon="-2.39528">
        <ele>53.400001525879</ele>
        <time>2022-05-08T08:13:54.000Z</time>
      </trkpt>
      <trkpt lat="47.31066" lon="-2.39539">
        <ele>53.400001525879</ele>
        <time>2022-05-08T08:13:56.000Z</time>
      </trkpt>
      <trkpt lat="47.31071" lon="-2.3955">
        <ele>53.400001525879</ele>
        <time>2022-05-08T08:13:58.000Z</time>
      </trkpt>
      <trkpt lat="47.3108" lon="-2.39577">
        <ele>53.400001525879</ele>
        <time>2022-05-08T08:14:03.000Z</time>
      </trkpt>
      <trkpt lat="47.31081" lon="-2.39582">
        <ele>53.400001525879</ele>
        <time>2022-05-08T08:14:04.000Z</time>
      </trkpt>
      <trkpt lat="47.31087" lon="-2.39597">
        <ele>53.400001525879</ele>
        <time>2022-05-08T08:14:08.000Z</time>
      </trkpt>
      <trkpt lat="47.31087" lon="-2.39601">
        <ele>53.400001525879</ele>
        <time>2022-05-08T08:14:09.000Z</time>
      </trkpt>
      <trkpt lat="47.31086" lon="-2.39604">
        <ele>53.400001525879</ele>
        <time>2022-05-08T08:14:12.000Z</time>
      </trkpt>
      <trkpt lat="47.31088" lon="-2.39608">
        <ele>53.400001525879</ele>
        <time>2022-05-08T08:14:15.000Z</time>
      </trkpt>
      <trkpt lat="47.31098" lon="-2.39625">
        <ele>53.400001525879</ele>
        <time>2022-05-08T08:14:20.000Z</time>
      </trkpt>
      <trkpt lat="47.31104" lon="-2.39646">
        <ele>53.400001525879</ele>
        <time>2022-05-08T08:14:24.000Z</time>
      </trkpt>
      <trkpt lat="47.31106" lon="-2.39652">
        <ele>53.400001525879</ele>
        <time>2022-05-08T08:14:25.000Z</time>
      </trkpt>
      <trkpt lat="47.3112" lon="-2.3969">
        <ele>53.400001525879</ele>
        <time>2022-05-08T08:14:31.000Z</time>
      </trkpt>
      <trkpt lat="47.31137" lon="-2.39739">
        <ele>53.400001525879</ele>
        <time>2022-05-08T08:14:38.000Z</time>
      </trkpt>
      <trkpt lat="47.31156" lon="-2.39799">
        <ele>53.400001525879</ele>
        <time>2022-05-08T08:14:46.000Z</time>
      </trkpt>
      <trkpt lat="47.31166" lon="-2.39829">
        <ele>53.400001525879</ele>
        <time>2022-05-08T08:14:50.000Z</time>
      </trkpt>
      <trkpt lat="47.31173" lon="-2.3984">
        <ele>53.400001525879</ele>
        <time>2022-05-08T08:14:52.000Z</time>
      </trkpt>
      <trkpt lat="47.31179" lon="-2.39853">
        <ele>53.400001525879</ele>
        <time>2022-05-08T08:14:54.000Z</time>
      </trkpt>
      <trkpt lat="47.31182" lon="-2.39868">
        <ele>53.400001525879</ele>
        <time>2022-05-08T08:14:56.000Z</time>
      </trkpt>
      <trkpt lat="47.31187" lon="-2.39883">
        <ele>53.400001525879</ele>
        <time>2022-05-08T08:15:00.000Z</time>
      </trkpt>
      <trkpt lat="47.31192" lon="-2.39902">
        <ele>53.400001525879</ele>
        <time>2022-05-08T08:15:04.000Z</time>
      </trkpt>
      <trkpt lat="47.31194" lon="-2.39905">
        <ele>53</ele>
        <time>2022-05-08T08:15:05.000Z</time>
      </trkpt>
      <trkpt lat="47.31196" lon="-2.39909">
        <ele>52.599998474121</ele>
        <time>2022-05-08T08:15:06.000Z</time>
      </trkpt>
      <trkpt lat="47.31198" lon="-2.39912">
        <ele>52</ele>
        <time>2022-05-08T08:15:07.000Z</time>
      </trkpt>
      <trkpt lat="47.312" lon="-2.39916">
        <ele>51.599998474121</ele>
        <time>2022-05-08T08:15:08.000Z</time>
      </trkpt>
      <trkpt lat="47.31202" lon="-2.39921">
        <ele>51.200000762939</ele>
        <time>2022-05-08T08:15:09.000Z</time>
      </trkpt>
      <trkpt lat="47.31204" lon="-2.39925">
        <ele>51.200000762939</ele>
        <time>2022-05-08T08:15:10.000Z</time>
      </trkpt>
      <trkpt lat="47.31208" lon="-2.39937">
        <ele>51.200000762939</ele>
        <time>2022-05-08T08:15:13.000Z</time>
      </trkpt>
      <trkpt lat="47.31211" lon="-2.39946">
        <ele>50.799999237061</ele>
        <time>2022-05-08T08:15:15.000Z</time>
      </trkpt>
      <trkpt lat="47.31212" lon="-2.3995">
        <ele>50.400001525879</ele>
        <time>2022-05-08T08:15:16.000Z</time>
      </trkpt>
      <trkpt lat="47.31214" lon="-2.39955">
        <ele>50</ele>
        <time>2022-05-08T08:15:17.000Z</time>
      </trkpt>
      <trkpt lat="47.31215" lon="-2.39958">
        <ele>49.599998474121</ele>
        <time>2022-05-08T08:15:18.000Z</time>
      </trkpt>
      <trkpt lat="47.31216" lon="-2.39961">
        <ele>49.200000762939</ele>
        <time>2022-05-08T08:15:19.000Z</time>
      </trkpt>
      <trkpt lat="47.31223" lon="-2.39982">
        <ele>48.799999237061</ele>
        <time>2022-05-08T08:15:25.000Z</time>
      </trkpt>
      <trkpt lat="47.31224" lon="-2.39985">
        <ele>48.400001525879</ele>
        <time>2022-05-08T08:15:26.000Z</time>
      </trkpt>
      <trkpt lat="47.31225" lon="-2.3999">
        <ele>48</ele>
        <time>2022-05-08T08:15:27.000Z</time>
      </trkpt>
      <trkpt lat="47.31227" lon="-2.39994">
        <ele>47.400001525879</ele>
        <time>2022-05-08T08:15:28.000Z</time>
      </trkpt>
      <trkpt lat="47.31228" lon="-2.39998">
        <ele>47</ele>
        <time>2022-05-08T08:15:29.000Z</time>
      </trkpt>
      <trkpt lat="47.31229" lon="-2.40002">
        <ele>47</ele>
        <time>2022-05-08T08:15:30.000Z</time>
      </trkpt>
      <trkpt lat="47.31236" lon="-2.4003">
        <ele>47</ele>
        <time>2022-05-08T08:15:35.000Z</time>
      </trkpt>
      <trkpt lat="47.31239" lon="-2.40038">
        <ele>47</ele>
        <time>2022-05-08T08:15:37.000Z</time>
      </trkpt>
      <trkpt lat="47.31242" lon="-2.40039">
        <ele>47</ele>
        <time>2022-05-08T08:15:39.000Z</time>
      </trkpt>
      <trkpt lat="47.31242" lon="-2.40041">
        <ele>47</ele>
        <time>2022-05-08T08:15:41.000Z</time>
      </trkpt>
      <trkpt lat="47.31251" lon="-2.40048">
        <ele>47</ele>
        <time>2022-05-08T08:15:54.000Z</time>
      </trkpt>
      <trkpt lat="47.31255" lon="-2.40052">
        <ele>47</ele>
        <time>2022-05-08T08:15:55.000Z</time>
      </trkpt>
      <trkpt lat="47.31261" lon="-2.40055">
        <ele>47</ele>
        <time>2022-05-08T08:15:56.000Z</time>
      </trkpt>
      <trkpt lat="47.31272" lon="-2.40058">
        <ele>47</ele>
        <time>2022-05-08T08:15:58.000Z</time>
      </trkpt>
      <trkpt lat="47.31289" lon="-2.40063">
        <ele>47</ele>
        <time>2022-05-08T08:16:03.000Z</time>
      </trkpt>
      <trkpt lat="47.31309" lon="-2.40069">
        <ele>47</ele>
        <time>2022-05-08T08:16:10.000Z</time>
      </trkpt>
      <trkpt lat="47.31334" lon="-2.40083">
        <ele>47</ele>
        <time>2022-05-08T08:16:17.000Z</time>
      </trkpt>
      <trkpt lat="47.31361" lon="-2.40096">
        <ele>47</ele>
        <time>2022-05-08T08:16:23.000Z</time>
      </trkpt>
      <trkpt lat="47.31382" lon="-2.40106">
        <ele>47</ele>
        <time>2022-05-08T08:16:29.000Z</time>
      </trkpt>
      <trkpt lat="47.31409" lon="-2.40122">
        <ele>47</ele>
        <time>2022-05-08T08:16:37.000Z</time>
      </trkpt>
      <trkpt lat="47.31435" lon="-2.40142">
        <ele>47</ele>
        <time>2022-05-08T08:16:44.000Z</time>
      </trkpt>
      <trkpt lat="47.31453" lon="-2.40155">
        <ele>47</ele>
        <time>2022-05-08T08:16:49.000Z</time>
      </trkpt>
      <trkpt lat="47.31474" lon="-2.40171">
        <ele>47</ele>
        <time>2022-05-08T08:16:55.000Z</time>
      </trkpt>
      <trkpt lat="47.3148" lon="-2.40175">
        <ele>47</ele>
        <time>2022-05-08T08:16:58.000Z</time>
      </trkpt>
      <trkpt lat="47.31482" lon="-2.40179">
        <ele>47</ele>
        <time>2022-05-08T08:17:00.000Z</time>
      </trkpt>
      <trkpt lat="47.31491" lon="-2.40184">
        <ele>47</ele>
        <time>2022-05-08T08:17:03.000Z</time>
      </trkpt>
      <trkpt lat="47.31499" lon="-2.4019">
        <ele>47</ele>
        <time>2022-05-08T08:17:05.000Z</time>
      </trkpt>
      <trkpt lat="47.31518" lon="-2.40205">
        <ele>47</ele>
        <time>2022-05-08T08:17:11.000Z</time>
      </trkpt>
      <trkpt lat="47.3152" lon="-2.40206">
        <ele>47.400001525879</ele>
        <time>2022-05-08T08:17:12.000Z</time>
      </trkpt>
      <trkpt lat="47.31523" lon="-2.40209">
        <ele>48</ele>
        <time>2022-05-08T08:17:13.000Z</time>
      </trkpt>
      <trkpt lat="47.31525" lon="-2.40211">
        <ele>48.400001525879</ele>
        <time>2022-05-08T08:17:14.000Z</time>
      </trkpt>
      <trkpt lat="47.31528" lon="-2.40213">
        <ele>49.200000762939</ele>
        <time>2022-05-08T08:17:15.000Z</time>
      </trkpt>
      <trkpt lat="47.31539" lon="-2.40221">
        <ele>49.200000762939</ele>
        <time>2022-05-08T08:17:18.000Z</time>
      </trkpt>
      <trkpt lat="47.31564" lon="-2.40241">
        <ele>49.200000762939</ele>
        <time>2022-05-08T08:17:24.000Z</time>
      </trkpt>
      <trkpt lat="47.31594" lon="-2.40264">
        <ele>49.200000762939</ele>
        <time>2022-05-08T08:17:30.000Z</time>
      </trkpt>
      <trkpt lat="47.31619" lon="-2.40281">
        <ele>49.200000762939</ele>
        <time>2022-05-08T08:17:37.000Z</time>
      </trkpt>
      <trkpt lat="47.31629" lon="-2.40289">
        <ele>49.599998474121</ele>
        <time>2022-05-08T08:17:40.000Z</time>
      </trkpt>
      <trkpt lat="47.31632" lon="-2.40291">
        <ele>50</ele>
        <time>2022-05-08T08:17:41.000Z</time>
      </trkpt>
      <trkpt lat="47.31635" lon="-2.40294">
        <ele>50.400001525879</ele>
        <time>2022-05-08T08:17:42.000Z</time>
      </trkpt>
      <trkpt lat="47.31638" lon="-2.40297">
        <ele>50.799999237061</ele>
        <time>2022-05-08T08:17:43.000Z</time>
      </trkpt>
      <trkpt lat="47.31641" lon="-2.40299">
        <ele>51.400001525879</ele>
        <time>2022-05-08T08:17:44.000Z</time>
      </trkpt>
      <trkpt lat="47.31645" lon="-2.40301">
        <ele>51.400001525879</ele>
        <time>2022-05-08T08:17:45.000Z</time>
      </trkpt>
      <trkpt lat="47.31668" lon="-2.40322">
        <ele>51.400001525879</ele>
        <time>2022-05-08T08:17:53.000Z</time>
      </trkpt>
      <trkpt lat="47.31674" lon="-2.40332">
        <ele>51.400001525879</ele>
        <time>2022-05-08T08:17:57.000Z</time>
      </trkpt>
      <trkpt lat="47.31676" lon="-2.40333">
        <ele>51.400001525879</ele>
        <time>2022-05-08T08:17:58.000Z</time>
      </trkpt>
      <trkpt lat="47.31686" lon="-2.40334">
        <ele>51.400001525879</ele>
        <time>2022-05-08T08:18:03.000Z</time>
      </trkpt>
      <trkpt lat="47.31686" lon="-2.40335">
        <ele>51.400001525879</ele>
        <time>2022-05-08T08:18:04.000Z</time>
      </trkpt>
      <trkpt lat="47.31688" lon="-2.40336">
        <ele>51.400001525879</ele>
        <time>2022-05-08T08:18:49.000Z</time>
      </trkpt>
      <trkpt lat="47.31691" lon="-2.40338">
        <ele>51.400001525879</ele>
        <time>2022-05-08T08:18:51.000Z</time>
      </trkpt>
      <trkpt lat="47.31704" lon="-2.40348">
        <ele>51.400001525879</ele>
        <time>2022-05-08T08:18:56.000Z</time>
      </trkpt>
      <trkpt lat="47.31714" lon="-2.40359">
        <ele>51.799999237061</ele>
        <time>2022-05-08T08:19:00.000Z</time>
      </trkpt>
      <trkpt lat="47.31717" lon="-2.40361">
        <ele>52.200000762939</ele>
        <time>2022-05-08T08:19:01.000Z</time>
      </trkpt>
      <trkpt lat="47.3172" lon="-2.40363">
        <ele>52.599998474121</ele>
        <time>2022-05-08T08:19:02.000Z</time>
      </trkpt>
      <trkpt lat="47.31723" lon="-2.40365">
        <ele>53</ele>
        <time>2022-05-08T08:19:03.000Z</time>
      </trkpt>
      <trkpt lat="47.31727" lon="-2.40368">
        <ele>53.400001525879</ele>
        <time>2022-05-08T08:19:04.000Z</time>
      </trkpt>
      <trkpt lat="47.31747" lon="-2.40384">
        <ele>53.400001525879</ele>
        <time>2022-05-08T08:19:10.000Z</time>
      </trkpt>
      <trkpt lat="47.31762" lon="-2.40396">
        <ele>53.400001525879</ele>
        <time>2022-05-08T08:19:15.000Z</time>
      </trkpt>
      <trkpt lat="47.31788" lon="-2.40415">
        <ele>53.400001525879</ele>
        <time>2022-05-08T08:19:21.000Z</time>
      </trkpt>
      <trkpt lat="47.31802" lon="-2.40424">
        <ele>53.799999237061</ele>
        <time>2022-05-08T08:19:24.000Z</time>
      </trkpt>
      <trkpt lat="47.31806" lon="-2.40428">
        <ele>54.200000762939</ele>
        <time>2022-05-08T08:19:25.000Z</time>
      </trkpt>
      <trkpt lat="47.31811" lon="-2.40431">
        <ele>54.599998474121</ele>
        <time>2022-05-08T08:19:26.000Z</time>
      </trkpt>
      <trkpt lat="47.31817" lon="-2.40435">
        <ele>55</ele>
        <time>2022-05-08T08:19:27.000Z</time>
      </trkpt>
      <trkpt lat="47.31822" lon="-2.40439">
        <ele>55.400001525879</ele>
        <time>2022-05-08T08:19:28.000Z</time>
      </trkpt>
      <trkpt lat="47.31827" lon="-2.40442">
        <ele>55.400001525879</ele>
        <time>2022-05-08T08:19:29.000Z</time>
      </trkpt>
      <trkpt lat="47.31851" lon="-2.4046">
        <ele>55.400001525879</ele>
        <time>2022-05-08T08:19:34.000Z</time>
      </trkpt>
      <trkpt lat="47.3186" lon="-2.40469">
        <ele>55.400001525879</ele>
        <time>2022-05-08T08:19:36.000Z</time>
      </trkpt>
      <trkpt lat="47.31882" lon="-2.40488">
        <ele>55.400001525879</ele>
        <time>2022-05-08T08:19:41.000Z</time>
      </trkpt>
      <trkpt lat="47.31912" lon="-2.40511">
        <ele>55.799999237061</ele>
        <time>2022-05-08T08:19:47.000Z</time>
      </trkpt>
      <trkpt lat="47.31917" lon="-2.40514">
        <ele>56.200000762939</ele>
        <time>2022-05-08T08:19:48.000Z</time>
      </trkpt>
      <trkpt lat="47.31922" lon="-2.40518">
        <ele>56.599998474121</ele>
        <time>2022-05-08T08:19:49.000Z</time>
      </trkpt>
      <trkpt lat="47.31926" lon="-2.40522">
        <ele>57</ele>
        <time>2022-05-08T08:19:50.000Z</time>
      </trkpt>
      <trkpt lat="47.3193" lon="-2.40525">
        <ele>57.400001525879</ele>
        <time>2022-05-08T08:19:51.000Z</time>
      </trkpt>
      <trkpt lat="47.31951" lon="-2.4054">
        <ele>57.400001525879</ele>
        <time>2022-05-08T08:19:56.000Z</time>
      </trkpt>
      <trkpt lat="47.31983" lon="-2.40568">
        <ele>57.400001525879</ele>
        <time>2022-05-08T08:20:04.000Z</time>
      </trkpt>
      <trkpt lat="47.32018" lon="-2.40594">
        <ele>57.400001525879</ele>
        <time>2022-05-08T08:20:11.000Z</time>
      </trkpt>
      <trkpt lat="47.32032" lon="-2.40605">
        <ele>57.799999237061</ele>
        <time>2022-05-08T08:20:14.000Z</time>
      </trkpt>
      <trkpt lat="47.32037" lon="-2.40608">
        <ele>58.200000762939</ele>
        <time>2022-05-08T08:20:15.000Z</time>
      </trkpt>
      <trkpt lat="47.32043" lon="-2.40613">
        <ele>58.599998474121</ele>
        <time>2022-05-08T08:20:16.000Z</time>
      </trkpt>
      <trkpt lat="47.32048" lon="-2.40617">
        <ele>59</ele>
        <time>2022-05-08T08:20:17.000Z</time>
      </trkpt>
      <trkpt lat="47.32053" lon="-2.40622">
        <ele>59.400001525879</ele>
        <time>2022-05-08T08:20:18.000Z</time>
      </trkpt>
      <trkpt lat="47.32092" lon="-2.40659">
        <ele>59.400001525879</ele>
        <time>2022-05-08T08:20:25.000Z</time>
      </trkpt>
      <trkpt lat="47.32098" lon="-2.40664">
        <ele>59.400001525879</ele>
        <time>2022-05-08T08:20:26.000Z</time>
      </trkpt>
      <trkpt lat="47.32121" lon="-2.4069">
        <ele>59.400001525879</ele>
        <time>2022-05-08T08:20:31.000Z</time>
      </trkpt>
      <trkpt lat="47.32148" lon="-2.40721">
        <ele>59.799999237061</ele>
        <time>2022-05-08T08:20:37.000Z</time>
      </trkpt>
      <trkpt lat="47.32153" lon="-2.40726">
        <ele>60.200000762939</ele>
        <time>2022-05-08T08:20:38.000Z</time>
      </trkpt>
      <trkpt lat="47.32157" lon="-2.40731">
        <ele>60.599998474121</ele>
        <time>2022-05-08T08:20:39.000Z</time>
      </trkpt>
      <trkpt lat="47.32161" lon="-2.40736">
        <ele>61</ele>
        <time>2022-05-08T08:20:40.000Z</time>
      </trkpt>
      <trkpt lat="47.32165" lon="-2.40742">
        <ele>61.400001525879</ele>
        <time>2022-05-08T08:20:41.000Z</time>
      </trkpt>
      <trkpt lat="47.3218" lon="-2.40761">
        <ele>61.400001525879</ele>
        <time>2022-05-08T08:20:45.000Z</time>
      </trkpt>
      <trkpt lat="47.32199" lon="-2.40788">
        <ele>61.400001525879</ele>
        <time>2022-05-08T08:20:51.000Z</time>
      </trkpt>
      <trkpt lat="47.32202" lon="-2.40792">
        <ele>61.400001525879</ele>
        <time>2022-05-08T08:20:52.000Z</time>
      </trkpt>
      <trkpt lat="47.32211" lon="-2.40803">
        <ele>61.400001525879</ele>
        <time>2022-05-08T08:20:55.000Z</time>
      </trkpt>
      <trkpt lat="47.3222" lon="-2.40818">
        <ele>61.400001525879</ele>
        <time>2022-05-08T08:20:59.000Z</time>
      </trkpt>
      <trkpt lat="47.32231" lon="-2.40836">
        <ele>61.400001525879</ele>
        <time>2022-05-08T08:21:03.000Z</time>
      </trkpt>
      <trkpt lat="47.32261" lon="-2.40884">
        <ele>61.400001525879</ele>
        <time>2022-05-08T08:21:12.000Z</time>
      </trkpt>
      <trkpt lat="47.32287" lon="-2.40931">
        <ele>61.400001525879</ele>
        <time>2022-05-08T08:21:20.000Z</time>
      </trkpt>
      <trkpt lat="47.32316" lon="-2.40985">
        <ele>61.400001525879</ele>
        <time>2022-05-08T08:21:29.000Z</time>
      </trkpt>
      <trkpt lat="47.32335" lon="-2.41021">
        <ele>61.799999237061</ele>
        <time>2022-05-08T08:21:35.000Z</time>
      </trkpt>
      <trkpt lat="47.32338" lon="-2.41027">
        <ele>62.200000762939</ele>
        <time>2022-05-08T08:21:36.000Z</time>
      </trkpt>
      <trkpt lat="47.32341" lon="-2.41033">
        <ele>62.599998474121</ele>
        <time>2022-05-08T08:21:37.000Z</time>
      </trkpt>
      <trkpt lat="47.32344" lon="-2.4104">
        <ele>63</ele>
        <time>2022-05-08T08:21:38.000Z</time>
      </trkpt>
      <trkpt lat="47.32348" lon="-2.41046">
        <ele>63.400001525879</ele>
        <time>2022-05-08T08:21:39.000Z</time>
      </trkpt>
      <trkpt lat="47.3236" lon="-2.41069">
        <ele>63.400001525879</ele>
        <time>2022-05-08T08:21:43.000Z</time>
      </trkpt>
      <trkpt lat="47.32364" lon="-2.41074">
        <ele>63.400001525879</ele>
        <time>2022-05-08T08:21:44.000Z</time>
      </trkpt>
      <trkpt lat="47.32371" lon="-2.41091">
        <ele>63.400001525879</ele>
        <time>2022-05-08T08:21:47.000Z</time>
      </trkpt>
      <trkpt lat="47.32375" lon="-2.41103">
        <ele>63.400001525879</ele>
        <time>2022-05-08T08:21:49.000Z</time>
      </trkpt>
      <trkpt lat="47.32384" lon="-2.4112">
        <ele>63.400001525879</ele>
        <time>2022-05-08T08:21:52.000Z</time>
      </trkpt>
      <trkpt lat="47.32406" lon="-2.41161">
        <ele>63.400001525879</ele>
        <time>2022-05-08T08:22:00.000Z</time>
      </trkpt>
      <trkpt lat="47.32411" lon="-2.41172">
        <ele>63.400001525879</ele>
        <time>2022-05-08T08:22:02.000Z</time>
      </trkpt>
      <trkpt lat="47.32421" lon="-2.41189">
        <ele>63.400001525879</ele>
        <time>2022-05-08T08:22:06.000Z</time>
      </trkpt>
      <trkpt lat="47.3243" lon="-2.41203">
        <ele>63.400001525879</ele>
        <time>2022-05-08T08:22:10.000Z</time>
      </trkpt>
      <trkpt lat="47.32446" lon="-2.41234">
        <ele>63.400001525879</ele>
        <time>2022-05-08T08:22:16.000Z</time>
      </trkpt>
      <trkpt lat="47.32466" lon="-2.41276">
        <ele>63.400001525879</ele>
        <time>2022-05-08T08:22:23.000Z</time>
      </trkpt>
      <trkpt lat="47.32469" lon="-2.41282">
        <ele>63.400001525879</ele>
        <time>2022-05-08T08:22:24.000Z</time>
      </trkpt>
      <trkpt lat="47.32472" lon="-2.41289">
        <ele>63.400001525879</ele>
        <time>2022-05-08T08:22:25.000Z</time>
      </trkpt>
      <trkpt lat="47.32488" lon="-2.41319">
        <ele>63.400001525879</ele>
        <time>2022-05-08T08:22:30.000Z</time>
      </trkpt>
      <trkpt lat="47.32508" lon="-2.41357">
        <ele>63.400001525879</ele>
        <time>2022-05-08T08:22:36.000Z</time>
      </trkpt>
      <trkpt lat="47.32536" lon="-2.4141">
        <ele>63.400001525879</ele>
        <time>2022-05-08T08:22:44.000Z</time>
      </trkpt>
      <trkpt lat="47.32556" lon="-2.4145">
        <ele>63.400001525879</ele>
        <time>2022-05-08T08:22:50.000Z</time>
      </trkpt>
      <trkpt lat="47.32564" lon="-2.41462">
        <ele>63.400001525879</ele>
        <time>2022-05-08T08:22:53.000Z</time>
      </trkpt>
      <trkpt lat="47.32569" lon="-2.41487">
        <ele>63.400001525879</ele>
        <time>2022-05-08T08:22:58.000Z</time>
      </trkpt>
      <trkpt lat="47.3257" lon="-2.41492">
        <ele>63.400001525879</ele>
        <time>2022-05-08T08:22:59.000Z</time>
      </trkpt>
      <trkpt lat="47.32576" lon="-2.41516">
        <ele>63.400001525879</ele>
        <time>2022-05-08T08:23:03.000Z</time>
      </trkpt>
      <trkpt lat="47.32589" lon="-2.41522">
        <ele>63.400001525879</ele>
        <time>2022-05-08T08:23:06.000Z</time>
      </trkpt>
      <trkpt lat="47.32595" lon="-2.41523">
        <ele>63.400001525879</ele>
        <time>2022-05-08T08:23:07.000Z</time>
      </trkpt>
      <trkpt lat="47.32611" lon="-2.41525">
        <ele>63</ele>
        <time>2022-05-08T08:23:10.000Z</time>
      </trkpt>
      <trkpt lat="47.32616" lon="-2.41525">
        <ele>62.599998474121</ele>
        <time>2022-05-08T08:23:11.000Z</time>
      </trkpt>
      <trkpt lat="47.32621" lon="-2.41526">
        <ele>62.200000762939</ele>
        <time>2022-05-08T08:23:12.000Z</time>
      </trkpt>
      <trkpt lat="47.32626" lon="-2.41527">
        <ele>61.799999237061</ele>
        <time>2022-05-08T08:23:13.000Z</time>
      </trkpt>
      <trkpt lat="47.32631" lon="-2.41528">
        <ele>61.400001525879</ele>
        <time>2022-05-08T08:23:14.000Z</time>
      </trkpt>
      <trkpt lat="47.32666" lon="-2.41535">
        <ele>61.400001525879</ele>
        <time>2022-05-08T08:23:21.000Z</time>
      </trkpt>
      <trkpt lat="47.32692" lon="-2.41541">
        <ele>61</ele>
        <time>2022-05-08T08:23:26.000Z</time>
      </trkpt>
      <trkpt lat="47.32697" lon="-2.41542">
        <ele>60.599998474121</ele>
        <time>2022-05-08T08:23:27.000Z</time>
      </trkpt>
      <trkpt lat="47.327" lon="-2.41543">
        <ele>60.200000762939</ele>
        <time>2022-05-08T08:23:28.000Z</time>
      </trkpt>
      <trkpt lat="47.32702" lon="-2.41547">
        <ele>59.799999237061</ele>
        <time>2022-05-08T08:23:29.000Z</time>
      </trkpt>
      <trkpt lat="47.32703" lon="-2.4155">
        <ele>59.400001525879</ele>
        <time>2022-05-08T08:23:30.000Z</time>
      </trkpt>
      <trkpt lat="47.32702" lon="-2.41563">
        <ele>59.400001525879</ele>
        <time>2022-05-08T08:23:33.000Z</time>
      </trkpt>
      <trkpt lat="47.32702" lon="-2.41578">
        <ele>59.400001525879</ele>
        <time>2022-05-08T08:23:37.000Z</time>
      </trkpt>
      <trkpt lat="47.32706" lon="-2.41589">
        <ele>59.400001525879</ele>
        <time>2022-05-08T08:23:40.000Z</time>
      </trkpt>
      <trkpt lat="47.32706" lon="-2.41595">
        <ele>59</ele>
        <time>2022-05-08T08:23:41.000Z</time>
      </trkpt>
      <trkpt lat="47.32707" lon="-2.416">
        <ele>58.599998474121</ele>
        <time>2022-05-08T08:23:42.000Z</time>
      </trkpt>
      <trkpt lat="47.32709" lon="-2.41605">
        <ele>58.200000762939</ele>
        <time>2022-05-08T08:23:43.000Z</time>
      </trkpt>
      <trkpt lat="47.32711" lon="-2.41611">
        <ele>57.799999237061</ele>
        <time>2022-05-08T08:23:44.000Z</time>
      </trkpt>
      <trkpt lat="47.32714" lon="-2.41616">
        <ele>57.400001525879</ele>
        <time>2022-05-08T08:23:45.000Z</time>
      </trkpt>
      <trkpt lat="47.32716" lon="-2.41623">
        <ele>57.400001525879</ele>
        <time>2022-05-08T08:23:46.000Z</time>
      </trkpt>
      <trkpt lat="47.32718" lon="-2.41639">
        <ele>57.400001525879</ele>
        <time>2022-05-08T08:23:48.000Z</time>
      </trkpt>
      <trkpt lat="47.32716" lon="-2.41655">
        <ele>57.400001525879</ele>
        <time>2022-05-08T08:23:50.000Z</time>
      </trkpt>
      <trkpt lat="47.32714" lon="-2.41681">
        <ele>57.400001525879</ele>
        <time>2022-05-08T08:23:53.000Z</time>
      </trkpt>
      <trkpt lat="47.32707" lon="-2.41746">
        <ele>57.400001525879</ele>
        <time>2022-05-08T08:24:01.000Z</time>
      </trkpt>
      <trkpt lat="47.32706" lon="-2.41762">
        <ele>57.400001525879</ele>
        <time>2022-05-08T08:24:03.000Z</time>
      </trkpt>
      <trkpt lat="47.32712" lon="-2.41773">
        <ele>57.400001525879</ele>
        <time>2022-05-08T08:24:05.000Z</time>
      </trkpt>
      <trkpt lat="47.32722" lon="-2.41786">
        <ele>57.400001525879</ele>
        <time>2022-05-08T08:24:08.000Z</time>
      </trkpt>
      <trkpt lat="47.32728" lon="-2.41797">
        <ele>57.400001525879</ele>
        <time>2022-05-08T08:24:10.000Z</time>
      </trkpt>
      <trkpt lat="47.32735" lon="-2.41809">
        <ele>57.400001525879</ele>
        <time>2022-05-08T08:24:12.000Z</time>
      </trkpt>
      <trkpt lat="47.32749" lon="-2.41833">
        <ele>57.400001525879</ele>
        <time>2022-05-08T08:24:16.000Z</time>
      </trkpt>
      <trkpt lat="47.32752" lon="-2.4184">
        <ele>57.400001525879</ele>
        <time>2022-05-08T08:24:17.000Z</time>
      </trkpt>
      <trkpt lat="47.32763" lon="-2.41868">
        <ele>57.400001525879</ele>
        <time>2022-05-08T08:24:21.000Z</time>
      </trkpt>
      <trkpt lat="47.3278" lon="-2.41908">
        <ele>57.400001525879</ele>
        <time>2022-05-08T08:24:27.000Z</time>
      </trkpt>
      <trkpt lat="47.32792" lon="-2.41934">
        <ele>56.799999237061</ele>
        <time>2022-05-08T08:24:31.000Z</time>
      </trkpt>
      <trkpt lat="47.32795" lon="-2.4194">
        <ele>56.400001525879</ele>
        <time>2022-05-08T08:24:32.000Z</time>
      </trkpt>
      <trkpt lat="47.32798" lon="-2.41946">
        <ele>56</ele>
        <time>2022-05-08T08:24:33.000Z</time>
      </trkpt>
      <trkpt lat="47.328" lon="-2.41953">
        <ele>55.599998474121</ele>
        <time>2022-05-08T08:24:34.000Z</time>
      </trkpt>
      <trkpt lat="47.32801" lon="-2.4196">
        <ele>55</ele>
        <time>2022-05-08T08:24:35.000Z</time>
      </trkpt>
      <trkpt lat="47.32802" lon="-2.41975">
        <ele>55</ele>
        <time>2022-05-08T08:24:37.000Z</time>
      </trkpt>
      <trkpt lat="47.32802" lon="-2.41983">
        <ele>55</ele>
        <time>2022-05-08T08:24:38.000Z</time>
      </trkpt>
      <trkpt lat="47.32808" lon="-2.41998">
        <ele>55</ele>
        <time>2022-05-08T08:24:41.000Z</time>
      </trkpt>
      <trkpt lat="47.32821" lon="-2.42011">
        <ele>55</ele>
        <time>2022-05-08T08:24:45.000Z</time>
      </trkpt>
      <trkpt lat="47.32825" lon="-2.42023">
        <ele>55</ele>
        <time>2022-05-08T08:24:47.000Z</time>
      </trkpt>
      <trkpt lat="47.32827" lon="-2.42029">
        <ele>55</ele>
        <time>2022-05-08T08:24:48.000Z</time>
      </trkpt>
      <trkpt lat="47.32832" lon="-2.4204">
        <ele>55</ele>
        <time>2022-05-08T08:24:50.000Z</time>
      </trkpt>
      <trkpt lat="47.32848" lon="-2.42079">
        <ele>55</ele>
        <time>2022-05-08T08:24:56.000Z</time>
      </trkpt>
      <trkpt lat="47.32851" lon="-2.42085">
        <ele>55</ele>
        <time>2022-05-08T08:24:57.000Z</time>
      </trkpt>
      <trkpt lat="47.32861" lon="-2.42103">
        <ele>55</ele>
        <time>2022-05-08T08:25:00.000Z</time>
      </trkpt>
      <trkpt lat="47.32863" lon="-2.4211">
        <ele>55</ele>
        <time>2022-05-08T08:25:01.000Z</time>
      </trkpt>
      <trkpt lat="47.32864" lon="-2.42117">
        <ele>55</ele>
        <time>2022-05-08T08:25:02.000Z</time>
      </trkpt>
      <trkpt lat="47.32867" lon="-2.42124">
        <ele>55</ele>
        <time>2022-05-08T08:25:03.000Z</time>
      </trkpt>
      <trkpt lat="47.32877" lon="-2.42148">
        <ele>55</ele>
        <time>2022-05-08T08:25:07.000Z</time>
      </trkpt>
      <trkpt lat="47.32892" lon="-2.42179">
        <ele>55</ele>
        <time>2022-05-08T08:25:13.000Z</time>
      </trkpt>
      <trkpt lat="47.32907" lon="-2.4219">
        <ele>55</ele>
        <time>2022-05-08T08:25:17.000Z</time>
      </trkpt>
      <trkpt lat="47.32916" lon="-2.42212">
        <ele>55</ele>
        <time>2022-05-08T08:25:21.000Z</time>
      </trkpt>
      <trkpt lat="47.32938" lon="-2.42259">
        <ele>55</ele>
        <time>2022-05-08T08:25:29.000Z</time>
      </trkpt>
      <trkpt lat="47.32955" lon="-2.42302">
        <ele>55</ele>
        <time>2022-05-08T08:25:36.000Z</time>
      </trkpt>
      <trkpt lat="47.3297" lon="-2.42338">
        <ele>55</ele>
        <time>2022-05-08T08:25:42.000Z</time>
      </trkpt>
      <trkpt lat="47.32979" lon="-2.42356">
        <ele>55.400001525879</ele>
        <time>2022-05-08T08:25:45.000Z</time>
      </trkpt>
      <trkpt lat="47.32982" lon="-2.42362">
        <ele>55.799999237061</ele>
        <time>2022-05-08T08:25:46.000Z</time>
      </trkpt>
      <trkpt lat="47.32985" lon="-2.42368">
        <ele>56.200000762939</ele>
        <time>2022-05-08T08:25:47.000Z</time>
      </trkpt>
      <trkpt lat="47.32987" lon="-2.42374">
        <ele>56.599998474121</ele>
        <time>2022-05-08T08:25:48.000Z</time>
      </trkpt>
      <trkpt lat="47.3299" lon="-2.4238">
        <ele>57</ele>
        <time>2022-05-08T08:25:49.000Z</time>
      </trkpt>
      <trkpt lat="47.32992" lon="-2.42386">
        <ele>57</ele>
        <time>2022-05-08T08:25:50.000Z</time>
      </trkpt>
      <trkpt lat="47.32999" lon="-2.42404">
        <ele>57</ele>
        <time>2022-05-08T08:25:53.000Z</time>
      </trkpt>
      <trkpt lat="47.33001" lon="-2.42417">
        <ele>57</ele>
        <time>2022-05-08T08:25:55.000Z</time>
      </trkpt>
      <trkpt lat="47.33002" lon="-2.42441">
        <ele>57</ele>
        <time>2022-05-08T08:25:59.000Z</time>
      </trkpt>
      <trkpt lat="47.33002" lon="-2.42447">
        <ele>57</ele>
        <time>2022-05-08T08:26:00.000Z</time>
      </trkpt>
      <trkpt lat="47.32995" lon="-2.42461">
        <ele>57</ele>
        <time>2022-05-08T08:26:03.000Z</time>
      </trkpt>
      <trkpt lat="47.32986" lon="-2.42478">
        <ele>57</ele>
        <time>2022-05-08T08:26:06.000Z</time>
      </trkpt>
      <trkpt lat="47.32978" lon="-2.42485">
        <ele>57</ele>
        <time>2022-05-08T08:26:08.000Z</time>
      </trkpt>
      <trkpt lat="47.32969" lon="-2.42493">
        <ele>57</ele>
        <time>2022-05-08T08:26:10.000Z</time>
      </trkpt>
      <trkpt lat="47.32952" lon="-2.42508">
        <ele>57</ele>
        <time>2022-05-08T08:26:14.000Z</time>
      </trkpt>
      <trkpt lat="47.32918" lon="-2.42545">
        <ele>57</ele>
        <time>2022-05-08T08:26:22.000Z</time>
      </trkpt>
      <trkpt lat="47.32896" lon="-2.42578">
        <ele>57</ele>
        <time>2022-05-08T08:26:28.000Z</time>
      </trkpt>
      <trkpt lat="47.32893" lon="-2.42584">
        <ele>57</ele>
        <time>2022-05-08T08:26:29.000Z</time>
      </trkpt>
      <trkpt lat="47.32888" lon="-2.42615">
        <ele>57</ele>
        <time>2022-05-08T08:26:34.000Z</time>
      </trkpt>
      <trkpt lat="47.32887" lon="-2.42622">
        <ele>57</ele>
        <time>2022-05-08T08:26:35.000Z</time>
      </trkpt>
      <trkpt lat="47.32885" lon="-2.42635">
        <ele>57</ele>
        <time>2022-05-08T08:26:37.000Z</time>
      </trkpt>
      <trkpt lat="47.32882" lon="-2.42655">
        <ele>57</ele>
        <time>2022-05-08T08:26:40.000Z</time>
      </trkpt>
      <trkpt lat="47.32877" lon="-2.42686">
        <ele>57</ele>
        <time>2022-05-08T08:26:46.000Z</time>
      </trkpt>
      <trkpt lat="47.32874" lon="-2.42696">
        <ele>57.400001525879</ele>
        <time>2022-05-08T08:26:50.000Z</time>
      </trkpt>
      <trkpt lat="47.32874" lon="-2.42698">
        <ele>57.799999237061</ele>
        <time>2022-05-08T08:26:51.000Z</time>
      </trkpt>
      <trkpt lat="47.32874" lon="-2.427">
        <ele>58.200000762939</ele>
        <time>2022-05-08T08:26:52.000Z</time>
      </trkpt>
      <trkpt lat="47.32874" lon="-2.42702">
        <ele>58.799999237061</ele>
        <time>2022-05-08T08:26:53.000Z</time>
      </trkpt>
      <trkpt lat="47.32873" lon="-2.42704">
        <ele>59.200000762939</ele>
        <time>2022-05-08T08:26:54.000Z</time>
      </trkpt>
      <trkpt lat="47.32874" lon="-2.4271">
        <ele>59.200000762939</ele>
        <time>2022-05-08T08:26:58.000Z</time>
      </trkpt>
      <trkpt lat="47.32876" lon="-2.42712">
        <ele>59.200000762939</ele>
        <time>2022-05-08T08:26:59.000Z</time>
      </trkpt>
      <trkpt lat="47.32886" lon="-2.42722">
        <ele>59.200000762939</ele>
        <time>2022-05-08T08:27:02.000Z</time>
      </trkpt>
      <trkpt lat="47.32891" lon="-2.42725">
        <ele>59.200000762939</ele>
        <time>2022-05-08T08:27:03.000Z</time>
      </trkpt>
      <trkpt lat="47.32926" lon="-2.42749">
        <ele>59.200000762939</ele>
        <time>2022-05-08T08:27:10.000Z</time>
      </trkpt>
      <trkpt lat="47.32935" lon="-2.42756">
        <ele>59.200000762939</ele>
        <time>2022-05-08T08:27:12.000Z</time>
      </trkpt>
      <trkpt lat="47.32944" lon="-2.42767">
        <ele>59.200000762939</ele>
        <time>2022-05-08T08:27:14.000Z</time>
      </trkpt>
      <trkpt lat="47.32952" lon="-2.4278">
        <ele>59.200000762939</ele>
        <time>2022-05-08T08:27:16.000Z</time>
      </trkpt>
      <trkpt lat="47.32961" lon="-2.42803">
        <ele>59.200000762939</ele>
        <time>2022-05-08T08:27:19.000Z</time>
      </trkpt>
      <trkpt lat="47.32968" lon="-2.42825">
        <ele>59.200000762939</ele>
        <time>2022-05-08T08:27:22.000Z</time>
      </trkpt>
      <trkpt lat="47.32972" lon="-2.42848">
        <ele>59.200000762939</ele>
        <time>2022-05-08T08:27:25.000Z</time>
      </trkpt>
      <trkpt lat="47.32973" lon="-2.42879">
        <ele>59.200000762939</ele>
        <time>2022-05-08T08:27:29.000Z</time>
      </trkpt>
      <trkpt lat="47.32973" lon="-2.42886">
        <ele>59.200000762939</ele>
        <time>2022-05-08T08:27:30.000Z</time>
      </trkpt>
      <trkpt lat="47.32974" lon="-2.42916">
        <ele>59.200000762939</ele>
        <time>2022-05-08T08:27:36.000Z</time>
      </trkpt>
      <trkpt lat="47.32971" lon="-2.42928">
        <ele>59.200000762939</ele>
        <time>2022-05-08T08:27:40.000Z</time>
      </trkpt>
      <trkpt lat="47.3296" lon="-2.42936">
        <ele>59.200000762939</ele>
        <time>2022-05-08T08:27:46.000Z</time>
      </trkpt>
      <trkpt lat="47.32953" lon="-2.42937">
        <ele>59.200000762939</ele>
        <time>2022-05-08T08:27:48.000Z</time>
      </trkpt>
      <trkpt lat="47.32943" lon="-2.42936">
        <ele>59.200000762939</ele>
        <time>2022-05-08T08:27:51.000Z</time>
      </trkpt>
      <trkpt lat="47.32916" lon="-2.42939">
        <ele>59.200000762939</ele>
        <time>2022-05-08T08:27:58.000Z</time>
      </trkpt>
      <trkpt lat="47.32884" lon="-2.42947">
        <ele>59.200000762939</ele>
        <time>2022-05-08T08:28:06.000Z</time>
      </trkpt>
      <trkpt lat="47.32867" lon="-2.42952">
        <ele>59.200000762939</ele>
        <time>2022-05-08T08:28:11.000Z</time>
      </trkpt>
      <trkpt lat="47.32845" lon="-2.42955">
        <ele>59.200000762939</ele>
        <time>2022-05-08T08:28:17.000Z</time>
      </trkpt>
      <trkpt lat="47.32831" lon="-2.42955">
        <ele>59.200000762939</ele>
        <time>2022-05-08T08:28:22.000Z</time>
      </trkpt>
      <trkpt lat="47.32829" lon="-2.42955">
        <ele>59.200000762939</ele>
        <time>2022-05-08T08:28:23.000Z</time>
      </trkpt>
      <trkpt lat="47.3282" lon="-2.42955">
        <ele>59.200000762939</ele>
        <time>2022-05-08T08:28:27.000Z</time>
      </trkpt>
      <trkpt lat="47.32817" lon="-2.42954">
        <ele>59.200000762939</ele>
        <time>2022-05-08T08:28:28.000Z</time>
      </trkpt>
      <trkpt lat="47.32814" lon="-2.42954">
        <ele>59.599998474121</ele>
        <time>2022-05-08T08:28:29.000Z</time>
      </trkpt>
      <trkpt lat="47.32812" lon="-2.42954">
        <ele>60</ele>
        <time>2022-05-08T08:28:30.000Z</time>
      </trkpt>
      <trkpt lat="47.32809" lon="-2.42954">
        <ele>60.400001525879</ele>
        <time>2022-05-08T08:28:31.000Z</time>
      </trkpt>
      <trkpt lat="47.32807" lon="-2.42953">
        <ele>60.799999237061</ele>
        <time>2022-05-08T08:28:32.000Z</time>
      </trkpt>
      <trkpt lat="47.32804" lon="-2.42951">
        <ele>61.200000762939</ele>
        <time>2022-05-08T08:28:33.000Z</time>
      </trkpt>
      <trkpt lat="47.32788" lon="-2.42952">
        <ele>61.200000762939</ele>
        <time>2022-05-08T08:28:39.000Z</time>
      </trkpt>
      <trkpt lat="47.32769" lon="-2.42956">
        <ele>61.200000762939</ele>
        <time>2022-05-08T08:28:46.000Z</time>
      </trkpt>
      <trkpt lat="47.32753" lon="-2.42955">
        <ele>61.200000762939</ele>
        <time>2022-05-08T08:28:51.000Z</time>
      </trkpt>
      <trkpt lat="47.32738" lon="-2.42952">
        <ele>61.200000762939</ele>
        <time>2022-05-08T08:28:57.000Z</time>
      </trkpt>
      <trkpt lat="47.32721" lon="-2.42949">
        <ele>61.200000762939</ele>
        <time>2022-05-08T08:29:04.000Z</time>
      </trkpt>
      <trkpt lat="47.3271" lon="-2.42945">
        <ele>61.200000762939</ele>
        <time>2022-05-08T08:29:10.000Z</time>
      </trkpt>
      <trkpt lat="47.32694" lon="-2.42941">
        <ele>61.200000762939</ele>
        <time>2022-05-08T08:29:15.000Z</time>
      </trkpt>
      <trkpt lat="47.32661" lon="-2.42933">
        <ele>61.200000762939</ele>
        <time>2022-05-08T08:29:24.000Z</time>
      </trkpt>
      <trkpt lat="47.32641" lon="-2.4293">
        <ele>61.200000762939</ele>
        <time>2022-05-08T08:29:30.000Z</time>
      </trkpt>
      <trkpt lat="47.32629" lon="-2.42929">
        <ele>61.200000762939</ele>
        <time>2022-05-08T08:29:34.000Z</time>
      </trkpt>
      <trkpt lat="47.32627" lon="-2.42932">
        <ele>61.200000762939</ele>
        <time>2022-05-08T08:29:35.000Z</time>
      </trkpt>
      <trkpt lat="47.32622" lon="-2.42955">
        <ele>60.799999237061</ele>
        <time>2022-05-08T08:29:40.000Z</time>
      </trkpt>
      <trkpt lat="47.32622" lon="-2.4296">
        <ele>60.400001525879</ele>
        <time>2022-05-08T08:29:41.000Z</time>
      </trkpt>
      <trkpt lat="47.32621" lon="-2.42964">
        <ele>60</ele>
        <time>2022-05-08T08:29:42.000Z</time>
      </trkpt>
      <trkpt lat="47.32621" lon="-2.42969">
        <ele>59.599998474121</ele>
        <time>2022-05-08T08:29:43.000Z</time>
      </trkpt>
      <trkpt lat="47.3262" lon="-2.42973">
        <ele>59.200000762939</ele>
        <time>2022-05-08T08:29:44.000Z</time>
      </trkpt>
      <trkpt lat="47.3262" lon="-2.42978">
        <ele>59.200000762939</ele>
        <time>2022-05-08T08:29:45.000Z</time>
      </trkpt>
      <trkpt lat="47.3262" lon="-2.43003">
        <ele>59.200000762939</ele>
        <time>2022-05-08T08:29:50.000Z</time>
      </trkpt>
      <trkpt lat="47.32622" lon="-2.43029">
        <ele>59.200000762939</ele>
        <time>2022-05-08T08:29:55.000Z</time>
      </trkpt>
      <trkpt lat="47.32621" lon="-2.4306">
        <ele>59.200000762939</ele>
        <time>2022-05-08T08:30:01.000Z</time>
      </trkpt>
      <trkpt lat="47.32615" lon="-2.43074">
        <ele>59.200000762939</ele>
        <time>2022-05-08T08:30:05.000Z</time>
      </trkpt>
      <trkpt lat="47.32612" lon="-2.43074">
        <ele>59.200000762939</ele>
        <time>2022-05-08T08:30:06.000Z</time>
      </trkpt>
      <trkpt lat="47.32597" lon="-2.43077">
        <ele>59.200000762939</ele>
        <time>2022-05-08T08:30:10.000Z</time>
      </trkpt>
      <trkpt lat="47.32567" lon="-2.43085">
        <ele>59.200000762939</ele>
        <time>2022-05-08T08:30:16.000Z</time>
      </trkpt>
      <trkpt lat="47.32532" lon="-2.43086">
        <ele>59.200000762939</ele>
        <time>2022-05-08T08:30:22.000Z</time>
      </trkpt>
      <trkpt lat="47.32525" lon="-2.43085">
        <ele>58.799999237061</ele>
        <time>2022-05-08T08:30:23.000Z</time>
      </trkpt>
      <trkpt lat="47.32518" lon="-2.43085">
        <ele>58.400001525879</ele>
        <time>2022-05-08T08:30:24.000Z</time>
      </trkpt>
      <trkpt lat="47.32511" lon="-2.43085">
        <ele>57.599998474121</ele>
        <time>2022-05-08T08:30:25.000Z</time>
      </trkpt>
      <trkpt lat="47.32504" lon="-2.43084">
        <ele>57.200000762939</ele>
        <time>2022-05-08T08:30:26.000Z</time>
      </trkpt>
      <trkpt lat="47.32489" lon="-2.43084">
        <ele>57.200000762939</ele>
        <time>2022-05-08T08:30:28.000Z</time>
      </trkpt>
      <trkpt lat="47.32481" lon="-2.43083">
        <ele>56.599998474121</ele>
        <time>2022-05-08T08:30:29.000Z</time>
      </trkpt>
      <trkpt lat="47.32473" lon="-2.43083">
        <ele>56.200000762939</ele>
        <time>2022-05-08T08:30:30.000Z</time>
      </trkpt>
      <trkpt lat="47.32465" lon="-2.43082">
        <ele>55.799999237061</ele>
        <time>2022-05-08T08:30:31.000Z</time>
      </trkpt>
      <trkpt lat="47.32456" lon="-2.4308">
        <ele>55.400001525879</ele>
        <time>2022-05-08T08:30:32.000Z</time>
      </trkpt>
      <trkpt lat="47.32448" lon="-2.43079">
        <ele>54.799999237061</ele>
        <time>2022-05-08T08:30:33.000Z</time>
      </trkpt>
      <trkpt lat="47.32422" lon="-2.43074">
        <ele>54.400001525879</ele>
        <time>2022-05-08T08:30:36.000Z</time>
      </trkpt>
      <trkpt lat="47.32413" lon="-2.43072">
        <ele>53.799999237061</ele>
        <time>2022-05-08T08:30:37.000Z</time>
      </trkpt>
      <trkpt lat="47.32404" lon="-2.4307">
        <ele>53.400001525879</ele>
        <time>2022-05-08T08:30:38.000Z</time>
      </trkpt>
      <trkpt lat="47.32393" lon="-2.4307">
        <ele>52.799999237061</ele>
        <time>2022-05-08T08:30:39.000Z</time>
      </trkpt>
      <trkpt lat="47.32383" lon="-2.43071">
        <ele>52.400001525879</ele>
        <time>2022-05-08T08:30:40.000Z</time>
      </trkpt>
      <trkpt lat="47.32373" lon="-2.43073">
        <ele>51.799999237061</ele>
        <time>2022-05-08T08:30:41.000Z</time>
      </trkpt>
      <trkpt lat="47.32364" lon="-2.43076">
        <ele>51.200000762939</ele>
        <time>2022-05-08T08:30:42.000Z</time>
      </trkpt>
      <trkpt lat="47.32354" lon="-2.4308">
        <ele>50.799999237061</ele>
        <time>2022-05-08T08:30:43.000Z</time>
      </trkpt>
      <trkpt lat="47.32345" lon="-2.43083">
        <ele>50.200000762939</ele>
        <time>2022-05-08T08:30:44.000Z</time>
      </trkpt>
      <trkpt lat="47.32336" lon="-2.43087">
        <ele>49.599998474121</ele>
        <time>2022-05-08T08:30:45.000Z</time>
      </trkpt>
      <trkpt lat="47.32326" lon="-2.43093">
        <ele>49.200000762939</ele>
        <time>2022-05-08T08:30:46.000Z</time>
      </trkpt>
      <trkpt lat="47.32317" lon="-2.43099">
        <ele>48.599998474121</ele>
        <time>2022-05-08T08:30:47.000Z</time>
      </trkpt>
      <trkpt lat="47.32308" lon="-2.43106">
        <ele>48</ele>
        <time>2022-05-08T08:30:48.000Z</time>
      </trkpt>
      <trkpt lat="47.32289" lon="-2.43118">
        <ele>47.200000762939</ele>
        <time>2022-05-08T08:30:50.000Z</time>
      </trkpt>
      <trkpt lat="47.3228" lon="-2.43123">
        <ele>46.799999237061</ele>
        <time>2022-05-08T08:30:51.000Z</time>
      </trkpt>
      <trkpt lat="47.3227" lon="-2.43128">
        <ele>46.400001525879</ele>
        <time>2022-05-08T08:30:52.000Z</time>
      </trkpt>
      <trkpt lat="47.32261" lon="-2.43131">
        <ele>46</ele>
        <time>2022-05-08T08:30:53.000Z</time>
      </trkpt>
      <trkpt lat="47.32201" lon="-2.43155">
        <ele>46</ele>
        <time>2022-05-08T08:30:59.000Z</time>
      </trkpt>
      <trkpt lat="47.32173" lon="-2.43168">
        <ele>45.599998474121</ele>
        <time>2022-05-08T08:31:02.000Z</time>
      </trkpt>
      <trkpt lat="47.32163" lon="-2.43172">
        <ele>45</ele>
        <time>2022-05-08T08:31:03.000Z</time>
      </trkpt>
      <trkpt lat="47.32154" lon="-2.43176">
        <ele>44.599998474121</ele>
        <time>2022-05-08T08:31:04.000Z</time>
      </trkpt>
      <trkpt lat="47.32145" lon="-2.4318">
        <ele>44.200000762939</ele>
        <time>2022-05-08T08:31:05.000Z</time>
      </trkpt>
      <trkpt lat="47.32135" lon="-2.43185">
        <ele>43.799999237061</ele>
        <time>2022-05-08T08:31:06.000Z</time>
      </trkpt>
      <trkpt lat="47.32126" lon="-2.43189">
        <ele>43.799999237061</ele>
        <time>2022-05-08T08:31:07.000Z</time>
      </trkpt>
      <trkpt lat="47.32099" lon="-2.43203">
        <ele>43.400001525879</ele>
        <time>2022-05-08T08:31:10.000Z</time>
      </trkpt>
      <trkpt lat="47.3209" lon="-2.43208">
        <ele>43</ele>
        <time>2022-05-08T08:31:11.000Z</time>
      </trkpt>
      <trkpt lat="47.32081" lon="-2.43213">
        <ele>42.599998474121</ele>
        <time>2022-05-08T08:31:12.000Z</time>
      </trkpt>
      <trkpt lat="47.32072" lon="-2.43217">
        <ele>42.200000762939</ele>
        <time>2022-05-08T08:31:13.000Z</time>
      </trkpt>
      <trkpt lat="47.32064" lon="-2.43222">
        <ele>41.799999237061</ele>
        <time>2022-05-08T08:31:14.000Z</time>
      </trkpt>
      <trkpt lat="47.32057" lon="-2.43227">
        <ele>41.799999237061</ele>
        <time>2022-05-08T08:31:15.000Z</time>
      </trkpt>
      <trkpt lat="47.32042" lon="-2.43237">
        <ele>41.200000762939</ele>
        <time>2022-05-08T08:31:17.000Z</time>
      </trkpt>
      <trkpt lat="47.32035" lon="-2.43242">
        <ele>40.799999237061</ele>
        <time>2022-05-08T08:31:18.000Z</time>
      </trkpt>
      <trkpt lat="47.32027" lon="-2.43247">
        <ele>40.200000762939</ele>
        <time>2022-05-08T08:31:19.000Z</time>
      </trkpt>
      <trkpt lat="47.3202" lon="-2.43252">
        <ele>39.799999237061</ele>
        <time>2022-05-08T08:31:20.000Z</time>
      </trkpt>
      <trkpt lat="47.32012" lon="-2.43257">
        <ele>39.400001525879</ele>
        <time>2022-05-08T08:31:21.000Z</time>
      </trkpt>
      <trkpt lat="47.31991" lon="-2.43269">
        <ele>38.799999237061</ele>
        <time>2022-05-08T08:31:24.000Z</time>
      </trkpt>
      <trkpt lat="47.31985" lon="-2.43273">
        <ele>38.400001525879</ele>
        <time>2022-05-08T08:31:25.000Z</time>
      </trkpt>
      <trkpt lat="47.31981" lon="-2.43278">
        <ele>37.799999237061</ele>
        <time>2022-05-08T08:31:26.000Z</time>
      </trkpt>
      <trkpt lat="47.31978" lon="-2.43284">
        <ele>37.400001525879</ele>
        <time>2022-05-08T08:31:27.000Z</time>
      </trkpt>
      <trkpt lat="47.31976" lon="-2.43292">
        <ele>37</ele>
        <time>2022-05-08T08:31:28.000Z</time>
      </trkpt>
      <trkpt lat="47.31974" lon="-2.4332">
        <ele>37</ele>
        <time>2022-05-08T08:31:31.000Z</time>
      </trkpt>
      <trkpt lat="47.31972" lon="-2.4333">
        <ele>37</ele>
        <time>2022-05-08T08:31:32.000Z</time>
      </trkpt>
      <trkpt lat="47.31971" lon="-2.43341">
        <ele>36.400001525879</ele>
        <time>2022-05-08T08:31:33.000Z</time>
      </trkpt>
      <trkpt lat="47.31969" lon="-2.43352">
        <ele>36</ele>
        <time>2022-05-08T08:31:34.000Z</time>
      </trkpt>
      <trkpt lat="47.31966" lon="-2.43363">
        <ele>35.400001525879</ele>
        <time>2022-05-08T08:31:35.000Z</time>
      </trkpt>
      <trkpt lat="47.31964" lon="-2.43375">
        <ele>35</ele>
        <time>2022-05-08T08:31:36.000Z</time>
      </trkpt>
      <trkpt lat="47.3196" lon="-2.43386">
        <ele>34.400001525879</ele>
        <time>2022-05-08T08:31:37.000Z</time>
      </trkpt>
      <trkpt lat="47.31949" lon="-2.43421">
        <ele>34</ele>
        <time>2022-05-08T08:31:40.000Z</time>
      </trkpt>
      <trkpt lat="47.31945" lon="-2.43433">
        <ele>33.599998474121</ele>
        <time>2022-05-08T08:31:41.000Z</time>
      </trkpt>
      <trkpt lat="47.31941" lon="-2.43445">
        <ele>33.200000762939</ele>
        <time>2022-05-08T08:31:42.000Z</time>
      </trkpt>
      <trkpt lat="47.31937" lon="-2.43457">
        <ele>32.799999237061</ele>
        <time>2022-05-08T08:31:43.000Z</time>
      </trkpt>
      <trkpt lat="47.31933" lon="-2.43469">
        <ele>32.200000762939</ele>
        <time>2022-05-08T08:31:44.000Z</time>
      </trkpt>
      <trkpt lat="47.3193" lon="-2.43482">
        <ele>31.799999237061</ele>
        <time>2022-05-08T08:31:45.000Z</time>
      </trkpt>
      <trkpt lat="47.31928" lon="-2.43495">
        <ele>31.200000762939</ele>
        <time>2022-05-08T08:31:46.000Z</time>
      </trkpt>
      <trkpt lat="47.31927" lon="-2.43509">
        <ele>30.799999237061</ele>
        <time>2022-05-08T08:31:47.000Z</time>
      </trkpt>
      <trkpt lat="47.31926" lon="-2.43522">
        <ele>30.39999961853</ele>
        <time>2022-05-08T08:31:48.000Z</time>
      </trkpt>
      <trkpt lat="47.31927" lon="-2.43535">
        <ele>29.799999237061</ele>
        <time>2022-05-08T08:31:49.000Z</time>
      </trkpt>
      <trkpt lat="47.31927" lon="-2.43546">
        <ele>29.799999237061</ele>
        <time>2022-05-08T08:31:50.000Z</time>
      </trkpt>
      <trkpt lat="47.31927" lon="-2.43557">
        <ele>29.39999961853</ele>
        <time>2022-05-08T08:31:51.000Z</time>
      </trkpt>
      <trkpt lat="47.31928" lon="-2.43569">
        <ele>29</ele>
        <time>2022-05-08T08:31:52.000Z</time>
      </trkpt>
      <trkpt lat="47.31927" lon="-2.4358">
        <ele>28.60000038147</ele>
        <time>2022-05-08T08:31:53.000Z</time>
      </trkpt>
      <trkpt lat="47.31924" lon="-2.4359">
        <ele>28.200000762939</ele>
        <time>2022-05-08T08:31:54.000Z</time>
      </trkpt>
      <trkpt lat="47.3192" lon="-2.43599">
        <ele>27.799999237061</ele>
        <time>2022-05-08T08:31:55.000Z</time>
      </trkpt>
      <trkpt lat="47.31914" lon="-2.43606">
        <ele>27.39999961853</ele>
        <time>2022-05-08T08:31:56.000Z</time>
      </trkpt>
      <trkpt lat="47.31908" lon="-2.43612">
        <ele>27</ele>
        <time>2022-05-08T08:31:57.000Z</time>
      </trkpt>
      <trkpt lat="47.31902" lon="-2.43617">
        <ele>26.60000038147</ele>
        <time>2022-05-08T08:31:58.000Z</time>
      </trkpt>
      <trkpt lat="47.31897" lon="-2.43622">
        <ele>26.200000762939</ele>
        <time>2022-05-08T08:31:59.000Z</time>
      </trkpt>
      <trkpt lat="47.31893" lon="-2.43629">
        <ele>25.799999237061</ele>
        <time>2022-05-08T08:32:00.000Z</time>
      </trkpt>
      <trkpt lat="47.3189" lon="-2.43637">
        <ele>25.39999961853</ele>
        <time>2022-05-08T08:32:02.000Z</time>
      </trkpt>
      <trkpt lat="47.3189" lon="-2.43646">
        <ele>24.799999237061</ele>
        <time>2022-05-08T08:32:03.000Z</time>
      </trkpt>
      <trkpt lat="47.31892" lon="-2.43654">
        <ele>24.39999961853</ele>
        <time>2022-05-08T08:32:04.000Z</time>
      </trkpt>
      <trkpt lat="47.31895" lon="-2.43661">
        <ele>23.60000038147</ele>
        <time>2022-05-08T08:32:05.000Z</time>
      </trkpt>
      <trkpt lat="47.31899" lon="-2.43669">
        <ele>23.60000038147</ele>
        <time>2022-05-08T08:32:06.000Z</time>
      </trkpt>
      <trkpt lat="47.31903" lon="-2.43677">
        <ele>23.60000038147</ele>
        <time>2022-05-08T08:32:07.000Z</time>
      </trkpt>
      <trkpt lat="47.3191" lon="-2.43693">
        <ele>23.60000038147</ele>
        <time>2022-05-08T08:32:09.000Z</time>
      </trkpt>
      <trkpt lat="47.31923" lon="-2.43718">
        <ele>23.60000038147</ele>
        <time>2022-05-08T08:32:12.000Z</time>
      </trkpt>
      <trkpt lat="47.3193" lon="-2.43735">
        <ele>23.60000038147</ele>
        <time>2022-05-08T08:32:14.000Z</time>
      </trkpt>
      <trkpt lat="47.31948" lon="-2.43786">
        <ele>23.60000038147</ele>
        <time>2022-05-08T08:32:20.000Z</time>
      </trkpt>
      <trkpt lat="47.3197" lon="-2.43827">
        <ele>23.60000038147</ele>
        <time>2022-05-08T08:32:26.000Z</time>
      </trkpt>
      <trkpt lat="47.31979" lon="-2.43836">
        <ele>23.60000038147</ele>
        <time>2022-05-08T08:32:28.000Z</time>
      </trkpt>
      <trkpt lat="47.31989" lon="-2.43836">
        <ele>23.60000038147</ele>
        <time>2022-05-08T08:32:30.000Z</time>
      </trkpt>
      <trkpt lat="47.31993" lon="-2.43833">
        <ele>24</ele>
        <time>2022-05-08T08:32:31.000Z</time>
      </trkpt>
      <trkpt lat="47.31997" lon="-2.43829">
        <ele>24.39999961853</ele>
        <time>2022-05-08T08:32:32.000Z</time>
      </trkpt>
      <trkpt lat="47.32" lon="-2.43825">
        <ele>25</ele>
        <time>2022-05-08T08:32:33.000Z</time>
      </trkpt>
      <trkpt lat="47.32003" lon="-2.43821">
        <ele>25.39999961853</ele>
        <time>2022-05-08T08:32:34.000Z</time>
      </trkpt>
      <trkpt lat="47.32006" lon="-2.43818">
        <ele>25.799999237061</ele>
        <time>2022-05-08T08:32:35.000Z</time>
      </trkpt>
      <trkpt lat="47.32015" lon="-2.43809">
        <ele>26.200000762939</ele>
        <time>2022-05-08T08:32:38.000Z</time>
      </trkpt>
      <trkpt lat="47.32018" lon="-2.43808">
        <ele>26.60000038147</ele>
        <time>2022-05-08T08:32:39.000Z</time>
      </trkpt>
      <trkpt lat="47.32022" lon="-2.43806">
        <ele>27</ele>
        <time>2022-05-08T08:32:40.000Z</time>
      </trkpt>
      <trkpt lat="47.32026" lon="-2.43804">
        <ele>27.60000038147</ele>
        <time>2022-05-08T08:32:41.000Z</time>
      </trkpt>
      <trkpt lat="47.32029" lon="-2.43803">
        <ele>28</ele>
        <time>2022-05-08T08:32:42.000Z</time>
      </trkpt>
      <trkpt lat="47.32035" lon="-2.43804">
        <ele>28</ele>
        <time>2022-05-08T08:32:44.000Z</time>
      </trkpt>
      <trkpt lat="47.32039" lon="-2.43811">
        <ele>28.39999961853</ele>
        <time>2022-05-08T08:32:46.000Z</time>
      </trkpt>
      <trkpt lat="47.32042" lon="-2.43816">
        <ele>28.799999237061</ele>
        <time>2022-05-08T08:32:47.000Z</time>
      </trkpt>
      <trkpt lat="47.32044" lon="-2.43821">
        <ele>29.200000762939</ele>
        <time>2022-05-08T08:32:48.000Z</time>
      </trkpt>
      <trkpt lat="47.32046" lon="-2.43826">
        <ele>29.60000038147</ele>
        <time>2022-05-08T08:32:49.000Z</time>
      </trkpt>
      <trkpt lat="47.32048" lon="-2.4383">
        <ele>30</ele>
        <time>2022-05-08T08:32:50.000Z</time>
      </trkpt>
      <trkpt lat="47.32061" lon="-2.43855">
        <ele>30</ele>
        <time>2022-05-08T08:32:55.000Z</time>
      </trkpt>
      <trkpt lat="47.32072" lon="-2.43874">
        <ele>30.39999961853</ele>
        <time>2022-05-08T08:32:59.000Z</time>
      </trkpt>
      <trkpt lat="47.32074" lon="-2.43879">
        <ele>30.799999237061</ele>
        <time>2022-05-08T08:33:00.000Z</time>
      </trkpt>
      <trkpt lat="47.32077" lon="-2.43884">
        <ele>31.200000762939</ele>
        <time>2022-05-08T08:33:01.000Z</time>
      </trkpt>
      <trkpt lat="47.3208" lon="-2.43889">
        <ele>31.60000038147</ele>
        <time>2022-05-08T08:33:02.000Z</time>
      </trkpt>
      <trkpt lat="47.32083" lon="-2.43893">
        <ele>32</ele>
        <time>2022-05-08T08:33:03.000Z</time>
      </trkpt>
      <trkpt lat="47.32094" lon="-2.43902">
        <ele>32</ele>
        <time>2022-05-08T08:33:06.000Z</time>
      </trkpt>
      <trkpt lat="47.32102" lon="-2.43906">
        <ele>32</ele>
        <time>2022-05-08T08:33:08.000Z</time>
      </trkpt>
      <trkpt lat="47.32121" lon="-2.43914">
        <ele>32</ele>
        <time>2022-05-08T08:33:13.000Z</time>
      </trkpt>
      <trkpt lat="47.32127" lon="-2.43919">
        <ele>32.400001525879</ele>
        <time>2022-05-08T08:33:15.000Z</time>
      </trkpt>
      <trkpt lat="47.3213" lon="-2.43922">
        <ele>32.799999237061</ele>
        <time>2022-05-08T08:33:16.000Z</time>
      </trkpt>
      <trkpt lat="47.32132" lon="-2.43925">
        <ele>33.400001525879</ele>
        <time>2022-05-08T08:33:17.000Z</time>
      </trkpt>
      <trkpt lat="47.32135" lon="-2.43928">
        <ele>33.799999237061</ele>
        <time>2022-05-08T08:33:18.000Z</time>
      </trkpt>
      <trkpt lat="47.32137" lon="-2.43931">
        <ele>34.200000762939</ele>
        <time>2022-05-08T08:33:19.000Z</time>
      </trkpt>
      <trkpt lat="47.32147" lon="-2.43944">
        <ele>34.599998474121</ele>
        <time>2022-05-08T08:33:23.000Z</time>
      </trkpt>
      <trkpt lat="47.32149" lon="-2.43948">
        <ele>35</ele>
        <time>2022-05-08T08:33:24.000Z</time>
      </trkpt>
      <trkpt lat="47.32151" lon="-2.43951">
        <ele>35.400001525879</ele>
        <time>2022-05-08T08:33:25.000Z</time>
      </trkpt>
      <trkpt lat="47.32153" lon="-2.43955">
        <ele>35.799999237061</ele>
        <time>2022-05-08T08:33:26.000Z</time>
      </trkpt>
      <trkpt lat="47.32156" lon="-2.43958">
        <ele>36.200000762939</ele>
        <time>2022-05-08T08:33:27.000Z</time>
      </trkpt>
      <trkpt lat="47.32163" lon="-2.43968">
        <ele>36.200000762939</ele>
        <time>2022-05-08T08:33:30.000Z</time>
      </trkpt>
      <trkpt lat="47.3217" lon="-2.43977">
        <ele>36.799999237061</ele>
        <time>2022-05-08T08:33:33.000Z</time>
      </trkpt>
      <trkpt lat="47.32173" lon="-2.43981">
        <ele>37.200000762939</ele>
        <time>2022-05-08T08:33:34.000Z</time>
      </trkpt>
      <trkpt lat="47.32175" lon="-2.43984">
        <ele>37.599998474121</ele>
        <time>2022-05-08T08:33:35.000Z</time>
      </trkpt>
      <trkpt lat="47.32177" lon="-2.43987">
        <ele>38</ele>
        <time>2022-05-08T08:33:36.000Z</time>
      </trkpt>
      <trkpt lat="47.3218" lon="-2.4399">
        <ele>38.400001525879</ele>
        <time>2022-05-08T08:33:37.000Z</time>
      </trkpt>
      <trkpt lat="47.32196" lon="-2.44013">
        <ele>38.400001525879</ele>
        <time>2022-05-08T08:33:44.000Z</time>
      </trkpt>
      <trkpt lat="47.32216" lon="-2.44035">
        <ele>38.400001525879</ele>
        <time>2022-05-08T08:33:52.000Z</time>
      </trkpt>
      <trkpt lat="47.32219" lon="-2.44036">
        <ele>38.799999237061</ele>
        <time>2022-05-08T08:33:53.000Z</time>
      </trkpt>
      <trkpt lat="47.32221" lon="-2.44039">
        <ele>39.200000762939</ele>
        <time>2022-05-08T08:33:54.000Z</time>
      </trkpt>
      <trkpt lat="47.32224" lon="-2.44041">
        <ele>39.599998474121</ele>
        <time>2022-05-08T08:33:55.000Z</time>
      </trkpt>
      <trkpt lat="47.32226" lon="-2.44043">
        <ele>40</ele>
        <time>2022-05-08T08:33:56.000Z</time>
      </trkpt>
      <trkpt lat="47.32229" lon="-2.44045">
        <ele>40.400001525879</ele>
        <time>2022-05-08T08:33:57.000Z</time>
      </trkpt>
      <trkpt lat="47.32232" lon="-2.44046">
        <ele>40.400001525879</ele>
        <time>2022-05-08T08:33:58.000Z</time>
      </trkpt>
      <trkpt lat="47.32248" lon="-2.44043">
        <ele>40.400001525879</ele>
        <time>2022-05-08T08:34:03.000Z</time>
      </trkpt>
      <trkpt lat="47.32262" lon="-2.44046">
        <ele>40.400001525879</ele>
        <time>2022-05-08T08:34:08.000Z</time>
      </trkpt>
      <trkpt lat="47.32283" lon="-2.44052">
        <ele>40.400001525879</ele>
        <time>2022-05-08T08:34:15.000Z</time>
      </trkpt>
      <trkpt lat="47.323" lon="-2.44059">
        <ele>40.400001525879</ele>
        <time>2022-05-08T08:34:20.000Z</time>
      </trkpt>
      <trkpt lat="47.32307" lon="-2.44062">
        <ele>40.799999237061</ele>
        <time>2022-05-08T08:34:22.000Z</time>
      </trkpt>
      <trkpt lat="47.32311" lon="-2.44063">
        <ele>41.200000762939</ele>
        <time>2022-05-08T08:34:23.000Z</time>
      </trkpt>
      <trkpt lat="47.32315" lon="-2.44065">
        <ele>41.599998474121</ele>
        <time>2022-05-08T08:34:24.000Z</time>
      </trkpt>
      <trkpt lat="47.32318" lon="-2.44066">
        <ele>42</ele>
        <time>2022-05-08T08:34:25.000Z</time>
      </trkpt>
      <trkpt lat="47.32322" lon="-2.44068">
        <ele>42.599998474121</ele>
        <time>2022-05-08T08:34:26.000Z</time>
      </trkpt>
      <trkpt lat="47.32332" lon="-2.4407">
        <ele>42.599998474121</ele>
        <time>2022-05-08T08:34:29.000Z</time>
      </trkpt>
      <trkpt lat="47.32355" lon="-2.44071">
        <ele>43</ele>
        <time>2022-05-08T08:34:35.000Z</time>
      </trkpt>
      <trkpt lat="47.32359" lon="-2.4407">
        <ele>43.400001525879</ele>
        <time>2022-05-08T08:34:36.000Z</time>
      </trkpt>
      <trkpt lat="47.32362" lon="-2.4407">
        <ele>43.799999237061</ele>
        <time>2022-05-08T08:34:37.000Z</time>
      </trkpt>
      <trkpt lat="47.32366" lon="-2.44069">
        <ele>44.200000762939</ele>
        <time>2022-05-08T08:34:38.000Z</time>
      </trkpt>
      <trkpt lat="47.3237" lon="-2.44068">
        <ele>44.599998474121</ele>
        <time>2022-05-08T08:34:39.000Z</time>
      </trkpt>
      <trkpt lat="47.32381" lon="-2.44064">
        <ele>44.599998474121</ele>
        <time>2022-05-08T08:34:42.000Z</time>
      </trkpt>
      <trkpt lat="47.32409" lon="-2.44045">
        <ele>45</ele>
        <time>2022-05-08T08:34:50.000Z</time>
      </trkpt>
      <trkpt lat="47.32412" lon="-2.44043">
        <ele>45.400001525879</ele>
        <time>2022-05-08T08:34:51.000Z</time>
      </trkpt>
      <trkpt lat="47.32416" lon="-2.4404">
        <ele>45.799999237061</ele>
        <time>2022-05-08T08:34:52.000Z</time>
      </trkpt>
      <trkpt lat="47.3242" lon="-2.44038">
        <ele>46.200000762939</ele>
        <time>2022-05-08T08:34:53.000Z</time>
      </trkpt>
      <trkpt lat="47.32423" lon="-2.44036">
        <ele>46.599998474121</ele>
        <time>2022-05-08T08:34:54.000Z</time>
      </trkpt>
      <trkpt lat="47.32434" lon="-2.44027">
        <ele>46.599998474121</ele>
        <time>2022-05-08T08:34:57.000Z</time>
      </trkpt>
      <trkpt lat="47.32441" lon="-2.44022">
        <ele>47.200000762939</ele>
        <time>2022-05-08T08:34:59.000Z</time>
      </trkpt>
      <trkpt lat="47.32445" lon="-2.4402">
        <ele>47.599998474121</ele>
        <time>2022-05-08T08:35:00.000Z</time>
      </trkpt>
      <trkpt lat="47.32449" lon="-2.44017">
        <ele>48</ele>
        <time>2022-05-08T08:35:01.000Z</time>
      </trkpt>
      <trkpt lat="47.32452" lon="-2.44016">
        <ele>48.400001525879</ele>
        <time>2022-05-08T08:35:02.000Z</time>
      </trkpt>
      <trkpt lat="47.32456" lon="-2.44014">
        <ele>48.799999237061</ele>
        <time>2022-05-08T08:35:03.000Z</time>
      </trkpt>
      <trkpt lat="47.32464" lon="-2.44009">
        <ele>48.799999237061</ele>
        <time>2022-05-08T08:35:05.000Z</time>
      </trkpt>
      <trkpt lat="47.32467" lon="-2.44007">
        <ele>48.799999237061</ele>
        <time>2022-05-08T08:35:06.000Z</time>
      </trkpt>
      <trkpt lat="47.32487" lon="-2.43992">
        <ele>48.799999237061</ele>
        <time>2022-05-08T08:35:12.000Z</time>
      </trkpt>
      <trkpt lat="47.32498" lon="-2.43985">
        <ele>49.200000762939</ele>
        <time>2022-05-08T08:35:16.000Z</time>
      </trkpt>
      <trkpt lat="47.325" lon="-2.43985">
        <ele>49.599998474121</ele>
        <time>2022-05-08T08:35:17.000Z</time>
      </trkpt>
      <trkpt lat="47.32502" lon="-2.43985">
        <ele>50</ele>
        <time>2022-05-08T08:35:18.000Z</time>
      </trkpt>
      <trkpt lat="47.32504" lon="-2.43986">
        <ele>50.400001525879</ele>
        <time>2022-05-08T08:35:19.000Z</time>
      </trkpt>
      <trkpt lat="47.32505" lon="-2.43987">
        <ele>50.799999237061</ele>
        <time>2022-05-08T08:35:20.000Z</time>
      </trkpt>
      <trkpt lat="47.32508" lon="-2.4399">
        <ele>50.799999237061</ele>
        <time>2022-05-08T08:35:22.000Z</time>
      </trkpt>
      <trkpt lat="47.32514" lon="-2.43996">
        <ele>50.799999237061</ele>
        <time>2022-05-08T08:35:27.000Z</time>
      </trkpt>
      <trkpt lat="47.32516" lon="-2.43999">
        <ele>50.799999237061</ele>
        <time>2022-05-08T08:37:06.000Z</time>
      </trkpt>
      <trkpt lat="47.32525" lon="-2.44013">
        <ele>50.799999237061</ele>
        <time>2022-05-08T08:37:13.000Z</time>
      </trkpt>
      <trkpt lat="47.32538" lon="-2.44023">
        <ele>50.799999237061</ele>
        <time>2022-05-08T08:37:20.000Z</time>
      </trkpt>
      <trkpt lat="47.32552" lon="-2.44029">
        <ele>50.799999237061</ele>
        <time>2022-05-08T08:37:25.000Z</time>
      </trkpt>
      <trkpt lat="47.32568" lon="-2.44034">
        <ele>50.799999237061</ele>
        <time>2022-05-08T08:37:32.000Z</time>
      </trkpt>
      <trkpt lat="47.32571" lon="-2.4404">
        <ele>50.799999237061</ele>
        <time>2022-05-08T08:37:35.000Z</time>
      </trkpt>
      <trkpt lat="47.3257" lon="-2.44045">
        <ele>50.799999237061</ele>
        <time>2022-05-08T08:37:37.000Z</time>
      </trkpt>
      <trkpt lat="47.32561" lon="-2.44062">
        <ele>50.799999237061</ele>
        <time>2022-05-08T08:37:42.000Z</time>
      </trkpt>
      <trkpt lat="47.32553" lon="-2.44084">
        <ele>50.799999237061</ele>
        <time>2022-05-08T08:37:47.000Z</time>
      </trkpt>
      <trkpt lat="47.3255" lon="-2.44095">
        <ele>50.799999237061</ele>
        <time>2022-05-08T08:37:49.000Z</time>
      </trkpt>
      <trkpt lat="47.32547" lon="-2.4411">
        <ele>50.799999237061</ele>
        <time>2022-05-08T08:37:51.000Z</time>
      </trkpt>
      <trkpt lat="47.32545" lon="-2.44116">
        <ele>50.799999237061</ele>
        <time>2022-05-08T08:37:52.000Z</time>
      </trkpt>
      <trkpt lat="47.32538" lon="-2.44137">
        <ele>50.799999237061</ele>
        <time>2022-05-08T08:37:56.000Z</time>
      </trkpt>
      <trkpt lat="47.32532" lon="-2.44157">
        <ele>50.799999237061</ele>
        <time>2022-05-08T08:38:00.000Z</time>
      </trkpt>
      <trkpt lat="47.3253" lon="-2.44163">
        <ele>50.799999237061</ele>
        <time>2022-05-08T08:38:01.000Z</time>
      </trkpt>
      <trkpt lat="47.32524" lon="-2.44187">
        <ele>50.799999237061</ele>
        <time>2022-05-08T08:38:05.000Z</time>
      </trkpt>
      <trkpt lat="47.32524" lon="-2.44193">
        <ele>50.799999237061</ele>
        <time>2022-05-08T08:38:06.000Z</time>
      </trkpt>
      <trkpt lat="47.3253" lon="-2.4421">
        <ele>50.799999237061</ele>
        <time>2022-05-08T08:38:09.000Z</time>
      </trkpt>
      <trkpt lat="47.32535" lon="-2.44219">
        <ele>50.799999237061</ele>
        <time>2022-05-08T08:38:11.000Z</time>
      </trkpt>
      <trkpt lat="47.32542" lon="-2.44236">
        <ele>50.799999237061</ele>
        <time>2022-05-08T08:38:15.000Z</time>
      </trkpt>
      <trkpt lat="47.32553" lon="-2.44259">
        <ele>50.799999237061</ele>
        <time>2022-05-08T08:38:20.000Z</time>
      </trkpt>
      <trkpt lat="47.32558" lon="-2.44286">
        <ele>50.799999237061</ele>
        <time>2022-05-08T08:38:24.000Z</time>
      </trkpt>
      <trkpt lat="47.32561" lon="-2.44299">
        <ele>50.799999237061</ele>
        <time>2022-05-08T08:38:26.000Z</time>
      </trkpt>
      <trkpt lat="47.32567" lon="-2.44317">
        <ele>50.799999237061</ele>
        <time>2022-05-08T08:38:29.000Z</time>
      </trkpt>
      <trkpt lat="47.32583" lon="-2.44356">
        <ele>50.799999237061</ele>
        <time>2022-05-08T08:38:36.000Z</time>
      </trkpt>
      <trkpt lat="47.32596" lon="-2.44375">
        <ele>50.799999237061</ele>
        <time>2022-05-08T08:38:40.000Z</time>
      </trkpt>
      <trkpt lat="47.32611" lon="-2.44389">
        <ele>50.799999237061</ele>
        <time>2022-05-08T08:38:45.000Z</time>
      </trkpt>
      <trkpt lat="47.32623" lon="-2.44412">
        <ele>50.799999237061</ele>
        <time>2022-05-08T08:38:50.000Z</time>
      </trkpt>
      <trkpt lat="47.32639" lon="-2.44442">
        <ele>50.799999237061</ele>
        <time>2022-05-08T08:38:56.000Z</time>
      </trkpt>
      <trkpt lat="47.32653" lon="-2.44486">
        <ele>50.799999237061</ele>
        <time>2022-05-08T08:39:03.000Z</time>
      </trkpt>
      <trkpt lat="47.32659" lon="-2.44494">
        <ele>50.799999237061</ele>
        <time>2022-05-08T08:39:05.000Z</time>
      </trkpt>
      <trkpt lat="47.32667" lon="-2.44499">
        <ele>50.799999237061</ele>
        <time>2022-05-08T08:39:07.000Z</time>
      </trkpt>
      <trkpt lat="47.32669" lon="-2.44509">
        <ele>50.799999237061</ele>
        <time>2022-05-08T08:39:10.000Z</time>
      </trkpt>
      <trkpt lat="47.32661" lon="-2.44525">
        <ele>50.799999237061</ele>
        <time>2022-05-08T08:39:14.000Z</time>
      </trkpt>
      <trkpt lat="47.32647" lon="-2.4455">
        <ele>50.799999237061</ele>
        <time>2022-05-08T08:39:19.000Z</time>
      </trkpt>
      <trkpt lat="47.3262" lon="-2.44594">
        <ele>50.799999237061</ele>
        <time>2022-05-08T08:39:27.000Z</time>
      </trkpt>
      <trkpt lat="47.32604" lon="-2.44618">
        <ele>50.400001525879</ele>
        <time>2022-05-08T08:39:32.000Z</time>
      </trkpt>
      <trkpt lat="47.32602" lon="-2.44624">
        <ele>50</ele>
        <time>2022-05-08T08:39:33.000Z</time>
      </trkpt>
      <trkpt lat="47.32598" lon="-2.44629">
        <ele>49.599998474121</ele>
        <time>2022-05-08T08:39:34.000Z</time>
      </trkpt>
      <trkpt lat="47.32595" lon="-2.44635">
        <ele>49</ele>
        <time>2022-05-08T08:39:35.000Z</time>
      </trkpt>
      <trkpt lat="47.32591" lon="-2.44639">
        <ele>48.599998474121</ele>
        <time>2022-05-08T08:39:36.000Z</time>
      </trkpt>
      <trkpt lat="47.32579" lon="-2.44654">
        <ele>48.599998474121</ele>
        <time>2022-05-08T08:39:39.000Z</time>
      </trkpt>
      <trkpt lat="47.3257" lon="-2.44665">
        <ele>48.200000762939</ele>
        <time>2022-05-08T08:39:41.000Z</time>
      </trkpt>
      <trkpt lat="47.32565" lon="-2.44671">
        <ele>47.799999237061</ele>
        <time>2022-05-08T08:39:42.000Z</time>
      </trkpt>
      <trkpt lat="47.3256" lon="-2.44677">
        <ele>47.200000762939</ele>
        <time>2022-05-08T08:39:43.000Z</time>
      </trkpt>
      <trkpt lat="47.32556" lon="-2.44683">
        <ele>46.799999237061</ele>
        <time>2022-05-08T08:39:44.000Z</time>
      </trkpt>
      <trkpt lat="47.32552" lon="-2.44689">
        <ele>46.400001525879</ele>
        <time>2022-05-08T08:39:45.000Z</time>
      </trkpt>
      <trkpt lat="47.32543" lon="-2.44701">
        <ele>46.400001525879</ele>
        <time>2022-05-08T08:39:47.000Z</time>
      </trkpt>
      <trkpt lat="47.3254" lon="-2.44707">
        <ele>46</ele>
        <time>2022-05-08T08:39:48.000Z</time>
      </trkpt>
      <trkpt lat="47.32537" lon="-2.44712">
        <ele>45.599998474121</ele>
        <time>2022-05-08T08:39:49.000Z</time>
      </trkpt>
      <trkpt lat="47.32535" lon="-2.44716">
        <ele>45.200000762939</ele>
        <time>2022-05-08T08:39:50.000Z</time>
      </trkpt>
      <trkpt lat="47.32533" lon="-2.44721">
        <ele>44.799999237061</ele>
        <time>2022-05-08T08:39:51.000Z</time>
      </trkpt>
      <trkpt lat="47.32531" lon="-2.44727">
        <ele>44.400001525879</ele>
        <time>2022-05-08T08:39:52.000Z</time>
      </trkpt>
      <trkpt lat="47.3253" lon="-2.44734">
        <ele>44.400001525879</ele>
        <time>2022-05-08T08:39:53.000Z</time>
      </trkpt>
      <trkpt lat="47.32527" lon="-2.44738">
        <ele>43.799999237061</ele>
        <time>2022-05-08T08:39:54.000Z</time>
      </trkpt>
      <trkpt lat="47.32524" lon="-2.44741">
        <ele>43</ele>
        <time>2022-05-08T08:39:55.000Z</time>
      </trkpt>
      <trkpt lat="47.32519" lon="-2.44744">
        <ele>42.599998474121</ele>
        <time>2022-05-08T08:39:56.000Z</time>
      </trkpt>
      <trkpt lat="47.32514" lon="-2.44747">
        <ele>42.200000762939</ele>
        <time>2022-05-08T08:39:57.000Z</time>
      </trkpt>
      <trkpt lat="47.32495" lon="-2.44761">
        <ele>41.799999237061</ele>
        <time>2022-05-08T08:40:00.000Z</time>
      </trkpt>
      <trkpt lat="47.32489" lon="-2.44766">
        <ele>41.400001525879</ele>
        <time>2022-05-08T08:40:01.000Z</time>
      </trkpt>
      <trkpt lat="47.32482" lon="-2.44772">
        <ele>41</ele>
        <time>2022-05-08T08:40:02.000Z</time>
      </trkpt>
      <trkpt lat="47.32475" lon="-2.44776">
        <ele>40.400001525879</ele>
        <time>2022-05-08T08:40:03.000Z</time>
      </trkpt>
      <trkpt lat="47.32467" lon="-2.44781">
        <ele>40</ele>
        <time>2022-05-08T08:40:04.000Z</time>
      </trkpt>
      <trkpt lat="47.32452" lon="-2.44792">
        <ele>39.599998474121</ele>
        <time>2022-05-08T08:40:06.000Z</time>
      </trkpt>
      <trkpt lat="47.32444" lon="-2.44797">
        <ele>39.200000762939</ele>
        <time>2022-05-08T08:40:07.000Z</time>
      </trkpt>
      <trkpt lat="47.32437" lon="-2.44803">
        <ele>38.799999237061</ele>
        <time>2022-05-08T08:40:08.000Z</time>
      </trkpt>
      <trkpt lat="47.32428" lon="-2.4481">
        <ele>38.400001525879</ele>
        <time>2022-05-08T08:40:09.000Z</time>
      </trkpt>
      <trkpt lat="47.32421" lon="-2.44815">
        <ele>38</ele>
        <time>2022-05-08T08:40:10.000Z</time>
      </trkpt>
      <trkpt lat="47.32405" lon="-2.44826">
        <ele>38</ele>
        <time>2022-05-08T08:40:12.000Z</time>
      </trkpt>
      <trkpt lat="47.3239" lon="-2.44837">
        <ele>37.400001525879</ele>
        <time>2022-05-08T08:40:14.000Z</time>
      </trkpt>
      <trkpt lat="47.32383" lon="-2.44842">
        <ele>37</ele>
        <time>2022-05-08T08:40:15.000Z</time>
      </trkpt>
      <trkpt lat="47.32376" lon="-2.44847">
        <ele>36.599998474121</ele>
        <time>2022-05-08T08:40:16.000Z</time>
      </trkpt>
      <trkpt lat="47.3237" lon="-2.44851">
        <ele>36.200000762939</ele>
        <time>2022-05-08T08:40:17.000Z</time>
      </trkpt>
      <trkpt lat="47.32363" lon="-2.44856">
        <ele>35.799999237061</ele>
        <time>2022-05-08T08:40:18.000Z</time>
      </trkpt>
      <trkpt lat="47.32356" lon="-2.44861">
        <ele>35.799999237061</ele>
        <time>2022-05-08T08:40:19.000Z</time>
      </trkpt>
      <trkpt lat="47.32346" lon="-2.44873">
        <ele>35.400001525879</ele>
        <time>2022-05-08T08:40:21.000Z</time>
      </trkpt>
      <trkpt lat="47.32342" lon="-2.44878">
        <ele>35</ele>
        <time>2022-05-08T08:40:22.000Z</time>
      </trkpt>
      <trkpt lat="47.32337" lon="-2.44883">
        <ele>34.599998474121</ele>
        <time>2022-05-08T08:40:23.000Z</time>
      </trkpt>
      <trkpt lat="47.32333" lon="-2.44888">
        <ele>34.200000762939</ele>
        <time>2022-05-08T08:40:24.000Z</time>
      </trkpt>
      <trkpt lat="47.32329" lon="-2.44893">
        <ele>33.599998474121</ele>
        <time>2022-05-08T08:40:25.000Z</time>
      </trkpt>
      <trkpt lat="47.32314" lon="-2.44915">
        <ele>33.599998474121</ele>
        <time>2022-05-08T08:40:29.000Z</time>
      </trkpt>
      <trkpt lat="47.32305" lon="-2.44925">
        <ele>33.599998474121</ele>
        <time>2022-05-08T08:40:31.000Z</time>
      </trkpt>
      <trkpt lat="47.32291" lon="-2.44943">
        <ele>33.599998474121</ele>
        <time>2022-05-08T08:40:34.000Z</time>
      </trkpt>
      <trkpt lat="47.32262" lon="-2.44976">
        <ele>33.200000762939</ele>
        <time>2022-05-08T08:40:40.000Z</time>
      </trkpt>
      <trkpt lat="47.32257" lon="-2.44982">
        <ele>32.799999237061</ele>
        <time>2022-05-08T08:40:41.000Z</time>
      </trkpt>
      <trkpt lat="47.32251" lon="-2.44988">
        <ele>32.400001525879</ele>
        <time>2022-05-08T08:40:42.000Z</time>
      </trkpt>
      <trkpt lat="47.32246" lon="-2.44994">
        <ele>31.799999237061</ele>
        <time>2022-05-08T08:40:43.000Z</time>
      </trkpt>
      <trkpt lat="47.32241" lon="-2.44999">
        <ele>31.39999961853</ele>
        <time>2022-05-08T08:40:44.000Z</time>
      </trkpt>
      <trkpt lat="47.32237" lon="-2.45005">
        <ele>30.200000762939</ele>
        <time>2022-05-08T08:40:45.000Z</time>
      </trkpt>
      <trkpt lat="47.32232" lon="-2.4501">
        <ele>29.39999961853</ele>
        <time>2022-05-08T08:40:46.000Z</time>
      </trkpt>
      <trkpt lat="47.32228" lon="-2.45015">
        <ele>28.799999237061</ele>
        <time>2022-05-08T08:40:47.000Z</time>
      </trkpt>
      <trkpt lat="47.32225" lon="-2.45019">
        <ele>28.200000762939</ele>
        <time>2022-05-08T08:40:48.000Z</time>
      </trkpt>
      <trkpt lat="47.32221" lon="-2.45023">
        <ele>27.39999961853</ele>
        <time>2022-05-08T08:40:49.000Z</time>
      </trkpt>
      <trkpt lat="47.32218" lon="-2.45027">
        <ele>26.799999237061</ele>
        <time>2022-05-08T08:40:50.000Z</time>
      </trkpt>
      <trkpt lat="47.32217" lon="-2.4503">
        <ele>26.200000762939</ele>
        <time>2022-05-08T08:40:51.000Z</time>
      </trkpt>
      <trkpt lat="47.32217" lon="-2.45034">
        <ele>25.799999237061</ele>
        <time>2022-05-08T08:40:52.000Z</time>
      </trkpt>
      <trkpt lat="47.32219" lon="-2.45039">
        <ele>25.200000762939</ele>
        <time>2022-05-08T08:40:53.000Z</time>
      </trkpt>
      <trkpt lat="47.32221" lon="-2.45044">
        <ele>24.60000038147</ele>
        <time>2022-05-08T08:40:54.000Z</time>
      </trkpt>
      <trkpt lat="47.32224" lon="-2.45049">
        <ele>24.60000038147</ele>
        <time>2022-05-08T08:40:55.000Z</time>
      </trkpt>
      <trkpt lat="47.32243" lon="-2.45092">
        <ele>24.60000038147</ele>
        <time>2022-05-08T08:41:02.000Z</time>
      </trkpt>
      <trkpt lat="47.3226" lon="-2.45136">
        <ele>24.60000038147</ele>
        <time>2022-05-08T08:41:08.000Z</time>
      </trkpt>
      <trkpt lat="47.32268" lon="-2.45166">
        <ele>24.200000762939</ele>
        <time>2022-05-08T08:41:12.000Z</time>
      </trkpt>
      <trkpt lat="47.32268" lon="-2.45173">
        <ele>23.799999237061</ele>
        <time>2022-05-08T08:41:13.000Z</time>
      </trkpt>
      <trkpt lat="47.3227" lon="-2.45182">
        <ele>23.39999961853</ele>
        <time>2022-05-08T08:41:14.000Z</time>
      </trkpt>
      <trkpt lat="47.32273" lon="-2.4519">
        <ele>23</ele>
        <time>2022-05-08T08:41:15.000Z</time>
      </trkpt>
      <trkpt lat="47.32277" lon="-2.45199">
        <ele>22.60000038147</ele>
        <time>2022-05-08T08:41:16.000Z</time>
      </trkpt>
      <trkpt lat="47.3228" lon="-2.45208">
        <ele>22</ele>
        <time>2022-05-08T08:41:17.000Z</time>
      </trkpt>
      <trkpt lat="47.32284" lon="-2.45217">
        <ele>21.60000038147</ele>
        <time>2022-05-08T08:41:18.000Z</time>
      </trkpt>
      <trkpt lat="47.32287" lon="-2.45226">
        <ele>21</ele>
        <time>2022-05-08T08:41:19.000Z</time>
      </trkpt>
      <trkpt lat="47.32291" lon="-2.45234">
        <ele>20.39999961853</ele>
        <time>2022-05-08T08:41:20.000Z</time>
      </trkpt>
      <trkpt lat="47.32294" lon="-2.4524">
        <ele>20</ele>
        <time>2022-05-08T08:41:21.000Z</time>
      </trkpt>
      <trkpt lat="47.32295" lon="-2.45247">
        <ele>20</ele>
        <time>2022-05-08T08:41:22.000Z</time>
      </trkpt>
      <trkpt lat="47.32301" lon="-2.45266">
        <ele>20</ele>
        <time>2022-05-08T08:41:26.000Z</time>
      </trkpt>
      <trkpt lat="47.32308" lon="-2.45295">
        <ele>20</ele>
        <time>2022-05-08T08:41:32.000Z</time>
      </trkpt>
      <trkpt lat="47.32312" lon="-2.45307">
        <ele>20</ele>
        <time>2022-05-08T08:41:34.000Z</time>
      </trkpt>
      <trkpt lat="47.32313" lon="-2.45312">
        <ele>20.39999961853</ele>
        <time>2022-05-08T08:41:35.000Z</time>
      </trkpt>
      <trkpt lat="47.32314" lon="-2.45319">
        <ele>20.799999237061</ele>
        <time>2022-05-08T08:41:36.000Z</time>
      </trkpt>
      <trkpt lat="47.32314" lon="-2.45325">
        <ele>21.200000762939</ele>
        <time>2022-05-08T08:41:37.000Z</time>
      </trkpt>
      <trkpt lat="47.32314" lon="-2.45332">
        <ele>21.60000038147</ele>
        <time>2022-05-08T08:41:38.000Z</time>
      </trkpt>
      <trkpt lat="47.32314" lon="-2.45339">
        <ele>22</ele>
        <time>2022-05-08T08:41:39.000Z</time>
      </trkpt>
      <trkpt lat="47.32316" lon="-2.45364">
        <ele>22</ele>
        <time>2022-05-08T08:41:42.000Z</time>
      </trkpt>
      <trkpt lat="47.32318" lon="-2.45374">
        <ele>22</ele>
        <time>2022-05-08T08:41:43.000Z</time>
      </trkpt>
      <trkpt lat="47.32319" lon="-2.45388">
        <ele>21.39999961853</ele>
        <time>2022-05-08T08:41:45.000Z</time>
      </trkpt>
      <trkpt lat="47.32318" lon="-2.45393">
        <ele>21</ele>
        <time>2022-05-08T08:41:46.000Z</time>
      </trkpt>
      <trkpt lat="47.32316" lon="-2.45399">
        <ele>20.39999961853</ele>
        <time>2022-05-08T08:41:47.000Z</time>
      </trkpt>
      <trkpt lat="47.32314" lon="-2.45405">
        <ele>20</ele>
        <time>2022-05-08T08:41:48.000Z</time>
      </trkpt>
      <trkpt lat="47.32313" lon="-2.45413">
        <ele>19.39999961853</ele>
        <time>2022-05-08T08:41:49.000Z</time>
      </trkpt>
      <trkpt lat="47.32315" lon="-2.45421">
        <ele>19</ele>
        <time>2022-05-08T08:41:50.000Z</time>
      </trkpt>
      <trkpt lat="47.32317" lon="-2.45429">
        <ele>18.60000038147</ele>
        <time>2022-05-08T08:41:51.000Z</time>
      </trkpt>
      <trkpt lat="47.32321" lon="-2.45435">
        <ele>18.200000762939</ele>
        <time>2022-05-08T08:41:52.000Z</time>
      </trkpt>
      <trkpt lat="47.32324" lon="-2.45442">
        <ele>17.799999237061</ele>
        <time>2022-05-08T08:41:53.000Z</time>
      </trkpt>
      <trkpt lat="47.32328" lon="-2.45448">
        <ele>17.39999961853</ele>
        <time>2022-05-08T08:41:54.000Z</time>
      </trkpt>
      <trkpt lat="47.32332" lon="-2.45454">
        <ele>17.39999961853</ele>
        <time>2022-05-08T08:41:55.000Z</time>
      </trkpt>
      <trkpt lat="47.32348" lon="-2.45478">
        <ele>17.39999961853</ele>
        <time>2022-05-08T08:41:59.000Z</time>
      </trkpt>
      <trkpt lat="47.32375" lon="-2.4552">
        <ele>17.39999961853</ele>
        <time>2022-05-08T08:42:06.000Z</time>
      </trkpt>
      <trkpt lat="47.32388" lon="-2.45548">
        <ele>17.39999961853</ele>
        <time>2022-05-08T08:42:11.000Z</time>
      </trkpt>
      <trkpt lat="47.32391" lon="-2.45552">
        <ele>17.39999961853</ele>
        <time>2022-05-08T08:42:12.000Z</time>
      </trkpt>
      <trkpt lat="47.32396" lon="-2.4556">
        <ele>17.799999237061</ele>
        <time>2022-05-08T08:42:14.000Z</time>
      </trkpt>
      <trkpt lat="47.32399" lon="-2.45563">
        <ele>18.200000762939</ele>
        <time>2022-05-08T08:42:15.000Z</time>
      </trkpt>
      <trkpt lat="47.32403" lon="-2.45567">
        <ele>18.60000038147</ele>
        <time>2022-05-08T08:42:16.000Z</time>
      </trkpt>
      <trkpt lat="47.32406" lon="-2.45571">
        <ele>19</ele>
        <time>2022-05-08T08:42:17.000Z</time>
      </trkpt>
      <trkpt lat="47.32408" lon="-2.45575">
        <ele>19.39999961853</ele>
        <time>2022-05-08T08:42:18.000Z</time>
      </trkpt>
      <trkpt lat="47.3241" lon="-2.4558">
        <ele>19.39999961853</ele>
        <time>2022-05-08T08:42:19.000Z</time>
      </trkpt>
      <trkpt lat="47.32412" lon="-2.45587">
        <ele>19.39999961853</ele>
        <time>2022-05-08T08:42:20.000Z</time>
      </trkpt>
      <trkpt lat="47.32418" lon="-2.45607">
        <ele>19.39999961853</ele>
        <time>2022-05-08T08:42:23.000Z</time>
      </trkpt>
      <trkpt lat="47.32429" lon="-2.45631">
        <ele>19.39999961853</ele>
        <time>2022-05-08T08:42:27.000Z</time>
      </trkpt>
      <trkpt lat="47.32436" lon="-2.45643">
        <ele>19.39999961853</ele>
        <time>2022-05-08T08:42:29.000Z</time>
      </trkpt>
      <trkpt lat="47.32464" lon="-2.45685">
        <ele>19.39999961853</ele>
        <time>2022-05-08T08:42:36.000Z</time>
      </trkpt>
      <trkpt lat="47.32473" lon="-2.45698">
        <ele>19</ele>
        <time>2022-05-08T08:42:38.000Z</time>
      </trkpt>
      <trkpt lat="47.32476" lon="-2.45704">
        <ele>18.60000038147</ele>
        <time>2022-05-08T08:42:39.000Z</time>
      </trkpt>
      <trkpt lat="47.3248" lon="-2.45711">
        <ele>18.200000762939</ele>
        <time>2022-05-08T08:42:40.000Z</time>
      </trkpt>
      <trkpt lat="47.32484" lon="-2.45717">
        <ele>17.799999237061</ele>
        <time>2022-05-08T08:42:41.000Z</time>
      </trkpt>
      <trkpt lat="47.32488" lon="-2.45724">
        <ele>17.39999961853</ele>
        <time>2022-05-08T08:42:42.000Z</time>
      </trkpt>
      <trkpt lat="47.32495" lon="-2.45738">
        <ele>17.39999961853</ele>
        <time>2022-05-08T08:42:44.000Z</time>
      </trkpt>
      <trkpt lat="47.32518" lon="-2.45777">
        <ele>17.39999961853</ele>
        <time>2022-05-08T08:42:50.000Z</time>
      </trkpt>
      <trkpt lat="47.32526" lon="-2.45791">
        <ele>17.39999961853</ele>
        <time>2022-05-08T08:42:52.000Z</time>
      </trkpt>
      <trkpt lat="47.32536" lon="-2.45809">
        <ele>17.39999961853</ele>
        <time>2022-05-08T08:42:55.000Z</time>
      </trkpt>
      <trkpt lat="47.3254" lon="-2.45814">
        <ele>17.39999961853</ele>
        <time>2022-05-08T08:42:56.000Z</time>
      </trkpt>
      <trkpt lat="47.32549" lon="-2.45824">
        <ele>17.39999961853</ele>
        <time>2022-05-08T08:42:58.000Z</time>
      </trkpt>
      <trkpt lat="47.32555" lon="-2.45836">
        <ele>17.39999961853</ele>
        <time>2022-05-08T08:43:00.000Z</time>
      </trkpt>
      <trkpt lat="47.32569" lon="-2.45863">
        <ele>17.799999237061</ele>
        <time>2022-05-08T08:43:04.000Z</time>
      </trkpt>
      <trkpt lat="47.32572" lon="-2.45869">
        <ele>18.200000762939</ele>
        <time>2022-05-08T08:43:05.000Z</time>
      </trkpt>
      <trkpt lat="47.32576" lon="-2.45875">
        <ele>18.60000038147</ele>
        <time>2022-05-08T08:43:06.000Z</time>
      </trkpt>
      <trkpt lat="47.32579" lon="-2.45881">
        <ele>19</ele>
        <time>2022-05-08T08:43:07.000Z</time>
      </trkpt>
      <trkpt lat="47.32583" lon="-2.45886">
        <ele>19.39999961853</ele>
        <time>2022-05-08T08:43:08.000Z</time>
      </trkpt>
      <trkpt lat="47.32595" lon="-2.459">
        <ele>19.39999961853</ele>
        <time>2022-05-08T08:43:11.000Z</time>
      </trkpt>
      <trkpt lat="47.32624" lon="-2.45943">
        <ele>19.39999961853</ele>
        <time>2022-05-08T08:43:18.000Z</time>
      </trkpt>
      <trkpt lat="47.32641" lon="-2.45967">
        <ele>19.39999961853</ele>
        <time>2022-05-08T08:43:22.000Z</time>
      </trkpt>
      <trkpt lat="47.32647" lon="-2.45972">
        <ele>19.39999961853</ele>
        <time>2022-05-08T08:43:23.000Z</time>
      </trkpt>
      <trkpt lat="47.32663" lon="-2.45985">
        <ele>19.39999961853</ele>
        <time>2022-05-08T08:43:26.000Z</time>
      </trkpt>
      <trkpt lat="47.3267" lon="-2.45993">
        <ele>19.39999961853</ele>
        <time>2022-05-08T08:43:28.000Z</time>
      </trkpt>
      <trkpt lat="47.32681" lon="-2.46007">
        <ele>19.39999961853</ele>
        <time>2022-05-08T08:43:33.000Z</time>
      </trkpt>
      <trkpt lat="47.32691" lon="-2.46022">
        <ele>19.39999961853</ele>
        <time>2022-05-08T08:43:38.000Z</time>
      </trkpt>
      <trkpt lat="47.32701" lon="-2.46038">
        <ele>19.39999961853</ele>
        <time>2022-05-08T08:43:42.000Z</time>
      </trkpt>
      <trkpt lat="47.32711" lon="-2.46045">
        <ele>19.39999961853</ele>
        <time>2022-05-08T08:43:46.000Z</time>
      </trkpt>
      <trkpt lat="47.32721" lon="-2.46058">
        <ele>19.39999961853</ele>
        <time>2022-05-08T08:43:51.000Z</time>
      </trkpt>
      <trkpt lat="47.32729" lon="-2.46066">
        <ele>19.39999961853</ele>
        <time>2022-05-08T08:43:56.000Z</time>
      </trkpt>
      <trkpt lat="47.32744" lon="-2.46087">
        <ele>19.39999961853</ele>
        <time>2022-05-08T08:44:02.000Z</time>
      </trkpt>
      <trkpt lat="47.32748" lon="-2.46095">
        <ele>19.799999237061</ele>
        <time>2022-05-08T08:44:04.000Z</time>
      </trkpt>
      <trkpt lat="47.32749" lon="-2.46098">
        <ele>20.200000762939</ele>
        <time>2022-05-08T08:44:05.000Z</time>
      </trkpt>
      <trkpt lat="47.32751" lon="-2.461">
        <ele>20.60000038147</ele>
        <time>2022-05-08T08:44:06.000Z</time>
      </trkpt>
      <trkpt lat="47.32752" lon="-2.46104">
        <ele>21</ele>
        <time>2022-05-08T08:44:07.000Z</time>
      </trkpt>
      <trkpt lat="47.32753" lon="-2.46108">
        <ele>21.39999961853</ele>
        <time>2022-05-08T08:44:08.000Z</time>
      </trkpt>
      <trkpt lat="47.32758" lon="-2.46124">
        <ele>21.39999961853</ele>
        <time>2022-05-08T08:44:12.000Z</time>
      </trkpt>
      <trkpt lat="47.32763" lon="-2.4614">
        <ele>22</ele>
        <time>2022-05-08T08:44:15.000Z</time>
      </trkpt>
      <trkpt lat="47.32766" lon="-2.46145">
        <ele>22.39999961853</ele>
        <time>2022-05-08T08:44:16.000Z</time>
      </trkpt>
      <trkpt lat="47.32768" lon="-2.46149">
        <ele>22.799999237061</ele>
        <time>2022-05-08T08:44:17.000Z</time>
      </trkpt>
      <trkpt lat="47.3277" lon="-2.46152">
        <ele>23.200000762939</ele>
        <time>2022-05-08T08:44:18.000Z</time>
      </trkpt>
      <trkpt lat="47.32773" lon="-2.46156">
        <ele>23.60000038147</ele>
        <time>2022-05-08T08:44:19.000Z</time>
      </trkpt>
      <trkpt lat="47.32781" lon="-2.46164">
        <ele>23.60000038147</ele>
        <time>2022-05-08T08:44:22.000Z</time>
      </trkpt>
      <trkpt lat="47.328" lon="-2.46182">
        <ele>23.60000038147</ele>
        <time>2022-05-08T08:44:29.000Z</time>
      </trkpt>
      <trkpt lat="47.32807" lon="-2.46186">
        <ele>24</ele>
        <time>2022-05-08T08:44:31.000Z</time>
      </trkpt>
      <trkpt lat="47.3281" lon="-2.46187">
        <ele>24.39999961853</ele>
        <time>2022-05-08T08:44:32.000Z</time>
      </trkpt>
      <trkpt lat="47.32814" lon="-2.46188">
        <ele>24.799999237061</ele>
        <time>2022-05-08T08:44:33.000Z</time>
      </trkpt>
      <trkpt lat="47.32818" lon="-2.46188">
        <ele>25.200000762939</ele>
        <time>2022-05-08T08:44:34.000Z</time>
      </trkpt>
      <trkpt lat="47.32822" lon="-2.46188">
        <ele>25.60000038147</ele>
        <time>2022-05-08T08:44:35.000Z</time>
      </trkpt>
      <trkpt lat="47.32839" lon="-2.46179">
        <ele>25.60000038147</ele>
        <time>2022-05-08T08:44:40.000Z</time>
      </trkpt>
      <trkpt lat="47.32845" lon="-2.46176">
        <ele>26.200000762939</ele>
        <time>2022-05-08T08:44:42.000Z</time>
      </trkpt>
      <trkpt lat="47.32848" lon="-2.46174">
        <ele>26.60000038147</ele>
        <time>2022-05-08T08:44:43.000Z</time>
      </trkpt>
      <trkpt lat="47.32851" lon="-2.46172">
        <ele>27</ele>
        <time>2022-05-08T08:44:44.000Z</time>
      </trkpt>
      <trkpt lat="47.32853" lon="-2.4617">
        <ele>27.39999961853</ele>
        <time>2022-05-08T08:44:45.000Z</time>
      </trkpt>
      <trkpt lat="47.32858" lon="-2.46168">
        <ele>27.799999237061</ele>
        <time>2022-05-08T08:44:46.000Z</time>
      </trkpt>
      <trkpt lat="47.32871" lon="-2.46162">
        <ele>28.200000762939</ele>
        <time>2022-05-08T08:44:50.000Z</time>
      </trkpt>
      <trkpt lat="47.32874" lon="-2.46161">
        <ele>29.200000762939</ele>
        <time>2022-05-08T08:44:51.000Z</time>
      </trkpt>
      <trkpt lat="47.32877" lon="-2.46159">
        <ele>29.60000038147</ele>
        <time>2022-05-08T08:44:52.000Z</time>
      </trkpt>
      <trkpt lat="47.3288" lon="-2.46158">
        <ele>30</ele>
        <time>2022-05-08T08:44:53.000Z</time>
      </trkpt>
      <trkpt lat="47.32893" lon="-2.4615">
        <ele>30</ele>
        <time>2022-05-08T08:44:59.000Z</time>
      </trkpt>
      <trkpt lat="47.32897" lon="-2.46148">
        <ele>30</ele>
        <time>2022-05-08T08:45:02.000Z</time>
      </trkpt>
      <trkpt lat="47.329" lon="-2.46151">
        <ele>30.39999961853</ele>
        <time>2022-05-08T08:45:04.000Z</time>
      </trkpt>
      <trkpt lat="47.32902" lon="-2.46153">
        <ele>30.799999237061</ele>
        <time>2022-05-08T08:45:05.000Z</time>
      </trkpt>
      <trkpt lat="47.32903" lon="-2.46155">
        <ele>31.200000762939</ele>
        <time>2022-05-08T08:45:06.000Z</time>
      </trkpt>
      <trkpt lat="47.32905" lon="-2.46159">
        <ele>31.60000038147</ele>
        <time>2022-05-08T08:45:07.000Z</time>
      </trkpt>
      <trkpt lat="47.32906" lon="-2.46162">
        <ele>32</ele>
        <time>2022-05-08T08:45:08.000Z</time>
      </trkpt>
      <trkpt lat="47.32907" lon="-2.46166">
        <ele>32</ele>
        <time>2022-05-08T08:45:09.000Z</time>
      </trkpt>
      <trkpt lat="47.32915" lon="-2.46194">
        <ele>32</ele>
        <time>2022-05-08T08:45:15.000Z</time>
      </trkpt>
      <trkpt lat="47.32921" lon="-2.46214">
        <ele>32</ele>
        <time>2022-05-08T08:45:18.000Z</time>
      </trkpt>
      <trkpt lat="47.32924" lon="-2.46221">
        <ele>32</ele>
        <time>2022-05-08T08:45:19.000Z</time>
      </trkpt>
      <trkpt lat="47.32926" lon="-2.46229">
        <ele>32</ele>
        <time>2022-05-08T08:45:20.000Z</time>
      </trkpt>
      <trkpt lat="47.32935" lon="-2.46264">
        <ele>32</ele>
        <time>2022-05-08T08:45:25.000Z</time>
      </trkpt>
      <trkpt lat="47.32949" lon="-2.46311">
        <ele>32</ele>
        <time>2022-05-08T08:45:32.000Z</time>
      </trkpt>
      <trkpt lat="47.32956" lon="-2.46338">
        <ele>31.60000038147</ele>
        <time>2022-05-08T08:45:35.000Z</time>
      </trkpt>
      <trkpt lat="47.32958" lon="-2.46348">
        <ele>31.200000762939</ele>
        <time>2022-05-08T08:45:36.000Z</time>
      </trkpt>
      <trkpt lat="47.32961" lon="-2.46359">
        <ele>30.60000038147</ele>
        <time>2022-05-08T08:45:37.000Z</time>
      </trkpt>
      <trkpt lat="47.32962" lon="-2.46372">
        <ele>30.200000762939</ele>
        <time>2022-05-08T08:45:38.000Z</time>
      </trkpt>
      <trkpt lat="47.32964" lon="-2.46385">
        <ele>29.799999237061</ele>
        <time>2022-05-08T08:45:39.000Z</time>
      </trkpt>
      <trkpt lat="47.32964" lon="-2.46398">
        <ele>29.799999237061</ele>
        <time>2022-05-08T08:45:40.000Z</time>
      </trkpt>
      <trkpt lat="47.32963" lon="-2.46412">
        <ele>29</ele>
        <time>2022-05-08T08:45:41.000Z</time>
      </trkpt>
      <trkpt lat="47.32963" lon="-2.46428">
        <ele>28.60000038147</ele>
        <time>2022-05-08T08:45:42.000Z</time>
      </trkpt>
      <trkpt lat="47.32962" lon="-2.46443">
        <ele>27.799999237061</ele>
        <time>2022-05-08T08:45:43.000Z</time>
      </trkpt>
      <trkpt lat="47.32962" lon="-2.46459">
        <ele>27.200000762939</ele>
        <time>2022-05-08T08:45:44.000Z</time>
      </trkpt>
      <trkpt lat="47.32961" lon="-2.46475">
        <ele>26.39999961853</ele>
        <time>2022-05-08T08:45:45.000Z</time>
      </trkpt>
      <trkpt lat="47.3296" lon="-2.4649">
        <ele>25.60000038147</ele>
        <time>2022-05-08T08:45:46.000Z</time>
      </trkpt>
      <trkpt lat="47.32959" lon="-2.46505">
        <ele>24.799999237061</ele>
        <time>2022-05-08T08:45:47.000Z</time>
      </trkpt>
      <trkpt lat="47.32958" lon="-2.46519">
        <ele>24</ele>
        <time>2022-05-08T08:45:48.000Z</time>
      </trkpt>
      <trkpt lat="47.32957" lon="-2.46533">
        <ele>23</ele>
        <time>2022-05-08T08:45:49.000Z</time>
      </trkpt>
      <trkpt lat="47.32957" lon="-2.46545">
        <ele>22.200000762939</ele>
        <time>2022-05-08T08:45:50.000Z</time>
      </trkpt>
      <trkpt lat="47.32958" lon="-2.46554">
        <ele>21.39999961853</ele>
        <time>2022-05-08T08:45:51.000Z</time>
      </trkpt>
      <trkpt lat="47.32961" lon="-2.4656">
        <ele>20.39999961853</ele>
        <time>2022-05-08T08:45:52.000Z</time>
      </trkpt>
      <trkpt lat="47.32965" lon="-2.46565">
        <ele>19.60000038147</ele>
        <time>2022-05-08T08:45:53.000Z</time>
      </trkpt>
      <trkpt lat="47.32973" lon="-2.46563">
        <ele>19.60000038147</ele>
        <time>2022-05-08T08:45:55.000Z</time>
      </trkpt>
      <trkpt lat="47.32981" lon="-2.46558">
        <ele>19.60000038147</ele>
        <time>2022-05-08T08:45:59.000Z</time>
      </trkpt>
      <trkpt lat="47.32985" lon="-2.46556">
        <ele>19.60000038147</ele>
        <time>2022-05-08T08:46:01.000Z</time>
      </trkpt>
      <trkpt lat="47.32995" lon="-2.46551">
        <ele>19.60000038147</ele>
        <time>2022-05-08T08:46:05.000Z</time>
      </trkpt>
      <trkpt lat="47.32997" lon="-2.46549">
        <ele>20</ele>
        <time>2022-05-08T08:46:06.000Z</time>
      </trkpt>
      <trkpt lat="47.33" lon="-2.46546">
        <ele>20.39999961853</ele>
        <time>2022-05-08T08:46:07.000Z</time>
      </trkpt>
      <trkpt lat="47.33004" lon="-2.46545">
        <ele>20.799999237061</ele>
        <time>2022-05-08T08:46:08.000Z</time>
      </trkpt>
      <trkpt lat="47.33007" lon="-2.46543">
        <ele>21.200000762939</ele>
        <time>2022-05-08T08:46:09.000Z</time>
      </trkpt>
      <trkpt lat="47.33011" lon="-2.46541">
        <ele>21.60000038147</ele>
        <time>2022-05-08T08:46:10.000Z</time>
      </trkpt>
      <trkpt lat="47.33015" lon="-2.46539">
        <ele>21.60000038147</ele>
        <time>2022-05-08T08:46:11.000Z</time>
      </trkpt>
      <trkpt lat="47.33019" lon="-2.46538">
        <ele>21.60000038147</ele>
        <time>2022-05-08T08:46:12.000Z</time>
      </trkpt>
      <trkpt lat="47.33028" lon="-2.46536">
        <ele>21.60000038147</ele>
        <time>2022-05-08T08:46:14.000Z</time>
      </trkpt>
      <trkpt lat="47.33036" lon="-2.46537">
        <ele>21.60000038147</ele>
        <time>2022-05-08T08:46:16.000Z</time>
      </trkpt>
      <trkpt lat="47.33044" lon="-2.46533">
        <ele>22</ele>
        <time>2022-05-08T08:46:18.000Z</time>
      </trkpt>
      <trkpt lat="47.33048" lon="-2.46532">
        <ele>22.39999961853</ele>
        <time>2022-05-08T08:46:19.000Z</time>
      </trkpt>
      <trkpt lat="47.33052" lon="-2.4653">
        <ele>22.799999237061</ele>
        <time>2022-05-08T08:46:20.000Z</time>
      </trkpt>
      <trkpt lat="47.33055" lon="-2.46529">
        <ele>23.200000762939</ele>
        <time>2022-05-08T08:46:21.000Z</time>
      </trkpt>
      <trkpt lat="47.33059" lon="-2.46527">
        <ele>23.799999237061</ele>
        <time>2022-05-08T08:46:22.000Z</time>
      </trkpt>
      <trkpt lat="47.33077" lon="-2.46519">
        <ele>23.799999237061</ele>
        <time>2022-05-08T08:46:27.000Z</time>
      </trkpt>
      <trkpt lat="47.33084" lon="-2.46517">
        <ele>24.200000762939</ele>
        <time>2022-05-08T08:46:29.000Z</time>
      </trkpt>
      <trkpt lat="47.33087" lon="-2.46515">
        <ele>25</ele>
        <time>2022-05-08T08:46:30.000Z</time>
      </trkpt>
      <trkpt lat="47.3309" lon="-2.46513">
        <ele>25.60000038147</ele>
        <time>2022-05-08T08:46:31.000Z</time>
      </trkpt>
      <trkpt lat="47.33092" lon="-2.46512">
        <ele>26</ele>
        <time>2022-05-08T08:46:32.000Z</time>
      </trkpt>
      <trkpt lat="47.33098" lon="-2.46509">
        <ele>26.39999961853</ele>
        <time>2022-05-08T08:46:34.000Z</time>
      </trkpt>
      <trkpt lat="47.33101" lon="-2.46507">
        <ele>26.799999237061</ele>
        <time>2022-05-08T08:46:35.000Z</time>
      </trkpt>
      <trkpt lat="47.33104" lon="-2.46506">
        <ele>27.39999961853</ele>
        <time>2022-05-08T08:46:36.000Z</time>
      </trkpt>
      <trkpt lat="47.33107" lon="-2.46505">
        <ele>27.799999237061</ele>
        <time>2022-05-08T08:46:37.000Z</time>
      </trkpt>
      <trkpt lat="47.33109" lon="-2.46504">
        <ele>28.200000762939</ele>
        <time>2022-05-08T08:46:38.000Z</time>
      </trkpt>
      <trkpt lat="47.33111" lon="-2.46502">
        <ele>28.200000762939</ele>
        <time>2022-05-08T08:46:39.000Z</time>
      </trkpt>
      <trkpt lat="47.33129" lon="-2.46495">
        <ele>28.200000762939</ele>
        <time>2022-05-08T08:46:45.000Z</time>
      </trkpt>
      <trkpt lat="47.33134" lon="-2.46494">
        <ele>28.60000038147</ele>
        <time>2022-05-08T08:46:47.000Z</time>
      </trkpt>
      <trkpt lat="47.33137" lon="-2.46494">
        <ele>29</ele>
        <time>2022-05-08T08:46:48.000Z</time>
      </trkpt>
      <trkpt lat="47.33139" lon="-2.46495">
        <ele>29.39999961853</ele>
        <time>2022-05-08T08:46:49.000Z</time>
      </trkpt>
      <trkpt lat="47.33142" lon="-2.46494">
        <ele>29.799999237061</ele>
        <time>2022-05-08T08:46:50.000Z</time>
      </trkpt>
      <trkpt lat="47.33145" lon="-2.46495">
        <ele>30.39999961853</ele>
        <time>2022-05-08T08:46:51.000Z</time>
      </trkpt>
      <trkpt lat="47.3316" lon="-2.46491">
        <ele>30.39999961853</ele>
        <time>2022-05-08T08:46:56.000Z</time>
      </trkpt>
      <trkpt lat="47.33166" lon="-2.46488">
        <ele>30.799999237061</ele>
        <time>2022-05-08T08:46:58.000Z</time>
      </trkpt>
      <trkpt lat="47.33169" lon="-2.46487">
        <ele>31.200000762939</ele>
        <time>2022-05-08T08:46:59.000Z</time>
      </trkpt>
      <trkpt lat="47.33172" lon="-2.46485">
        <ele>31.60000038147</ele>
        <time>2022-05-08T08:47:00.000Z</time>
      </trkpt>
      <trkpt lat="47.33174" lon="-2.46484">
        <ele>32</ele>
        <time>2022-05-08T08:47:01.000Z</time>
      </trkpt>
      <trkpt lat="47.33177" lon="-2.46483">
        <ele>32.400001525879</ele>
        <time>2022-05-08T08:47:02.000Z</time>
      </trkpt>
      <trkpt lat="47.33188" lon="-2.46477">
        <ele>32.799999237061</ele>
        <time>2022-05-08T08:47:07.000Z</time>
      </trkpt>
      <trkpt lat="47.3319" lon="-2.46476">
        <ele>33.200000762939</ele>
        <time>2022-05-08T08:47:08.000Z</time>
      </trkpt>
      <trkpt lat="47.33193" lon="-2.46475">
        <ele>33.599998474121</ele>
        <time>2022-05-08T08:47:09.000Z</time>
      </trkpt>
      <trkpt lat="47.33195" lon="-2.46475">
        <ele>34</ele>
        <time>2022-05-08T08:47:10.000Z</time>
      </trkpt>
      <trkpt lat="47.33197" lon="-2.46474">
        <ele>34.400001525879</ele>
        <time>2022-05-08T08:47:11.000Z</time>
      </trkpt>
      <trkpt lat="47.33206" lon="-2.46475">
        <ele>34.400001525879</ele>
        <time>2022-05-08T08:47:15.000Z</time>
      </trkpt>
      <trkpt lat="47.33211" lon="-2.46473">
        <ele>34.799999237061</ele>
        <time>2022-05-08T08:47:17.000Z</time>
      </trkpt>
      <trkpt lat="47.33213" lon="-2.46473">
        <ele>35.400001525879</ele>
        <time>2022-05-08T08:47:18.000Z</time>
      </trkpt>
      <trkpt lat="47.33215" lon="-2.46473">
        <ele>35.799999237061</ele>
        <time>2022-05-08T08:47:19.000Z</time>
      </trkpt>
      <trkpt lat="47.33216" lon="-2.46472">
        <ele>36.599998474121</ele>
        <time>2022-05-08T08:47:20.000Z</time>
      </trkpt>
      <trkpt lat="47.3322" lon="-2.46468">
        <ele>37</ele>
        <time>2022-05-08T08:47:22.000Z</time>
      </trkpt>
      <trkpt lat="47.33222" lon="-2.46465">
        <ele>37.400001525879</ele>
        <time>2022-05-08T08:47:23.000Z</time>
      </trkpt>
      <trkpt lat="47.33224" lon="-2.46463">
        <ele>37.799999237061</ele>
        <time>2022-05-08T08:47:24.000Z</time>
      </trkpt>
      <trkpt lat="47.33226" lon="-2.46459">
        <ele>38.200000762939</ele>
        <time>2022-05-08T08:47:25.000Z</time>
      </trkpt>
      <trkpt lat="47.33227" lon="-2.46456">
        <ele>38.599998474121</ele>
        <time>2022-05-08T08:47:26.000Z</time>
      </trkpt>
      <trkpt lat="47.3324" lon="-2.46435">
        <ele>38.599998474121</ele>
        <time>2022-05-08T08:47:33.000Z</time>
      </trkpt>
      <trkpt lat="47.33244" lon="-2.46431">
        <ele>39</ele>
        <time>2022-05-08T08:47:35.000Z</time>
      </trkpt>
      <trkpt lat="47.33246" lon="-2.4643">
        <ele>39.400001525879</ele>
        <time>2022-05-08T08:47:36.000Z</time>
      </trkpt>
      <trkpt lat="47.33248" lon="-2.46429">
        <ele>40</ele>
        <time>2022-05-08T08:47:37.000Z</time>
      </trkpt>
      <trkpt lat="47.3325" lon="-2.46429">
        <ele>40.400001525879</ele>
        <time>2022-05-08T08:47:38.000Z</time>
      </trkpt>
      <trkpt lat="47.33252" lon="-2.46429">
        <ele>40.799999237061</ele>
        <time>2022-05-08T08:47:39.000Z</time>
      </trkpt>
      <trkpt lat="47.33268" lon="-2.46432">
        <ele>40.799999237061</ele>
        <time>2022-05-08T08:47:46.000Z</time>
      </trkpt>
      <trkpt lat="47.33278" lon="-2.46442">
        <ele>40.799999237061</ele>
        <time>2022-05-08T08:47:52.000Z</time>
      </trkpt>
      <trkpt lat="47.33288" lon="-2.46446">
        <ele>40.799999237061</ele>
        <time>2022-05-08T08:47:58.000Z</time>
      </trkpt>
      <trkpt lat="47.33288" lon="-2.46447">
        <ele>40.799999237061</ele>
        <time>2022-05-08T08:48:00.000Z</time>
      </trkpt>
      <trkpt lat="47.33286" lon="-2.46452">
        <ele>42.799999237061</ele>
        <time>2022-05-08T09:01:49.000Z</time>
      </trkpt>
      <trkpt lat="47.33285" lon="-2.46455">
        <ele>42.799999237061</ele>
        <time>2022-05-08T09:01:50.000Z</time>
      </trkpt>
      <trkpt lat="47.33284" lon="-2.46468">
        <ele>42.799999237061</ele>
        <time>2022-05-08T09:01:54.000Z</time>
      </trkpt>
      <trkpt lat="47.33284" lon="-2.46477">
        <ele>42.799999237061</ele>
        <time>2022-05-08T09:01:56.000Z</time>
      </trkpt>
      <trkpt lat="47.33287" lon="-2.46503">
        <ele>42.799999237061</ele>
        <time>2022-05-08T09:02:00.000Z</time>
      </trkpt>
      <trkpt lat="47.3329" lon="-2.46538">
        <ele>42.400001525879</ele>
        <time>2022-05-08T09:02:04.000Z</time>
      </trkpt>
      <trkpt lat="47.33291" lon="-2.46547">
        <ele>42</ele>
        <time>2022-05-08T09:02:05.000Z</time>
      </trkpt>
      <trkpt lat="47.33293" lon="-2.46556">
        <ele>41.599998474121</ele>
        <time>2022-05-08T09:02:06.000Z</time>
      </trkpt>
      <trkpt lat="47.33294" lon="-2.46565">
        <ele>41.200000762939</ele>
        <time>2022-05-08T09:02:07.000Z</time>
      </trkpt>
      <trkpt lat="47.33296" lon="-2.46575">
        <ele>40.599998474121</ele>
        <time>2022-05-08T09:02:08.000Z</time>
      </trkpt>
      <trkpt lat="47.33298" lon="-2.46583">
        <ele>40.599998474121</ele>
        <time>2022-05-08T09:02:09.000Z</time>
      </trkpt>
      <trkpt lat="47.33305" lon="-2.46597">
        <ele>40.599998474121</ele>
        <time>2022-05-08T09:02:11.000Z</time>
      </trkpt>
      <trkpt lat="47.33313" lon="-2.46608">
        <ele>40.599998474121</ele>
        <time>2022-05-08T09:02:13.000Z</time>
      </trkpt>
      <trkpt lat="47.33327" lon="-2.4663">
        <ele>40.599998474121</ele>
        <time>2022-05-08T09:02:17.000Z</time>
      </trkpt>
      <trkpt lat="47.33327" lon="-2.46642">
        <ele>40.200000762939</ele>
        <time>2022-05-08T09:02:19.000Z</time>
      </trkpt>
      <trkpt lat="47.33327" lon="-2.46647">
        <ele>39.799999237061</ele>
        <time>2022-05-08T09:02:20.000Z</time>
      </trkpt>
      <trkpt lat="47.33327" lon="-2.46651">
        <ele>39.400001525879</ele>
        <time>2022-05-08T09:02:21.000Z</time>
      </trkpt>
      <trkpt lat="47.33329" lon="-2.46654">
        <ele>39</ele>
        <time>2022-05-08T09:02:22.000Z</time>
      </trkpt>
      <trkpt lat="47.33331" lon="-2.46656">
        <ele>38.599998474121</ele>
        <time>2022-05-08T09:02:23.000Z</time>
      </trkpt>
      <trkpt lat="47.33336" lon="-2.46656">
        <ele>38.599998474121</ele>
        <time>2022-05-08T09:02:25.000Z</time>
      </trkpt>
      <trkpt lat="47.33341" lon="-2.46655">
        <ele>38.599998474121</ele>
        <time>2022-05-08T09:02:28.000Z</time>
      </trkpt>
      <trkpt lat="47.33359" lon="-2.46648">
        <ele>38.599998474121</ele>
        <time>2022-05-08T09:02:35.000Z</time>
      </trkpt>
      <trkpt lat="47.33373" lon="-2.46641">
        <ele>38.599998474121</ele>
        <time>2022-05-08T09:02:41.000Z</time>
      </trkpt>
      <trkpt lat="47.33376" lon="-2.4664">
        <ele>38.599998474121</ele>
        <time>2022-05-08T09:02:43.000Z</time>
      </trkpt>
      <trkpt lat="47.33378" lon="-2.46641">
        <ele>38.599998474121</ele>
        <time>2022-05-08T09:02:45.000Z</time>
      </trkpt>
      <trkpt lat="47.33378" lon="-2.46641">
        <ele>38.599998474121</ele>
        <time>2022-05-08T09:02:46.000Z</time>
      </trkpt>
      <trkpt lat="47.33381" lon="-2.46641">
        <ele>38.599998474121</ele>
        <time>2022-05-08T09:02:50.000Z</time>
      </trkpt>
      <trkpt lat="47.33383" lon="-2.46637">
        <ele>38.599998474121</ele>
        <time>2022-05-08T09:02:52.000Z</time>
      </trkpt>
      <trkpt lat="47.33388" lon="-2.46626">
        <ele>38.599998474121</ele>
        <time>2022-05-08T09:02:56.000Z</time>
      </trkpt>
      <trkpt lat="47.33392" lon="-2.4662">
        <ele>39.599998474121</ele>
        <time>2022-05-08T09:02:58.000Z</time>
      </trkpt>
      <trkpt lat="47.33394" lon="-2.46617">
        <ele>40</ele>
        <time>2022-05-08T09:02:59.000Z</time>
      </trkpt>
      <trkpt lat="47.33396" lon="-2.46615">
        <ele>40.400001525879</ele>
        <time>2022-05-08T09:03:00.000Z</time>
      </trkpt>
      <trkpt lat="47.33397" lon="-2.46612">
        <ele>40.799999237061</ele>
        <time>2022-05-08T09:03:01.000Z</time>
      </trkpt>
      <trkpt lat="47.33402" lon="-2.46606">
        <ele>40.799999237061</ele>
        <time>2022-05-08T09:03:04.000Z</time>
      </trkpt>
      <trkpt lat="47.33414" lon="-2.46595">
        <ele>41.400001525879</ele>
        <time>2022-05-08T09:03:10.000Z</time>
      </trkpt>
      <trkpt lat="47.33416" lon="-2.46594">
        <ele>41.799999237061</ele>
        <time>2022-05-08T09:03:11.000Z</time>
      </trkpt>
      <trkpt lat="47.33418" lon="-2.46592">
        <ele>42.200000762939</ele>
        <time>2022-05-08T09:03:12.000Z</time>
      </trkpt>
      <trkpt lat="47.3342" lon="-2.46591">
        <ele>42.599998474121</ele>
        <time>2022-05-08T09:03:13.000Z</time>
      </trkpt>
      <trkpt lat="47.33423" lon="-2.46589">
        <ele>43.200000762939</ele>
        <time>2022-05-08T09:03:14.000Z</time>
      </trkpt>
      <trkpt lat="47.33436" lon="-2.4658">
        <ele>43.200000762939</ele>
        <time>2022-05-08T09:03:19.000Z</time>
      </trkpt>
      <trkpt lat="47.33441" lon="-2.46577">
        <ele>43.599998474121</ele>
        <time>2022-05-08T09:03:21.000Z</time>
      </trkpt>
      <trkpt lat="47.33444" lon="-2.46575">
        <ele>44</ele>
        <time>2022-05-08T09:03:22.000Z</time>
      </trkpt>
      <trkpt lat="47.33446" lon="-2.46573">
        <ele>44.799999237061</ele>
        <time>2022-05-08T09:03:23.000Z</time>
      </trkpt>
      <trkpt lat="47.33449" lon="-2.4657">
        <ele>45.200000762939</ele>
        <time>2022-05-08T09:03:24.000Z</time>
      </trkpt>
      <trkpt lat="47.33453" lon="-2.46566">
        <ele>45.200000762939</ele>
        <time>2022-05-08T09:03:26.000Z</time>
      </trkpt>
      <trkpt lat="47.3346" lon="-2.46554">
        <ele>45.599998474121</ele>
        <time>2022-05-08T09:03:31.000Z</time>
      </trkpt>
      <trkpt lat="47.33463" lon="-2.46551">
        <ele>46</ele>
        <time>2022-05-08T09:03:32.000Z</time>
      </trkpt>
      <trkpt lat="47.33465" lon="-2.46549">
        <ele>46.400001525879</ele>
        <time>2022-05-08T09:03:33.000Z</time>
      </trkpt>
      <trkpt lat="47.33467" lon="-2.46546">
        <ele>46.799999237061</ele>
        <time>2022-05-08T09:03:34.000Z</time>
      </trkpt>
      <trkpt lat="47.33468" lon="-2.46544">
        <ele>47.400001525879</ele>
        <time>2022-05-08T09:03:35.000Z</time>
      </trkpt>
      <trkpt lat="47.33479" lon="-2.46529">
        <ele>47.400001525879</ele>
        <time>2022-05-08T09:03:40.000Z</time>
      </trkpt>
      <trkpt lat="47.33494" lon="-2.46513">
        <ele>47.799999237061</ele>
        <time>2022-05-08T09:03:46.000Z</time>
      </trkpt>
      <trkpt lat="47.33497" lon="-2.4651">
        <ele>48.599998474121</ele>
        <time>2022-05-08T09:03:47.000Z</time>
      </trkpt>
      <trkpt lat="47.335" lon="-2.46507">
        <ele>49</ele>
        <time>2022-05-08T09:03:48.000Z</time>
      </trkpt>
      <trkpt lat="47.33503" lon="-2.46504">
        <ele>49.400001525879</ele>
        <time>2022-05-08T09:03:49.000Z</time>
      </trkpt>
      <trkpt lat="47.33512" lon="-2.46493">
        <ele>49.400001525879</ele>
        <time>2022-05-08T09:03:53.000Z</time>
      </trkpt>
      <trkpt lat="47.33517" lon="-2.4649">
        <ele>49.799999237061</ele>
        <time>2022-05-08T09:03:55.000Z</time>
      </trkpt>
      <trkpt lat="47.33519" lon="-2.46489">
        <ele>50.200000762939</ele>
        <time>2022-05-08T09:03:56.000Z</time>
      </trkpt>
      <trkpt lat="47.33521" lon="-2.46489">
        <ele>50.599998474121</ele>
        <time>2022-05-08T09:03:57.000Z</time>
      </trkpt>
      <trkpt lat="47.33523" lon="-2.46488">
        <ele>51</ele>
        <time>2022-05-08T09:03:58.000Z</time>
      </trkpt>
      <trkpt lat="47.33526" lon="-2.46489">
        <ele>51.599998474121</ele>
        <time>2022-05-08T09:03:59.000Z</time>
      </trkpt>
      <trkpt lat="47.33529" lon="-2.4649">
        <ele>51.599998474121</ele>
        <time>2022-05-08T09:04:00.000Z</time>
      </trkpt>
      <trkpt lat="47.33534" lon="-2.46492">
        <ele>51.599998474121</ele>
        <time>2022-05-08T09:04:02.000Z</time>
      </trkpt>
      <trkpt lat="47.3354" lon="-2.46509">
        <ele>51.599998474121</ele>
        <time>2022-05-08T09:04:05.000Z</time>
      </trkpt>
      <trkpt lat="47.33546" lon="-2.46548">
        <ele>51.599998474121</ele>
        <time>2022-05-08T09:04:10.000Z</time>
      </trkpt>
      <trkpt lat="47.33553" lon="-2.46576">
        <ele>51.200000762939</ele>
        <time>2022-05-08T09:04:14.000Z</time>
      </trkpt>
      <trkpt lat="47.33556" lon="-2.46581">
        <ele>50.799999237061</ele>
        <time>2022-05-08T09:04:15.000Z</time>
      </trkpt>
      <trkpt lat="47.33559" lon="-2.46585">
        <ele>50.200000762939</ele>
        <time>2022-05-08T09:04:16.000Z</time>
      </trkpt>
      <trkpt lat="47.33562" lon="-2.46588">
        <ele>49.799999237061</ele>
        <time>2022-05-08T09:04:17.000Z</time>
      </trkpt>
      <trkpt lat="47.33566" lon="-2.4659">
        <ele>49.400001525879</ele>
        <time>2022-05-08T09:04:18.000Z</time>
      </trkpt>
      <trkpt lat="47.33571" lon="-2.46597">
        <ele>49.400001525879</ele>
        <time>2022-05-08T09:04:20.000Z</time>
      </trkpt>
      <trkpt lat="47.33575" lon="-2.46608">
        <ele>49.400001525879</ele>
        <time>2022-05-08T09:04:22.000Z</time>
      </trkpt>
      <trkpt lat="47.33581" lon="-2.46626">
        <ele>49.400001525879</ele>
        <time>2022-05-08T09:04:26.000Z</time>
      </trkpt>
      <trkpt lat="47.33597" lon="-2.46672">
        <ele>49.400001525879</ele>
        <time>2022-05-08T09:04:33.000Z</time>
      </trkpt>
      <trkpt lat="47.33615" lon="-2.46723">
        <ele>49.400001525879</ele>
        <time>2022-05-08T09:04:41.000Z</time>
      </trkpt>
      <trkpt lat="47.33622" lon="-2.46743">
        <ele>49.400001525879</ele>
        <time>2022-05-08T09:04:46.000Z</time>
      </trkpt>
      <trkpt lat="47.33623" lon="-2.46744">
        <ele>49.400001525879</ele>
        <time>2022-05-08T09:04:48.000Z</time>
      </trkpt>
      <trkpt lat="47.33621" lon="-2.46746">
        <ele>49.400001525879</ele>
        <time>2022-05-08T09:05:32.000Z</time>
      </trkpt>
      <trkpt lat="47.3362" lon="-2.46748">
        <ele>49.400001525879</ele>
        <time>2022-05-08T09:05:33.000Z</time>
      </trkpt>
      <trkpt lat="47.33607" lon="-2.4676">
        <ele>49.400001525879</ele>
        <time>2022-05-08T09:05:38.000Z</time>
      </trkpt>
      <trkpt lat="47.33604" lon="-2.46764">
        <ele>49.400001525879</ele>
        <time>2022-05-08T09:05:39.000Z</time>
      </trkpt>
      <trkpt lat="47.33586" lon="-2.46783">
        <ele>49</ele>
        <time>2022-05-08T09:05:43.000Z</time>
      </trkpt>
      <trkpt lat="47.33582" lon="-2.46788">
        <ele>48.599998474121</ele>
        <time>2022-05-08T09:05:44.000Z</time>
      </trkpt>
      <trkpt lat="47.33578" lon="-2.46793">
        <ele>48</ele>
        <time>2022-05-08T09:05:45.000Z</time>
      </trkpt>
      <trkpt lat="47.33574" lon="-2.46798">
        <ele>47.599998474121</ele>
        <time>2022-05-08T09:05:46.000Z</time>
      </trkpt>
      <trkpt lat="47.33569" lon="-2.46804">
        <ele>47</ele>
        <time>2022-05-08T09:05:47.000Z</time>
      </trkpt>
      <trkpt lat="47.33564" lon="-2.46809">
        <ele>46.599998474121</ele>
        <time>2022-05-08T09:05:48.000Z</time>
      </trkpt>
      <trkpt lat="47.33559" lon="-2.46815">
        <ele>46.200000762939</ele>
        <time>2022-05-08T09:05:49.000Z</time>
      </trkpt>
      <trkpt lat="47.33553" lon="-2.4682">
        <ele>45.599998474121</ele>
        <time>2022-05-08T09:05:50.000Z</time>
      </trkpt>
      <trkpt lat="47.33547" lon="-2.46825">
        <ele>45</ele>
        <time>2022-05-08T09:05:51.000Z</time>
      </trkpt>
      <trkpt lat="47.33542" lon="-2.46831">
        <ele>43.799999237061</ele>
        <time>2022-05-08T09:05:52.000Z</time>
      </trkpt>
      <trkpt lat="47.33537" lon="-2.46836">
        <ele>43.200000762939</ele>
        <time>2022-05-08T09:05:53.000Z</time>
      </trkpt>
      <trkpt lat="47.33535" lon="-2.46841">
        <ele>42.599998474121</ele>
        <time>2022-05-08T09:05:54.000Z</time>
      </trkpt>
      <trkpt lat="47.33533" lon="-2.46848">
        <ele>42.599998474121</ele>
        <time>2022-05-08T09:05:55.000Z</time>
      </trkpt>
      <trkpt lat="47.33534" lon="-2.46862">
        <ele>42.200000762939</ele>
        <time>2022-05-08T09:05:57.000Z</time>
      </trkpt>
      <trkpt lat="47.33534" lon="-2.46869">
        <ele>41.799999237061</ele>
        <time>2022-05-08T09:05:58.000Z</time>
      </trkpt>
      <trkpt lat="47.33534" lon="-2.46875">
        <ele>41.400001525879</ele>
        <time>2022-05-08T09:05:59.000Z</time>
      </trkpt>
      <trkpt lat="47.33531" lon="-2.4688">
        <ele>40.799999237061</ele>
        <time>2022-05-08T09:06:00.000Z</time>
      </trkpt>
      <trkpt lat="47.33528" lon="-2.46885">
        <ele>40.400001525879</ele>
        <time>2022-05-08T09:06:01.000Z</time>
      </trkpt>
      <trkpt lat="47.33524" lon="-2.4689">
        <ele>40</ele>
        <time>2022-05-08T09:06:02.000Z</time>
      </trkpt>
      <trkpt lat="47.3352" lon="-2.46894">
        <ele>39.400001525879</ele>
        <time>2022-05-08T09:06:03.000Z</time>
      </trkpt>
      <trkpt lat="47.33516" lon="-2.46898">
        <ele>39</ele>
        <time>2022-05-08T09:06:04.000Z</time>
      </trkpt>
      <trkpt lat="47.33512" lon="-2.46903">
        <ele>38.400001525879</ele>
        <time>2022-05-08T09:06:05.000Z</time>
      </trkpt>
      <trkpt lat="47.33507" lon="-2.46907">
        <ele>38.400001525879</ele>
        <time>2022-05-08T09:06:06.000Z</time>
      </trkpt>
      <trkpt lat="47.33494" lon="-2.46919">
        <ele>38.400001525879</ele>
        <time>2022-05-08T09:06:09.000Z</time>
      </trkpt>
      <trkpt lat="47.3349" lon="-2.46922">
        <ele>38</ele>
        <time>2022-05-08T09:06:10.000Z</time>
      </trkpt>
      <trkpt lat="47.33485" lon="-2.46926">
        <ele>37.599998474121</ele>
        <time>2022-05-08T09:06:11.000Z</time>
      </trkpt>
      <trkpt lat="47.33483" lon="-2.46928">
        <ele>37.200000762939</ele>
        <time>2022-05-08T09:06:12.000Z</time>
      </trkpt>
      <trkpt lat="47.33483" lon="-2.46928">
        <ele>36.599998474121</ele>
        <time>2022-05-08T09:06:13.000Z</time>
      </trkpt>
      <trkpt lat="47.33483" lon="-2.46928">
        <ele>36.200000762939</ele>
        <time>2022-05-08T09:06:14.000Z</time>
      </trkpt>
      <trkpt lat="47.33476" lon="-2.46932">
        <ele>36.200000762939</ele>
        <time>2022-05-08T09:06:56.000Z</time>
      </trkpt>
      <trkpt lat="47.33472" lon="-2.46938">
        <ele>35.799999237061</ele>
        <time>2022-05-08T09:06:59.000Z</time>
      </trkpt>
      <trkpt lat="47.3347" lon="-2.46941">
        <ele>35.400001525879</ele>
        <time>2022-05-08T09:07:00.000Z</time>
      </trkpt>
      <trkpt lat="47.33468" lon="-2.46943">
        <ele>35</ele>
        <time>2022-05-08T09:07:01.000Z</time>
      </trkpt>
      <trkpt lat="47.33466" lon="-2.46946">
        <ele>34.599998474121</ele>
        <time>2022-05-08T09:07:02.000Z</time>
      </trkpt>
      <trkpt lat="47.33463" lon="-2.4695">
        <ele>34.200000762939</ele>
        <time>2022-05-08T09:07:03.000Z</time>
      </trkpt>
      <trkpt lat="47.3345" lon="-2.46972">
        <ele>34.200000762939</ele>
        <time>2022-05-08T09:07:08.000Z</time>
      </trkpt>
      <trkpt lat="47.33428" lon="-2.47006">
        <ele>34.200000762939</ele>
        <time>2022-05-08T09:07:15.000Z</time>
      </trkpt>
      <trkpt lat="47.33406" lon="-2.47048">
        <ele>34.200000762939</ele>
        <time>2022-05-08T09:07:22.000Z</time>
      </trkpt>
      <trkpt lat="47.33397" lon="-2.47076">
        <ele>33.799999237061</ele>
        <time>2022-05-08T09:07:26.000Z</time>
      </trkpt>
      <trkpt lat="47.33395" lon="-2.47084">
        <ele>33.400001525879</ele>
        <time>2022-05-08T09:07:27.000Z</time>
      </trkpt>
      <trkpt lat="47.33393" lon="-2.47092">
        <ele>33</ele>
        <time>2022-05-08T09:07:28.000Z</time>
      </trkpt>
      <trkpt lat="47.33392" lon="-2.47099">
        <ele>32.400001525879</ele>
        <time>2022-05-08T09:07:29.000Z</time>
      </trkpt>
      <trkpt lat="47.33391" lon="-2.47107">
        <ele>32</ele>
        <time>2022-05-08T09:07:30.000Z</time>
      </trkpt>
      <trkpt lat="47.33386" lon="-2.47129">
        <ele>32</ele>
        <time>2022-05-08T09:07:33.000Z</time>
      </trkpt>
      <trkpt lat="47.33381" lon="-2.47142">
        <ele>32</ele>
        <time>2022-05-08T09:07:35.000Z</time>
      </trkpt>
      <trkpt lat="47.33373" lon="-2.47153">
        <ele>32</ele>
        <time>2022-05-08T09:07:38.000Z</time>
      </trkpt>
      <trkpt lat="47.33371" lon="-2.47158">
        <ele>32</ele>
        <time>2022-05-08T09:07:39.000Z</time>
      </trkpt>
      <trkpt lat="47.3337" lon="-2.47167">
        <ele>32</ele>
        <time>2022-05-08T09:07:41.000Z</time>
      </trkpt>
      <trkpt lat="47.3337" lon="-2.4717">
        <ele>32</ele>
        <time>2022-05-08T09:07:42.000Z</time>
      </trkpt>
      <trkpt lat="47.33375" lon="-2.47197">
        <ele>32</ele>
        <time>2022-05-08T09:07:49.000Z</time>
      </trkpt>
      <trkpt lat="47.33379" lon="-2.47232">
        <ele>32</ele>
        <time>2022-05-08T09:07:56.000Z</time>
      </trkpt>
      <trkpt lat="47.33384" lon="-2.47271">
        <ele>32</ele>
        <time>2022-05-08T09:08:03.000Z</time>
      </trkpt>
      <trkpt lat="47.33388" lon="-2.47317">
        <ele>32</ele>
        <time>2022-05-08T09:08:11.000Z</time>
      </trkpt>
      <trkpt lat="47.33393" lon="-2.47345">
        <ele>32</ele>
        <time>2022-05-08T09:08:16.000Z</time>
      </trkpt>
      <trkpt lat="47.33403" lon="-2.47385">
        <ele>32</ele>
        <time>2022-05-08T09:08:22.000Z</time>
      </trkpt>
      <trkpt lat="47.33406" lon="-2.47399">
        <ele>32</ele>
        <time>2022-05-08T09:08:24.000Z</time>
      </trkpt>
      <trkpt lat="47.33411" lon="-2.47421">
        <ele>32</ele>
        <time>2022-05-08T09:08:27.000Z</time>
      </trkpt>
      <trkpt lat="47.3342" lon="-2.47465">
        <ele>32</ele>
        <time>2022-05-08T09:08:33.000Z</time>
      </trkpt>
      <trkpt lat="47.33438" lon="-2.47513">
        <ele>32</ele>
        <time>2022-05-08T09:08:40.000Z</time>
      </trkpt>
      <trkpt lat="47.33458" lon="-2.47557">
        <ele>32</ele>
        <time>2022-05-08T09:08:46.000Z</time>
      </trkpt>
      <trkpt lat="47.33462" lon="-2.47564">
        <ele>32</ele>
        <time>2022-05-08T09:08:47.000Z</time>
      </trkpt>
      <trkpt lat="47.33469" lon="-2.47579">
        <ele>32</ele>
        <time>2022-05-08T09:08:49.000Z</time>
      </trkpt>
      <trkpt lat="47.33476" lon="-2.47592">
        <ele>32</ele>
        <time>2022-05-08T09:08:51.000Z</time>
      </trkpt>
      <trkpt lat="47.33477" lon="-2.47597">
        <ele>31.60000038147</ele>
        <time>2022-05-08T09:08:52.000Z</time>
      </trkpt>
      <trkpt lat="47.33476" lon="-2.47602">
        <ele>31.200000762939</ele>
        <time>2022-05-08T09:08:53.000Z</time>
      </trkpt>
      <trkpt lat="47.33473" lon="-2.47607">
        <ele>30.799999237061</ele>
        <time>2022-05-08T09:08:54.000Z</time>
      </trkpt>
      <trkpt lat="47.3347" lon="-2.4761">
        <ele>30.39999961853</ele>
        <time>2022-05-08T09:08:55.000Z</time>
      </trkpt>
      <trkpt lat="47.33467" lon="-2.47612">
        <ele>29.799999237061</ele>
        <time>2022-05-08T09:08:56.000Z</time>
      </trkpt>
      <trkpt lat="47.33464" lon="-2.47614">
        <ele>29.799999237061</ele>
        <time>2022-05-08T09:08:57.000Z</time>
      </trkpt>
      <trkpt lat="47.33461" lon="-2.47615">
        <ele>29.39999961853</ele>
        <time>2022-05-08T09:08:59.000Z</time>
      </trkpt>
      <trkpt lat="47.33459" lon="-2.47616">
        <ele>29</ele>
        <time>2022-05-08T09:09:00.000Z</time>
      </trkpt>
      <trkpt lat="47.33458" lon="-2.47616">
        <ele>28.60000038147</ele>
        <time>2022-05-08T09:09:01.000Z</time>
      </trkpt>
      <trkpt lat="47.33456" lon="-2.47617">
        <ele>28.200000762939</ele>
        <time>2022-05-08T09:09:02.000Z</time>
      </trkpt>
      <trkpt lat="47.33454" lon="-2.47618">
        <ele>27.799999237061</ele>
        <time>2022-05-08T09:09:03.000Z</time>
      </trkpt>
      <trkpt lat="47.33443" lon="-2.47625">
        <ele>27.799999237061</ele>
        <time>2022-05-08T09:09:08.000Z</time>
      </trkpt>
      <trkpt lat="47.33439" lon="-2.47628">
        <ele>27.39999961853</ele>
        <time>2022-05-08T09:09:10.000Z</time>
      </trkpt>
      <trkpt lat="47.33436" lon="-2.4763">
        <ele>27</ele>
        <time>2022-05-08T09:09:11.000Z</time>
      </trkpt>
      <trkpt lat="47.33432" lon="-2.47632">
        <ele>26.60000038147</ele>
        <time>2022-05-08T09:09:12.000Z</time>
      </trkpt>
      <trkpt lat="47.33429" lon="-2.47633">
        <ele>26</ele>
        <time>2022-05-08T09:09:13.000Z</time>
      </trkpt>
      <trkpt lat="47.33426" lon="-2.47633">
        <ele>25.39999961853</ele>
        <time>2022-05-08T09:09:14.000Z</time>
      </trkpt>
      <trkpt lat="47.33424" lon="-2.47633">
        <ele>24.799999237061</ele>
        <time>2022-05-08T09:09:15.000Z</time>
      </trkpt>
      <trkpt lat="47.33422" lon="-2.47634">
        <ele>24</ele>
        <time>2022-05-08T09:09:16.000Z</time>
      </trkpt>
      <trkpt lat="47.33421" lon="-2.47634">
        <ele>23.39999961853</ele>
        <time>2022-05-08T09:09:17.000Z</time>
      </trkpt>
      <trkpt lat="47.33421" lon="-2.47633">
        <ele>22.799999237061</ele>
        <time>2022-05-08T09:09:18.000Z</time>
      </trkpt>
      <trkpt lat="47.33421" lon="-2.47633">
        <ele>22</ele>
        <time>2022-05-08T09:09:19.000Z</time>
      </trkpt>
      <trkpt lat="47.33407" lon="-2.47649">
        <ele>21.39999961853</ele>
        <time>2022-05-08T09:10:36.000Z</time>
      </trkpt>
      <trkpt lat="47.33406" lon="-2.47651">
        <ele>21.39999961853</ele>
        <time>2022-05-08T09:10:37.000Z</time>
      </trkpt>
      <trkpt lat="47.33396" lon="-2.47663">
        <ele>21.39999961853</ele>
        <time>2022-05-08T09:10:41.000Z</time>
      </trkpt>
      <trkpt lat="47.3339" lon="-2.47668">
        <ele>21</ele>
        <time>2022-05-08T09:10:43.000Z</time>
      </trkpt>
      <trkpt lat="47.33387" lon="-2.47672">
        <ele>20.60000038147</ele>
        <time>2022-05-08T09:10:44.000Z</time>
      </trkpt>
      <trkpt lat="47.33383" lon="-2.47676">
        <ele>20.200000762939</ele>
        <time>2022-05-08T09:10:45.000Z</time>
      </trkpt>
      <trkpt lat="47.33379" lon="-2.47681">
        <ele>19.60000038147</ele>
        <time>2022-05-08T09:10:46.000Z</time>
      </trkpt>
      <trkpt lat="47.33375" lon="-2.47685">
        <ele>19.200000762939</ele>
        <time>2022-05-08T09:10:47.000Z</time>
      </trkpt>
      <trkpt lat="47.33348" lon="-2.47707">
        <ele>19.200000762939</ele>
        <time>2022-05-08T09:10:53.000Z</time>
      </trkpt>
      <trkpt lat="47.33338" lon="-2.47715">
        <ele>18.799999237061</ele>
        <time>2022-05-08T09:10:55.000Z</time>
      </trkpt>
      <trkpt lat="47.33333" lon="-2.4772">
        <ele>18.39999961853</ele>
        <time>2022-05-08T09:10:56.000Z</time>
      </trkpt>
      <trkpt lat="47.33327" lon="-2.47724">
        <ele>18</ele>
        <time>2022-05-08T09:10:57.000Z</time>
      </trkpt>
      <trkpt lat="47.33322" lon="-2.47728">
        <ele>17.60000038147</ele>
        <time>2022-05-08T09:10:58.000Z</time>
      </trkpt>
      <trkpt lat="47.33317" lon="-2.47733">
        <ele>17.200000762939</ele>
        <time>2022-05-08T09:10:59.000Z</time>
      </trkpt>
      <trkpt lat="47.33311" lon="-2.47736">
        <ele>17.200000762939</ele>
        <time>2022-05-08T09:11:00.000Z</time>
      </trkpt>
      <trkpt lat="47.33269" lon="-2.47765">
        <ele>17.200000762939</ele>
        <time>2022-05-08T09:11:08.000Z</time>
      </trkpt>
      <trkpt lat="47.33265" lon="-2.47771">
        <ele>17.200000762939</ele>
        <time>2022-05-08T09:11:09.000Z</time>
      </trkpt>
      <trkpt lat="47.33261" lon="-2.47776">
        <ele>16.799999237061</ele>
        <time>2022-05-08T09:11:10.000Z</time>
      </trkpt>
      <trkpt lat="47.33257" lon="-2.47781">
        <ele>16.39999961853</ele>
        <time>2022-05-08T09:11:11.000Z</time>
      </trkpt>
      <trkpt lat="47.33252" lon="-2.47786">
        <ele>16</ele>
        <time>2022-05-08T09:11:12.000Z</time>
      </trkpt>
      <trkpt lat="47.33248" lon="-2.47791">
        <ele>15.60000038147</ele>
        <time>2022-05-08T09:11:13.000Z</time>
      </trkpt>
      <trkpt lat="47.33243" lon="-2.47796">
        <ele>15.199999809265</ele>
        <time>2022-05-08T09:11:14.000Z</time>
      </trkpt>
      <trkpt lat="47.33213" lon="-2.4783">
        <ele>15.199999809265</ele>
        <time>2022-05-08T09:11:20.000Z</time>
      </trkpt>
      <trkpt lat="47.33182" lon="-2.47871">
        <ele>15.199999809265</ele>
        <time>2022-05-08T09:11:27.000Z</time>
      </trkpt>
      <trkpt lat="47.33178" lon="-2.47878">
        <ele>15.199999809265</ele>
        <time>2022-05-08T09:11:28.000Z</time>
      </trkpt>
      <trkpt lat="47.33164" lon="-2.47903">
        <ele>15.199999809265</ele>
        <time>2022-05-08T09:11:32.000Z</time>
      </trkpt>
      <trkpt lat="47.33149" lon="-2.47923">
        <ele>15.199999809265</ele>
        <time>2022-05-08T09:11:37.000Z</time>
      </trkpt>
      <trkpt lat="47.33143" lon="-2.47915">
        <ele>15.199999809265</ele>
        <time>2022-05-08T09:11:40.000Z</time>
      </trkpt>
      <trkpt lat="47.3314" lon="-2.47904">
        <ele>15.199999809265</ele>
        <time>2022-05-08T09:11:42.000Z</time>
      </trkpt>
      <trkpt lat="47.33135" lon="-2.47885">
        <ele>15.199999809265</ele>
        <time>2022-05-08T09:11:45.000Z</time>
      </trkpt>
      <trkpt lat="47.33133" lon="-2.47878">
        <ele>15.199999809265</ele>
        <time>2022-05-08T09:11:46.000Z</time>
      </trkpt>
      <trkpt lat="47.33121" lon="-2.47849">
        <ele>15.199999809265</ele>
        <time>2022-05-08T09:11:50.000Z</time>
      </trkpt>
      <trkpt lat="47.33118" lon="-2.47843">
        <ele>15.199999809265</ele>
        <time>2022-05-08T09:11:51.000Z</time>
      </trkpt>
      <trkpt lat="47.33105" lon="-2.47826">
        <ele>15.199999809265</ele>
        <time>2022-05-08T09:11:54.000Z</time>
      </trkpt>
      <trkpt lat="47.33089" lon="-2.47815">
        <ele>15.199999809265</ele>
        <time>2022-05-08T09:11:57.000Z</time>
      </trkpt>
      <trkpt lat="47.33078" lon="-2.47809">
        <ele>15.199999809265</ele>
        <time>2022-05-08T09:11:59.000Z</time>
      </trkpt>
      <trkpt lat="47.33037" lon="-2.47797">
        <ele>15.199999809265</ele>
        <time>2022-05-08T09:12:06.000Z</time>
      </trkpt>
      <trkpt lat="47.33004" lon="-2.47781">
        <ele>15.199999809265</ele>
        <time>2022-05-08T09:12:12.000Z</time>
      </trkpt>
      <trkpt lat="47.3297" lon="-2.47751">
        <ele>15.199999809265</ele>
        <time>2022-05-08T09:12:19.000Z</time>
      </trkpt>
      <trkpt lat="47.32942" lon="-2.47713">
        <ele>15.199999809265</ele>
        <time>2022-05-08T09:12:26.000Z</time>
      </trkpt>
      <trkpt lat="47.32939" lon="-2.47706">
        <ele>15.199999809265</ele>
        <time>2022-05-08T09:12:27.000Z</time>
      </trkpt>
      <trkpt lat="47.32933" lon="-2.47682">
        <ele>15.199999809265</ele>
        <time>2022-05-08T09:12:30.000Z</time>
      </trkpt>
      <trkpt lat="47.32931" lon="-2.47673">
        <ele>15.199999809265</ele>
        <time>2022-05-08T09:12:31.000Z</time>
      </trkpt>
      <trkpt lat="47.32923" lon="-2.47625">
        <ele>15.199999809265</ele>
        <time>2022-05-08T09:12:37.000Z</time>
      </trkpt>
      <trkpt lat="47.32916" lon="-2.47585">
        <ele>15.199999809265</ele>
        <time>2022-05-08T09:12:42.000Z</time>
      </trkpt>
      <trkpt lat="47.32916" lon="-2.47568">
        <ele>15.199999809265</ele>
        <time>2022-05-08T09:12:44.000Z</time>
      </trkpt>
      <trkpt lat="47.32917" lon="-2.47553">
        <ele>15.199999809265</ele>
        <time>2022-05-08T09:12:46.000Z</time>
      </trkpt>
      <trkpt lat="47.32919" lon="-2.47522">
        <ele>15.199999809265</ele>
        <time>2022-05-08T09:12:50.000Z</time>
      </trkpt>
      <trkpt lat="47.32915" lon="-2.47491">
        <ele>15.199999809265</ele>
        <time>2022-05-08T09:12:54.000Z</time>
      </trkpt>
      <trkpt lat="47.32912" lon="-2.47474">
        <ele>15.199999809265</ele>
        <time>2022-05-08T09:12:56.000Z</time>
      </trkpt>
      <trkpt lat="47.32901" lon="-2.47425">
        <ele>15.199999809265</ele>
        <time>2022-05-08T09:13:02.000Z</time>
      </trkpt>
      <trkpt lat="47.32891" lon="-2.47369">
        <ele>15.199999809265</ele>
        <time>2022-05-08T09:13:09.000Z</time>
      </trkpt>
      <trkpt lat="47.32885" lon="-2.47323">
        <ele>15.199999809265</ele>
        <time>2022-05-08T09:13:15.000Z</time>
      </trkpt>
      <trkpt lat="47.32881" lon="-2.47286">
        <ele>15.199999809265</ele>
        <time>2022-05-08T09:13:20.000Z</time>
      </trkpt>
      <trkpt lat="47.32879" lon="-2.47279">
        <ele>15.199999809265</ele>
        <time>2022-05-08T09:13:21.000Z</time>
      </trkpt>
      <trkpt lat="47.3287" lon="-2.47231">
        <ele>15.199999809265</ele>
        <time>2022-05-08T09:13:27.000Z</time>
      </trkpt>
      <trkpt lat="47.32861" lon="-2.47176">
        <ele>15.199999809265</ele>
        <time>2022-05-08T09:13:34.000Z</time>
      </trkpt>
      <trkpt lat="47.3285" lon="-2.47111">
        <ele>15.199999809265</ele>
        <time>2022-05-08T09:13:42.000Z</time>
      </trkpt>
      <trkpt lat="47.32837" lon="-2.47048">
        <ele>15.199999809265</ele>
        <time>2022-05-08T09:13:50.000Z</time>
      </trkpt>
      <trkpt lat="47.32819" lon="-2.46999">
        <ele>15.199999809265</ele>
        <time>2022-05-08T09:13:57.000Z</time>
      </trkpt>
      <trkpt lat="47.32801" lon="-2.46955">
        <ele>15.199999809265</ele>
        <time>2022-05-08T09:14:03.000Z</time>
      </trkpt>
      <trkpt lat="47.32783" lon="-2.46903">
        <ele>15.199999809265</ele>
        <time>2022-05-08T09:14:10.000Z</time>
      </trkpt>
      <trkpt lat="47.32781" lon="-2.46894">
        <ele>15.199999809265</ele>
        <time>2022-05-08T09:14:11.000Z</time>
      </trkpt>
      <trkpt lat="47.32768" lon="-2.4683">
        <ele>15.199999809265</ele>
        <time>2022-05-08T09:14:19.000Z</time>
      </trkpt>
      <trkpt lat="47.3275" lon="-2.46793">
        <ele>15.199999809265</ele>
        <time>2022-05-08T09:14:25.000Z</time>
      </trkpt>
      <trkpt lat="47.32727" lon="-2.46747">
        <ele>15.199999809265</ele>
        <time>2022-05-08T09:14:32.000Z</time>
      </trkpt>
      <trkpt lat="47.32703" lon="-2.46716">
        <ele>15.199999809265</ele>
        <time>2022-05-08T09:14:38.000Z</time>
      </trkpt>
      <trkpt lat="47.32676" lon="-2.46691">
        <ele>15.199999809265</ele>
        <time>2022-05-08T09:14:45.000Z</time>
      </trkpt>
      <trkpt lat="47.3264" lon="-2.46665">
        <ele>15.199999809265</ele>
        <time>2022-05-08T09:14:52.000Z</time>
      </trkpt>
      <trkpt lat="47.32621" lon="-2.46646">
        <ele>15.199999809265</ele>
        <time>2022-05-08T09:14:56.000Z</time>
      </trkpt>
      <trkpt lat="47.32612" lon="-2.46636">
        <ele>15.199999809265</ele>
        <time>2022-05-08T09:14:58.000Z</time>
      </trkpt>
      <trkpt lat="47.32593" lon="-2.46604">
        <ele>15.199999809265</ele>
        <time>2022-05-08T09:15:03.000Z</time>
      </trkpt>
      <trkpt lat="47.32564" lon="-2.46559">
        <ele>15.199999809265</ele>
        <time>2022-05-08T09:15:11.000Z</time>
      </trkpt>
      <trkpt lat="47.32532" lon="-2.46514">
        <ele>15.199999809265</ele>
        <time>2022-05-08T09:15:19.000Z</time>
      </trkpt>
      <trkpt lat="47.32514" lon="-2.4647">
        <ele>15.199999809265</ele>
        <time>2022-05-08T09:15:26.000Z</time>
      </trkpt>
      <trkpt lat="47.32495" lon="-2.46431">
        <ele>15.199999809265</ele>
        <time>2022-05-08T09:15:32.000Z</time>
      </trkpt>
      <trkpt lat="47.32462" lon="-2.46382">
        <ele>15.199999809265</ele>
        <time>2022-05-08T09:15:40.000Z</time>
      </trkpt>
      <trkpt lat="47.32438" lon="-2.46337">
        <ele>15.199999809265</ele>
        <time>2022-05-08T09:15:47.000Z</time>
      </trkpt>
      <trkpt lat="47.32426" lon="-2.46301">
        <ele>15.199999809265</ele>
        <time>2022-05-08T09:15:52.000Z</time>
      </trkpt>
      <trkpt lat="47.32421" lon="-2.46286">
        <ele>15.199999809265</ele>
        <time>2022-05-08T09:15:54.000Z</time>
      </trkpt>
      <trkpt lat="47.32401" lon="-2.46248">
        <ele>15.199999809265</ele>
        <time>2022-05-08T09:16:00.000Z</time>
      </trkpt>
      <trkpt lat="47.32374" lon="-2.46199">
        <ele>15.199999809265</ele>
        <time>2022-05-08T09:16:08.000Z</time>
      </trkpt>
      <trkpt lat="47.32344" lon="-2.46151">
        <ele>15.199999809265</ele>
        <time>2022-05-08T09:16:16.000Z</time>
      </trkpt>
      <trkpt lat="47.32313" lon="-2.46103">
        <ele>15.199999809265</ele>
        <time>2022-05-08T09:16:24.000Z</time>
      </trkpt>
      <trkpt lat="47.32289" lon="-2.46059">
        <ele>15.199999809265</ele>
        <time>2022-05-08T09:16:31.000Z</time>
      </trkpt>
      <trkpt lat="47.32263" lon="-2.45998">
        <ele>15.199999809265</ele>
        <time>2022-05-08T09:16:40.000Z</time>
      </trkpt>
      <trkpt lat="47.3226" lon="-2.45992">
        <ele>15.199999809265</ele>
        <time>2022-05-08T09:16:41.000Z</time>
      </trkpt>
      <trkpt lat="47.32247" lon="-2.45976">
        <ele>14.800000190735</ele>
        <time>2022-05-08T09:16:44.000Z</time>
      </trkpt>
      <trkpt lat="47.32242" lon="-2.45971">
        <ele>14.39999961853</ele>
        <time>2022-05-08T09:16:45.000Z</time>
      </trkpt>
      <trkpt lat="47.32238" lon="-2.45966">
        <ele>14</ele>
        <time>2022-05-08T09:16:46.000Z</time>
      </trkpt>
      <trkpt lat="47.32233" lon="-2.45961">
        <ele>13.60000038147</ele>
        <time>2022-05-08T09:16:47.000Z</time>
      </trkpt>
      <trkpt lat="47.32229" lon="-2.45956">
        <ele>13.199999809265</ele>
        <time>2022-05-08T09:16:48.000Z</time>
      </trkpt>
      <trkpt lat="47.32225" lon="-2.45949">
        <ele>13.199999809265</ele>
        <time>2022-05-08T09:16:49.000Z</time>
      </trkpt>
      <trkpt lat="47.32221" lon="-2.45942">
        <ele>13.199999809265</ele>
        <time>2022-05-08T09:16:50.000Z</time>
      </trkpt>
      <trkpt lat="47.32204" lon="-2.45897">
        <ele>13.199999809265</ele>
        <time>2022-05-08T09:16:56.000Z</time>
      </trkpt>
      <trkpt lat="47.32181" lon="-2.45843">
        <ele>13.199999809265</ele>
        <time>2022-05-08T09:17:03.000Z</time>
      </trkpt>
      <trkpt lat="47.32161" lon="-2.45805">
        <ele>13.199999809265</ele>
        <time>2022-05-08T09:17:09.000Z</time>
      </trkpt>
      <trkpt lat="47.32143" lon="-2.45773">
        <ele>13.199999809265</ele>
        <time>2022-05-08T09:17:14.000Z</time>
      </trkpt>
      <trkpt lat="47.32139" lon="-2.45768">
        <ele>13.199999809265</ele>
        <time>2022-05-08T09:17:15.000Z</time>
      </trkpt>
      <trkpt lat="47.32129" lon="-2.45758">
        <ele>13.199999809265</ele>
        <time>2022-05-08T09:17:17.000Z</time>
      </trkpt>
      <trkpt lat="47.32112" lon="-2.45748">
        <ele>13.199999809265</ele>
        <time>2022-05-08T09:17:20.000Z</time>
      </trkpt>
      <trkpt lat="47.321" lon="-2.45743">
        <ele>13.199999809265</ele>
        <time>2022-05-08T09:17:22.000Z</time>
      </trkpt>
      <trkpt lat="47.32078" lon="-2.45735">
        <ele>13.199999809265</ele>
        <time>2022-05-08T09:17:26.000Z</time>
      </trkpt>
      <trkpt lat="47.32045" lon="-2.45713">
        <ele>13.199999809265</ele>
        <time>2022-05-08T09:17:32.000Z</time>
      </trkpt>
      <trkpt lat="47.31993" lon="-2.45671">
        <ele>13.199999809265</ele>
        <time>2022-05-08T09:17:42.000Z</time>
      </trkpt>
      <trkpt lat="47.31969" lon="-2.45632">
        <ele>13.199999809265</ele>
        <time>2022-05-08T09:17:48.000Z</time>
      </trkpt>
      <trkpt lat="47.31945" lon="-2.45578">
        <ele>13.199999809265</ele>
        <time>2022-05-08T09:17:56.000Z</time>
      </trkpt>
      <trkpt lat="47.31923" lon="-2.45531">
        <ele>13.199999809265</ele>
        <time>2022-05-08T09:18:03.000Z</time>
      </trkpt>
      <trkpt lat="47.3189" lon="-2.45487">
        <ele>13.199999809265</ele>
        <time>2022-05-08T09:18:11.000Z</time>
      </trkpt>
      <trkpt lat="47.31858" lon="-2.4544">
        <ele>13.199999809265</ele>
        <time>2022-05-08T09:18:19.000Z</time>
      </trkpt>
      <trkpt lat="47.3183" lon="-2.45395">
        <ele>13.199999809265</ele>
        <time>2022-05-08T09:18:26.000Z</time>
      </trkpt>
      <trkpt lat="47.31807" lon="-2.45362">
        <ele>13.199999809265</ele>
        <time>2022-05-08T09:18:32.000Z</time>
      </trkpt>
      <trkpt lat="47.31793" lon="-2.45348">
        <ele>13.199999809265</ele>
        <time>2022-05-08T09:18:36.000Z</time>
      </trkpt>
      <trkpt lat="47.3179" lon="-2.45344">
        <ele>13.199999809265</ele>
        <time>2022-05-08T09:18:37.000Z</time>
      </trkpt>
      <trkpt lat="47.31783" lon="-2.45337">
        <ele>13.199999809265</ele>
        <time>2022-05-08T09:18:39.000Z</time>
      </trkpt>
      <trkpt lat="47.31775" lon="-2.45329">
        <ele>13.199999809265</ele>
        <time>2022-05-08T09:18:41.000Z</time>
      </trkpt>
      <trkpt lat="47.31772" lon="-2.45307">
        <ele>13.199999809265</ele>
        <time>2022-05-08T09:18:44.000Z</time>
      </trkpt>
      <trkpt lat="47.31779" lon="-2.45287">
        <ele>13.199999809265</ele>
        <time>2022-05-08T09:18:47.000Z</time>
      </trkpt>
      <trkpt lat="47.31791" lon="-2.45269">
        <ele>13.199999809265</ele>
        <time>2022-05-08T09:18:50.000Z</time>
      </trkpt>
      <trkpt lat="47.318" lon="-2.45257">
        <ele>13.199999809265</ele>
        <time>2022-05-08T09:18:52.000Z</time>
      </trkpt>
      <trkpt lat="47.31839" lon="-2.45208">
        <ele>13.199999809265</ele>
        <time>2022-05-08T09:19:01.000Z</time>
      </trkpt>
      <trkpt lat="47.31854" lon="-2.45189">
        <ele>13.199999809265</ele>
        <time>2022-05-08T09:19:05.000Z</time>
      </trkpt>
      <trkpt lat="47.31856" lon="-2.45182">
        <ele>13.199999809265</ele>
        <time>2022-05-08T09:19:06.000Z</time>
      </trkpt>
      <trkpt lat="47.31854" lon="-2.45153">
        <ele>13.199999809265</ele>
        <time>2022-05-08T09:19:10.000Z</time>
      </trkpt>
      <trkpt lat="47.31853" lon="-2.45145">
        <ele>13.199999809265</ele>
        <time>2022-05-08T09:19:11.000Z</time>
      </trkpt>
      <trkpt lat="47.31842" lon="-2.45098">
        <ele>13.199999809265</ele>
        <time>2022-05-08T09:19:17.000Z</time>
      </trkpt>
      <trkpt lat="47.31823" lon="-2.45037">
        <ele>13.199999809265</ele>
        <time>2022-05-08T09:19:25.000Z</time>
      </trkpt>
      <trkpt lat="47.31805" lon="-2.44986">
        <ele>13.199999809265</ele>
        <time>2022-05-08T09:19:32.000Z</time>
      </trkpt>
      <trkpt lat="47.31799" lon="-2.44972">
        <ele>13.199999809265</ele>
        <time>2022-05-08T09:19:34.000Z</time>
      </trkpt>
      <trkpt lat="47.31785" lon="-2.44944">
        <ele>13.199999809265</ele>
        <time>2022-05-08T09:19:38.000Z</time>
      </trkpt>
      <trkpt lat="47.31762" lon="-2.44895">
        <ele>13.199999809265</ele>
        <time>2022-05-08T09:19:45.000Z</time>
      </trkpt>
      <trkpt lat="47.31746" lon="-2.44854">
        <ele>13.199999809265</ele>
        <time>2022-05-08T09:19:51.000Z</time>
      </trkpt>
      <trkpt lat="47.31738" lon="-2.44831">
        <ele>13.60000038147</ele>
        <time>2022-05-08T09:19:54.000Z</time>
      </trkpt>
      <trkpt lat="47.31735" lon="-2.44823">
        <ele>14</ele>
        <time>2022-05-08T09:19:55.000Z</time>
      </trkpt>
      <trkpt lat="47.31733" lon="-2.44815">
        <ele>14.39999961853</ele>
        <time>2022-05-08T09:19:56.000Z</time>
      </trkpt>
      <trkpt lat="47.3173" lon="-2.44807">
        <ele>14.800000190735</ele>
        <time>2022-05-08T09:19:57.000Z</time>
      </trkpt>
      <trkpt lat="47.31727" lon="-2.44799">
        <ele>15.199999809265</ele>
        <time>2022-05-08T09:19:58.000Z</time>
      </trkpt>
      <trkpt lat="47.31706" lon="-2.44746">
        <ele>15.199999809265</ele>
        <time>2022-05-08T09:20:05.000Z</time>
      </trkpt>
      <trkpt lat="47.31677" lon="-2.44677">
        <ele>15.199999809265</ele>
        <time>2022-05-08T09:20:14.000Z</time>
      </trkpt>
      <trkpt lat="47.31646" lon="-2.44604">
        <ele>15.199999809265</ele>
        <time>2022-05-08T09:20:24.000Z</time>
      </trkpt>
      <trkpt lat="47.31616" lon="-2.44552">
        <ele>15.199999809265</ele>
        <time>2022-05-08T09:20:32.000Z</time>
      </trkpt>
      <trkpt lat="47.31593" lon="-2.44511">
        <ele>15.199999809265</ele>
        <time>2022-05-08T09:20:38.000Z</time>
      </trkpt>
      <trkpt lat="47.31588" lon="-2.44496">
        <ele>15.199999809265</ele>
        <time>2022-05-08T09:20:40.000Z</time>
      </trkpt>
      <trkpt lat="47.31583" lon="-2.44479">
        <ele>15.199999809265</ele>
        <time>2022-05-08T09:20:42.000Z</time>
      </trkpt>
      <trkpt lat="47.31579" lon="-2.44453">
        <ele>15.199999809265</ele>
        <time>2022-05-08T09:20:45.000Z</time>
      </trkpt>
      <trkpt lat="47.31569" lon="-2.44383">
        <ele>15.199999809265</ele>
        <time>2022-05-08T09:20:53.000Z</time>
      </trkpt>
      <trkpt lat="47.31558" lon="-2.44314">
        <ele>15.199999809265</ele>
        <time>2022-05-08T09:21:02.000Z</time>
      </trkpt>
      <trkpt lat="47.3155" lon="-2.44265">
        <ele>15.199999809265</ele>
        <time>2022-05-08T09:21:08.000Z</time>
      </trkpt>
      <trkpt lat="47.31539" lon="-2.44212">
        <ele>15.199999809265</ele>
        <time>2022-05-08T09:21:15.000Z</time>
      </trkpt>
      <trkpt lat="47.31522" lon="-2.44164">
        <ele>15.199999809265</ele>
        <time>2022-05-08T09:21:22.000Z</time>
      </trkpt>
      <trkpt lat="47.31498" lon="-2.44127">
        <ele>15.199999809265</ele>
        <time>2022-05-08T09:21:28.000Z</time>
      </trkpt>
      <trkpt lat="47.31465" lon="-2.44083">
        <ele>15.199999809265</ele>
        <time>2022-05-08T09:21:35.000Z</time>
      </trkpt>
      <trkpt lat="47.31427" lon="-2.44035">
        <ele>15.199999809265</ele>
        <time>2022-05-08T09:21:43.000Z</time>
      </trkpt>
      <trkpt lat="47.31393" lon="-2.4399">
        <ele>15.199999809265</ele>
        <time>2022-05-08T09:21:51.000Z</time>
      </trkpt>
      <trkpt lat="47.31365" lon="-2.43949">
        <ele>15.199999809265</ele>
        <time>2022-05-08T09:21:58.000Z</time>
      </trkpt>
      <trkpt lat="47.31361" lon="-2.43942">
        <ele>15.199999809265</ele>
        <time>2022-05-08T09:21:59.000Z</time>
      </trkpt>
      <trkpt lat="47.3135" lon="-2.43912">
        <ele>15.199999809265</ele>
        <time>2022-05-08T09:22:03.000Z</time>
      </trkpt>
      <trkpt lat="47.31323" lon="-2.43842">
        <ele>15.199999809265</ele>
        <time>2022-05-08T09:22:12.000Z</time>
      </trkpt>
      <trkpt lat="47.31315" lon="-2.43829">
        <ele>15.199999809265</ele>
        <time>2022-05-08T09:22:14.000Z</time>
      </trkpt>
      <trkpt lat="47.31307" lon="-2.43818">
        <ele>15.199999809265</ele>
        <time>2022-05-08T09:22:16.000Z</time>
      </trkpt>
      <trkpt lat="47.31284" lon="-2.43777">
        <ele>15.199999809265</ele>
        <time>2022-05-08T09:22:22.000Z</time>
      </trkpt>
      <trkpt lat="47.31265" lon="-2.43727">
        <ele>15.199999809265</ele>
        <time>2022-05-08T09:22:29.000Z</time>
      </trkpt>
      <trkpt lat="47.31244" lon="-2.43665">
        <ele>15.199999809265</ele>
        <time>2022-05-08T09:22:37.000Z</time>
      </trkpt>
      <trkpt lat="47.31232" lon="-2.436">
        <ele>15.199999809265</ele>
        <time>2022-05-08T09:22:45.000Z</time>
      </trkpt>
      <trkpt lat="47.31224" lon="-2.4354">
        <ele>15.199999809265</ele>
        <time>2022-05-08T09:22:53.000Z</time>
      </trkpt>
      <trkpt lat="47.31215" lon="-2.43483">
        <ele>15.199999809265</ele>
        <time>2022-05-08T09:23:00.000Z</time>
      </trkpt>
      <trkpt lat="47.31205" lon="-2.43419">
        <ele>15.199999809265</ele>
        <time>2022-05-08T09:23:08.000Z</time>
      </trkpt>
      <trkpt lat="47.31192" lon="-2.4334">
        <ele>15.199999809265</ele>
        <time>2022-05-08T09:23:18.000Z</time>
      </trkpt>
      <trkpt lat="47.31181" lon="-2.43305">
        <ele>15.199999809265</ele>
        <time>2022-05-08T09:23:23.000Z</time>
      </trkpt>
      <trkpt lat="47.31174" lon="-2.43292">
        <ele>15.199999809265</ele>
        <time>2022-05-08T09:23:25.000Z</time>
      </trkpt>
      <trkpt lat="47.31149" lon="-2.43251">
        <ele>15.199999809265</ele>
        <time>2022-05-08T09:23:31.000Z</time>
      </trkpt>
      <trkpt lat="47.31121" lon="-2.43207">
        <ele>15.199999809265</ele>
        <time>2022-05-08T09:23:38.000Z</time>
      </trkpt>
      <trkpt lat="47.31113" lon="-2.43196">
        <ele>15.199999809265</ele>
        <time>2022-05-08T09:23:40.000Z</time>
      </trkpt>
      <trkpt lat="47.31103" lon="-2.43193">
        <ele>15.199999809265</ele>
        <time>2022-05-08T09:23:42.000Z</time>
      </trkpt>
      <trkpt lat="47.31088" lon="-2.43202">
        <ele>15.199999809265</ele>
        <time>2022-05-08T09:23:45.000Z</time>
      </trkpt>
      <trkpt lat="47.31083" lon="-2.43206">
        <ele>15.199999809265</ele>
        <time>2022-05-08T09:23:46.000Z</time>
      </trkpt>
      <trkpt lat="47.31062" lon="-2.43225">
        <ele>15.199999809265</ele>
        <time>2022-05-08T09:23:50.000Z</time>
      </trkpt>
      <trkpt lat="47.31035" lon="-2.43259">
        <ele>15.199999809265</ele>
        <time>2022-05-08T09:23:55.000Z</time>
      </trkpt>
      <trkpt lat="47.31004" lon="-2.433">
        <ele>15.199999809265</ele>
        <time>2022-05-08T09:24:01.000Z</time>
      </trkpt>
      <trkpt lat="47.30998" lon="-2.43305">
        <ele>15.199999809265</ele>
        <time>2022-05-08T09:24:02.000Z</time>
      </trkpt>
      <trkpt lat="47.30979" lon="-2.43315">
        <ele>15.199999809265</ele>
        <time>2022-05-08T09:24:05.000Z</time>
      </trkpt>
      <trkpt lat="47.30936" lon="-2.43333">
        <ele>15.199999809265</ele>
        <time>2022-05-08T09:24:12.000Z</time>
      </trkpt>
      <trkpt lat="47.30894" lon="-2.43349">
        <ele>15.199999809265</ele>
        <time>2022-05-08T09:24:19.000Z</time>
      </trkpt>
      <trkpt lat="47.30853" lon="-2.43367">
        <ele>15.199999809265</ele>
        <time>2022-05-08T09:24:26.000Z</time>
      </trkpt>
      <trkpt lat="47.30824" lon="-2.43381">
        <ele>14.800000190735</ele>
        <time>2022-05-08T09:24:31.000Z</time>
      </trkpt>
      <trkpt lat="47.30818" lon="-2.43383">
        <ele>14.39999961853</ele>
        <time>2022-05-08T09:24:32.000Z</time>
      </trkpt>
      <trkpt lat="47.30812" lon="-2.43386">
        <ele>14</ele>
        <time>2022-05-08T09:24:33.000Z</time>
      </trkpt>
      <trkpt lat="47.30806" lon="-2.43387">
        <ele>13.60000038147</ele>
        <time>2022-05-08T09:24:34.000Z</time>
      </trkpt>
      <trkpt lat="47.308" lon="-2.43388">
        <ele>13</ele>
        <time>2022-05-08T09:24:35.000Z</time>
      </trkpt>
      <trkpt lat="47.30775" lon="-2.43387">
        <ele>13</ele>
        <time>2022-05-08T09:24:39.000Z</time>
      </trkpt>
      <trkpt lat="47.30726" lon="-2.4339">
        <ele>13</ele>
        <time>2022-05-08T09:24:47.000Z</time>
      </trkpt>
      <trkpt lat="47.3068" lon="-2.43395">
        <ele>13</ele>
        <time>2022-05-08T09:24:54.000Z</time>
      </trkpt>
      <trkpt lat="47.30633" lon="-2.43405">
        <ele>13</ele>
        <time>2022-05-08T09:25:01.000Z</time>
      </trkpt>
      <trkpt lat="47.30575" lon="-2.43419">
        <ele>13</ele>
        <time>2022-05-08T09:25:10.000Z</time>
      </trkpt>
      <trkpt lat="47.30568" lon="-2.4342">
        <ele>13</ele>
        <time>2022-05-08T09:25:11.000Z</time>
      </trkpt>
      <trkpt lat="47.30556" lon="-2.4342">
        <ele>13</ele>
        <time>2022-05-08T09:25:13.000Z</time>
      </trkpt>
      <trkpt lat="47.30537" lon="-2.43417">
        <ele>13</ele>
        <time>2022-05-08T09:25:16.000Z</time>
      </trkpt>
      <trkpt lat="47.30504" lon="-2.43412">
        <ele>13</ele>
        <time>2022-05-08T09:25:21.000Z</time>
      </trkpt>
      <trkpt lat="47.30466" lon="-2.43411">
        <ele>13</ele>
        <time>2022-05-08T09:25:27.000Z</time>
      </trkpt>
      <trkpt lat="47.3046" lon="-2.43413">
        <ele>13</ele>
        <time>2022-05-08T09:25:28.000Z</time>
      </trkpt>
      <trkpt lat="47.30443" lon="-2.4342">
        <ele>13</ele>
        <time>2022-05-08T09:25:31.000Z</time>
      </trkpt>
      <trkpt lat="47.30437" lon="-2.43418">
        <ele>13</ele>
        <time>2022-05-08T09:25:32.000Z</time>
      </trkpt>
      <trkpt lat="47.30428" lon="-2.43405">
        <ele>13</ele>
        <time>2022-05-08T09:25:34.000Z</time>
      </trkpt>
      <trkpt lat="47.30423" lon="-2.4338">
        <ele>13</ele>
        <time>2022-05-08T09:25:37.000Z</time>
      </trkpt>
      <trkpt lat="47.30409" lon="-2.43311">
        <ele>13</ele>
        <time>2022-05-08T09:25:45.000Z</time>
      </trkpt>
      <trkpt lat="47.30394" lon="-2.43256">
        <ele>13</ele>
        <time>2022-05-08T09:25:52.000Z</time>
      </trkpt>
      <trkpt lat="47.30388" lon="-2.43242">
        <ele>13</ele>
        <time>2022-05-08T09:25:54.000Z</time>
      </trkpt>
      <trkpt lat="47.30377" lon="-2.43235">
        <ele>13</ele>
        <time>2022-05-08T09:25:56.000Z</time>
      </trkpt>
      <trkpt lat="47.30357" lon="-2.43237">
        <ele>13</ele>
        <time>2022-05-08T09:25:59.000Z</time>
      </trkpt>
      <trkpt lat="47.30332" lon="-2.43244">
        <ele>13</ele>
        <time>2022-05-08T09:26:03.000Z</time>
      </trkpt>
      <trkpt lat="47.30325" lon="-2.43246">
        <ele>13</ele>
        <time>2022-05-08T09:26:04.000Z</time>
      </trkpt>
      <trkpt lat="47.30281" lon="-2.43256">
        <ele>13</ele>
        <time>2022-05-08T09:26:11.000Z</time>
      </trkpt>
      <trkpt lat="47.30237" lon="-2.43273">
        <ele>13</ele>
        <time>2022-05-08T09:26:18.000Z</time>
      </trkpt>
      <trkpt lat="47.30181" lon="-2.433">
        <ele>13</ele>
        <time>2022-05-08T09:26:27.000Z</time>
      </trkpt>
      <trkpt lat="47.30144" lon="-2.43314">
        <ele>13</ele>
        <time>2022-05-08T09:26:33.000Z</time>
      </trkpt>
      <trkpt lat="47.30111" lon="-2.43322">
        <ele>13</ele>
        <time>2022-05-08T09:26:38.000Z</time>
      </trkpt>
      <trkpt lat="47.30066" lon="-2.43334">
        <ele>13</ele>
        <time>2022-05-08T09:26:45.000Z</time>
      </trkpt>
      <trkpt lat="47.30028" lon="-2.43336">
        <ele>13</ele>
        <time>2022-05-08T09:26:51.000Z</time>
      </trkpt>
      <trkpt lat="47.30021" lon="-2.43334">
        <ele>13</ele>
        <time>2022-05-08T09:26:52.000Z</time>
      </trkpt>
      <trkpt lat="47.29992" lon="-2.43314">
        <ele>13</ele>
        <time>2022-05-08T09:26:57.000Z</time>
      </trkpt>
      <trkpt lat="47.29976" lon="-2.43299">
        <ele>13</ele>
        <time>2022-05-08T09:27:00.000Z</time>
      </trkpt>
      <trkpt lat="47.29963" lon="-2.43295">
        <ele>13</ele>
        <time>2022-05-08T09:27:02.000Z</time>
      </trkpt>
      <trkpt lat="47.2994" lon="-2.43302">
        <ele>13</ele>
        <time>2022-05-08T09:27:06.000Z</time>
      </trkpt>
      <trkpt lat="47.29913" lon="-2.43312">
        <ele>13</ele>
        <time>2022-05-08T09:27:11.000Z</time>
      </trkpt>
      <trkpt lat="47.29903" lon="-2.43313">
        <ele>13</ele>
        <time>2022-05-08T09:27:13.000Z</time>
      </trkpt>
      <trkpt lat="47.29898" lon="-2.43314">
        <ele>13</ele>
        <time>2022-05-08T09:27:14.000Z</time>
      </trkpt>
      <trkpt lat="47.29889" lon="-2.43317">
        <ele>13</ele>
        <time>2022-05-08T09:27:17.000Z</time>
      </trkpt>
      <trkpt lat="47.29882" lon="-2.43319">
        <ele>13</ele>
        <time>2022-05-08T09:27:22.000Z</time>
      </trkpt>
      <trkpt lat="47.29874" lon="-2.43303">
        <ele>13</ele>
        <time>2022-05-08T09:27:26.000Z</time>
      </trkpt>
      <trkpt lat="47.29869" lon="-2.43293">
        <ele>13</ele>
        <time>2022-05-08T09:27:28.000Z</time>
      </trkpt>
      <trkpt lat="47.29858" lon="-2.43269">
        <ele>13</ele>
        <time>2022-05-08T09:27:33.000Z</time>
      </trkpt>
      <trkpt lat="47.29843" lon="-2.43239">
        <ele>13</ele>
        <time>2022-05-08T09:27:39.000Z</time>
      </trkpt>
      <trkpt lat="47.29824" lon="-2.43208">
        <ele>13</ele>
        <time>2022-05-08T09:27:45.000Z</time>
      </trkpt>
      <trkpt lat="47.29804" lon="-2.43188">
        <ele>13</ele>
        <time>2022-05-08T09:27:50.000Z</time>
      </trkpt>
      <trkpt lat="47.298" lon="-2.43186">
        <ele>13</ele>
        <time>2022-05-08T09:27:51.000Z</time>
      </trkpt>
      <trkpt lat="47.29785" lon="-2.43189">
        <ele>13</ele>
        <time>2022-05-08T09:27:54.000Z</time>
      </trkpt>
      <trkpt lat="47.2978" lon="-2.43191">
        <ele>13</ele>
        <time>2022-05-08T09:27:55.000Z</time>
      </trkpt>
      <trkpt lat="47.2975" lon="-2.43199">
        <ele>13</ele>
        <time>2022-05-08T09:28:01.000Z</time>
      </trkpt>
      <trkpt lat="47.29714" lon="-2.4321">
        <ele>13</ele>
        <time>2022-05-08T09:28:08.000Z</time>
      </trkpt>
      <trkpt lat="47.29684" lon="-2.43218">
        <ele>13</ele>
        <time>2022-05-08T09:28:14.000Z</time>
      </trkpt>
      <trkpt lat="47.29643" lon="-2.4323">
        <ele>13</ele>
        <time>2022-05-08T09:28:22.000Z</time>
      </trkpt>
      <trkpt lat="47.29606" lon="-2.43242">
        <ele>13</ele>
        <time>2022-05-08T09:28:29.000Z</time>
      </trkpt>
      <trkpt lat="47.29578" lon="-2.43257">
        <ele>13</ele>
        <time>2022-05-08T09:28:35.000Z</time>
      </trkpt>
      <trkpt lat="47.2957" lon="-2.43263">
        <ele>13</ele>
        <time>2022-05-08T09:28:37.000Z</time>
      </trkpt>
      <trkpt lat="47.29559" lon="-2.43279">
        <ele>13</ele>
        <time>2022-05-08T09:28:40.000Z</time>
      </trkpt>
      <trkpt lat="47.29539" lon="-2.43317">
        <ele>13</ele>
        <time>2022-05-08T09:28:46.000Z</time>
      </trkpt>
      <trkpt lat="47.29529" lon="-2.43335">
        <ele>13.39999961853</ele>
        <time>2022-05-08T09:28:49.000Z</time>
      </trkpt>
      <trkpt lat="47.29525" lon="-2.43341">
        <ele>13.800000190735</ele>
        <time>2022-05-08T09:28:50.000Z</time>
      </trkpt>
      <trkpt lat="47.29522" lon="-2.43347">
        <ele>14.39999961853</ele>
        <time>2022-05-08T09:28:51.000Z</time>
      </trkpt>
      <trkpt lat="47.29519" lon="-2.43353">
        <ele>14.800000190735</ele>
        <time>2022-05-08T09:28:52.000Z</time>
      </trkpt>
      <trkpt lat="47.29515" lon="-2.43359">
        <ele>15.199999809265</ele>
        <time>2022-05-08T09:28:53.000Z</time>
      </trkpt>
      <trkpt lat="47.29495" lon="-2.43396">
        <ele>15.199999809265</ele>
        <time>2022-05-08T09:28:59.000Z</time>
      </trkpt>
      <trkpt lat="47.29488" lon="-2.4341">
        <ele>15.199999809265</ele>
        <time>2022-05-08T09:29:01.000Z</time>
      </trkpt>
      <trkpt lat="47.29475" lon="-2.43436">
        <ele>15.199999809265</ele>
        <time>2022-05-08T09:29:05.000Z</time>
      </trkpt>
      <trkpt lat="47.2946" lon="-2.4346">
        <ele>15.199999809265</ele>
        <time>2022-05-08T09:29:09.000Z</time>
      </trkpt>
      <trkpt lat="47.29453" lon="-2.43465">
        <ele>15.199999809265</ele>
        <time>2022-05-08T09:29:11.000Z</time>
      </trkpt>
      <trkpt lat="47.29443" lon="-2.43455">
        <ele>15.199999809265</ele>
        <time>2022-05-08T09:29:14.000Z</time>
      </trkpt>
      <trkpt lat="47.29439" lon="-2.43444">
        <ele>14.60000038147</ele>
        <time>2022-05-08T09:29:16.000Z</time>
      </trkpt>
      <trkpt lat="47.29438" lon="-2.43439">
        <ele>14.199999809265</ele>
        <time>2022-05-08T09:29:17.000Z</time>
      </trkpt>
      <trkpt lat="47.29436" lon="-2.43433">
        <ele>13.800000190735</ele>
        <time>2022-05-08T09:29:18.000Z</time>
      </trkpt>
      <trkpt lat="47.29435" lon="-2.43426">
        <ele>13.39999961853</ele>
        <time>2022-05-08T09:29:19.000Z</time>
      </trkpt>
      <trkpt lat="47.29434" lon="-2.43419">
        <ele>13</ele>
        <time>2022-05-08T09:29:20.000Z</time>
      </trkpt>
      <trkpt lat="47.29431" lon="-2.434">
        <ele>13</ele>
        <time>2022-05-08T09:29:23.000Z</time>
      </trkpt>
      <trkpt lat="47.29418" lon="-2.43387">
        <ele>13</ele>
        <time>2022-05-08T09:29:27.000Z</time>
      </trkpt>
      <trkpt lat="47.29407" lon="-2.43372">
        <ele>13</ele>
        <time>2022-05-08T09:29:31.000Z</time>
      </trkpt>
      <trkpt lat="47.29406" lon="-2.4336">
        <ele>13</ele>
        <time>2022-05-08T09:29:33.000Z</time>
      </trkpt>
      <trkpt lat="47.29403" lon="-2.43349">
        <ele>13</ele>
        <time>2022-05-08T09:29:35.000Z</time>
      </trkpt>
      <trkpt lat="47.294" lon="-2.43344">
        <ele>13</ele>
        <time>2022-05-08T09:29:36.000Z</time>
      </trkpt>
      <trkpt lat="47.29386" lon="-2.43323">
        <ele>13</ele>
        <time>2022-05-08T09:29:40.000Z</time>
      </trkpt>
      <trkpt lat="47.29367" lon="-2.43298">
        <ele>13</ele>
        <time>2022-05-08T09:29:44.000Z</time>
      </trkpt>
      <trkpt lat="47.29364" lon="-2.43291">
        <ele>13</ele>
        <time>2022-05-08T09:29:45.000Z</time>
      </trkpt>
      <trkpt lat="47.29361" lon="-2.43265">
        <ele>13</ele>
        <time>2022-05-08T09:29:48.000Z</time>
      </trkpt>
      <trkpt lat="47.29361" lon="-2.43248">
        <ele>13</ele>
        <time>2022-05-08T09:29:50.000Z</time>
      </trkpt>
      <trkpt lat="47.29366" lon="-2.43227">
        <ele>13</ele>
        <time>2022-05-08T09:29:53.000Z</time>
      </trkpt>
      <trkpt lat="47.29377" lon="-2.4321">
        <ele>13</ele>
        <time>2022-05-08T09:29:56.000Z</time>
      </trkpt>
      <trkpt lat="47.29377" lon="-2.43188">
        <ele>13</ele>
        <time>2022-05-08T09:29:59.000Z</time>
      </trkpt>
      <trkpt lat="47.29375" lon="-2.43172">
        <ele>13</ele>
        <time>2022-05-08T09:30:01.000Z</time>
      </trkpt>
      <trkpt lat="47.29373" lon="-2.43164">
        <ele>13</ele>
        <time>2022-05-08T09:30:02.000Z</time>
      </trkpt>
      <trkpt lat="47.29368" lon="-2.43148">
        <ele>13</ele>
        <time>2022-05-08T09:30:04.000Z</time>
      </trkpt>
      <trkpt lat="47.29346" lon="-2.431">
        <ele>13</ele>
        <time>2022-05-08T09:30:11.000Z</time>
      </trkpt>
      <trkpt lat="47.29342" lon="-2.43095">
        <ele>13</ele>
        <time>2022-05-08T09:30:12.000Z</time>
      </trkpt>
      <trkpt lat="47.29327" lon="-2.43082">
        <ele>13</ele>
        <time>2022-05-08T09:30:15.000Z</time>
      </trkpt>
      <trkpt lat="47.29308" lon="-2.43068">
        <ele>13</ele>
        <time>2022-05-08T09:30:19.000Z</time>
      </trkpt>
      <trkpt lat="47.29303" lon="-2.43044">
        <ele>13</ele>
        <time>2022-05-08T09:30:22.000Z</time>
      </trkpt>
      <trkpt lat="47.29305" lon="-2.43018">
        <ele>13</ele>
        <time>2022-05-08T09:30:25.000Z</time>
      </trkpt>
      <trkpt lat="47.29307" lon="-2.4301">
        <ele>13</ele>
        <time>2022-05-08T09:30:26.000Z</time>
      </trkpt>
      <trkpt lat="47.29309" lon="-2.42994">
        <ele>13</ele>
        <time>2022-05-08T09:30:28.000Z</time>
      </trkpt>
      <trkpt lat="47.29312" lon="-2.42968">
        <ele>13</ele>
        <time>2022-05-08T09:30:31.000Z</time>
      </trkpt>
      <trkpt lat="47.2931" lon="-2.42942">
        <ele>13</ele>
        <time>2022-05-08T09:30:34.000Z</time>
      </trkpt>
      <trkpt lat="47.29311" lon="-2.42933">
        <ele>13</ele>
        <time>2022-05-08T09:30:35.000Z</time>
      </trkpt>
      <trkpt lat="47.29318" lon="-2.42901">
        <ele>13</ele>
        <time>2022-05-08T09:30:39.000Z</time>
      </trkpt>
      <trkpt lat="47.29331" lon="-2.42856">
        <ele>13</ele>
        <time>2022-05-08T09:30:45.000Z</time>
      </trkpt>
      <trkpt lat="47.29335" lon="-2.42848">
        <ele>13</ele>
        <time>2022-05-08T09:30:46.000Z</time>
      </trkpt>
      <trkpt lat="47.29352" lon="-2.42819">
        <ele>13</ele>
        <time>2022-05-08T09:30:50.000Z</time>
      </trkpt>
      <trkpt lat="47.29371" lon="-2.42802">
        <ele>13</ele>
        <time>2022-05-08T09:30:54.000Z</time>
      </trkpt>
      <trkpt lat="47.29378" lon="-2.42784">
        <ele>13</ele>
        <time>2022-05-08T09:30:57.000Z</time>
      </trkpt>
      <trkpt lat="47.2938" lon="-2.42777">
        <ele>13</ele>
        <time>2022-05-08T09:30:58.000Z</time>
      </trkpt>
      <trkpt lat="47.29393" lon="-2.42732">
        <ele>13</ele>
        <time>2022-05-08T09:31:04.000Z</time>
      </trkpt>
      <trkpt lat="47.29407" lon="-2.42696">
        <ele>13</ele>
        <time>2022-05-08T09:31:09.000Z</time>
      </trkpt>
      <trkpt lat="47.29411" lon="-2.4269">
        <ele>13</ele>
        <time>2022-05-08T09:31:10.000Z</time>
      </trkpt>
      <trkpt lat="47.29416" lon="-2.42675">
        <ele>13</ele>
        <time>2022-05-08T09:31:12.000Z</time>
      </trkpt>
      <trkpt lat="47.29419" lon="-2.4266">
        <ele>13</ele>
        <time>2022-05-08T09:31:14.000Z</time>
      </trkpt>
      <trkpt lat="47.29422" lon="-2.42603">
        <ele>13</ele>
        <time>2022-05-08T09:31:21.000Z</time>
      </trkpt>
      <trkpt lat="47.29423" lon="-2.42587">
        <ele>13</ele>
        <time>2022-05-08T09:31:23.000Z</time>
      </trkpt>
      <trkpt lat="47.29429" lon="-2.42574">
        <ele>13</ele>
        <time>2022-05-08T09:31:25.000Z</time>
      </trkpt>
      <trkpt lat="47.29438" lon="-2.42566">
        <ele>13</ele>
        <time>2022-05-08T09:31:27.000Z</time>
      </trkpt>
      <trkpt lat="47.29446" lon="-2.42556">
        <ele>13</ele>
        <time>2022-05-08T09:31:29.000Z</time>
      </trkpt>
      <trkpt lat="47.29458" lon="-2.42544">
        <ele>13</ele>
        <time>2022-05-08T09:31:32.000Z</time>
      </trkpt>
      <trkpt lat="47.29469" lon="-2.4253">
        <ele>13</ele>
        <time>2022-05-08T09:31:35.000Z</time>
      </trkpt>
      <trkpt lat="47.29492" lon="-2.42506">
        <ele>13</ele>
        <time>2022-05-08T09:31:41.000Z</time>
      </trkpt>
      <trkpt lat="47.29513" lon="-2.42483">
        <ele>13</ele>
        <time>2022-05-08T09:31:46.000Z</time>
      </trkpt>
      <trkpt lat="47.29518" lon="-2.42479">
        <ele>13</ele>
        <time>2022-05-08T09:31:47.000Z</time>
      </trkpt>
      <trkpt lat="47.29533" lon="-2.42466">
        <ele>13</ele>
        <time>2022-05-08T09:31:50.000Z</time>
      </trkpt>
      <trkpt lat="47.29541" lon="-2.42453">
        <ele>13</ele>
        <time>2022-05-08T09:31:52.000Z</time>
      </trkpt>
      <trkpt lat="47.29557" lon="-2.42429">
        <ele>13</ele>
        <time>2022-05-08T09:31:56.000Z</time>
      </trkpt>
      <trkpt lat="47.29578" lon="-2.42421">
        <ele>13</ele>
        <time>2022-05-08T09:32:00.000Z</time>
      </trkpt>
      <trkpt lat="47.29593" lon="-2.42427">
        <ele>13</ele>
        <time>2022-05-08T09:32:03.000Z</time>
      </trkpt>
      <trkpt lat="47.29599" lon="-2.42429">
        <ele>13</ele>
        <time>2022-05-08T09:32:04.000Z</time>
      </trkpt>
      <trkpt lat="47.29621" lon="-2.42435">
        <ele>13</ele>
        <time>2022-05-08T09:32:09.000Z</time>
      </trkpt>
      <trkpt lat="47.29625" lon="-2.42432">
        <ele>13</ele>
        <time>2022-05-08T09:32:10.000Z</time>
      </trkpt>
      <trkpt lat="47.29628" lon="-2.4242">
        <ele>13</ele>
        <time>2022-05-08T09:32:12.000Z</time>
      </trkpt>
      <trkpt lat="47.2963" lon="-2.42407">
        <ele>13</ele>
        <time>2022-05-08T09:32:14.000Z</time>
      </trkpt>
      <trkpt lat="47.29635" lon="-2.42384">
        <ele>13</ele>
        <time>2022-05-08T09:32:17.000Z</time>
      </trkpt>
      <trkpt lat="47.29646" lon="-2.42338">
        <ele>13</ele>
        <time>2022-05-08T09:32:23.000Z</time>
      </trkpt>
      <trkpt lat="47.29657" lon="-2.42281">
        <ele>13</ele>
        <time>2022-05-08T09:32:30.000Z</time>
      </trkpt>
      <trkpt lat="47.29668" lon="-2.42236">
        <ele>13</ele>
        <time>2022-05-08T09:32:36.000Z</time>
      </trkpt>
      <trkpt lat="47.29671" lon="-2.42229">
        <ele>13</ele>
        <time>2022-05-08T09:32:37.000Z</time>
      </trkpt>
      <trkpt lat="47.29683" lon="-2.42203">
        <ele>13</ele>
        <time>2022-05-08T09:32:41.000Z</time>
      </trkpt>
      <trkpt lat="47.29686" lon="-2.42197">
        <ele>13</ele>
        <time>2022-05-08T09:32:42.000Z</time>
      </trkpt>
      <trkpt lat="47.29707" lon="-2.4216">
        <ele>13</ele>
        <time>2022-05-08T09:32:48.000Z</time>
      </trkpt>
      <trkpt lat="47.29743" lon="-2.42097">
        <ele>13</ele>
        <time>2022-05-08T09:32:58.000Z</time>
      </trkpt>
      <trkpt lat="47.29778" lon="-2.42033">
        <ele>13</ele>
        <time>2022-05-08T09:33:08.000Z</time>
      </trkpt>
      <trkpt lat="47.29784" lon="-2.42017">
        <ele>13</ele>
        <time>2022-05-08T09:33:10.000Z</time>
      </trkpt>
      <trkpt lat="47.29787" lon="-2.41999">
        <ele>13</ele>
        <time>2022-05-08T09:33:12.000Z</time>
      </trkpt>
      <trkpt lat="47.29783" lon="-2.41966">
        <ele>13</ele>
        <time>2022-05-08T09:33:16.000Z</time>
      </trkpt>
      <trkpt lat="47.29781" lon="-2.41958">
        <ele>13</ele>
        <time>2022-05-08T09:33:17.000Z</time>
      </trkpt>
      <trkpt lat="47.29769" lon="-2.41902">
        <ele>13</ele>
        <time>2022-05-08T09:33:24.000Z</time>
      </trkpt>
      <trkpt lat="47.29766" lon="-2.41847">
        <ele>13</ele>
        <time>2022-05-08T09:33:31.000Z</time>
      </trkpt>
      <trkpt lat="47.29769" lon="-2.41802">
        <ele>13</ele>
        <time>2022-05-08T09:33:38.000Z</time>
      </trkpt>
      <trkpt lat="47.29768" lon="-2.41768">
        <ele>13</ele>
        <time>2022-05-08T09:33:45.000Z</time>
      </trkpt>
      <trkpt lat="47.29761" lon="-2.41745">
        <ele>13</ele>
        <time>2022-05-08T09:33:51.000Z</time>
      </trkpt>
      <trkpt lat="47.29756" lon="-2.41745">
        <ele>13</ele>
        <time>2022-05-08T09:33:55.000Z</time>
      </trkpt>
      <trkpt lat="47.29754" lon="-2.41746">
        <ele>13</ele>
        <time>2022-05-08T09:34:27.000Z</time>
      </trkpt>
      <trkpt lat="47.29749" lon="-2.41748">
        <ele>13</ele>
        <time>2022-05-08T09:34:30.000Z</time>
      </trkpt>
      <trkpt lat="47.29735" lon="-2.41758">
        <ele>13</ele>
        <time>2022-05-08T09:34:35.000Z</time>
      </trkpt>
      <trkpt lat="47.29721" lon="-2.41779">
        <ele>13</ele>
        <time>2022-05-08T09:34:40.000Z</time>
      </trkpt>
      <trkpt lat="47.297" lon="-2.41813">
        <ele>13</ele>
        <time>2022-05-08T09:34:46.000Z</time>
      </trkpt>
      <trkpt lat="47.29684" lon="-2.41821">
        <ele>13</ele>
        <time>2022-05-08T09:34:49.000Z</time>
      </trkpt>
      <trkpt lat="47.29673" lon="-2.41822">
        <ele>13</ele>
        <time>2022-05-08T09:34:51.000Z</time>
      </trkpt>
      <trkpt lat="47.29652" lon="-2.41826">
        <ele>13</ele>
        <time>2022-05-08T09:34:55.000Z</time>
      </trkpt>
      <trkpt lat="47.2964" lon="-2.41812">
        <ele>13</ele>
        <time>2022-05-08T09:34:58.000Z</time>
      </trkpt>
      <trkpt lat="47.29635" lon="-2.41781">
        <ele>13</ele>
        <time>2022-05-08T09:35:02.000Z</time>
      </trkpt>
      <trkpt lat="47.29621" lon="-2.41754">
        <ele>13</ele>
        <time>2022-05-08T09:35:06.000Z</time>
      </trkpt>
      <trkpt lat="47.29612" lon="-2.41743">
        <ele>13</ele>
        <time>2022-05-08T09:35:08.000Z</time>
      </trkpt>
      <trkpt lat="47.29595" lon="-2.41725">
        <ele>13</ele>
        <time>2022-05-08T09:35:12.000Z</time>
      </trkpt>
      <trkpt lat="47.29586" lon="-2.41717">
        <ele>13</ele>
        <time>2022-05-08T09:35:14.000Z</time>
      </trkpt>
      <trkpt lat="47.29571" lon="-2.41708">
        <ele>13</ele>
        <time>2022-05-08T09:35:17.000Z</time>
      </trkpt>
      <trkpt lat="47.29552" lon="-2.41695">
        <ele>13</ele>
        <time>2022-05-08T09:35:21.000Z</time>
      </trkpt>
      <trkpt lat="47.29542" lon="-2.41677">
        <ele>13</ele>
        <time>2022-05-08T09:35:24.000Z</time>
      </trkpt>
      <trkpt lat="47.2954" lon="-2.4167">
        <ele>13.39999961853</ele>
        <time>2022-05-08T09:35:25.000Z</time>
      </trkpt>
      <trkpt lat="47.29537" lon="-2.41663">
        <ele>13.800000190735</ele>
        <time>2022-05-08T09:35:26.000Z</time>
      </trkpt>
      <trkpt lat="47.29535" lon="-2.41656">
        <ele>14.199999809265</ele>
        <time>2022-05-08T09:35:27.000Z</time>
      </trkpt>
      <trkpt lat="47.29533" lon="-2.41648">
        <ele>14.60000038147</ele>
        <time>2022-05-08T09:35:28.000Z</time>
      </trkpt>
      <trkpt lat="47.29531" lon="-2.41641">
        <ele>15</ele>
        <time>2022-05-08T09:35:29.000Z</time>
      </trkpt>
      <trkpt lat="47.29528" lon="-2.41625">
        <ele>15</ele>
        <time>2022-05-08T09:35:31.000Z</time>
      </trkpt>
      <trkpt lat="47.29527" lon="-2.41617">
        <ele>15</ele>
        <time>2022-05-08T09:35:32.000Z</time>
      </trkpt>
      <trkpt lat="47.29526" lon="-2.416">
        <ele>15</ele>
        <time>2022-05-08T09:35:34.000Z</time>
      </trkpt>
      <trkpt lat="47.29527" lon="-2.41583">
        <ele>15</ele>
        <time>2022-05-08T09:35:36.000Z</time>
      </trkpt>
      <trkpt lat="47.29529" lon="-2.41576">
        <ele>15</ele>
        <time>2022-05-08T09:35:37.000Z</time>
      </trkpt>
      <trkpt lat="47.29539" lon="-2.41543">
        <ele>15</ele>
        <time>2022-05-08T09:35:42.000Z</time>
      </trkpt>
      <trkpt lat="47.29536" lon="-2.41516">
        <ele>15</ele>
        <time>2022-05-08T09:35:46.000Z</time>
      </trkpt>
      <trkpt lat="47.29528" lon="-2.41497">
        <ele>15</ele>
        <time>2022-05-08T09:35:49.000Z</time>
      </trkpt>
      <trkpt lat="47.29522" lon="-2.41485">
        <ele>15</ele>
        <time>2022-05-08T09:35:51.000Z</time>
      </trkpt>
      <trkpt lat="47.29514" lon="-2.41476">
        <ele>15</ele>
        <time>2022-05-08T09:35:53.000Z</time>
      </trkpt>
      <trkpt lat="47.29503" lon="-2.41474">
        <ele>14.60000038147</ele>
        <time>2022-05-08T09:35:55.000Z</time>
      </trkpt>
      <trkpt lat="47.29498" lon="-2.41476">
        <ele>14.199999809265</ele>
        <time>2022-05-08T09:35:56.000Z</time>
      </trkpt>
      <trkpt lat="47.29493" lon="-2.41479">
        <ele>13.800000190735</ele>
        <time>2022-05-08T09:35:57.000Z</time>
      </trkpt>
      <trkpt lat="47.29488" lon="-2.41482">
        <ele>13.39999961853</ele>
        <time>2022-05-08T09:35:58.000Z</time>
      </trkpt>
      <trkpt lat="47.29484" lon="-2.41484">
        <ele>12.800000190735</ele>
        <time>2022-05-08T09:35:59.000Z</time>
      </trkpt>
      <trkpt lat="47.2947" lon="-2.41482">
        <ele>12.800000190735</ele>
        <time>2022-05-08T09:36:02.000Z</time>
      </trkpt>
      <trkpt lat="47.29448" lon="-2.41485">
        <ele>12.800000190735</ele>
        <time>2022-05-08T09:36:06.000Z</time>
      </trkpt>
      <trkpt lat="47.29428" lon="-2.4148">
        <ele>12.800000190735</ele>
        <time>2022-05-08T09:36:10.000Z</time>
      </trkpt>
      <trkpt lat="47.29415" lon="-2.41465">
        <ele>12.800000190735</ele>
        <time>2022-05-08T09:36:13.000Z</time>
      </trkpt>
      <trkpt lat="47.29406" lon="-2.41454">
        <ele>12.800000190735</ele>
        <time>2022-05-08T09:36:15.000Z</time>
      </trkpt>
      <trkpt lat="47.29396" lon="-2.41435">
        <ele>12.800000190735</ele>
        <time>2022-05-08T09:36:18.000Z</time>
      </trkpt>
      <trkpt lat="47.2939" lon="-2.41421">
        <ele>12.800000190735</ele>
        <time>2022-05-08T09:36:20.000Z</time>
      </trkpt>
      <trkpt lat="47.29372" lon="-2.41381">
        <ele>12.800000190735</ele>
        <time>2022-05-08T09:36:26.000Z</time>
      </trkpt>
      <trkpt lat="47.29368" lon="-2.41375">
        <ele>12.800000190735</ele>
        <time>2022-05-08T09:36:27.000Z</time>
      </trkpt>
      <trkpt lat="47.2936" lon="-2.41365">
        <ele>12.800000190735</ele>
        <time>2022-05-08T09:36:29.000Z</time>
      </trkpt>
      <trkpt lat="47.29352" lon="-2.41354">
        <ele>12.800000190735</ele>
        <time>2022-05-08T09:36:31.000Z</time>
      </trkpt>
      <trkpt lat="47.29347" lon="-2.41342">
        <ele>12.800000190735</ele>
        <time>2022-05-08T09:36:33.000Z</time>
      </trkpt>
      <trkpt lat="47.2935" lon="-2.41315">
        <ele>12.800000190735</ele>
        <time>2022-05-08T09:36:37.000Z</time>
      </trkpt>
      <trkpt lat="47.29359" lon="-2.41289">
        <ele>12.800000190735</ele>
        <time>2022-05-08T09:36:41.000Z</time>
      </trkpt>
      <trkpt lat="47.29356" lon="-2.41264">
        <ele>12.800000190735</ele>
        <time>2022-05-08T09:36:45.000Z</time>
      </trkpt>
      <trkpt lat="47.29356" lon="-2.41257">
        <ele>12.800000190735</ele>
        <time>2022-05-08T09:36:46.000Z</time>
      </trkpt>
      <trkpt lat="47.29354" lon="-2.41251">
        <ele>12.800000190735</ele>
        <time>2022-05-08T09:36:47.000Z</time>
      </trkpt>
      <trkpt lat="47.29348" lon="-2.41237">
        <ele>12.800000190735</ele>
        <time>2022-05-08T09:36:50.000Z</time>
      </trkpt>
      <trkpt lat="47.29338" lon="-2.41225">
        <ele>12.800000190735</ele>
        <time>2022-05-08T09:36:54.000Z</time>
      </trkpt>
      <trkpt lat="47.29335" lon="-2.41222">
        <ele>12.800000190735</ele>
        <time>2022-05-08T09:36:55.000Z</time>
      </trkpt>
      <trkpt lat="47.29325" lon="-2.41209">
        <ele>12.800000190735</ele>
        <time>2022-05-08T09:36:58.000Z</time>
      </trkpt>
      <trkpt lat="47.29313" lon="-2.41196">
        <ele>12.800000190735</ele>
        <time>2022-05-08T09:37:01.000Z</time>
      </trkpt>
      <trkpt lat="47.29302" lon="-2.41182">
        <ele>12.800000190735</ele>
        <time>2022-05-08T09:37:04.000Z</time>
      </trkpt>
      <trkpt lat="47.29297" lon="-2.4117">
        <ele>12.800000190735</ele>
        <time>2022-05-08T09:37:06.000Z</time>
      </trkpt>
      <trkpt lat="47.2929" lon="-2.4115">
        <ele>12.800000190735</ele>
        <time>2022-05-08T09:37:09.000Z</time>
      </trkpt>
      <trkpt lat="47.29283" lon="-2.41136">
        <ele>12.800000190735</ele>
        <time>2022-05-08T09:37:11.000Z</time>
      </trkpt>
      <trkpt lat="47.29266" lon="-2.41114">
        <ele>12.800000190735</ele>
        <time>2022-05-08T09:37:15.000Z</time>
      </trkpt>
      <trkpt lat="47.29261" lon="-2.41109">
        <ele>12.800000190735</ele>
        <time>2022-05-08T09:37:16.000Z</time>
      </trkpt>
      <trkpt lat="47.29249" lon="-2.41092">
        <ele>12.800000190735</ele>
        <time>2022-05-08T09:37:19.000Z</time>
      </trkpt>
      <trkpt lat="47.29245" lon="-2.41078">
        <ele>12.800000190735</ele>
        <time>2022-05-08T09:37:21.000Z</time>
      </trkpt>
      <trkpt lat="47.29248" lon="-2.41063">
        <ele>12.800000190735</ele>
        <time>2022-05-08T09:37:23.000Z</time>
      </trkpt>
      <trkpt lat="47.29255" lon="-2.4105">
        <ele>12.800000190735</ele>
        <time>2022-05-08T09:37:25.000Z</time>
      </trkpt>
      <trkpt lat="47.29248" lon="-2.41029">
        <ele>12.800000190735</ele>
        <time>2022-05-08T09:37:28.000Z</time>
      </trkpt>
      <trkpt lat="47.29238" lon="-2.4102">
        <ele>12.800000190735</ele>
        <time>2022-05-08T09:37:30.000Z</time>
      </trkpt>
      <trkpt lat="47.29235" lon="-2.41014">
        <ele>12.800000190735</ele>
        <time>2022-05-08T09:37:31.000Z</time>
      </trkpt>
      <trkpt lat="47.29231" lon="-2.41007">
        <ele>12.800000190735</ele>
        <time>2022-05-08T09:37:32.000Z</time>
      </trkpt>
      <trkpt lat="47.29222" lon="-2.40986">
        <ele>12.800000190735</ele>
        <time>2022-05-08T09:37:35.000Z</time>
      </trkpt>
      <trkpt lat="47.29219" lon="-2.40979">
        <ele>13.199999809265</ele>
        <time>2022-05-08T09:37:36.000Z</time>
      </trkpt>
      <trkpt lat="47.29217" lon="-2.40972">
        <ele>13.800000190735</ele>
        <time>2022-05-08T09:37:37.000Z</time>
      </trkpt>
      <trkpt lat="47.29214" lon="-2.40965">
        <ele>14.199999809265</ele>
        <time>2022-05-08T09:37:38.000Z</time>
      </trkpt>
      <trkpt lat="47.29211" lon="-2.40959">
        <ele>14.60000038147</ele>
        <time>2022-05-08T09:37:39.000Z</time>
      </trkpt>
      <trkpt lat="47.29207" lon="-2.40954">
        <ele>15</ele>
        <time>2022-05-08T09:37:40.000Z</time>
      </trkpt>
      <trkpt lat="47.29198" lon="-2.40948">
        <ele>15</ele>
        <time>2022-05-08T09:37:42.000Z</time>
      </trkpt>
      <trkpt lat="47.29186" lon="-2.40945">
        <ele>15</ele>
        <time>2022-05-08T09:37:44.000Z</time>
      </trkpt>
      <trkpt lat="47.29175" lon="-2.40941">
        <ele>15</ele>
        <time>2022-05-08T09:37:46.000Z</time>
      </trkpt>
      <trkpt lat="47.29169" lon="-2.40938">
        <ele>15</ele>
        <time>2022-05-08T09:37:47.000Z</time>
      </trkpt>
      <trkpt lat="47.29162" lon="-2.40924">
        <ele>15</ele>
        <time>2022-05-08T09:37:49.000Z</time>
      </trkpt>
      <trkpt lat="47.29162" lon="-2.40907">
        <ele>15</ele>
        <time>2022-05-08T09:37:51.000Z</time>
      </trkpt>
      <trkpt lat="47.29165" lon="-2.40892">
        <ele>15</ele>
        <time>2022-05-08T09:37:53.000Z</time>
      </trkpt>
      <trkpt lat="47.29171" lon="-2.40869">
        <ele>15</ele>
        <time>2022-05-08T09:37:56.000Z</time>
      </trkpt>
      <trkpt lat="47.29171" lon="-2.40838">
        <ele>15</ele>
        <time>2022-05-08T09:38:00.000Z</time>
      </trkpt>
      <trkpt lat="47.29171" lon="-2.4083">
        <ele>15</ele>
        <time>2022-05-08T09:38:01.000Z</time>
      </trkpt>
      <trkpt lat="47.29171" lon="-2.40814">
        <ele>15</ele>
        <time>2022-05-08T09:38:03.000Z</time>
      </trkpt>
      <trkpt lat="47.29174" lon="-2.40798">
        <ele>15</ele>
        <time>2022-05-08T09:38:05.000Z</time>
      </trkpt>
      <trkpt lat="47.2918" lon="-2.40783">
        <ele>15</ele>
        <time>2022-05-08T09:38:07.000Z</time>
      </trkpt>
      <trkpt lat="47.29185" lon="-2.40768">
        <ele>15</ele>
        <time>2022-05-08T09:38:09.000Z</time>
      </trkpt>
      <trkpt lat="47.29194" lon="-2.40747">
        <ele>15</ele>
        <time>2022-05-08T09:38:12.000Z</time>
      </trkpt>
      <trkpt lat="47.29202" lon="-2.40735">
        <ele>15</ele>
        <time>2022-05-08T09:38:14.000Z</time>
      </trkpt>
      <trkpt lat="47.29227" lon="-2.40694">
        <ele>15</ele>
        <time>2022-05-08T09:38:21.000Z</time>
      </trkpt>
      <trkpt lat="47.29232" lon="-2.40663">
        <ele>15</ele>
        <time>2022-05-08T09:38:25.000Z</time>
      </trkpt>
      <trkpt lat="47.29231" lon="-2.40654">
        <ele>15</ele>
        <time>2022-05-08T09:38:26.000Z</time>
      </trkpt>
      <trkpt lat="47.29228" lon="-2.40646">
        <ele>15</ele>
        <time>2022-05-08T09:38:27.000Z</time>
      </trkpt>
      <trkpt lat="47.29221" lon="-2.40631">
        <ele>15</ele>
        <time>2022-05-08T09:38:29.000Z</time>
      </trkpt>
      <trkpt lat="47.29212" lon="-2.40618">
        <ele>14.60000038147</ele>
        <time>2022-05-08T09:38:31.000Z</time>
      </trkpt>
      <trkpt lat="47.29208" lon="-2.40613">
        <ele>14.199999809265</ele>
        <time>2022-05-08T09:38:32.000Z</time>
      </trkpt>
      <trkpt lat="47.29203" lon="-2.40609">
        <ele>13.800000190735</ele>
        <time>2022-05-08T09:38:33.000Z</time>
      </trkpt>
      <trkpt lat="47.29196" lon="-2.40609">
        <ele>13.39999961853</ele>
        <time>2022-05-08T09:38:34.000Z</time>
      </trkpt>
      <trkpt lat="47.29191" lon="-2.40614">
        <ele>13</ele>
        <time>2022-05-08T09:38:35.000Z</time>
      </trkpt>
      <trkpt lat="47.29181" lon="-2.40621">
        <ele>13</ele>
        <time>2022-05-08T09:38:37.000Z</time>
      </trkpt>
      <trkpt lat="47.29161" lon="-2.40636">
        <ele>13</ele>
        <time>2022-05-08T09:38:41.000Z</time>
      </trkpt>
      <trkpt lat="47.29152" lon="-2.40642">
        <ele>13</ele>
        <time>2022-05-08T09:38:43.000Z</time>
      </trkpt>
      <trkpt lat="47.29144" lon="-2.40638">
        <ele>13</ele>
        <time>2022-05-08T09:38:45.000Z</time>
      </trkpt>
      <trkpt lat="47.2914" lon="-2.40617">
        <ele>13</ele>
        <time>2022-05-08T09:38:49.000Z</time>
      </trkpt>
      <trkpt lat="47.2914" lon="-2.40611">
        <ele>13</ele>
        <time>2022-05-08T09:38:50.000Z</time>
      </trkpt>
      <trkpt lat="47.29133" lon="-2.40593">
        <ele>13</ele>
        <time>2022-05-08T09:38:53.000Z</time>
      </trkpt>
      <trkpt lat="47.29131" lon="-2.40587">
        <ele>13</ele>
        <time>2022-05-08T09:38:54.000Z</time>
      </trkpt>
      <trkpt lat="47.29121" lon="-2.4057">
        <ele>13</ele>
        <time>2022-05-08T09:38:57.000Z</time>
      </trkpt>
      <trkpt lat="47.29117" lon="-2.40565">
        <ele>13</ele>
        <time>2022-05-08T09:38:58.000Z</time>
      </trkpt>
      <trkpt lat="47.29102" lon="-2.40548">
        <ele>13</ele>
        <time>2022-05-08T09:39:02.000Z</time>
      </trkpt>
      <trkpt lat="47.29098" lon="-2.40542">
        <ele>13</ele>
        <time>2022-05-08T09:39:03.000Z</time>
      </trkpt>
      <trkpt lat="47.29099" lon="-2.40519">
        <ele>13</ele>
        <time>2022-05-08T09:39:06.000Z</time>
      </trkpt>
      <trkpt lat="47.29108" lon="-2.40503">
        <ele>13</ele>
        <time>2022-05-08T09:39:09.000Z</time>
      </trkpt>
      <trkpt lat="47.29127" lon="-2.40491">
        <ele>13</ele>
        <time>2022-05-08T09:39:13.000Z</time>
      </trkpt>
      <trkpt lat="47.29132" lon="-2.40488">
        <ele>13</ele>
        <time>2022-05-08T09:39:14.000Z</time>
      </trkpt>
      <trkpt lat="47.29137" lon="-2.40486">
        <ele>13</ele>
        <time>2022-05-08T09:39:15.000Z</time>
      </trkpt>
      <trkpt lat="47.29152" lon="-2.40485">
        <ele>13</ele>
        <time>2022-05-08T09:39:18.000Z</time>
      </trkpt>
      <trkpt lat="47.29163" lon="-2.40499">
        <ele>13</ele>
        <time>2022-05-08T09:39:21.000Z</time>
      </trkpt>
      <trkpt lat="47.29166" lon="-2.40505">
        <ele>13</ele>
        <time>2022-05-08T09:39:22.000Z</time>
      </trkpt>
      <trkpt lat="47.29172" lon="-2.40517">
        <ele>13</ele>
        <time>2022-05-08T09:39:24.000Z</time>
      </trkpt>
      <trkpt lat="47.29177" lon="-2.40519">
        <ele>13</ele>
        <time>2022-05-08T09:39:25.000Z</time>
      </trkpt>
      <trkpt lat="47.29192" lon="-2.40515">
        <ele>13</ele>
        <time>2022-05-08T09:39:28.000Z</time>
      </trkpt>
      <trkpt lat="47.29197" lon="-2.40512">
        <ele>13</ele>
        <time>2022-05-08T09:39:29.000Z</time>
      </trkpt>
      <trkpt lat="47.29216" lon="-2.40501">
        <ele>13</ele>
        <time>2022-05-08T09:39:33.000Z</time>
      </trkpt>
      <trkpt lat="47.29252" lon="-2.4048">
        <ele>13</ele>
        <time>2022-05-08T09:39:40.000Z</time>
      </trkpt>
      <trkpt lat="47.29267" lon="-2.40473">
        <ele>13</ele>
        <time>2022-05-08T09:39:43.000Z</time>
      </trkpt>
      <trkpt lat="47.29277" lon="-2.4047">
        <ele>13</ele>
        <time>2022-05-08T09:39:45.000Z</time>
      </trkpt>
      <trkpt lat="47.29282" lon="-2.40467">
        <ele>13</ele>
        <time>2022-05-08T09:39:46.000Z</time>
      </trkpt>
      <trkpt lat="47.29293" lon="-2.40452">
        <ele>13</ele>
        <time>2022-05-08T09:39:49.000Z</time>
      </trkpt>
      <trkpt lat="47.29299" lon="-2.40433">
        <ele>13</ele>
        <time>2022-05-08T09:39:52.000Z</time>
      </trkpt>
      <trkpt lat="47.29303" lon="-2.4042">
        <ele>13</ele>
        <time>2022-05-08T09:39:54.000Z</time>
      </trkpt>
      <trkpt lat="47.29306" lon="-2.40409">
        <ele>13</ele>
        <time>2022-05-08T09:39:56.000Z</time>
      </trkpt>
      <trkpt lat="47.29304" lon="-2.40397">
        <ele>13</ele>
        <time>2022-05-08T09:39:58.000Z</time>
      </trkpt>
      <trkpt lat="47.29299" lon="-2.40387">
        <ele>13</ele>
        <time>2022-05-08T09:40:00.000Z</time>
      </trkpt>
      <trkpt lat="47.29291" lon="-2.40371">
        <ele>13</ele>
        <time>2022-05-08T09:40:03.000Z</time>
      </trkpt>
      <trkpt lat="47.29287" lon="-2.40353">
        <ele>13</ele>
        <time>2022-05-08T09:40:06.000Z</time>
      </trkpt>
      <trkpt lat="47.29288" lon="-2.4034">
        <ele>13</ele>
        <time>2022-05-08T09:40:08.000Z</time>
      </trkpt>
      <trkpt lat="47.29296" lon="-2.40326">
        <ele>13</ele>
        <time>2022-05-08T09:40:11.000Z</time>
      </trkpt>
      <trkpt lat="47.293" lon="-2.40322">
        <ele>13</ele>
        <time>2022-05-08T09:40:12.000Z</time>
      </trkpt>
      <trkpt lat="47.29317" lon="-2.40305">
        <ele>13</ele>
        <time>2022-05-08T09:40:16.000Z</time>
      </trkpt>
      <trkpt lat="47.29321" lon="-2.403">
        <ele>13</ele>
        <time>2022-05-08T09:40:17.000Z</time>
      </trkpt>
      <trkpt lat="47.29338" lon="-2.40281">
        <ele>13</ele>
        <time>2022-05-08T09:40:21.000Z</time>
      </trkpt>
      <trkpt lat="47.29352" lon="-2.40269">
        <ele>13</ele>
        <time>2022-05-08T09:40:24.000Z</time>
      </trkpt>
      <trkpt lat="47.29374" lon="-2.40247">
        <ele>13</ele>
        <time>2022-05-08T09:40:29.000Z</time>
      </trkpt>
      <trkpt lat="47.29378" lon="-2.40244">
        <ele>13</ele>
        <time>2022-05-08T09:40:30.000Z</time>
      </trkpt>
      <trkpt lat="47.294" lon="-2.4023">
        <ele>13</ele>
        <time>2022-05-08T09:40:35.000Z</time>
      </trkpt>
      <trkpt lat="47.29428" lon="-2.40216">
        <ele>13</ele>
        <time>2022-05-08T09:40:41.000Z</time>
      </trkpt>
      <trkpt lat="47.29438" lon="-2.40216">
        <ele>13</ele>
        <time>2022-05-08T09:40:43.000Z</time>
      </trkpt>
      <trkpt lat="47.29445" lon="-2.40207">
        <ele>13</ele>
        <time>2022-05-08T09:40:45.000Z</time>
      </trkpt>
      <trkpt lat="47.29449" lon="-2.40185">
        <ele>13</ele>
        <time>2022-05-08T09:40:48.000Z</time>
      </trkpt>
      <trkpt lat="47.29453" lon="-2.40162">
        <ele>13</ele>
        <time>2022-05-08T09:40:51.000Z</time>
      </trkpt>
      <trkpt lat="47.29456" lon="-2.40124">
        <ele>13</ele>
        <time>2022-05-08T09:40:56.000Z</time>
      </trkpt>
      <trkpt lat="47.29461" lon="-2.40082">
        <ele>13.39999961853</ele>
        <time>2022-05-08T09:41:01.000Z</time>
      </trkpt>
      <trkpt lat="47.29462" lon="-2.40073">
        <ele>13.800000190735</ele>
        <time>2022-05-08T09:41:02.000Z</time>
      </trkpt>
      <trkpt lat="47.29462" lon="-2.40065">
        <ele>14.199999809265</ele>
        <time>2022-05-08T09:41:03.000Z</time>
      </trkpt>
      <trkpt lat="47.29462" lon="-2.40056">
        <ele>15.199999809265</ele>
        <time>2022-05-08T09:41:04.000Z</time>
      </trkpt>
      <trkpt lat="47.2946" lon="-2.40024">
        <ele>15.199999809265</ele>
        <time>2022-05-08T09:41:08.000Z</time>
      </trkpt>
      <trkpt lat="47.29461" lon="-2.39992">
        <ele>15.199999809265</ele>
        <time>2022-05-08T09:41:12.000Z</time>
      </trkpt>
      <trkpt lat="47.29463" lon="-2.39977">
        <ele>15.199999809265</ele>
        <time>2022-05-08T09:41:14.000Z</time>
      </trkpt>
      <trkpt lat="47.29464" lon="-2.3997">
        <ele>15.199999809265</ele>
        <time>2022-05-08T09:41:15.000Z</time>
      </trkpt>
      <trkpt lat="47.29472" lon="-2.39946">
        <ele>15.199999809265</ele>
        <time>2022-05-08T09:41:19.000Z</time>
      </trkpt>
      <trkpt lat="47.29484" lon="-2.39917">
        <ele>15.199999809265</ele>
        <time>2022-05-08T09:41:25.000Z</time>
      </trkpt>
      <trkpt lat="47.29491" lon="-2.39899">
        <ele>15.199999809265</ele>
        <time>2022-05-08T09:41:30.000Z</time>
      </trkpt>
      <trkpt lat="47.29493" lon="-2.39899">
        <ele>15.199999809265</ele>
        <time>2022-05-08T09:41:33.000Z</time>
      </trkpt>
      <trkpt lat="47.29495" lon="-2.39898">
        <ele>15.199999809265</ele>
        <time>2022-05-08T09:42:34.000Z</time>
      </trkpt>
      <trkpt lat="47.29498" lon="-2.39894">
        <ele>15.199999809265</ele>
        <time>2022-05-08T09:42:36.000Z</time>
      </trkpt>
      <trkpt lat="47.295" lon="-2.39892">
        <ele>15.199999809265</ele>
        <time>2022-05-08T09:42:37.000Z</time>
      </trkpt>
      <trkpt lat="47.29511" lon="-2.3987">
        <ele>15.199999809265</ele>
        <time>2022-05-08T09:42:42.000Z</time>
      </trkpt>
      <trkpt lat="47.29534" lon="-2.39822">
        <ele>15.199999809265</ele>
        <time>2022-05-08T09:42:50.000Z</time>
      </trkpt>
      <trkpt lat="47.29553" lon="-2.39783">
        <ele>15.199999809265</ele>
        <time>2022-05-08T09:42:56.000Z</time>
      </trkpt>
      <trkpt lat="47.29577" lon="-2.39732">
        <ele>15.199999809265</ele>
        <time>2022-05-08T09:43:04.000Z</time>
      </trkpt>
      <trkpt lat="47.29608" lon="-2.39679">
        <ele>15.199999809265</ele>
        <time>2022-05-08T09:43:13.000Z</time>
      </trkpt>
      <trkpt lat="47.29623" lon="-2.39651">
        <ele>15.199999809265</ele>
        <time>2022-05-08T09:43:18.000Z</time>
      </trkpt>
      <trkpt lat="47.29625" lon="-2.39644">
        <ele>15.199999809265</ele>
        <time>2022-05-08T09:43:19.000Z</time>
      </trkpt>
      <trkpt lat="47.29628" lon="-2.39623">
        <ele>15.199999809265</ele>
        <time>2022-05-08T09:43:22.000Z</time>
      </trkpt>
      <trkpt lat="47.29628" lon="-2.39616">
        <ele>15.199999809265</ele>
        <time>2022-05-08T09:43:23.000Z</time>
      </trkpt>
      <trkpt lat="47.29629" lon="-2.3961">
        <ele>15.199999809265</ele>
        <time>2022-05-08T09:43:24.000Z</time>
      </trkpt>
      <trkpt lat="47.29629" lon="-2.39603">
        <ele>15.199999809265</ele>
        <time>2022-05-08T09:43:25.000Z</time>
      </trkpt>
      <trkpt lat="47.29627" lon="-2.39579">
        <ele>15.199999809265</ele>
        <time>2022-05-08T09:43:29.000Z</time>
      </trkpt>
      <trkpt lat="47.2962" lon="-2.3957">
        <ele>15.199999809265</ele>
        <time>2022-05-08T09:43:32.000Z</time>
      </trkpt>
      <trkpt lat="47.29617" lon="-2.39571">
        <ele>15.199999809265</ele>
        <time>2022-05-08T09:43:33.000Z</time>
      </trkpt>
      <trkpt lat="47.29611" lon="-2.39569">
        <ele>15.199999809265</ele>
        <time>2022-05-08T09:43:35.000Z</time>
      </trkpt>
      <trkpt lat="47.2961" lon="-2.39567">
        <ele>15.199999809265</ele>
        <time>2022-05-08T09:43:36.000Z</time>
      </trkpt>
      <trkpt lat="47.29614" lon="-2.39561">
        <ele>15.199999809265</ele>
        <time>2022-05-08T09:43:39.000Z</time>
      </trkpt>
      <trkpt lat="47.29617" lon="-2.39561">
        <ele>15.199999809265</ele>
        <time>2022-05-08T09:43:40.000Z</time>
      </trkpt>
      <trkpt lat="47.29619" lon="-2.3956">
        <ele>15.60000038147</ele>
        <time>2022-05-08T09:43:41.000Z</time>
      </trkpt>
      <trkpt lat="47.29622" lon="-2.39559">
        <ele>16</ele>
        <time>2022-05-08T09:43:42.000Z</time>
      </trkpt>
      <trkpt lat="47.29623" lon="-2.39557">
        <ele>16.39999961853</ele>
        <time>2022-05-08T09:43:43.000Z</time>
      </trkpt>
      <trkpt lat="47.29625" lon="-2.39555">
        <ele>16.799999237061</ele>
        <time>2022-05-08T09:43:44.000Z</time>
      </trkpt>
      <trkpt lat="47.29625" lon="-2.39553">
        <ele>17.200000762939</ele>
        <time>2022-05-08T09:43:45.000Z</time>
      </trkpt>
      <trkpt lat="47.29618" lon="-2.39553">
        <ele>17.200000762939</ele>
        <time>2022-05-08T09:43:48.000Z</time>
      </trkpt>
      <trkpt lat="47.29608" lon="-2.39553">
        <ele>17.60000038147</ele>
        <time>2022-05-08T09:43:51.000Z</time>
      </trkpt>
      <trkpt lat="47.29604" lon="-2.39552">
        <ele>18.200000762939</ele>
        <time>2022-05-08T09:43:52.000Z</time>
      </trkpt>
      <trkpt lat="47.29601" lon="-2.39552">
        <ele>18.60000038147</ele>
        <time>2022-05-08T09:43:53.000Z</time>
      </trkpt>
      <trkpt lat="47.29598" lon="-2.39551">
        <ele>19</ele>
        <time>2022-05-08T09:43:54.000Z</time>
      </trkpt>
      <trkpt lat="47.29595" lon="-2.39551">
        <ele>19.39999961853</ele>
        <time>2022-05-08T09:43:55.000Z</time>
      </trkpt>
      <trkpt lat="47.29579" lon="-2.39548">
        <ele>19.39999961853</ele>
        <time>2022-05-08T09:44:00.000Z</time>
      </trkpt>
      <trkpt lat="47.29558" lon="-2.39542">
        <ele>19.39999961853</ele>
        <time>2022-05-08T09:44:04.000Z</time>
      </trkpt>
      <trkpt lat="47.29521" lon="-2.39534">
        <ele>19.39999961853</ele>
        <time>2022-05-08T09:44:09.000Z</time>
      </trkpt>
      <trkpt lat="47.29505" lon="-2.39531">
        <ele>19</ele>
        <time>2022-05-08T09:44:11.000Z</time>
      </trkpt>
      <trkpt lat="47.29497" lon="-2.3953">
        <ele>18.60000038147</ele>
        <time>2022-05-08T09:44:12.000Z</time>
      </trkpt>
      <trkpt lat="47.2949" lon="-2.39528">
        <ele>18.200000762939</ele>
        <time>2022-05-08T09:44:13.000Z</time>
      </trkpt>
      <trkpt lat="47.29482" lon="-2.39526">
        <ele>17.799999237061</ele>
        <time>2022-05-08T09:44:14.000Z</time>
      </trkpt>
      <trkpt lat="47.29474" lon="-2.39525">
        <ele>17.39999961853</ele>
        <time>2022-05-08T09:44:15.000Z</time>
      </trkpt>
      <trkpt lat="47.29425" lon="-2.39514">
        <ele>17</ele>
        <time>2022-05-08T09:44:22.000Z</time>
      </trkpt>
      <trkpt lat="47.29419" lon="-2.39513">
        <ele>16.60000038147</ele>
        <time>2022-05-08T09:44:23.000Z</time>
      </trkpt>
      <trkpt lat="47.29413" lon="-2.39511">
        <ele>16.200000762939</ele>
        <time>2022-05-08T09:44:24.000Z</time>
      </trkpt>
      <trkpt lat="47.29407" lon="-2.39509">
        <ele>15.800000190735</ele>
        <time>2022-05-08T09:44:25.000Z</time>
      </trkpt>
      <trkpt lat="47.29402" lon="-2.39508">
        <ele>15.39999961853</ele>
        <time>2022-05-08T09:44:26.000Z</time>
      </trkpt>
      <trkpt lat="47.29396" lon="-2.39506">
        <ele>15.39999961853</ele>
        <time>2022-05-08T09:44:28.000Z</time>
      </trkpt>
      <trkpt lat="47.29395" lon="-2.39505">
        <ele>15.39999961853</ele>
        <time>2022-05-08T09:44:30.000Z</time>
      </trkpt>
      <trkpt lat="47.29393" lon="-2.39506">
        <ele>15.39999961853</ele>
        <time>2022-05-08T09:45:02.000Z</time>
      </trkpt>
      <trkpt lat="47.29392" lon="-2.39506">
        <ele>15.39999961853</ele>
        <time>2022-05-08T09:45:03.000Z</time>
      </trkpt>
      <trkpt lat="47.2938" lon="-2.39505">
        <ele>15.39999961853</ele>
        <time>2022-05-08T09:45:08.000Z</time>
      </trkpt>
      <trkpt lat="47.29373" lon="-2.39504">
        <ele>15.39999961853</ele>
        <time>2022-05-08T09:45:10.000Z</time>
      </trkpt>
      <trkpt lat="47.29359" lon="-2.39502">
        <ele>15.39999961853</ele>
        <time>2022-05-08T09:45:13.000Z</time>
      </trkpt>
      <trkpt lat="47.2933" lon="-2.39497">
        <ele>15.39999961853</ele>
        <time>2022-05-08T09:45:18.000Z</time>
      </trkpt>
      <trkpt lat="47.29277" lon="-2.39486">
        <ele>15.39999961853</ele>
        <time>2022-05-08T09:45:26.000Z</time>
      </trkpt>
      <trkpt lat="47.29239" lon="-2.39478">
        <ele>15.39999961853</ele>
        <time>2022-05-08T09:45:32.000Z</time>
      </trkpt>
      <trkpt lat="47.29195" lon="-2.3947">
        <ele>15.39999961853</ele>
        <time>2022-05-08T09:45:39.000Z</time>
      </trkpt>
      <trkpt lat="47.29188" lon="-2.39468">
        <ele>15.39999961853</ele>
        <time>2022-05-08T09:45:40.000Z</time>
      </trkpt>
      <trkpt lat="47.29164" lon="-2.39464">
        <ele>15.39999961853</ele>
        <time>2022-05-08T09:45:44.000Z</time>
      </trkpt>
      <trkpt lat="47.29149" lon="-2.39462">
        <ele>15.39999961853</ele>
        <time>2022-05-08T09:45:47.000Z</time>
      </trkpt>
      <trkpt lat="47.29146" lon="-2.39462">
        <ele>15.39999961853</ele>
        <time>2022-05-08T09:45:48.000Z</time>
      </trkpt>
      <trkpt lat="47.2914" lon="-2.39454">
        <ele>15.39999961853</ele>
        <time>2022-05-08T09:45:51.000Z</time>
      </trkpt>
      <trkpt lat="47.29139" lon="-2.39442">
        <ele>15.39999961853</ele>
        <time>2022-05-08T09:45:54.000Z</time>
      </trkpt>
      <trkpt lat="47.29135" lon="-2.39418">
        <ele>15.39999961853</ele>
        <time>2022-05-08T09:45:58.000Z</time>
      </trkpt>
      <trkpt lat="47.29135" lon="-2.39402">
        <ele>15.39999961853</ele>
        <time>2022-05-08T09:46:00.000Z</time>
      </trkpt>
      <trkpt lat="47.29135" lon="-2.39378">
        <ele>15.39999961853</ele>
        <time>2022-05-08T09:46:03.000Z</time>
      </trkpt>
      <trkpt lat="47.29132" lon="-2.39371">
        <ele>15.39999961853</ele>
        <time>2022-05-08T09:46:04.000Z</time>
      </trkpt>
      <trkpt lat="47.29119" lon="-2.39366">
        <ele>15.39999961853</ele>
        <time>2022-05-08T09:46:07.000Z</time>
      </trkpt>
      <trkpt lat="47.29105" lon="-2.39374">
        <ele>15.39999961853</ele>
        <time>2022-05-08T09:46:10.000Z</time>
      </trkpt>
      <trkpt lat="47.29101" lon="-2.39376">
        <ele>15.39999961853</ele>
        <time>2022-05-08T09:46:11.000Z</time>
      </trkpt>
      <trkpt lat="47.29096" lon="-2.39377">
        <ele>15.39999961853</ele>
        <time>2022-05-08T09:46:12.000Z</time>
      </trkpt>
      <trkpt lat="47.29082" lon="-2.39366">
        <ele>15.39999961853</ele>
        <time>2022-05-08T09:46:15.000Z</time>
      </trkpt>
      <trkpt lat="47.29064" lon="-2.39353">
        <ele>15.800000190735</ele>
        <time>2022-05-08T09:46:18.000Z</time>
      </trkpt>
      <trkpt lat="47.29057" lon="-2.3935">
        <ele>16.200000762939</ele>
        <time>2022-05-08T09:46:19.000Z</time>
      </trkpt>
      <trkpt lat="47.2905" lon="-2.39346">
        <ele>16.60000038147</ele>
        <time>2022-05-08T09:46:20.000Z</time>
      </trkpt>
      <trkpt lat="47.29043" lon="-2.39343">
        <ele>17</ele>
        <time>2022-05-08T09:46:21.000Z</time>
      </trkpt>
      <trkpt lat="47.29036" lon="-2.39339">
        <ele>17.39999961853</ele>
        <time>2022-05-08T09:46:22.000Z</time>
      </trkpt>
      <trkpt lat="47.29022" lon="-2.39333">
        <ele>16.60000038147</ele>
        <time>2022-05-08T09:46:24.000Z</time>
      </trkpt>
      <trkpt lat="47.29016" lon="-2.3933">
        <ele>16</ele>
        <time>2022-05-08T09:46:25.000Z</time>
      </trkpt>
      <trkpt lat="47.29009" lon="-2.39326">
        <ele>15.60000038147</ele>
        <time>2022-05-08T09:46:26.000Z</time>
      </trkpt>
      <trkpt lat="47.29002" lon="-2.39323">
        <ele>15.199999809265</ele>
        <time>2022-05-08T09:46:27.000Z</time>
      </trkpt>
      <trkpt lat="47.28982" lon="-2.39316">
        <ele>15.199999809265</ele>
        <time>2022-05-08T09:46:30.000Z</time>
      </trkpt>
      <trkpt lat="47.28975" lon="-2.39317">
        <ele>15.199999809265</ele>
        <time>2022-05-08T09:46:31.000Z</time>
      </trkpt>
      <trkpt lat="47.28957" lon="-2.39318">
        <ele>15.199999809265</ele>
        <time>2022-05-08T09:46:34.000Z</time>
      </trkpt>
      <trkpt lat="47.28947" lon="-2.39313">
        <ele>15.199999809265</ele>
        <time>2022-05-08T09:46:36.000Z</time>
      </trkpt>
      <trkpt lat="47.28938" lon="-2.39291">
        <ele>15.199999809265</ele>
        <time>2022-05-08T09:46:39.000Z</time>
      </trkpt>
      <trkpt lat="47.28936" lon="-2.39282">
        <ele>15.199999809265</ele>
        <time>2022-05-08T09:46:40.000Z</time>
      </trkpt>
      <trkpt lat="47.28933" lon="-2.39265">
        <ele>15.199999809265</ele>
        <time>2022-05-08T09:46:42.000Z</time>
      </trkpt>
      <trkpt lat="47.28932" lon="-2.39247">
        <ele>15.199999809265</ele>
        <time>2022-05-08T09:46:44.000Z</time>
      </trkpt>
      <trkpt lat="47.28931" lon="-2.39219">
        <ele>15.60000038147</ele>
        <time>2022-05-08T09:46:47.000Z</time>
      </trkpt>
      <trkpt lat="47.28931" lon="-2.3921">
        <ele>16.200000762939</ele>
        <time>2022-05-08T09:46:48.000Z</time>
      </trkpt>
      <trkpt lat="47.28931" lon="-2.39201">
        <ele>17.200000762939</ele>
        <time>2022-05-08T09:46:49.000Z</time>
      </trkpt>
      <trkpt lat="47.28931" lon="-2.39191">
        <ele>17.60000038147</ele>
        <time>2022-05-08T09:46:50.000Z</time>
      </trkpt>
      <trkpt lat="47.28931" lon="-2.39182">
        <ele>17.60000038147</ele>
        <time>2022-05-08T09:46:51.000Z</time>
      </trkpt>
      <trkpt lat="47.28936" lon="-2.39125">
        <ele>17.60000038147</ele>
        <time>2022-05-08T09:46:57.000Z</time>
      </trkpt>
      <trkpt lat="47.28939" lon="-2.39096">
        <ele>17.60000038147</ele>
        <time>2022-05-08T09:47:00.000Z</time>
      </trkpt>
      <trkpt lat="47.28943" lon="-2.39058">
        <ele>17.60000038147</ele>
        <time>2022-05-08T09:47:04.000Z</time>
      </trkpt>
      <trkpt lat="47.28945" lon="-2.39039">
        <ele>17.60000038147</ele>
        <time>2022-05-08T09:47:06.000Z</time>
      </trkpt>
      <trkpt lat="47.28947" lon="-2.39001">
        <ele>17.60000038147</ele>
        <time>2022-05-08T09:47:10.000Z</time>
      </trkpt>
      <trkpt lat="47.28951" lon="-2.38933">
        <ele>17.60000038147</ele>
        <time>2022-05-08T09:47:17.000Z</time>
      </trkpt>
      <trkpt lat="47.28956" lon="-2.38864">
        <ele>17.60000038147</ele>
        <time>2022-05-08T09:47:24.000Z</time>
      </trkpt>
      <trkpt lat="47.28959" lon="-2.38807">
        <ele>17.60000038147</ele>
        <time>2022-05-08T09:47:30.000Z</time>
      </trkpt>
      <trkpt lat="47.28958" lon="-2.38744">
        <ele>17.60000038147</ele>
        <time>2022-05-08T09:47:37.000Z</time>
      </trkpt>
      <trkpt lat="47.28957" lon="-2.38677">
        <ele>17.60000038147</ele>
        <time>2022-05-08T09:47:44.000Z</time>
      </trkpt>
      <trkpt lat="47.28956" lon="-2.38599">
        <ele>17.60000038147</ele>
        <time>2022-05-08T09:47:52.000Z</time>
      </trkpt>
      <trkpt lat="47.28951" lon="-2.3853">
        <ele>17.60000038147</ele>
        <time>2022-05-08T09:47:59.000Z</time>
      </trkpt>
      <trkpt lat="47.28944" lon="-2.38464">
        <ele>17.60000038147</ele>
        <time>2022-05-08T09:48:06.000Z</time>
      </trkpt>
      <trkpt lat="47.28939" lon="-2.38399">
        <ele>17.60000038147</ele>
        <time>2022-05-08T09:48:13.000Z</time>
      </trkpt>
      <trkpt lat="47.28934" lon="-2.38322">
        <ele>17.60000038147</ele>
        <time>2022-05-08T09:48:21.000Z</time>
      </trkpt>
      <trkpt lat="47.28935" lon="-2.38284">
        <ele>17.200000762939</ele>
        <time>2022-05-08T09:48:25.000Z</time>
      </trkpt>
      <trkpt lat="47.28936" lon="-2.38274">
        <ele>16.799999237061</ele>
        <time>2022-05-08T09:48:26.000Z</time>
      </trkpt>
      <trkpt lat="47.28937" lon="-2.38265">
        <ele>15.800000190735</ele>
        <time>2022-05-08T09:48:27.000Z</time>
      </trkpt>
      <trkpt lat="47.28938" lon="-2.38256">
        <ele>15.39999961853</ele>
        <time>2022-05-08T09:48:28.000Z</time>
      </trkpt>
      <trkpt lat="47.28938" lon="-2.38238">
        <ele>15.39999961853</ele>
        <time>2022-05-08T09:48:30.000Z</time>
      </trkpt>
      <trkpt lat="47.28936" lon="-2.3823">
        <ele>15.39999961853</ele>
        <time>2022-05-08T09:48:31.000Z</time>
      </trkpt>
      <trkpt lat="47.28922" lon="-2.38217">
        <ele>15.39999961853</ele>
        <time>2022-05-08T09:48:34.000Z</time>
      </trkpt>
      <trkpt lat="47.28917" lon="-2.38214">
        <ele>15.39999961853</ele>
        <time>2022-05-08T09:48:35.000Z</time>
      </trkpt>
      <trkpt lat="47.28913" lon="-2.3821">
        <ele>15.39999961853</ele>
        <time>2022-05-08T09:48:36.000Z</time>
      </trkpt>
      <trkpt lat="47.28904" lon="-2.382">
        <ele>15.39999961853</ele>
        <time>2022-05-08T09:48:38.000Z</time>
      </trkpt>
      <trkpt lat="47.28902" lon="-2.38193">
        <ele>15.39999961853</ele>
        <time>2022-05-08T09:48:39.000Z</time>
      </trkpt>
      <trkpt lat="47.28902" lon="-2.3817">
        <ele>15.39999961853</ele>
        <time>2022-05-08T09:48:42.000Z</time>
      </trkpt>
      <trkpt lat="47.28906" lon="-2.38113">
        <ele>15.39999961853</ele>
        <time>2022-05-08T09:48:49.000Z</time>
      </trkpt>
      <trkpt lat="47.28908" lon="-2.38059">
        <ele>15.39999961853</ele>
        <time>2022-05-08T09:48:56.000Z</time>
      </trkpt>
      <trkpt lat="47.28911" lon="-2.38004">
        <ele>15.39999961853</ele>
        <time>2022-05-08T09:49:03.000Z</time>
      </trkpt>
      <trkpt lat="47.28913" lon="-2.37963">
        <ele>15.39999961853</ele>
        <time>2022-05-08T09:49:09.000Z</time>
      </trkpt>
      <trkpt lat="47.28916" lon="-2.37931">
        <ele>15.39999961853</ele>
        <time>2022-05-08T09:49:15.000Z</time>
      </trkpt>
      <trkpt lat="47.28917" lon="-2.37914">
        <ele>15.39999961853</ele>
        <time>2022-05-08T09:49:18.000Z</time>
      </trkpt>
      <trkpt lat="47.28919" lon="-2.37894">
        <ele>15.39999961853</ele>
        <time>2022-05-08T09:49:21.000Z</time>
      </trkpt>
      <trkpt lat="47.2892" lon="-2.3788">
        <ele>15.39999961853</ele>
        <time>2022-05-08T09:49:23.000Z</time>
      </trkpt>
      <trkpt lat="47.28923" lon="-2.3785">
        <ele>15.39999961853</ele>
        <time>2022-05-08T09:49:27.000Z</time>
      </trkpt>
      <trkpt lat="47.28927" lon="-2.37801">
        <ele>15.39999961853</ele>
        <time>2022-05-08T09:49:33.000Z</time>
      </trkpt>
      <trkpt lat="47.28931" lon="-2.37743">
        <ele>15.39999961853</ele>
        <time>2022-05-08T09:49:40.000Z</time>
      </trkpt>
      <trkpt lat="47.28935" lon="-2.37695">
        <ele>15.39999961853</ele>
        <time>2022-05-08T09:49:46.000Z</time>
      </trkpt>
      <trkpt lat="47.28936" lon="-2.37687">
        <ele>15.39999961853</ele>
        <time>2022-05-08T09:49:47.000Z</time>
      </trkpt>
      <trkpt lat="47.28935" lon="-2.37657">
        <ele>15.39999961853</ele>
        <time>2022-05-08T09:49:51.000Z</time>
      </trkpt>
      <trkpt lat="47.28932" lon="-2.37651">
        <ele>15.39999961853</ele>
        <time>2022-05-08T09:49:52.000Z</time>
      </trkpt>
      <trkpt lat="47.28917" lon="-2.37646">
        <ele>15.39999961853</ele>
        <time>2022-05-08T09:49:55.000Z</time>
      </trkpt>
      <trkpt lat="47.28902" lon="-2.3765">
        <ele>15.39999961853</ele>
        <time>2022-05-08T09:49:58.000Z</time>
      </trkpt>
      <trkpt lat="47.28886" lon="-2.37653">
        <ele>15.39999961853</ele>
        <time>2022-05-08T09:50:01.000Z</time>
      </trkpt>
      <trkpt lat="47.28872" lon="-2.37655">
        <ele>15.39999961853</ele>
        <time>2022-05-08T09:50:04.000Z</time>
      </trkpt>
      <trkpt lat="47.28862" lon="-2.37649">
        <ele>15.39999961853</ele>
        <time>2022-05-08T09:50:06.000Z</time>
      </trkpt>
      <trkpt lat="47.28856" lon="-2.37628">
        <ele>15.39999961853</ele>
        <time>2022-05-08T09:50:09.000Z</time>
      </trkpt>
      <trkpt lat="47.28854" lon="-2.37615">
        <ele>15.800000190735</ele>
        <time>2022-05-08T09:50:11.000Z</time>
      </trkpt>
      <trkpt lat="47.28853" lon="-2.37608">
        <ele>16.200000762939</ele>
        <time>2022-05-08T09:50:12.000Z</time>
      </trkpt>
      <trkpt lat="47.28854" lon="-2.37602">
        <ele>16.60000038147</ele>
        <time>2022-05-08T09:50:13.000Z</time>
      </trkpt>
      <trkpt lat="47.28855" lon="-2.37595">
        <ele>17.200000762939</ele>
        <time>2022-05-08T09:50:14.000Z</time>
      </trkpt>
      <trkpt lat="47.28857" lon="-2.37589">
        <ele>17.60000038147</ele>
        <time>2022-05-08T09:50:15.000Z</time>
      </trkpt>
      <trkpt lat="47.28867" lon="-2.37565">
        <ele>17.60000038147</ele>
        <time>2022-05-08T09:50:19.000Z</time>
      </trkpt>
      <trkpt lat="47.28881" lon="-2.37537">
        <ele>17.60000038147</ele>
        <time>2022-05-08T09:50:24.000Z</time>
      </trkpt>
      <trkpt lat="47.28882" lon="-2.37525">
        <ele>17.60000038147</ele>
        <time>2022-05-08T09:50:26.000Z</time>
      </trkpt>
      <trkpt lat="47.2888" lon="-2.37512">
        <ele>17.60000038147</ele>
        <time>2022-05-08T09:50:28.000Z</time>
      </trkpt>
      <trkpt lat="47.28876" lon="-2.37492">
        <ele>17.60000038147</ele>
        <time>2022-05-08T09:50:31.000Z</time>
      </trkpt>
      <trkpt lat="47.28871" lon="-2.3745">
        <ele>17.60000038147</ele>
        <time>2022-05-08T09:50:37.000Z</time>
      </trkpt>
      <trkpt lat="47.28864" lon="-2.37393">
        <ele>17.60000038147</ele>
        <time>2022-05-08T09:50:45.000Z</time>
      </trkpt>
      <trkpt lat="47.28857" lon="-2.37332">
        <ele>17.60000038147</ele>
        <time>2022-05-08T09:50:53.000Z</time>
      </trkpt>
      <trkpt lat="47.28855" lon="-2.37298">
        <ele>17.60000038147</ele>
        <time>2022-05-08T09:50:58.000Z</time>
      </trkpt>
      <trkpt lat="47.28853" lon="-2.37256">
        <ele>17.60000038147</ele>
        <time>2022-05-08T09:51:05.000Z</time>
      </trkpt>
      <trkpt lat="47.28844" lon="-2.37233">
        <ele>17.60000038147</ele>
        <time>2022-05-08T09:51:10.000Z</time>
      </trkpt>
      <trkpt lat="47.28843" lon="-2.37228">
        <ele>17.60000038147</ele>
        <time>2022-05-08T09:51:11.000Z</time>
      </trkpt>
      <trkpt lat="47.28836" lon="-2.37203">
        <ele>17.60000038147</ele>
        <time>2022-05-08T09:51:15.000Z</time>
      </trkpt>
      <trkpt lat="47.28828" lon="-2.37165">
        <ele>17.60000038147</ele>
        <time>2022-05-08T09:51:21.000Z</time>
      </trkpt>
      <trkpt lat="47.28824" lon="-2.37149">
        <ele>18</ele>
        <time>2022-05-08T09:51:25.000Z</time>
      </trkpt>
      <trkpt lat="47.28823" lon="-2.37144">
        <ele>18.39999961853</ele>
        <time>2022-05-08T09:51:26.000Z</time>
      </trkpt>
      <trkpt lat="47.28822" lon="-2.3714">
        <ele>18.799999237061</ele>
        <time>2022-05-08T09:51:27.000Z</time>
      </trkpt>
      <trkpt lat="47.28821" lon="-2.37136">
        <ele>19.200000762939</ele>
        <time>2022-05-08T09:51:28.000Z</time>
      </trkpt>
      <trkpt lat="47.28821" lon="-2.37132">
        <ele>19.60000038147</ele>
        <time>2022-05-08T09:51:29.000Z</time>
      </trkpt>
      <trkpt lat="47.28821" lon="-2.3712">
        <ele>19.60000038147</ele>
        <time>2022-05-08T09:51:32.000Z</time>
      </trkpt>
      <trkpt lat="47.28819" lon="-2.3711">
        <ele>19.60000038147</ele>
        <time>2022-05-08T09:51:36.000Z</time>
      </trkpt>
      <trkpt lat="47.28817" lon="-2.3711">
        <ele>19.60000038147</ele>
        <time>2022-05-08T09:51:37.000Z</time>
      </trkpt>
      <trkpt lat="47.28811" lon="-2.37115">
        <ele>19.60000038147</ele>
        <time>2022-05-08T09:51:42.000Z</time>
      </trkpt>
      <trkpt lat="47.28809" lon="-2.37116">
        <ele>20.200000762939</ele>
        <time>2022-05-08T09:51:43.000Z</time>
      </trkpt>
      <trkpt lat="47.28808" lon="-2.37116">
        <ele>20.60000038147</ele>
        <time>2022-05-08T09:51:44.000Z</time>
      </trkpt>
      <trkpt lat="47.28806" lon="-2.37116">
        <ele>21</ele>
        <time>2022-05-08T09:51:45.000Z</time>
      </trkpt>
      <trkpt lat="47.28803" lon="-2.37117">
        <ele>22</ele>
        <time>2022-05-08T09:51:46.000Z</time>
      </trkpt>
      <trkpt lat="47.288" lon="-2.37117">
        <ele>22.60000038147</ele>
        <time>2022-05-08T09:51:48.000Z</time>
      </trkpt>
      <trkpt lat="47.28798" lon="-2.37116">
        <ele>23</ele>
        <time>2022-05-08T09:51:49.000Z</time>
      </trkpt>
      <trkpt lat="47.28797" lon="-2.37115">
        <ele>23.39999961853</ele>
        <time>2022-05-08T09:51:50.000Z</time>
      </trkpt>
      <trkpt lat="47.28796" lon="-2.37113">
        <ele>24</ele>
        <time>2022-05-08T09:51:51.000Z</time>
      </trkpt>
      <trkpt lat="47.28795" lon="-2.37111">
        <ele>24.39999961853</ele>
        <time>2022-05-08T09:51:52.000Z</time>
      </trkpt>
      <trkpt lat="47.28793" lon="-2.37104">
        <ele>24.39999961853</ele>
        <time>2022-05-08T09:51:54.000Z</time>
      </trkpt>
      <trkpt lat="47.28788" lon="-2.3708">
        <ele>24.799999237061</ele>
        <time>2022-05-08T09:52:00.000Z</time>
      </trkpt>
      <trkpt lat="47.28787" lon="-2.37076">
        <ele>25.200000762939</ele>
        <time>2022-05-08T09:52:01.000Z</time>
      </trkpt>
      <trkpt lat="47.28787" lon="-2.37074">
        <ele>25.60000038147</ele>
        <time>2022-05-08T09:52:02.000Z</time>
      </trkpt>
      <trkpt lat="47.28786" lon="-2.37071">
        <ele>26.200000762939</ele>
        <time>2022-05-08T09:52:03.000Z</time>
      </trkpt>
      <trkpt lat="47.28786" lon="-2.37068">
        <ele>26.60000038147</ele>
        <time>2022-05-08T09:52:04.000Z</time>
      </trkpt>
      <trkpt lat="47.28784" lon="-2.37063">
        <ele>26.60000038147</ele>
        <time>2022-05-08T09:52:06.000Z</time>
      </trkpt>
      <trkpt lat="47.28783" lon="-2.37059">
        <ele>27</ele>
        <time>2022-05-08T09:52:07.000Z</time>
      </trkpt>
      <trkpt lat="47.28782" lon="-2.37056">
        <ele>27.39999961853</ele>
        <time>2022-05-08T09:52:08.000Z</time>
      </trkpt>
      <trkpt lat="47.28781" lon="-2.37053">
        <ele>27.799999237061</ele>
        <time>2022-05-08T09:52:09.000Z</time>
      </trkpt>
      <trkpt lat="47.2878" lon="-2.3705">
        <ele>28.60000038147</ele>
        <time>2022-05-08T09:52:10.000Z</time>
      </trkpt>
      <trkpt lat="47.28776" lon="-2.37037">
        <ele>28.60000038147</ele>
        <time>2022-05-08T09:52:13.000Z</time>
      </trkpt>
      <trkpt lat="47.28772" lon="-2.37016">
        <ele>28.60000038147</ele>
        <time>2022-05-08T09:52:18.000Z</time>
      </trkpt>
      <trkpt lat="47.28769" lon="-2.37012">
        <ele>29.200000762939</ele>
        <time>2022-05-08T09:52:20.000Z</time>
      </trkpt>
      <trkpt lat="47.28768" lon="-2.37008">
        <ele>29.60000038147</ele>
        <time>2022-05-08T09:52:21.000Z</time>
      </trkpt>
      <trkpt lat="47.28766" lon="-2.37004">
        <ele>30</ele>
        <time>2022-05-08T09:52:22.000Z</time>
      </trkpt>
      <trkpt lat="47.28765" lon="-2.37">
        <ele>30.39999961853</ele>
        <time>2022-05-08T09:52:23.000Z</time>
      </trkpt>
      <trkpt lat="47.28762" lon="-2.36995">
        <ele>30.799999237061</ele>
        <time>2022-05-08T09:52:24.000Z</time>
      </trkpt>
      <trkpt lat="47.28754" lon="-2.36971">
        <ele>30.799999237061</ele>
        <time>2022-05-08T09:52:29.000Z</time>
      </trkpt>
      <trkpt lat="47.28751" lon="-2.36954">
        <ele>30.39999961853</ele>
        <time>2022-05-08T09:52:32.000Z</time>
      </trkpt>
      <trkpt lat="47.28749" lon="-2.36947">
        <ele>30</ele>
        <time>2022-05-08T09:52:33.000Z</time>
      </trkpt>
      <trkpt lat="47.28746" lon="-2.36941">
        <ele>29.39999961853</ele>
        <time>2022-05-08T09:52:34.000Z</time>
      </trkpt>
      <trkpt lat="47.28743" lon="-2.36935">
        <ele>28.39999961853</ele>
        <time>2022-05-08T09:52:35.000Z</time>
      </trkpt>
      <trkpt lat="47.28739" lon="-2.36929">
        <ele>27.799999237061</ele>
        <time>2022-05-08T09:52:36.000Z</time>
      </trkpt>
      <trkpt lat="47.28734" lon="-2.36923">
        <ele>27.39999961853</ele>
        <time>2022-05-08T09:52:37.000Z</time>
      </trkpt>
      <trkpt lat="47.28729" lon="-2.3692">
        <ele>26.799999237061</ele>
        <time>2022-05-08T09:52:38.000Z</time>
      </trkpt>
      <trkpt lat="47.28725" lon="-2.36917">
        <ele>26.200000762939</ele>
        <time>2022-05-08T09:52:39.000Z</time>
      </trkpt>
      <trkpt lat="47.28721" lon="-2.36914">
        <ele>26.200000762939</ele>
        <time>2022-05-08T09:52:40.000Z</time>
      </trkpt>
      <trkpt lat="47.28713" lon="-2.36904">
        <ele>26.200000762939</ele>
        <time>2022-05-08T09:52:43.000Z</time>
      </trkpt>
      <trkpt lat="47.2871" lon="-2.36897">
        <ele>26.200000762939</ele>
        <time>2022-05-08T09:52:45.000Z</time>
      </trkpt>
      <trkpt lat="47.28708" lon="-2.36892">
        <ele>26.60000038147</ele>
        <time>2022-05-08T09:52:46.000Z</time>
      </trkpt>
      <trkpt lat="47.28707" lon="-2.36888">
        <ele>27</ele>
        <time>2022-05-08T09:52:47.000Z</time>
      </trkpt>
      <trkpt lat="47.28705" lon="-2.36883">
        <ele>27.39999961853</ele>
        <time>2022-05-08T09:52:48.000Z</time>
      </trkpt>
      <trkpt lat="47.28704" lon="-2.36878">
        <ele>27.799999237061</ele>
        <time>2022-05-08T09:52:49.000Z</time>
      </trkpt>
      <trkpt lat="47.28703" lon="-2.36873">
        <ele>28.200000762939</ele>
        <time>2022-05-08T09:52:50.000Z</time>
      </trkpt>
      <trkpt lat="47.28692" lon="-2.36846">
        <ele>28.200000762939</ele>
        <time>2022-05-08T09:52:56.000Z</time>
      </trkpt>
      <trkpt lat="47.28684" lon="-2.36825">
        <ele>28.799999237061</ele>
        <time>2022-05-08T09:53:01.000Z</time>
      </trkpt>
      <trkpt lat="47.28683" lon="-2.36821">
        <ele>29.200000762939</ele>
        <time>2022-05-08T09:53:02.000Z</time>
      </trkpt>
      <trkpt lat="47.28681" lon="-2.36817">
        <ele>29.60000038147</ele>
        <time>2022-05-08T09:53:03.000Z</time>
      </trkpt>
      <trkpt lat="47.28679" lon="-2.36813">
        <ele>30</ele>
        <time>2022-05-08T09:53:04.000Z</time>
      </trkpt>
      <trkpt lat="47.28677" lon="-2.3681">
        <ele>30.39999961853</ele>
        <time>2022-05-08T09:53:05.000Z</time>
      </trkpt>
      <trkpt lat="47.28671" lon="-2.36803">
        <ele>30.39999961853</ele>
        <time>2022-05-08T09:53:07.000Z</time>
      </trkpt>
      <trkpt lat="47.28668" lon="-2.36802">
        <ele>30.39999961853</ele>
        <time>2022-05-08T09:53:08.000Z</time>
      </trkpt>
      <trkpt lat="47.2866" lon="-2.36806">
        <ele>30.39999961853</ele>
        <time>2022-05-08T09:53:10.000Z</time>
      </trkpt>
      <trkpt lat="47.2864" lon="-2.36824">
        <ele>30.39999961853</ele>
        <time>2022-05-08T09:53:15.000Z</time>
      </trkpt>
      <trkpt lat="47.2862" lon="-2.36844">
        <ele>30.39999961853</ele>
        <time>2022-05-08T09:53:19.000Z</time>
      </trkpt>
      <trkpt lat="47.28615" lon="-2.36847">
        <ele>30.39999961853</ele>
        <time>2022-05-08T09:53:20.000Z</time>
      </trkpt>
      <trkpt lat="47.28595" lon="-2.36838">
        <ele>30.39999961853</ele>
        <time>2022-05-08T09:53:23.000Z</time>
      </trkpt>
      <trkpt lat="47.28584" lon="-2.36816">
        <ele>30.39999961853</ele>
        <time>2022-05-08T09:53:26.000Z</time>
      </trkpt>
      <trkpt lat="47.2858" lon="-2.36809">
        <ele>30.39999961853</ele>
        <time>2022-05-08T09:53:27.000Z</time>
      </trkpt>
      <trkpt lat="47.28557" lon="-2.36765">
        <ele>30.39999961853</ele>
        <time>2022-05-08T09:53:34.000Z</time>
      </trkpt>
      <trkpt lat="47.28542" lon="-2.36738">
        <ele>30.39999961853</ele>
        <time>2022-05-08T09:53:39.000Z</time>
      </trkpt>
      <trkpt lat="47.2854" lon="-2.36733">
        <ele>30.39999961853</ele>
        <time>2022-05-08T09:53:40.000Z</time>
      </trkpt>
      <trkpt lat="47.28523" lon="-2.36705">
        <ele>30.799999237061</ele>
        <time>2022-05-08T09:53:47.000Z</time>
      </trkpt>
      <trkpt lat="47.2852" lon="-2.36701">
        <ele>31.200000762939</ele>
        <time>2022-05-08T09:53:48.000Z</time>
      </trkpt>
      <trkpt lat="47.28518" lon="-2.36697">
        <ele>32</ele>
        <time>2022-05-08T09:53:49.000Z</time>
      </trkpt>
      <trkpt lat="47.28516" lon="-2.36694">
        <ele>32.400001525879</ele>
        <time>2022-05-08T09:53:50.000Z</time>
      </trkpt>
      <trkpt lat="47.2851" lon="-2.36686">
        <ele>32.799999237061</ele>
        <time>2022-05-08T09:53:53.000Z</time>
      </trkpt>
      <trkpt lat="47.28508" lon="-2.36683">
        <ele>33.200000762939</ele>
        <time>2022-05-08T09:53:55.000Z</time>
      </trkpt>
      <trkpt lat="47.28506" lon="-2.36681">
        <ele>33.599998474121</ele>
        <time>2022-05-08T09:53:56.000Z</time>
      </trkpt>
      <trkpt lat="47.28503" lon="-2.36678">
        <ele>34</ele>
        <time>2022-05-08T09:53:57.000Z</time>
      </trkpt>
      <trkpt lat="47.28501" lon="-2.36676">
        <ele>34.599998474121</ele>
        <time>2022-05-08T09:53:58.000Z</time>
      </trkpt>
      <trkpt lat="47.28497" lon="-2.36666">
        <ele>34.599998474121</ele>
        <time>2022-05-08T09:54:01.000Z</time>
      </trkpt>
      <trkpt lat="47.28488" lon="-2.36644">
        <ele>34.599998474121</ele>
        <time>2022-05-08T09:54:06.000Z</time>
      </trkpt>
      <trkpt lat="47.28476" lon="-2.36603">
        <ele>34.599998474121</ele>
        <time>2022-05-08T09:54:13.000Z</time>
      </trkpt>
      <trkpt lat="47.28469" lon="-2.36564">
        <ele>34.599998474121</ele>
        <time>2022-05-08T09:54:20.000Z</time>
      </trkpt>
      <trkpt lat="47.28483" lon="-2.36547">
        <ele>34.599998474121</ele>
        <time>2022-05-08T09:54:24.000Z</time>
      </trkpt>
      <trkpt lat="47.28503" lon="-2.36521">
        <ele>34.599998474121</ele>
        <time>2022-05-08T09:54:30.000Z</time>
      </trkpt>
      <trkpt lat="47.28507" lon="-2.36518">
        <ele>35</ele>
        <time>2022-05-08T09:54:31.000Z</time>
      </trkpt>
      <trkpt lat="47.2851" lon="-2.36514">
        <ele>35.400001525879</ele>
        <time>2022-05-08T09:54:32.000Z</time>
      </trkpt>
      <trkpt lat="47.28514" lon="-2.36511">
        <ele>35.799999237061</ele>
        <time>2022-05-08T09:54:33.000Z</time>
      </trkpt>
      <trkpt lat="47.28517" lon="-2.36507">
        <ele>36.200000762939</ele>
        <time>2022-05-08T09:54:34.000Z</time>
      </trkpt>
      <trkpt lat="47.28519" lon="-2.36504">
        <ele>36.599998474121</ele>
        <time>2022-05-08T09:54:35.000Z</time>
      </trkpt>
      <trkpt lat="47.28522" lon="-2.36501">
        <ele>36.599998474121</ele>
        <time>2022-05-08T09:54:36.000Z</time>
      </trkpt>
      <trkpt lat="47.28523" lon="-2.36497">
        <ele>36.599998474121</ele>
        <time>2022-05-08T09:54:37.000Z</time>
      </trkpt>
      <trkpt lat="47.28522" lon="-2.36489">
        <ele>37</ele>
        <time>2022-05-08T09:54:39.000Z</time>
      </trkpt>
      <trkpt lat="47.28522" lon="-2.36485">
        <ele>37.799999237061</ele>
        <time>2022-05-08T09:54:40.000Z</time>
      </trkpt>
      <trkpt lat="47.28522" lon="-2.36479">
        <ele>38.200000762939</ele>
        <time>2022-05-08T09:54:41.000Z</time>
      </trkpt>
      <trkpt lat="47.28522" lon="-2.36475">
        <ele>38.799999237061</ele>
        <time>2022-05-08T09:54:42.000Z</time>
      </trkpt>
      <trkpt lat="47.28519" lon="-2.36467">
        <ele>38.799999237061</ele>
        <time>2022-05-08T09:54:44.000Z</time>
      </trkpt>
      <trkpt lat="47.28517" lon="-2.36462">
        <ele>38.799999237061</ele>
        <time>2022-05-08T09:54:45.000Z</time>
      </trkpt>
      <trkpt lat="47.28507" lon="-2.36442">
        <ele>38.799999237061</ele>
        <time>2022-05-08T09:54:49.000Z</time>
      </trkpt>
      <trkpt lat="47.28488" lon="-2.36426">
        <ele>38.799999237061</ele>
        <time>2022-05-08T09:54:54.000Z</time>
      </trkpt>
      <trkpt lat="47.28479" lon="-2.36419">
        <ele>39.200000762939</ele>
        <time>2022-05-08T09:54:57.000Z</time>
      </trkpt>
      <trkpt lat="47.28476" lon="-2.36415">
        <ele>39.599998474121</ele>
        <time>2022-05-08T09:54:58.000Z</time>
      </trkpt>
      <trkpt lat="47.28474" lon="-2.36412">
        <ele>40</ele>
        <time>2022-05-08T09:54:59.000Z</time>
      </trkpt>
      <trkpt lat="47.28472" lon="-2.36409">
        <ele>40.400001525879</ele>
        <time>2022-05-08T09:55:00.000Z</time>
      </trkpt>
      <trkpt lat="47.2847" lon="-2.36405">
        <ele>40.799999237061</ele>
        <time>2022-05-08T09:55:01.000Z</time>
      </trkpt>
      <trkpt lat="47.28462" lon="-2.36387">
        <ele>40.799999237061</ele>
        <time>2022-05-08T09:55:05.000Z</time>
      </trkpt>
      <trkpt lat="47.28454" lon="-2.36375">
        <ele>40.200000762939</ele>
        <time>2022-05-08T09:55:08.000Z</time>
      </trkpt>
      <trkpt lat="47.2845" lon="-2.3637">
        <ele>39.799999237061</ele>
        <time>2022-05-08T09:55:09.000Z</time>
      </trkpt>
      <trkpt lat="47.28447" lon="-2.36367">
        <ele>39.400001525879</ele>
        <time>2022-05-08T09:55:10.000Z</time>
      </trkpt>
      <trkpt lat="47.28443" lon="-2.36362">
        <ele>39</ele>
        <time>2022-05-08T09:55:11.000Z</time>
      </trkpt>
      <trkpt lat="47.2844" lon="-2.36357">
        <ele>38.599998474121</ele>
        <time>2022-05-08T09:55:12.000Z</time>
      </trkpt>
      <trkpt lat="47.28427" lon="-2.36329">
        <ele>38.599998474121</ele>
        <time>2022-05-08T09:55:18.000Z</time>
      </trkpt>
      <trkpt lat="47.28415" lon="-2.36314">
        <ele>38</ele>
        <time>2022-05-08T09:55:21.000Z</time>
      </trkpt>
      <trkpt lat="47.2841" lon="-2.36311">
        <ele>37.599998474121</ele>
        <time>2022-05-08T09:55:22.000Z</time>
      </trkpt>
      <trkpt lat="47.28406" lon="-2.36308">
        <ele>37.200000762939</ele>
        <time>2022-05-08T09:55:23.000Z</time>
      </trkpt>
      <trkpt lat="47.28398" lon="-2.36305">
        <ele>36.799999237061</ele>
        <time>2022-05-08T09:55:24.000Z</time>
      </trkpt>
      <trkpt lat="47.28392" lon="-2.363">
        <ele>36.400001525879</ele>
        <time>2022-05-08T09:55:25.000Z</time>
      </trkpt>
      <trkpt lat="47.28382" lon="-2.36288">
        <ele>36.400001525879</ele>
        <time>2022-05-08T09:55:28.000Z</time>
      </trkpt>
      <trkpt lat="47.2838" lon="-2.36282">
        <ele>35.599998474121</ele>
        <time>2022-05-08T09:55:29.000Z</time>
      </trkpt>
      <trkpt lat="47.28377" lon="-2.36278">
        <ele>35</ele>
        <time>2022-05-08T09:55:30.000Z</time>
      </trkpt>
      <trkpt lat="47.28371" lon="-2.36274">
        <ele>34.599998474121</ele>
        <time>2022-05-08T09:55:31.000Z</time>
      </trkpt>
      <trkpt lat="47.28366" lon="-2.3627">
        <ele>34.200000762939</ele>
        <time>2022-05-08T09:55:32.000Z</time>
      </trkpt>
      <trkpt lat="47.28363" lon="-2.36268">
        <ele>34.200000762939</ele>
        <time>2022-05-08T09:55:33.000Z</time>
      </trkpt>
      <trkpt lat="47.28361" lon="-2.36265">
        <ele>34.200000762939</ele>
        <time>2022-05-08T09:55:34.000Z</time>
      </trkpt>
      <trkpt lat="47.28362" lon="-2.36261">
        <ele>34.200000762939</ele>
        <time>2022-05-08T09:55:40.000Z</time>
      </trkpt>
      <trkpt lat="47.28364" lon="-2.36256">
        <ele>34.200000762939</ele>
        <time>2022-05-08T09:55:42.000Z</time>
      </trkpt>
      <trkpt lat="47.28375" lon="-2.36241">
        <ele>34.200000762939</ele>
        <time>2022-05-08T09:55:49.000Z</time>
      </trkpt>
      <trkpt lat="47.2838" lon="-2.36237">
        <ele>34.599998474121</ele>
        <time>2022-05-08T09:55:51.000Z</time>
      </trkpt>
      <trkpt lat="47.28383" lon="-2.36235">
        <ele>35</ele>
        <time>2022-05-08T09:55:52.000Z</time>
      </trkpt>
      <trkpt lat="47.28386" lon="-2.36232">
        <ele>36</ele>
        <time>2022-05-08T09:55:53.000Z</time>
      </trkpt>
      <trkpt lat="47.28389" lon="-2.3623">
        <ele>36.400001525879</ele>
        <time>2022-05-08T09:55:54.000Z</time>
      </trkpt>
      <trkpt lat="47.28395" lon="-2.36222">
        <ele>36.400001525879</ele>
        <time>2022-05-08T09:55:57.000Z</time>
      </trkpt>
      <trkpt lat="47.284" lon="-2.36218">
        <ele>36.799999237061</ele>
        <time>2022-05-08T09:56:00.000Z</time>
      </trkpt>
      <trkpt lat="47.28402" lon="-2.36217">
        <ele>37.200000762939</ele>
        <time>2022-05-08T09:56:01.000Z</time>
      </trkpt>
      <trkpt lat="47.28404" lon="-2.36216">
        <ele>37.799999237061</ele>
        <time>2022-05-08T09:56:02.000Z</time>
      </trkpt>
      <trkpt lat="47.28405" lon="-2.36214">
        <ele>38.200000762939</ele>
        <time>2022-05-08T09:56:03.000Z</time>
      </trkpt>
      <trkpt lat="47.28406" lon="-2.36213">
        <ele>38.599998474121</ele>
        <time>2022-05-08T09:56:04.000Z</time>
      </trkpt>
      <trkpt lat="47.28415" lon="-2.36211">
        <ele>38.599998474121</ele>
        <time>2022-05-08T09:56:09.000Z</time>
      </trkpt>
      <trkpt lat="47.2842" lon="-2.36209">
        <ele>38.599998474121</ele>
        <time>2022-05-08T09:56:11.000Z</time>
      </trkpt>
      <trkpt lat="47.28425" lon="-2.36207">
        <ele>39</ele>
        <time>2022-05-08T09:56:13.000Z</time>
      </trkpt>
      <trkpt lat="47.28427" lon="-2.36206">
        <ele>39.400001525879</ele>
        <time>2022-05-08T09:56:14.000Z</time>
      </trkpt>
      <trkpt lat="47.28429" lon="-2.36205">
        <ele>39.799999237061</ele>
        <time>2022-05-08T09:56:15.000Z</time>
      </trkpt>
      <trkpt lat="47.28431" lon="-2.36205">
        <ele>40.200000762939</ele>
        <time>2022-05-08T09:56:16.000Z</time>
      </trkpt>
      <trkpt lat="47.28432" lon="-2.36204">
        <ele>40.599998474121</ele>
        <time>2022-05-08T09:56:17.000Z</time>
      </trkpt>
      <trkpt lat="47.28435" lon="-2.36202">
        <ele>40.599998474121</ele>
        <time>2022-05-08T09:56:19.000Z</time>
      </trkpt>
      <trkpt lat="47.28448" lon="-2.36196">
        <ele>40.599998474121</ele>
        <time>2022-05-08T09:56:48.000Z</time>
      </trkpt>
      <trkpt lat="47.28448" lon="-2.36191">
        <ele>40.599998474121</ele>
        <time>2022-05-08T09:56:50.000Z</time>
      </trkpt>
      <trkpt lat="47.28445" lon="-2.3618">
        <ele>41.200000762939</ele>
        <time>2022-05-08T09:56:54.000Z</time>
      </trkpt>
      <trkpt lat="47.28446" lon="-2.36177">
        <ele>41.599998474121</ele>
        <time>2022-05-08T09:56:55.000Z</time>
      </trkpt>
      <trkpt lat="47.28446" lon="-2.36173">
        <ele>42.200000762939</ele>
        <time>2022-05-08T09:56:56.000Z</time>
      </trkpt>
      <trkpt lat="47.28447" lon="-2.36169">
        <ele>42.599998474121</ele>
        <time>2022-05-08T09:56:57.000Z</time>
      </trkpt>
      <trkpt lat="47.28448" lon="-2.36165">
        <ele>43.200000762939</ele>
        <time>2022-05-08T09:56:58.000Z</time>
      </trkpt>
      <trkpt lat="47.28448" lon="-2.36161">
        <ele>43.200000762939</ele>
        <time>2022-05-08T09:56:59.000Z</time>
      </trkpt>
      <trkpt lat="47.28446" lon="-2.36153">
        <ele>43.599998474121</ele>
        <time>2022-05-08T09:57:02.000Z</time>
      </trkpt>
      <trkpt lat="47.28446" lon="-2.36149">
        <ele>44</ele>
        <time>2022-05-08T09:57:03.000Z</time>
      </trkpt>
      <trkpt lat="47.28445" lon="-2.36145">
        <ele>44.599998474121</ele>
        <time>2022-05-08T09:57:04.000Z</time>
      </trkpt>
      <trkpt lat="47.28445" lon="-2.36141">
        <ele>45</ele>
        <time>2022-05-08T09:57:05.000Z</time>
      </trkpt>
      <trkpt lat="47.28445" lon="-2.36136">
        <ele>45.400001525879</ele>
        <time>2022-05-08T09:57:06.000Z</time>
      </trkpt>
      <trkpt lat="47.28442" lon="-2.36126">
        <ele>45.400001525879</ele>
        <time>2022-05-08T09:57:08.000Z</time>
      </trkpt>
      <trkpt lat="47.28441" lon="-2.36122">
        <ele>45.799999237061</ele>
        <time>2022-05-08T09:57:09.000Z</time>
      </trkpt>
      <trkpt lat="47.28441" lon="-2.36117">
        <ele>46.400001525879</ele>
        <time>2022-05-08T09:57:10.000Z</time>
      </trkpt>
      <trkpt lat="47.2844" lon="-2.36112">
        <ele>46.799999237061</ele>
        <time>2022-05-08T09:57:11.000Z</time>
      </trkpt>
      <trkpt lat="47.2844" lon="-2.36108">
        <ele>47.200000762939</ele>
        <time>2022-05-08T09:57:12.000Z</time>
      </trkpt>
      <trkpt lat="47.2844" lon="-2.36104">
        <ele>47.599998474121</ele>
        <time>2022-05-08T09:57:13.000Z</time>
      </trkpt>
      <trkpt lat="47.2844" lon="-2.361">
        <ele>47.599998474121</ele>
        <time>2022-05-08T09:57:14.000Z</time>
      </trkpt>
      <trkpt lat="47.28438" lon="-2.36079">
        <ele>48</ele>
        <time>2022-05-08T09:57:19.000Z</time>
      </trkpt>
      <trkpt lat="47.28438" lon="-2.36075">
        <ele>48.400001525879</ele>
        <time>2022-05-08T09:57:20.000Z</time>
      </trkpt>
      <trkpt lat="47.28438" lon="-2.36071">
        <ele>48.799999237061</ele>
        <time>2022-05-08T09:57:21.000Z</time>
      </trkpt>
      <trkpt lat="47.28438" lon="-2.36067">
        <ele>49.400001525879</ele>
        <time>2022-05-08T09:57:22.000Z</time>
      </trkpt>
      <trkpt lat="47.28438" lon="-2.36063">
        <ele>49.799999237061</ele>
        <time>2022-05-08T09:57:23.000Z</time>
      </trkpt>
      <trkpt lat="47.28436" lon="-2.36041">
        <ele>49.799999237061</ele>
        <time>2022-05-08T09:57:29.000Z</time>
      </trkpt>
      <trkpt lat="47.28435" lon="-2.3603">
        <ele>49.799999237061</ele>
        <time>2022-05-08T09:57:35.000Z</time>
      </trkpt>
      <trkpt lat="47.2844" lon="-2.36022">
        <ele>50.200000762939</ele>
        <time>2022-05-08T09:57:42.000Z</time>
      </trkpt>
      <trkpt lat="47.2844" lon="-2.3602">
        <ele>50.599998474121</ele>
        <time>2022-05-08T09:57:43.000Z</time>
      </trkpt>
      <trkpt lat="47.28441" lon="-2.36017">
        <ele>51</ele>
        <time>2022-05-08T09:57:44.000Z</time>
      </trkpt>
      <trkpt lat="47.28442" lon="-2.36015">
        <ele>51.400001525879</ele>
        <time>2022-05-08T09:57:45.000Z</time>
      </trkpt>
      <trkpt lat="47.28444" lon="-2.36012">
        <ele>51.799999237061</ele>
        <time>2022-05-08T09:57:46.000Z</time>
      </trkpt>
      <trkpt lat="47.28445" lon="-2.36009">
        <ele>51.799999237061</ele>
        <time>2022-05-08T09:57:47.000Z</time>
      </trkpt>
      <trkpt lat="47.28447" lon="-2.36">
        <ele>51.799999237061</ele>
        <time>2022-05-08T09:57:50.000Z</time>
      </trkpt>
      <trkpt lat="47.28446" lon="-2.35998">
        <ele>51.799999237061</ele>
        <time>2022-05-08T09:57:51.000Z</time>
      </trkpt>
      <trkpt lat="47.28438" lon="-2.35998">
        <ele>51.799999237061</ele>
        <time>2022-05-08T09:57:55.000Z</time>
      </trkpt>
      <trkpt lat="47.28423" lon="-2.36009">
        <ele>51.799999237061</ele>
        <time>2022-05-08T09:58:00.000Z</time>
      </trkpt>
      <trkpt lat="47.28416" lon="-2.36015">
        <ele>51.799999237061</ele>
        <time>2022-05-08T09:58:02.000Z</time>
      </trkpt>
      <trkpt lat="47.284" lon="-2.36022">
        <ele>51.799999237061</ele>
        <time>2022-05-08T09:58:06.000Z</time>
      </trkpt>
      <trkpt lat="47.28389" lon="-2.36022">
        <ele>51.400001525879</ele>
        <time>2022-05-08T09:58:09.000Z</time>
      </trkpt>
      <trkpt lat="47.28383" lon="-2.36021">
        <ele>51</ele>
        <time>2022-05-08T09:58:10.000Z</time>
      </trkpt>
      <trkpt lat="47.28377" lon="-2.36022">
        <ele>50.599998474121</ele>
        <time>2022-05-08T09:58:11.000Z</time>
      </trkpt>
      <trkpt lat="47.28371" lon="-2.36022">
        <ele>49.799999237061</ele>
        <time>2022-05-08T09:58:12.000Z</time>
      </trkpt>
      <trkpt lat="47.28365" lon="-2.36022">
        <ele>49.200000762939</ele>
        <time>2022-05-08T09:58:13.000Z</time>
      </trkpt>
      <trkpt lat="47.28358" lon="-2.36022">
        <ele>48.599998474121</ele>
        <time>2022-05-08T09:58:14.000Z</time>
      </trkpt>
      <trkpt lat="47.28351" lon="-2.36026">
        <ele>47.799999237061</ele>
        <time>2022-05-08T09:58:15.000Z</time>
      </trkpt>
      <trkpt lat="47.28345" lon="-2.36031">
        <ele>47.400001525879</ele>
        <time>2022-05-08T09:58:16.000Z</time>
      </trkpt>
      <trkpt lat="47.28338" lon="-2.36036">
        <ele>46.799999237061</ele>
        <time>2022-05-08T09:58:17.000Z</time>
      </trkpt>
      <trkpt lat="47.28332" lon="-2.36042">
        <ele>46.200000762939</ele>
        <time>2022-05-08T09:58:18.000Z</time>
      </trkpt>
      <trkpt lat="47.28326" lon="-2.36047">
        <ele>45.599998474121</ele>
        <time>2022-05-08T09:58:19.000Z</time>
      </trkpt>
      <trkpt lat="47.28321" lon="-2.3605">
        <ele>45</ele>
        <time>2022-05-08T09:58:20.000Z</time>
      </trkpt>
      <trkpt lat="47.28316" lon="-2.3605">
        <ele>45</ele>
        <time>2022-05-08T09:58:21.000Z</time>
      </trkpt>
      <trkpt lat="47.283" lon="-2.36046">
        <ele>44.599998474121</ele>
        <time>2022-05-08T09:58:24.000Z</time>
      </trkpt>
      <trkpt lat="47.28296" lon="-2.36045">
        <ele>44.200000762939</ele>
        <time>2022-05-08T09:58:25.000Z</time>
      </trkpt>
      <trkpt lat="47.28291" lon="-2.36042">
        <ele>43.599998474121</ele>
        <time>2022-05-08T09:58:26.000Z</time>
      </trkpt>
      <trkpt lat="47.28287" lon="-2.36038">
        <ele>43.200000762939</ele>
        <time>2022-05-08T09:58:27.000Z</time>
      </trkpt>
      <trkpt lat="47.28283" lon="-2.36032">
        <ele>42.799999237061</ele>
        <time>2022-05-08T09:58:28.000Z</time>
      </trkpt>
      <trkpt lat="47.2828" lon="-2.36026">
        <ele>42.200000762939</ele>
        <time>2022-05-08T09:58:29.000Z</time>
      </trkpt>
      <trkpt lat="47.28277" lon="-2.3602">
        <ele>41.599998474121</ele>
        <time>2022-05-08T09:58:30.000Z</time>
      </trkpt>
      <trkpt lat="47.28275" lon="-2.36014">
        <ele>40.799999237061</ele>
        <time>2022-05-08T09:58:31.000Z</time>
      </trkpt>
      <trkpt lat="47.28274" lon="-2.36007">
        <ele>40</ele>
        <time>2022-05-08T09:58:32.000Z</time>
      </trkpt>
      <trkpt lat="47.28274" lon="-2.35999">
        <ele>39.400001525879</ele>
        <time>2022-05-08T09:58:33.000Z</time>
      </trkpt>
      <trkpt lat="47.28274" lon="-2.35993">
        <ele>38.599998474121</ele>
        <time>2022-05-08T09:58:34.000Z</time>
      </trkpt>
      <trkpt lat="47.28275" lon="-2.35987">
        <ele>37.799999237061</ele>
        <time>2022-05-08T09:58:35.000Z</time>
      </trkpt>
      <trkpt lat="47.28276" lon="-2.35981">
        <ele>37</ele>
        <time>2022-05-08T09:58:36.000Z</time>
      </trkpt>
      <trkpt lat="47.28277" lon="-2.35975">
        <ele>36.200000762939</ele>
        <time>2022-05-08T09:58:37.000Z</time>
      </trkpt>
      <trkpt lat="47.28277" lon="-2.35969">
        <ele>35.400001525879</ele>
        <time>2022-05-08T09:58:38.000Z</time>
      </trkpt>
      <trkpt lat="47.28275" lon="-2.35936">
        <ele>35.400001525879</ele>
        <time>2022-05-08T09:58:45.000Z</time>
      </trkpt>
      <trkpt lat="47.28267" lon="-2.35921">
        <ele>35.400001525879</ele>
        <time>2022-05-08T09:58:49.000Z</time>
      </trkpt>
      <trkpt lat="47.28262" lon="-2.3591">
        <ele>35.400001525879</ele>
        <time>2022-05-08T09:58:52.000Z</time>
      </trkpt>
      <trkpt lat="47.28258" lon="-2.35908">
        <ele>35.400001525879</ele>
        <time>2022-05-08T09:58:53.000Z</time>
      </trkpt>
      <trkpt lat="47.28242" lon="-2.35902">
        <ele>35.400001525879</ele>
        <time>2022-05-08T09:58:57.000Z</time>
      </trkpt>
      <trkpt lat="47.28225" lon="-2.3589">
        <ele>35.400001525879</ele>
        <time>2022-05-08T09:59:01.000Z</time>
      </trkpt>
      <trkpt lat="47.28222" lon="-2.35886">
        <ele>35.400001525879</ele>
        <time>2022-05-08T09:59:02.000Z</time>
      </trkpt>
      <trkpt lat="47.28208" lon="-2.35866">
        <ele>35.400001525879</ele>
        <time>2022-05-08T09:59:07.000Z</time>
      </trkpt>
      <trkpt lat="47.28195" lon="-2.3584">
        <ele>35.400001525879</ele>
        <time>2022-05-08T09:59:13.000Z</time>
      </trkpt>
      <trkpt lat="47.28188" lon="-2.3581">
        <ele>35.400001525879</ele>
        <time>2022-05-08T09:59:19.000Z</time>
      </trkpt>
      <trkpt lat="47.28185" lon="-2.35797">
        <ele>35.400001525879</ele>
        <time>2022-05-08T09:59:24.000Z</time>
      </trkpt>
      <trkpt lat="47.2818" lon="-2.3578">
        <ele>35.400001525879</ele>
        <time>2022-05-08T09:59:29.000Z</time>
      </trkpt>
      <trkpt lat="47.28165" lon="-2.35757">
        <ele>35.400001525879</ele>
        <time>2022-05-08T09:59:34.000Z</time>
      </trkpt>
      <trkpt lat="47.28153" lon="-2.3575">
        <ele>35</ele>
        <time>2022-05-08T09:59:37.000Z</time>
      </trkpt>
      <trkpt lat="47.28149" lon="-2.35749">
        <ele>34.599998474121</ele>
        <time>2022-05-08T09:59:38.000Z</time>
      </trkpt>
      <trkpt lat="47.28146" lon="-2.35746">
        <ele>34.200000762939</ele>
        <time>2022-05-08T09:59:39.000Z</time>
      </trkpt>
      <trkpt lat="47.28142" lon="-2.35745">
        <ele>33.799999237061</ele>
        <time>2022-05-08T09:59:40.000Z</time>
      </trkpt>
      <trkpt lat="47.28138" lon="-2.35745">
        <ele>33.400001525879</ele>
        <time>2022-05-08T09:59:41.000Z</time>
      </trkpt>
      <trkpt lat="47.28125" lon="-2.35754">
        <ele>33.400001525879</ele>
        <time>2022-05-08T09:59:44.000Z</time>
      </trkpt>
      <trkpt lat="47.28115" lon="-2.35774">
        <ele>33.400001525879</ele>
        <time>2022-05-08T09:59:48.000Z</time>
      </trkpt>
      <trkpt lat="47.28103" lon="-2.35795">
        <ele>33.400001525879</ele>
        <time>2022-05-08T09:59:53.000Z</time>
      </trkpt>
      <trkpt lat="47.28099" lon="-2.35795">
        <ele>33.400001525879</ele>
        <time>2022-05-08T09:59:54.000Z</time>
      </trkpt>
      <trkpt lat="47.2809" lon="-2.35787">
        <ele>33.400001525879</ele>
        <time>2022-05-08T09:59:58.000Z</time>
      </trkpt>
      <trkpt lat="47.28093" lon="-2.35775">
        <ele>33.799999237061</ele>
        <time>2022-05-08T10:00:01.000Z</time>
      </trkpt>
      <trkpt lat="47.28094" lon="-2.3577">
        <ele>34.200000762939</ele>
        <time>2022-05-08T10:00:02.000Z</time>
      </trkpt>
      <trkpt lat="47.28095" lon="-2.35764">
        <ele>34.599998474121</ele>
        <time>2022-05-08T10:00:03.000Z</time>
      </trkpt>
      <trkpt lat="47.28096" lon="-2.35759">
        <ele>35</ele>
        <time>2022-05-08T10:00:04.000Z</time>
      </trkpt>
      <trkpt lat="47.28097" lon="-2.35753">
        <ele>35.400001525879</ele>
        <time>2022-05-08T10:00:05.000Z</time>
      </trkpt>
      <trkpt lat="47.281" lon="-2.35736">
        <ele>35.400001525879</ele>
        <time>2022-05-08T10:00:08.000Z</time>
      </trkpt>
      <trkpt lat="47.28103" lon="-2.3572">
        <ele>35.799999237061</ele>
        <time>2022-05-08T10:00:11.000Z</time>
      </trkpt>
      <trkpt lat="47.28103" lon="-2.35716">
        <ele>36.200000762939</ele>
        <time>2022-05-08T10:00:12.000Z</time>
      </trkpt>
      <trkpt lat="47.28104" lon="-2.3571">
        <ele>36.599998474121</ele>
        <time>2022-05-08T10:00:13.000Z</time>
      </trkpt>
      <trkpt lat="47.28104" lon="-2.35706">
        <ele>37</ele>
        <time>2022-05-08T10:00:14.000Z</time>
      </trkpt>
      <trkpt lat="47.28104" lon="-2.35701">
        <ele>37.400001525879</ele>
        <time>2022-05-08T10:00:15.000Z</time>
      </trkpt>
      <trkpt lat="47.28098" lon="-2.35673">
        <ele>37.400001525879</ele>
        <time>2022-05-08T10:00:19.000Z</time>
      </trkpt>
      <trkpt lat="47.2809" lon="-2.35644">
        <ele>36.599998474121</ele>
        <time>2022-05-08T10:00:24.000Z</time>
      </trkpt>
      <trkpt lat="47.28088" lon="-2.35639">
        <ele>36.200000762939</ele>
        <time>2022-05-08T10:00:25.000Z</time>
      </trkpt>
      <trkpt lat="47.28087" lon="-2.35635">
        <ele>35.599998474121</ele>
        <time>2022-05-08T10:00:26.000Z</time>
      </trkpt>
      <trkpt lat="47.28086" lon="-2.35631">
        <ele>35.200000762939</ele>
        <time>2022-05-08T10:00:27.000Z</time>
      </trkpt>
      <trkpt lat="47.28085" lon="-2.35628">
        <ele>34.799999237061</ele>
        <time>2022-05-08T10:00:28.000Z</time>
      </trkpt>
      <trkpt lat="47.28084" lon="-2.35624">
        <ele>34.200000762939</ele>
        <time>2022-05-08T10:00:29.000Z</time>
      </trkpt>
      <trkpt lat="47.28084" lon="-2.35622">
        <ele>33.799999237061</ele>
        <time>2022-05-08T10:00:30.000Z</time>
      </trkpt>
      <trkpt lat="47.28084" lon="-2.3562">
        <ele>33.200000762939</ele>
        <time>2022-05-08T10:00:31.000Z</time>
      </trkpt>
      <trkpt lat="47.28084" lon="-2.35617">
        <ele>32.799999237061</ele>
        <time>2022-05-08T10:00:33.000Z</time>
      </trkpt>
      <trkpt lat="47.28084" lon="-2.35617">
        <ele>32.400001525879</ele>
        <time>2022-05-08T10:00:34.000Z</time>
      </trkpt>
      <trkpt lat="47.28083" lon="-2.35608">
        <ele>31.200000762939</ele>
        <time>2022-05-08T10:05:21.000Z</time>
      </trkpt>
      <trkpt lat="47.28071" lon="-2.35592">
        <ele>31.200000762939</ele>
        <time>2022-05-08T10:05:28.000Z</time>
      </trkpt>
      <trkpt lat="47.28061" lon="-2.35582">
        <ele>31.200000762939</ele>
        <time>2022-05-08T10:05:32.000Z</time>
      </trkpt>
      <trkpt lat="47.2804" lon="-2.35576">
        <ele>30.799999237061</ele>
        <time>2022-05-08T10:05:37.000Z</time>
      </trkpt>
      <trkpt lat="47.28035" lon="-2.35573">
        <ele>30.39999961853</ele>
        <time>2022-05-08T10:05:38.000Z</time>
      </trkpt>
      <trkpt lat="47.28031" lon="-2.35569">
        <ele>30</ele>
        <time>2022-05-08T10:05:39.000Z</time>
      </trkpt>
      <trkpt lat="47.28027" lon="-2.35563">
        <ele>29.60000038147</ele>
        <time>2022-05-08T10:05:40.000Z</time>
      </trkpt>
      <trkpt lat="47.28023" lon="-2.35559">
        <ele>29.200000762939</ele>
        <time>2022-05-08T10:05:41.000Z</time>
      </trkpt>
      <trkpt lat="47.28018" lon="-2.35556">
        <ele>29.200000762939</ele>
        <time>2022-05-08T10:05:42.000Z</time>
      </trkpt>
      <trkpt lat="47.2801" lon="-2.35555">
        <ele>29.200000762939</ele>
        <time>2022-05-08T10:05:44.000Z</time>
      </trkpt>
      <trkpt lat="47.28002" lon="-2.35544">
        <ele>29.200000762939</ele>
        <time>2022-05-08T10:05:47.000Z</time>
      </trkpt>
      <trkpt lat="47.27999" lon="-2.35531">
        <ele>28.799999237061</ele>
        <time>2022-05-08T10:05:49.000Z</time>
      </trkpt>
      <trkpt lat="47.27996" lon="-2.35523">
        <ele>28.200000762939</ele>
        <time>2022-05-08T10:05:50.000Z</time>
      </trkpt>
      <trkpt lat="47.27993" lon="-2.35515">
        <ele>27.799999237061</ele>
        <time>2022-05-08T10:05:51.000Z</time>
      </trkpt>
      <trkpt lat="47.2799" lon="-2.35508">
        <ele>27.39999961853</ele>
        <time>2022-05-08T10:05:52.000Z</time>
      </trkpt>
      <trkpt lat="47.27986" lon="-2.35501">
        <ele>27</ele>
        <time>2022-05-08T10:05:53.000Z</time>
      </trkpt>
      <trkpt lat="47.27976" lon="-2.35477">
        <ele>27</ele>
        <time>2022-05-08T10:05:56.000Z</time>
      </trkpt>
      <trkpt lat="47.27971" lon="-2.35471">
        <ele>27</ele>
        <time>2022-05-08T10:05:57.000Z</time>
      </trkpt>
      <trkpt lat="47.27966" lon="-2.35466">
        <ele>26.60000038147</ele>
        <time>2022-05-08T10:05:58.000Z</time>
      </trkpt>
      <trkpt lat="47.27961" lon="-2.35463">
        <ele>26.200000762939</ele>
        <time>2022-05-08T10:05:59.000Z</time>
      </trkpt>
      <trkpt lat="47.27956" lon="-2.35461">
        <ele>25.799999237061</ele>
        <time>2022-05-08T10:06:00.000Z</time>
      </trkpt>
      <trkpt lat="47.2795" lon="-2.35459">
        <ele>25.39999961853</ele>
        <time>2022-05-08T10:06:01.000Z</time>
      </trkpt>
      <trkpt lat="47.27945" lon="-2.35456">
        <ele>25</ele>
        <time>2022-05-08T10:06:02.000Z</time>
      </trkpt>
      <trkpt lat="47.27941" lon="-2.35452">
        <ele>25</ele>
        <time>2022-05-08T10:06:03.000Z</time>
      </trkpt>
      <trkpt lat="47.27936" lon="-2.35447">
        <ele>25</ele>
        <time>2022-05-08T10:06:04.000Z</time>
      </trkpt>
      <trkpt lat="47.27916" lon="-2.35421">
        <ele>25</ele>
        <time>2022-05-08T10:06:09.000Z</time>
      </trkpt>
      <trkpt lat="47.27888" lon="-2.35384">
        <ele>25</ele>
        <time>2022-05-08T10:06:16.000Z</time>
      </trkpt>
      <trkpt lat="47.27871" lon="-2.35363">
        <ele>25</ele>
        <time>2022-05-08T10:06:20.000Z</time>
      </trkpt>
      <trkpt lat="47.27865" lon="-2.35361">
        <ele>25</ele>
        <time>2022-05-08T10:06:21.000Z</time>
      </trkpt>
      <trkpt lat="47.27846" lon="-2.3536">
        <ele>25</ele>
        <time>2022-05-08T10:06:24.000Z</time>
      </trkpt>
      <trkpt lat="47.27807" lon="-2.35359">
        <ele>25</ele>
        <time>2022-05-08T10:06:30.000Z</time>
      </trkpt>
      <trkpt lat="47.27798" lon="-2.35345">
        <ele>25</ele>
        <time>2022-05-08T10:06:32.000Z</time>
      </trkpt>
      <trkpt lat="47.27792" lon="-2.35317">
        <ele>25</ele>
        <time>2022-05-08T10:06:35.000Z</time>
      </trkpt>
      <trkpt lat="47.27777" lon="-2.35248">
        <ele>25</ele>
        <time>2022-05-08T10:06:43.000Z</time>
      </trkpt>
      <trkpt lat="47.27776" lon="-2.35239">
        <ele>25</ele>
        <time>2022-05-08T10:06:44.000Z</time>
      </trkpt>
      <trkpt lat="47.27773" lon="-2.35212">
        <ele>25</ele>
        <time>2022-05-08T10:06:47.000Z</time>
      </trkpt>
      <trkpt lat="47.27762" lon="-2.35199">
        <ele>25</ele>
        <time>2022-05-08T10:06:50.000Z</time>
      </trkpt>
      <trkpt lat="47.27744" lon="-2.35201">
        <ele>25</ele>
        <time>2022-05-08T10:06:53.000Z</time>
      </trkpt>
      <trkpt lat="47.27717" lon="-2.35209">
        <ele>25</ele>
        <time>2022-05-08T10:06:58.000Z</time>
      </trkpt>
      <trkpt lat="47.27689" lon="-2.35218">
        <ele>25</ele>
        <time>2022-05-08T10:07:04.000Z</time>
      </trkpt>
      <trkpt lat="47.27685" lon="-2.35219">
        <ele>25</ele>
        <time>2022-05-08T10:07:05.000Z</time>
      </trkpt>
      <trkpt lat="47.27674" lon="-2.35211">
        <ele>25</ele>
        <time>2022-05-08T10:07:08.000Z</time>
      </trkpt>
      <trkpt lat="47.27672" lon="-2.35204">
        <ele>25.39999961853</ele>
        <time>2022-05-08T10:07:09.000Z</time>
      </trkpt>
      <trkpt lat="47.27672" lon="-2.35198">
        <ele>25.799999237061</ele>
        <time>2022-05-08T10:07:10.000Z</time>
      </trkpt>
      <trkpt lat="47.27671" lon="-2.35192">
        <ele>26.39999961853</ele>
        <time>2022-05-08T10:07:11.000Z</time>
      </trkpt>
      <trkpt lat="47.27671" lon="-2.35185">
        <ele>26.799999237061</ele>
        <time>2022-05-08T10:07:12.000Z</time>
      </trkpt>
      <trkpt lat="47.27671" lon="-2.35179">
        <ele>27.200000762939</ele>
        <time>2022-05-08T10:07:13.000Z</time>
      </trkpt>
      <trkpt lat="47.27669" lon="-2.35173">
        <ele>27.200000762939</ele>
        <time>2022-05-08T10:07:14.000Z</time>
      </trkpt>
      <trkpt lat="47.27662" lon="-2.35171">
        <ele>27.200000762939</ele>
        <time>2022-05-08T10:07:16.000Z</time>
      </trkpt>
      <trkpt lat="47.27645" lon="-2.35173">
        <ele>27.200000762939</ele>
        <time>2022-05-08T10:07:20.000Z</time>
      </trkpt>
      <trkpt lat="47.27636" lon="-2.35174">
        <ele>27.200000762939</ele>
        <time>2022-05-08T10:07:22.000Z</time>
      </trkpt>
      <trkpt lat="47.27632" lon="-2.35174">
        <ele>27.60000038147</ele>
        <time>2022-05-08T10:07:23.000Z</time>
      </trkpt>
      <trkpt lat="47.27627" lon="-2.35173">
        <ele>28</ele>
        <time>2022-05-08T10:07:24.000Z</time>
      </trkpt>
      <trkpt lat="47.27623" lon="-2.35173">
        <ele>28.799999237061</ele>
        <time>2022-05-08T10:07:25.000Z</time>
      </trkpt>
      <trkpt lat="47.27619" lon="-2.35172">
        <ele>29.200000762939</ele>
        <time>2022-05-08T10:07:26.000Z</time>
      </trkpt>
      <trkpt lat="47.27611" lon="-2.35166">
        <ele>29.200000762939</ele>
        <time>2022-05-08T10:07:28.000Z</time>
      </trkpt>
      <trkpt lat="47.27608" lon="-2.35155">
        <ele>29.200000762939</ele>
        <time>2022-05-08T10:07:30.000Z</time>
      </trkpt>
      <trkpt lat="47.27603" lon="-2.35132">
        <ele>29.200000762939</ele>
        <time>2022-05-08T10:07:34.000Z</time>
      </trkpt>
      <trkpt lat="47.27589" lon="-2.35131">
        <ele>29.200000762939</ele>
        <time>2022-05-08T10:07:37.000Z</time>
      </trkpt>
      <trkpt lat="47.27584" lon="-2.35132">
        <ele>29.200000762939</ele>
        <time>2022-05-08T10:07:38.000Z</time>
      </trkpt>
      <trkpt lat="47.27575" lon="-2.35133">
        <ele>29.60000038147</ele>
        <time>2022-05-08T10:07:40.000Z</time>
      </trkpt>
      <trkpt lat="47.2757" lon="-2.35133">
        <ele>30.200000762939</ele>
        <time>2022-05-08T10:07:41.000Z</time>
      </trkpt>
      <trkpt lat="47.27566" lon="-2.35134">
        <ele>30.60000038147</ele>
        <time>2022-05-08T10:07:42.000Z</time>
      </trkpt>
      <trkpt lat="47.27561" lon="-2.35135">
        <ele>31</ele>
        <time>2022-05-08T10:07:43.000Z</time>
      </trkpt>
      <trkpt lat="47.27556" lon="-2.35135">
        <ele>31.39999961853</ele>
        <time>2022-05-08T10:07:44.000Z</time>
      </trkpt>
      <trkpt lat="47.27535" lon="-2.35135">
        <ele>31.39999961853</ele>
        <time>2022-05-08T10:07:48.000Z</time>
      </trkpt>
      <trkpt lat="47.2752" lon="-2.3513">
        <ele>31.39999961853</ele>
        <time>2022-05-08T10:07:51.000Z</time>
      </trkpt>
      <trkpt lat="47.27507" lon="-2.35124">
        <ele>31.39999961853</ele>
        <time>2022-05-08T10:07:54.000Z</time>
      </trkpt>
      <trkpt lat="47.27502" lon="-2.35118">
        <ele>31.39999961853</ele>
        <time>2022-05-08T10:07:56.000Z</time>
      </trkpt>
      <trkpt lat="47.27501" lon="-2.35094">
        <ele>31.39999961853</ele>
        <time>2022-05-08T10:08:00.000Z</time>
      </trkpt>
      <trkpt lat="47.27502" lon="-2.3508">
        <ele>31.39999961853</ele>
        <time>2022-05-08T10:08:02.000Z</time>
      </trkpt>
      <trkpt lat="47.27503" lon="-2.35044">
        <ele>31.39999961853</ele>
        <time>2022-05-08T10:08:07.000Z</time>
      </trkpt>
      <trkpt lat="47.27502" lon="-2.35037">
        <ele>31.39999961853</ele>
        <time>2022-05-08T10:08:08.000Z</time>
      </trkpt>
      <trkpt lat="47.27495" lon="-2.35015">
        <ele>31.39999961853</ele>
        <time>2022-05-08T10:08:11.000Z</time>
      </trkpt>
      <trkpt lat="47.27478" lon="-2.34963">
        <ele>31.39999961853</ele>
        <time>2022-05-08T10:08:18.000Z</time>
      </trkpt>
      <trkpt lat="47.2746" lon="-2.34898">
        <ele>31.39999961853</ele>
        <time>2022-05-08T10:08:26.000Z</time>
      </trkpt>
      <trkpt lat="47.27457" lon="-2.34884">
        <ele>31.39999961853</ele>
        <time>2022-05-08T10:08:28.000Z</time>
      </trkpt>
      <trkpt lat="47.27457" lon="-2.3486">
        <ele>31.39999961853</ele>
        <time>2022-05-08T10:08:31.000Z</time>
      </trkpt>
      <trkpt lat="47.27457" lon="-2.34813">
        <ele>31.39999961853</ele>
        <time>2022-05-08T10:08:37.000Z</time>
      </trkpt>
      <trkpt lat="47.27456" lon="-2.34804">
        <ele>31.39999961853</ele>
        <time>2022-05-08T10:08:38.000Z</time>
      </trkpt>
      <trkpt lat="47.27454" lon="-2.34772">
        <ele>31.39999961853</ele>
        <time>2022-05-08T10:08:42.000Z</time>
      </trkpt>
      <trkpt lat="47.27455" lon="-2.3472">
        <ele>31.39999961853</ele>
        <time>2022-05-08T10:08:49.000Z</time>
      </trkpt>
      <trkpt lat="47.27455" lon="-2.34708">
        <ele>31.39999961853</ele>
        <time>2022-05-08T10:08:51.000Z</time>
      </trkpt>
      <trkpt lat="47.27455" lon="-2.34691">
        <ele>31.39999961853</ele>
        <time>2022-05-08T10:08:54.000Z</time>
      </trkpt>
      <trkpt lat="47.27455" lon="-2.34685">
        <ele>31.39999961853</ele>
        <time>2022-05-08T10:08:55.000Z</time>
      </trkpt>
      <trkpt lat="47.27454" lon="-2.34657">
        <ele>31.39999961853</ele>
        <time>2022-05-08T10:08:59.000Z</time>
      </trkpt>
      <trkpt lat="47.27453" lon="-2.34649">
        <ele>31.799999237061</ele>
        <time>2022-05-08T10:09:00.000Z</time>
      </trkpt>
      <trkpt lat="47.27452" lon="-2.34642">
        <ele>32.200000762939</ele>
        <time>2022-05-08T10:09:01.000Z</time>
      </trkpt>
      <trkpt lat="47.27451" lon="-2.34635">
        <ele>32.599998474121</ele>
        <time>2022-05-08T10:09:02.000Z</time>
      </trkpt>
      <trkpt lat="47.27451" lon="-2.34628">
        <ele>33</ele>
        <time>2022-05-08T10:09:03.000Z</time>
      </trkpt>
      <trkpt lat="47.2745" lon="-2.34621">
        <ele>33.400001525879</ele>
        <time>2022-05-08T10:09:04.000Z</time>
      </trkpt>
      <trkpt lat="47.27449" lon="-2.346">
        <ele>33.400001525879</ele>
        <time>2022-05-08T10:09:07.000Z</time>
      </trkpt>
      <trkpt lat="47.27442" lon="-2.3455">
        <ele>33.400001525879</ele>
        <time>2022-05-08T10:09:14.000Z</time>
      </trkpt>
      <trkpt lat="47.27427" lon="-2.34497">
        <ele>33.400001525879</ele>
        <time>2022-05-08T10:09:21.000Z</time>
      </trkpt>
      <trkpt lat="47.27423" lon="-2.3448">
        <ele>33.400001525879</ele>
        <time>2022-05-08T10:09:23.000Z</time>
      </trkpt>
      <trkpt lat="47.27422" lon="-2.34463">
        <ele>33.400001525879</ele>
        <time>2022-05-08T10:09:25.000Z</time>
      </trkpt>
      <trkpt lat="47.27421" lon="-2.34455">
        <ele>33.400001525879</ele>
        <time>2022-05-08T10:09:26.000Z</time>
      </trkpt>
      <trkpt lat="47.27417" lon="-2.3439">
        <ele>33.400001525879</ele>
        <time>2022-05-08T10:09:34.000Z</time>
      </trkpt>
      <trkpt lat="47.27412" lon="-2.34326">
        <ele>33.400001525879</ele>
        <time>2022-05-08T10:09:41.000Z</time>
      </trkpt>
      <trkpt lat="47.27413" lon="-2.34271">
        <ele>33.400001525879</ele>
        <time>2022-05-08T10:09:47.000Z</time>
      </trkpt>
      <trkpt lat="47.27412" lon="-2.34245">
        <ele>33</ele>
        <time>2022-05-08T10:09:51.000Z</time>
      </trkpt>
      <trkpt lat="47.2741" lon="-2.34242">
        <ele>32.599998474121</ele>
        <time>2022-05-08T10:09:52.000Z</time>
      </trkpt>
      <trkpt lat="47.27407" lon="-2.34239">
        <ele>31.60000038147</ele>
        <time>2022-05-08T10:09:53.000Z</time>
      </trkpt>
      <trkpt lat="47.27404" lon="-2.34236">
        <ele>31.200000762939</ele>
        <time>2022-05-08T10:09:54.000Z</time>
      </trkpt>
      <trkpt lat="47.27398" lon="-2.34213">
        <ele>31.200000762939</ele>
        <time>2022-05-08T10:09:58.000Z</time>
      </trkpt>
      <trkpt lat="47.27398" lon="-2.34197">
        <ele>31.200000762939</ele>
        <time>2022-05-08T10:10:00.000Z</time>
      </trkpt>
      <trkpt lat="47.27397" lon="-2.34172">
        <ele>31.200000762939</ele>
        <time>2022-05-08T10:10:03.000Z</time>
      </trkpt>
      <trkpt lat="47.27396" lon="-2.34125">
        <ele>31.200000762939</ele>
        <time>2022-05-08T10:10:09.000Z</time>
      </trkpt>
      <trkpt lat="47.27395" lon="-2.34086">
        <ele>31.60000038147</ele>
        <time>2022-05-08T10:10:14.000Z</time>
      </trkpt>
      <trkpt lat="47.27395" lon="-2.34078">
        <ele>32.200000762939</ele>
        <time>2022-05-08T10:10:15.000Z</time>
      </trkpt>
      <trkpt lat="47.27395" lon="-2.3407">
        <ele>32.599998474121</ele>
        <time>2022-05-08T10:10:16.000Z</time>
      </trkpt>
      <trkpt lat="47.27394" lon="-2.34062">
        <ele>33</ele>
        <time>2022-05-08T10:10:17.000Z</time>
      </trkpt>
      <trkpt lat="47.27394" lon="-2.34055">
        <ele>33.400001525879</ele>
        <time>2022-05-08T10:10:18.000Z</time>
      </trkpt>
      <trkpt lat="47.27392" lon="-2.34006">
        <ele>33.400001525879</ele>
        <time>2022-05-08T10:10:24.000Z</time>
      </trkpt>
      <trkpt lat="47.27391" lon="-2.33991">
        <ele>33.799999237061</ele>
        <time>2022-05-08T10:10:26.000Z</time>
      </trkpt>
      <trkpt lat="47.2739" lon="-2.33984">
        <ele>34.200000762939</ele>
        <time>2022-05-08T10:10:27.000Z</time>
      </trkpt>
      <trkpt lat="47.2739" lon="-2.33978">
        <ele>34.599998474121</ele>
        <time>2022-05-08T10:10:28.000Z</time>
      </trkpt>
      <trkpt lat="47.27389" lon="-2.33972">
        <ele>35.200000762939</ele>
        <time>2022-05-08T10:10:29.000Z</time>
      </trkpt>
      <trkpt lat="47.27387" lon="-2.33966">
        <ele>35.599998474121</ele>
        <time>2022-05-08T10:10:30.000Z</time>
      </trkpt>
      <trkpt lat="47.27383" lon="-2.33961">
        <ele>35.599998474121</ele>
        <time>2022-05-08T10:10:31.000Z</time>
      </trkpt>
      <trkpt lat="47.27369" lon="-2.33958">
        <ele>35.599998474121</ele>
        <time>2022-05-08T10:10:34.000Z</time>
      </trkpt>
      <trkpt lat="47.27365" lon="-2.33959">
        <ele>35.599998474121</ele>
        <time>2022-05-08T10:10:35.000Z</time>
      </trkpt>
      <trkpt lat="47.27355" lon="-2.3396">
        <ele>35.599998474121</ele>
        <time>2022-05-08T10:10:37.000Z</time>
      </trkpt>
      <trkpt lat="47.27335" lon="-2.33955">
        <ele>35.599998474121</ele>
        <time>2022-05-08T10:10:41.000Z</time>
      </trkpt>
      <trkpt lat="47.27322" lon="-2.33944">
        <ele>35.599998474121</ele>
        <time>2022-05-08T10:10:44.000Z</time>
      </trkpt>
      <trkpt lat="47.27318" lon="-2.33939">
        <ele>35.599998474121</ele>
        <time>2022-05-08T10:10:45.000Z</time>
      </trkpt>
      <trkpt lat="47.27311" lon="-2.3393">
        <ele>35.599998474121</ele>
        <time>2022-05-08T10:10:47.000Z</time>
      </trkpt>
      <trkpt lat="47.27295" lon="-2.33913">
        <ele>35.599998474121</ele>
        <time>2022-05-08T10:10:51.000Z</time>
      </trkpt>
      <trkpt lat="47.27288" lon="-2.33906">
        <ele>35.599998474121</ele>
        <time>2022-05-08T10:10:53.000Z</time>
      </trkpt>
      <trkpt lat="47.27275" lon="-2.33894">
        <ele>35.599998474121</ele>
        <time>2022-05-08T10:10:56.000Z</time>
      </trkpt>
      <trkpt lat="47.2725" lon="-2.33866">
        <ele>35.599998474121</ele>
        <time>2022-05-08T10:11:02.000Z</time>
      </trkpt>
      <trkpt lat="47.27247" lon="-2.33862">
        <ele>35.599998474121</ele>
        <time>2022-05-08T10:11:03.000Z</time>
      </trkpt>
      <trkpt lat="47.27242" lon="-2.33859">
        <ele>35.599998474121</ele>
        <time>2022-05-08T10:11:04.000Z</time>
      </trkpt>
      <trkpt lat="47.27224" lon="-2.3385">
        <ele>35.599998474121</ele>
        <time>2022-05-08T10:11:08.000Z</time>
      </trkpt>
      <trkpt lat="47.27197" lon="-2.33843">
        <ele>35.599998474121</ele>
        <time>2022-05-08T10:11:13.000Z</time>
      </trkpt>
      <trkpt lat="47.27188" lon="-2.33849">
        <ele>35.599998474121</ele>
        <time>2022-05-08T10:11:15.000Z</time>
      </trkpt>
      <trkpt lat="47.27186" lon="-2.33858">
        <ele>35.599998474121</ele>
        <time>2022-05-08T10:11:16.000Z</time>
      </trkpt>
      <trkpt lat="47.27182" lon="-2.33873">
        <ele>35.599998474121</ele>
        <time>2022-05-08T10:11:18.000Z</time>
      </trkpt>
      <trkpt lat="47.27171" lon="-2.33893">
        <ele>35.599998474121</ele>
        <time>2022-05-08T10:11:21.000Z</time>
      </trkpt>
      <trkpt lat="47.27166" lon="-2.339">
        <ele>35</ele>
        <time>2022-05-08T10:11:22.000Z</time>
      </trkpt>
      <trkpt lat="47.27161" lon="-2.33907">
        <ele>34.599998474121</ele>
        <time>2022-05-08T10:11:23.000Z</time>
      </trkpt>
      <trkpt lat="47.27156" lon="-2.33915">
        <ele>34.200000762939</ele>
        <time>2022-05-08T10:11:24.000Z</time>
      </trkpt>
      <trkpt lat="47.2715" lon="-2.33922">
        <ele>33.799999237061</ele>
        <time>2022-05-08T10:11:25.000Z</time>
      </trkpt>
      <trkpt lat="47.27145" lon="-2.3393">
        <ele>33.200000762939</ele>
        <time>2022-05-08T10:11:26.000Z</time>
      </trkpt>
      <trkpt lat="47.2714" lon="-2.33937">
        <ele>33.200000762939</ele>
        <time>2022-05-08T10:11:27.000Z</time>
      </trkpt>
      <trkpt lat="47.27132" lon="-2.33948">
        <ele>32.799999237061</ele>
        <time>2022-05-08T10:11:29.000Z</time>
      </trkpt>
      <trkpt lat="47.27129" lon="-2.33951">
        <ele>32.400001525879</ele>
        <time>2022-05-08T10:11:30.000Z</time>
      </trkpt>
      <trkpt lat="47.27127" lon="-2.33954">
        <ele>31.799999237061</ele>
        <time>2022-05-08T10:11:31.000Z</time>
      </trkpt>
      <trkpt lat="47.27127" lon="-2.33954">
        <ele>31</ele>
        <time>2022-05-08T10:11:32.000Z</time>
      </trkpt>
      <trkpt lat="47.27125" lon="-2.33955">
        <ele>31</ele>
        <time>2022-05-08T10:11:34.000Z</time>
      </trkpt>
      <trkpt lat="47.27124" lon="-2.33956">
        <ele>31</ele>
        <time>2022-05-08T10:11:35.000Z</time>
      </trkpt>
      <trkpt lat="47.27115" lon="-2.33953">
        <ele>31</ele>
        <time>2022-05-08T10:11:39.000Z</time>
      </trkpt>
      <trkpt lat="47.271" lon="-2.3394">
        <ele>31</ele>
        <time>2022-05-08T10:11:42.000Z</time>
      </trkpt>
      <trkpt lat="47.27093" lon="-2.33935">
        <ele>30.60000038147</ele>
        <time>2022-05-08T10:11:43.000Z</time>
      </trkpt>
      <trkpt lat="47.27087" lon="-2.33929">
        <ele>30</ele>
        <time>2022-05-08T10:11:44.000Z</time>
      </trkpt>
      <trkpt lat="47.2708" lon="-2.33922">
        <ele>29.60000038147</ele>
        <time>2022-05-08T10:11:45.000Z</time>
      </trkpt>
      <trkpt lat="47.27074" lon="-2.33916">
        <ele>29.200000762939</ele>
        <time>2022-05-08T10:11:46.000Z</time>
      </trkpt>
      <trkpt lat="47.27067" lon="-2.33909">
        <ele>28.799999237061</ele>
        <time>2022-05-08T10:11:47.000Z</time>
      </trkpt>
      <trkpt lat="47.27056" lon="-2.33899">
        <ele>28.39999961853</ele>
        <time>2022-05-08T10:11:49.000Z</time>
      </trkpt>
      <trkpt lat="47.2705" lon="-2.33893">
        <ele>28</ele>
        <time>2022-05-08T10:11:50.000Z</time>
      </trkpt>
      <trkpt lat="47.27045" lon="-2.33888">
        <ele>27.39999961853</ele>
        <time>2022-05-08T10:11:51.000Z</time>
      </trkpt>
      <trkpt lat="47.2704" lon="-2.33883">
        <ele>27</ele>
        <time>2022-05-08T10:11:52.000Z</time>
      </trkpt>
      <trkpt lat="47.27035" lon="-2.33878">
        <ele>26.60000038147</ele>
        <time>2022-05-08T10:11:53.000Z</time>
      </trkpt>
      <trkpt lat="47.27012" lon="-2.33859">
        <ele>26.200000762939</ele>
        <time>2022-05-08T10:11:57.000Z</time>
      </trkpt>
      <trkpt lat="47.27005" lon="-2.33854">
        <ele>25.60000038147</ele>
        <time>2022-05-08T10:11:58.000Z</time>
      </trkpt>
      <trkpt lat="47.26998" lon="-2.33849">
        <ele>25.200000762939</ele>
        <time>2022-05-08T10:11:59.000Z</time>
      </trkpt>
      <trkpt lat="47.26991" lon="-2.33845">
        <ele>24.799999237061</ele>
        <time>2022-05-08T10:12:00.000Z</time>
      </trkpt>
      <trkpt lat="47.26982" lon="-2.3384">
        <ele>24.200000762939</ele>
        <time>2022-05-08T10:12:01.000Z</time>
      </trkpt>
      <trkpt lat="47.26974" lon="-2.33836">
        <ele>24.200000762939</ele>
        <time>2022-05-08T10:12:02.000Z</time>
      </trkpt>
      <trkpt lat="47.26949" lon="-2.33822">
        <ele>23.799999237061</ele>
        <time>2022-05-08T10:12:05.000Z</time>
      </trkpt>
      <trkpt lat="47.26941" lon="-2.33818">
        <ele>23.200000762939</ele>
        <time>2022-05-08T10:12:06.000Z</time>
      </trkpt>
      <trkpt lat="47.26935" lon="-2.33812">
        <ele>22.60000038147</ele>
        <time>2022-05-08T10:12:07.000Z</time>
      </trkpt>
      <trkpt lat="47.26929" lon="-2.33807">
        <ele>22.200000762939</ele>
        <time>2022-05-08T10:12:08.000Z</time>
      </trkpt>
      <trkpt lat="47.26924" lon="-2.33801">
        <ele>21.60000038147</ele>
        <time>2022-05-08T10:12:09.000Z</time>
      </trkpt>
      <trkpt lat="47.26921" lon="-2.33794">
        <ele>21.200000762939</ele>
        <time>2022-05-08T10:12:10.000Z</time>
      </trkpt>
      <trkpt lat="47.26921" lon="-2.33785">
        <ele>20.60000038147</ele>
        <time>2022-05-08T10:12:11.000Z</time>
      </trkpt>
      <trkpt lat="47.26921" lon="-2.33778">
        <ele>20</ele>
        <time>2022-05-08T10:12:12.000Z</time>
      </trkpt>
      <trkpt lat="47.26922" lon="-2.3377">
        <ele>19.60000038147</ele>
        <time>2022-05-08T10:12:13.000Z</time>
      </trkpt>
      <trkpt lat="47.26926" lon="-2.33755">
        <ele>19.60000038147</ele>
        <time>2022-05-08T10:12:15.000Z</time>
      </trkpt>
      <trkpt lat="47.26934" lon="-2.33713">
        <ele>19.60000038147</ele>
        <time>2022-05-08T10:12:20.000Z</time>
      </trkpt>
      <trkpt lat="47.26932" lon="-2.33695">
        <ele>19.60000038147</ele>
        <time>2022-05-08T10:12:22.000Z</time>
      </trkpt>
      <trkpt lat="47.26919" lon="-2.33616">
        <ele>19.60000038147</ele>
        <time>2022-05-08T10:12:31.000Z</time>
      </trkpt>
      <trkpt lat="47.26905" lon="-2.33574">
        <ele>19.60000038147</ele>
        <time>2022-05-08T10:12:36.000Z</time>
      </trkpt>
      <trkpt lat="47.26895" lon="-2.3355">
        <ele>19</ele>
        <time>2022-05-08T10:12:39.000Z</time>
      </trkpt>
      <trkpt lat="47.26891" lon="-2.33543">
        <ele>18.60000038147</ele>
        <time>2022-05-08T10:12:40.000Z</time>
      </trkpt>
      <trkpt lat="47.26886" lon="-2.33537">
        <ele>18</ele>
        <time>2022-05-08T10:12:41.000Z</time>
      </trkpt>
      <trkpt lat="47.26879" lon="-2.33535">
        <ele>17.60000038147</ele>
        <time>2022-05-08T10:12:42.000Z</time>
      </trkpt>
      <trkpt lat="47.26872" lon="-2.33535">
        <ele>17.200000762939</ele>
        <time>2022-05-08T10:12:43.000Z</time>
      </trkpt>
      <trkpt lat="47.26864" lon="-2.33536">
        <ele>17.200000762939</ele>
        <time>2022-05-08T10:12:44.000Z</time>
      </trkpt>
      <trkpt lat="47.2685" lon="-2.33541">
        <ele>16.60000038147</ele>
        <time>2022-05-08T10:12:46.000Z</time>
      </trkpt>
      <trkpt lat="47.26843" lon="-2.33544">
        <ele>16.200000762939</ele>
        <time>2022-05-08T10:12:47.000Z</time>
      </trkpt>
      <trkpt lat="47.26836" lon="-2.33548">
        <ele>15.800000190735</ele>
        <time>2022-05-08T10:12:48.000Z</time>
      </trkpt>
      <trkpt lat="47.2683" lon="-2.33551">
        <ele>15.39999961853</ele>
        <time>2022-05-08T10:12:49.000Z</time>
      </trkpt>
      <trkpt lat="47.26824" lon="-2.33554">
        <ele>15</ele>
        <time>2022-05-08T10:12:50.000Z</time>
      </trkpt>
      <trkpt lat="47.26819" lon="-2.33556">
        <ele>15</ele>
        <time>2022-05-08T10:12:51.000Z</time>
      </trkpt>
      <trkpt lat="47.26811" lon="-2.33557">
        <ele>14.60000038147</ele>
        <time>2022-05-08T10:12:53.000Z</time>
      </trkpt>
      <trkpt lat="47.26807" lon="-2.33558">
        <ele>14.199999809265</ele>
        <time>2022-05-08T10:12:54.000Z</time>
      </trkpt>
      <trkpt lat="47.26805" lon="-2.33558">
        <ele>13.800000190735</ele>
        <time>2022-05-08T10:12:55.000Z</time>
      </trkpt>
      <trkpt lat="47.26802" lon="-2.33559">
        <ele>13.39999961853</ele>
        <time>2022-05-08T10:12:56.000Z</time>
      </trkpt>
      <trkpt lat="47.26799" lon="-2.33559">
        <ele>13</ele>
        <time>2022-05-08T10:12:57.000Z</time>
      </trkpt>
      <trkpt lat="47.26798" lon="-2.3356">
        <ele>13</ele>
        <time>2022-05-08T10:12:58.000Z</time>
      </trkpt>
      <trkpt lat="47.26786" lon="-2.33568">
        <ele>13</ele>
        <time>2022-05-08T10:13:04.000Z</time>
      </trkpt>
      <trkpt lat="47.26781" lon="-2.33585">
        <ele>13</ele>
        <time>2022-05-08T10:13:07.000Z</time>
      </trkpt>
      <trkpt lat="47.26781" lon="-2.33592">
        <ele>13</ele>
        <time>2022-05-08T10:13:08.000Z</time>
      </trkpt>
      <trkpt lat="47.26779" lon="-2.3363">
        <ele>13</ele>
        <time>2022-05-08T10:13:13.000Z</time>
      </trkpt>
      <trkpt lat="47.26778" lon="-2.33679">
        <ele>13.39999961853</ele>
        <time>2022-05-08T10:13:19.000Z</time>
      </trkpt>
      <trkpt lat="47.26779" lon="-2.33687">
        <ele>13.800000190735</ele>
        <time>2022-05-08T10:13:20.000Z</time>
      </trkpt>
      <trkpt lat="47.26779" lon="-2.33694">
        <ele>14.199999809265</ele>
        <time>2022-05-08T10:13:21.000Z</time>
      </trkpt>
      <trkpt lat="47.26778" lon="-2.337">
        <ele>14.60000038147</ele>
        <time>2022-05-08T10:13:22.000Z</time>
      </trkpt>
      <trkpt lat="47.26776" lon="-2.33704">
        <ele>15.199999809265</ele>
        <time>2022-05-08T10:13:23.000Z</time>
      </trkpt>
      <trkpt lat="47.26763" lon="-2.33705">
        <ele>15.199999809265</ele>
        <time>2022-05-08T10:13:26.000Z</time>
      </trkpt>
      <trkpt lat="47.26758" lon="-2.33704">
        <ele>15.199999809265</ele>
        <time>2022-05-08T10:13:27.000Z</time>
      </trkpt>
      <trkpt lat="47.26735" lon="-2.33701">
        <ele>15.199999809265</ele>
        <time>2022-05-08T10:13:31.000Z</time>
      </trkpt>
      <trkpt lat="47.26696" lon="-2.337">
        <ele>15.199999809265</ele>
        <time>2022-05-08T10:13:38.000Z</time>
      </trkpt>
      <trkpt lat="47.2668" lon="-2.337">
        <ele>15.199999809265</ele>
        <time>2022-05-08T10:13:41.000Z</time>
      </trkpt>
      <trkpt lat="47.26669" lon="-2.33699">
        <ele>15.199999809265</ele>
        <time>2022-05-08T10:13:43.000Z</time>
      </trkpt>
      <trkpt lat="47.26645" lon="-2.337">
        <ele>15.199999809265</ele>
        <time>2022-05-08T10:13:47.000Z</time>
      </trkpt>
      <trkpt lat="47.2664" lon="-2.33701">
        <ele>15.199999809265</ele>
        <time>2022-05-08T10:13:48.000Z</time>
      </trkpt>
      <trkpt lat="47.26622" lon="-2.33702">
        <ele>15.199999809265</ele>
        <time>2022-05-08T10:13:51.000Z</time>
      </trkpt>
      <trkpt lat="47.26614" lon="-2.33703">
        <ele>15.199999809265</ele>
        <time>2022-05-08T10:13:53.000Z</time>
      </trkpt>
      <trkpt lat="47.2661" lon="-2.33704">
        <ele>15.199999809265</ele>
        <time>2022-05-08T10:13:57.000Z</time>
      </trkpt>
      <trkpt lat="47.26608" lon="-2.33704">
        <ele>15.199999809265</ele>
        <time>2022-05-08T10:14:03.000Z</time>
      </trkpt>
      <trkpt lat="47.26604" lon="-2.33704">
        <ele>15.199999809265</ele>
        <time>2022-05-08T10:14:05.000Z</time>
      </trkpt>
      <trkpt lat="47.26598" lon="-2.33701">
        <ele>15.60000038147</ele>
        <time>2022-05-08T10:14:07.000Z</time>
      </trkpt>
      <trkpt lat="47.26596" lon="-2.33699">
        <ele>16</ele>
        <time>2022-05-08T10:14:08.000Z</time>
      </trkpt>
      <trkpt lat="47.26592" lon="-2.33696">
        <ele>16.39999961853</ele>
        <time>2022-05-08T10:14:09.000Z</time>
      </trkpt>
      <trkpt lat="47.26589" lon="-2.33693">
        <ele>16.799999237061</ele>
        <time>2022-05-08T10:14:10.000Z</time>
      </trkpt>
      <trkpt lat="47.26585" lon="-2.3369">
        <ele>17.200000762939</ele>
        <time>2022-05-08T10:14:11.000Z</time>
      </trkpt>
      <trkpt lat="47.26573" lon="-2.33679">
        <ele>17.200000762939</ele>
        <time>2022-05-08T10:14:15.000Z</time>
      </trkpt>
      <trkpt lat="47.26574" lon="-2.33662">
        <ele>17.200000762939</ele>
        <time>2022-05-08T10:14:18.000Z</time>
      </trkpt>
      <trkpt lat="47.26574" lon="-2.33654">
        <ele>17.200000762939</ele>
        <time>2022-05-08T10:14:19.000Z</time>
      </trkpt>
      <trkpt lat="47.26572" lon="-2.33632">
        <ele>17.200000762939</ele>
        <time>2022-05-08T10:14:22.000Z</time>
      </trkpt>
      <trkpt lat="47.26567" lon="-2.33602">
        <ele>16.799999237061</ele>
        <time>2022-05-08T10:14:26.000Z</time>
      </trkpt>
      <trkpt lat="47.26566" lon="-2.33594">
        <ele>16.39999961853</ele>
        <time>2022-05-08T10:14:27.000Z</time>
      </trkpt>
      <trkpt lat="47.26564" lon="-2.33587">
        <ele>16</ele>
        <time>2022-05-08T10:14:28.000Z</time>
      </trkpt>
      <trkpt lat="47.26563" lon="-2.33579">
        <ele>15.60000038147</ele>
        <time>2022-05-08T10:14:29.000Z</time>
      </trkpt>
      <trkpt lat="47.26562" lon="-2.33571">
        <ele>15.199999809265</ele>
        <time>2022-05-08T10:14:30.000Z</time>
      </trkpt>
      <trkpt lat="47.26561" lon="-2.33564">
        <ele>15.199999809265</ele>
        <time>2022-05-08T10:14:31.000Z</time>
      </trkpt>
      <trkpt lat="47.26559" lon="-2.33557">
        <ele>15.199999809265</ele>
        <time>2022-05-08T10:14:32.000Z</time>
      </trkpt>
      <trkpt lat="47.26552" lon="-2.33528">
        <ele>15.199999809265</ele>
        <time>2022-05-08T10:14:36.000Z</time>
      </trkpt>
      <trkpt lat="47.26542" lon="-2.33487">
        <ele>15.199999809265</ele>
        <time>2022-05-08T10:14:41.000Z</time>
      </trkpt>
      <trkpt lat="47.26531" lon="-2.33437">
        <ele>15.199999809265</ele>
        <time>2022-05-08T10:14:47.000Z</time>
      </trkpt>
      <trkpt lat="47.26525" lon="-2.33382">
        <ele>15.199999809265</ele>
        <time>2022-05-08T10:14:54.000Z</time>
      </trkpt>
      <trkpt lat="47.26521" lon="-2.33361">
        <ele>14.800000190735</ele>
        <time>2022-05-08T10:14:57.000Z</time>
      </trkpt>
      <trkpt lat="47.26519" lon="-2.33356">
        <ele>14.39999961853</ele>
        <time>2022-05-08T10:14:58.000Z</time>
      </trkpt>
      <trkpt lat="47.26515" lon="-2.33352">
        <ele>14</ele>
        <time>2022-05-08T10:14:59.000Z</time>
      </trkpt>
      <trkpt lat="47.26511" lon="-2.33349">
        <ele>13.60000038147</ele>
        <time>2022-05-08T10:15:00.000Z</time>
      </trkpt>
      <trkpt lat="47.26506" lon="-2.33347">
        <ele>13.199999809265</ele>
        <time>2022-05-08T10:15:01.000Z</time>
      </trkpt>
      <trkpt lat="47.26502" lon="-2.33346">
        <ele>13.199999809265</ele>
        <time>2022-05-08T10:15:02.000Z</time>
      </trkpt>
      <trkpt lat="47.26496" lon="-2.33346">
        <ele>13.199999809265</ele>
        <time>2022-05-08T10:15:03.000Z</time>
      </trkpt>
      <trkpt lat="47.26486" lon="-2.33351">
        <ele>13.199999809265</ele>
        <time>2022-05-08T10:15:05.000Z</time>
      </trkpt>
      <trkpt lat="47.26448" lon="-2.3338">
        <ele>13.199999809265</ele>
        <time>2022-05-08T10:15:12.000Z</time>
      </trkpt>
      <trkpt lat="47.26408" lon="-2.33402">
        <ele>13.199999809265</ele>
        <time>2022-05-08T10:15:19.000Z</time>
      </trkpt>
      <trkpt lat="47.26367" lon="-2.3342">
        <ele>13.199999809265</ele>
        <time>2022-05-08T10:15:26.000Z</time>
      </trkpt>
      <trkpt lat="47.26335" lon="-2.33428">
        <ele>13.199999809265</ele>
        <time>2022-05-08T10:15:32.000Z</time>
      </trkpt>
      <trkpt lat="47.26321" lon="-2.3343">
        <ele>13.199999809265</ele>
        <time>2022-05-08T10:15:36.000Z</time>
      </trkpt>
      <trkpt lat="47.26317" lon="-2.33428">
        <ele>13.199999809265</ele>
        <time>2022-05-08T10:15:37.000Z</time>
      </trkpt>
      <trkpt lat="47.26312" lon="-2.33428">
        <ele>13.199999809265</ele>
        <time>2022-05-08T10:15:38.000Z</time>
      </trkpt>
      <trkpt lat="47.26296" lon="-2.33431">
        <ele>13.199999809265</ele>
        <time>2022-05-08T10:15:41.000Z</time>
      </trkpt>
      <trkpt lat="47.26263" lon="-2.33439">
        <ele>13.199999809265</ele>
        <time>2022-05-08T10:15:47.000Z</time>
      </trkpt>
      <trkpt lat="47.26213" lon="-2.3345">
        <ele>13.199999809265</ele>
        <time>2022-05-08T10:15:56.000Z</time>
      </trkpt>
      <trkpt lat="47.2617" lon="-2.33458">
        <ele>13.199999809265</ele>
        <time>2022-05-08T10:16:04.000Z</time>
      </trkpt>
      <trkpt lat="47.26165" lon="-2.33458">
        <ele>13.199999809265</ele>
        <time>2022-05-08T10:16:05.000Z</time>
      </trkpt>
      <trkpt lat="47.26145" lon="-2.33454">
        <ele>13.199999809265</ele>
        <time>2022-05-08T10:16:09.000Z</time>
      </trkpt>
      <trkpt lat="47.26122" lon="-2.33453">
        <ele>13.199999809265</ele>
        <time>2022-05-08T10:16:14.000Z</time>
      </trkpt>
      <trkpt lat="47.26118" lon="-2.33453">
        <ele>13.199999809265</ele>
        <time>2022-05-08T10:16:15.000Z</time>
      </trkpt>
      <trkpt lat="47.2611" lon="-2.33458">
        <ele>13.199999809265</ele>
        <time>2022-05-08T10:16:17.000Z</time>
      </trkpt>
      <trkpt lat="47.26096" lon="-2.33469">
        <ele>13.199999809265</ele>
        <time>2022-05-08T10:16:20.000Z</time>
      </trkpt>
      <trkpt lat="47.26086" lon="-2.3347">
        <ele>13.199999809265</ele>
        <time>2022-05-08T10:16:22.000Z</time>
      </trkpt>
      <trkpt lat="47.26071" lon="-2.33462">
        <ele>13.199999809265</ele>
        <time>2022-05-08T10:16:25.000Z</time>
      </trkpt>
      <trkpt lat="47.26066" lon="-2.33457">
        <ele>13.199999809265</ele>
        <time>2022-05-08T10:16:26.000Z</time>
      </trkpt>
      <trkpt lat="47.26061" lon="-2.33454">
        <ele>13.199999809265</ele>
        <time>2022-05-08T10:16:27.000Z</time>
      </trkpt>
      <trkpt lat="47.2605" lon="-2.33454">
        <ele>13.199999809265</ele>
        <time>2022-05-08T10:16:29.000Z</time>
      </trkpt>
      <trkpt lat="47.26039" lon="-2.33472">
        <ele>13.199999809265</ele>
        <time>2022-05-08T10:16:32.000Z</time>
      </trkpt>
      <trkpt lat="47.26034" lon="-2.33478">
        <ele>13.199999809265</ele>
        <time>2022-05-08T10:16:33.000Z</time>
      </trkpt>
      <trkpt lat="47.26023" lon="-2.33486">
        <ele>13.199999809265</ele>
        <time>2022-05-08T10:16:35.000Z</time>
      </trkpt>
      <trkpt lat="47.26011" lon="-2.33489">
        <ele>13.199999809265</ele>
        <time>2022-05-08T10:16:37.000Z</time>
      </trkpt>
      <trkpt lat="47.25995" lon="-2.33494">
        <ele>13.199999809265</ele>
        <time>2022-05-08T10:16:40.000Z</time>
      </trkpt>
      <trkpt lat="47.25987" lon="-2.33499">
        <ele>13.199999809265</ele>
        <time>2022-05-08T10:16:43.000Z</time>
      </trkpt>
      <trkpt lat="47.25977" lon="-2.33508">
        <ele>13.199999809265</ele>
        <time>2022-05-08T10:16:46.000Z</time>
      </trkpt>
      <trkpt lat="47.25972" lon="-2.33509">
        <ele>13.199999809265</ele>
        <time>2022-05-08T10:16:47.000Z</time>
      </trkpt>
      <trkpt lat="47.25957" lon="-2.33508">
        <ele>13.199999809265</ele>
        <time>2022-05-08T10:16:50.000Z</time>
      </trkpt>
      <trkpt lat="47.25952" lon="-2.33512">
        <ele>13.199999809265</ele>
        <time>2022-05-08T10:16:51.000Z</time>
      </trkpt>
      <trkpt lat="47.25918" lon="-2.33544">
        <ele>13.60000038147</ele>
        <time>2022-05-08T10:16:58.000Z</time>
      </trkpt>
      <trkpt lat="47.25913" lon="-2.33548">
        <ele>14</ele>
        <time>2022-05-08T10:16:59.000Z</time>
      </trkpt>
      <trkpt lat="47.25908" lon="-2.33552">
        <ele>14.39999961853</ele>
        <time>2022-05-08T10:17:00.000Z</time>
      </trkpt>
      <trkpt lat="47.25902" lon="-2.33556">
        <ele>14.800000190735</ele>
        <time>2022-05-08T10:17:01.000Z</time>
      </trkpt>
      <trkpt lat="47.25898" lon="-2.3356">
        <ele>15.199999809265</ele>
        <time>2022-05-08T10:17:02.000Z</time>
      </trkpt>
      <trkpt lat="47.25882" lon="-2.33573">
        <ele>15.199999809265</ele>
        <time>2022-05-08T10:17:05.000Z</time>
      </trkpt>
      <trkpt lat="47.25877" lon="-2.33576">
        <ele>15.199999809265</ele>
        <time>2022-05-08T10:17:06.000Z</time>
      </trkpt>
      <trkpt lat="47.25859" lon="-2.33578">
        <ele>15.199999809265</ele>
        <time>2022-05-08T10:17:09.000Z</time>
      </trkpt>
      <trkpt lat="47.25853" lon="-2.33578">
        <ele>15.199999809265</ele>
        <time>2022-05-08T10:17:10.000Z</time>
      </trkpt>
      <trkpt lat="47.25812" lon="-2.33579">
        <ele>15.199999809265</ele>
        <time>2022-05-08T10:17:17.000Z</time>
      </trkpt>
      <trkpt lat="47.258" lon="-2.3358">
        <ele>15.60000038147</ele>
        <time>2022-05-08T10:17:19.000Z</time>
      </trkpt>
      <trkpt lat="47.25794" lon="-2.3358">
        <ele>16.200000762939</ele>
        <time>2022-05-08T10:17:20.000Z</time>
      </trkpt>
      <trkpt lat="47.25788" lon="-2.3358">
        <ele>16.60000038147</ele>
        <time>2022-05-08T10:17:21.000Z</time>
      </trkpt>
      <trkpt lat="47.25782" lon="-2.33581">
        <ele>17</ele>
        <time>2022-05-08T10:17:22.000Z</time>
      </trkpt>
      <trkpt lat="47.25776" lon="-2.33581">
        <ele>17.39999961853</ele>
        <time>2022-05-08T10:17:23.000Z</time>
      </trkpt>
      <trkpt lat="47.2577" lon="-2.33581">
        <ele>17.39999961853</ele>
        <time>2022-05-08T10:17:24.000Z</time>
      </trkpt>
      <trkpt lat="47.25752" lon="-2.33584">
        <ele>17.39999961853</ele>
        <time>2022-05-08T10:17:27.000Z</time>
      </trkpt>
      <trkpt lat="47.2574" lon="-2.33585">
        <ele>17.39999961853</ele>
        <time>2022-05-08T10:17:29.000Z</time>
      </trkpt>
      <trkpt lat="47.25727" lon="-2.33584">
        <ele>17.39999961853</ele>
        <time>2022-05-08T10:17:31.000Z</time>
      </trkpt>
      <trkpt lat="47.25708" lon="-2.33584">
        <ele>17.39999961853</ele>
        <time>2022-05-08T10:17:34.000Z</time>
      </trkpt>
      <trkpt lat="47.25664" lon="-2.33578">
        <ele>17.39999961853</ele>
        <time>2022-05-08T10:17:41.000Z</time>
      </trkpt>
      <trkpt lat="47.25629" lon="-2.3356">
        <ele>17.39999961853</ele>
        <time>2022-05-08T10:17:47.000Z</time>
      </trkpt>
      <trkpt lat="47.25612" lon="-2.33547">
        <ele>17.39999961853</ele>
        <time>2022-05-08T10:17:50.000Z</time>
      </trkpt>
      <trkpt lat="47.25597" lon="-2.33531">
        <ele>17.39999961853</ele>
        <time>2022-05-08T10:17:53.000Z</time>
      </trkpt>
      <trkpt lat="47.25563" lon="-2.33483">
        <ele>17.39999961853</ele>
        <time>2022-05-08T10:18:00.000Z</time>
      </trkpt>
      <trkpt lat="47.25541" lon="-2.33433">
        <ele>17.39999961853</ele>
        <time>2022-05-08T10:18:06.000Z</time>
      </trkpt>
      <trkpt lat="47.25534" lon="-2.33408">
        <ele>17.799999237061</ele>
        <time>2022-05-08T10:18:09.000Z</time>
      </trkpt>
      <trkpt lat="47.25533" lon="-2.33399">
        <ele>18.200000762939</ele>
        <time>2022-05-08T10:18:10.000Z</time>
      </trkpt>
      <trkpt lat="47.25531" lon="-2.3339">
        <ele>18.60000038147</ele>
        <time>2022-05-08T10:18:11.000Z</time>
      </trkpt>
      <trkpt lat="47.25529" lon="-2.33381">
        <ele>19</ele>
        <time>2022-05-08T10:18:12.000Z</time>
      </trkpt>
      <trkpt lat="47.25528" lon="-2.33371">
        <ele>19.39999961853</ele>
        <time>2022-05-08T10:18:13.000Z</time>
      </trkpt>
      <trkpt lat="47.2552" lon="-2.33305">
        <ele>19.39999961853</ele>
        <time>2022-05-08T10:18:20.000Z</time>
      </trkpt>
      <trkpt lat="47.2551" lon="-2.33225">
        <ele>19.39999961853</ele>
        <time>2022-05-08T10:18:28.000Z</time>
      </trkpt>
      <trkpt lat="47.25508" lon="-2.33216">
        <ele>19.39999961853</ele>
        <time>2022-05-08T10:18:29.000Z</time>
      </trkpt>
      <trkpt lat="47.255" lon="-2.33152">
        <ele>19.39999961853</ele>
        <time>2022-05-08T10:18:36.000Z</time>
      </trkpt>
      <trkpt lat="47.25494" lon="-2.33102">
        <ele>19.39999961853</ele>
        <time>2022-05-08T10:18:42.000Z</time>
      </trkpt>
      <trkpt lat="47.25491" lon="-2.33096">
        <ele>19.39999961853</ele>
        <time>2022-05-08T10:18:43.000Z</time>
      </trkpt>
      <trkpt lat="47.25483" lon="-2.33092">
        <ele>19.39999961853</ele>
        <time>2022-05-08T10:18:45.000Z</time>
      </trkpt>
      <trkpt lat="47.25467" lon="-2.33101">
        <ele>19.39999961853</ele>
        <time>2022-05-08T10:18:48.000Z</time>
      </trkpt>
      <trkpt lat="47.25462" lon="-2.33105">
        <ele>19.39999961853</ele>
        <time>2022-05-08T10:18:49.000Z</time>
      </trkpt>
      <trkpt lat="47.25422" lon="-2.33122">
        <ele>19.39999961853</ele>
        <time>2022-05-08T10:18:56.000Z</time>
      </trkpt>
      <trkpt lat="47.25406" lon="-2.33129">
        <ele>19.39999961853</ele>
        <time>2022-05-08T10:18:59.000Z</time>
      </trkpt>
      <trkpt lat="47.25392" lon="-2.33138">
        <ele>19.39999961853</ele>
        <time>2022-05-08T10:19:02.000Z</time>
      </trkpt>
      <trkpt lat="47.25387" lon="-2.33139">
        <ele>19.39999961853</ele>
        <time>2022-05-08T10:19:03.000Z</time>
      </trkpt>
      <trkpt lat="47.25379" lon="-2.33134">
        <ele>19.39999961853</ele>
        <time>2022-05-08T10:19:05.000Z</time>
      </trkpt>
      <trkpt lat="47.25374" lon="-2.33118">
        <ele>19.39999961853</ele>
        <time>2022-05-08T10:19:08.000Z</time>
      </trkpt>
      <trkpt lat="47.25366" lon="-2.33098">
        <ele>19.39999961853</ele>
        <time>2022-05-08T10:19:13.000Z</time>
      </trkpt>
      <trkpt lat="47.25365" lon="-2.33097">
        <ele>19.39999961853</ele>
        <time>2022-05-08T10:19:15.000Z</time>
      </trkpt>
      <trkpt lat="47.25363" lon="-2.33088">
        <ele>19.39999961853</ele>
        <time>2022-05-08T10:24:39.000Z</time>
      </trkpt>
      <trkpt lat="47.25357" lon="-2.33072">
        <ele>19.39999961853</ele>
        <time>2022-05-08T10:24:46.000Z</time>
      </trkpt>
      <trkpt lat="47.2535" lon="-2.33053">
        <ele>19.39999961853</ele>
        <time>2022-05-08T10:24:52.000Z</time>
      </trkpt>
      <trkpt lat="47.25342" lon="-2.33031">
        <ele>19.39999961853</ele>
        <time>2022-05-08T10:24:59.000Z</time>
      </trkpt>
      <trkpt lat="47.25332" lon="-2.33005">
        <ele>19.39999961853</ele>
        <time>2022-05-08T10:25:07.000Z</time>
      </trkpt>
      <trkpt lat="47.25322" lon="-2.32977">
        <ele>19.39999961853</ele>
        <time>2022-05-08T10:25:14.000Z</time>
      </trkpt>
      <trkpt lat="47.2531" lon="-2.32943">
        <ele>19.39999961853</ele>
        <time>2022-05-08T10:25:22.000Z</time>
      </trkpt>
      <trkpt lat="47.25311" lon="-2.3292">
        <ele>19.39999961853</ele>
        <time>2022-05-08T10:25:27.000Z</time>
      </trkpt>
      <trkpt lat="47.25326" lon="-2.32904">
        <ele>19.39999961853</ele>
        <time>2022-05-08T10:25:32.000Z</time>
      </trkpt>
      <trkpt lat="47.25341" lon="-2.32886">
        <ele>19.39999961853</ele>
        <time>2022-05-08T10:25:37.000Z</time>
      </trkpt>
      <trkpt lat="47.25345" lon="-2.32881">
        <ele>19.39999961853</ele>
        <time>2022-05-08T10:25:38.000Z</time>
      </trkpt>
      <trkpt lat="47.25348" lon="-2.32877">
        <ele>19.39999961853</ele>
        <time>2022-05-08T10:25:39.000Z</time>
      </trkpt>
      <trkpt lat="47.25369" lon="-2.32858">
        <ele>19.39999961853</ele>
        <time>2022-05-08T10:25:44.000Z</time>
      </trkpt>
      <trkpt lat="47.25391" lon="-2.32834">
        <ele>19.39999961853</ele>
        <time>2022-05-08T10:25:50.000Z</time>
      </trkpt>
      <trkpt lat="47.25415" lon="-2.32804">
        <ele>19.39999961853</ele>
        <time>2022-05-08T10:25:57.000Z</time>
      </trkpt>
      <trkpt lat="47.25418" lon="-2.328">
        <ele>20.200000762939</ele>
        <time>2022-05-08T10:25:58.000Z</time>
      </trkpt>
      <trkpt lat="47.2542" lon="-2.32795">
        <ele>20.60000038147</ele>
        <time>2022-05-08T10:25:59.000Z</time>
      </trkpt>
      <trkpt lat="47.25423" lon="-2.32791">
        <ele>21.200000762939</ele>
        <time>2022-05-08T10:26:00.000Z</time>
      </trkpt>
      <trkpt lat="47.25425" lon="-2.32787">
        <ele>21.60000038147</ele>
        <time>2022-05-08T10:26:01.000Z</time>
      </trkpt>
      <trkpt lat="47.25427" lon="-2.32778">
        <ele>21.60000038147</ele>
        <time>2022-05-08T10:26:03.000Z</time>
      </trkpt>
      <trkpt lat="47.25436" lon="-2.32763">
        <ele>21.60000038147</ele>
        <time>2022-05-08T10:26:07.000Z</time>
      </trkpt>
      <trkpt lat="47.25453" lon="-2.32737">
        <ele>21.60000038147</ele>
        <time>2022-05-08T10:26:13.000Z</time>
      </trkpt>
      <trkpt lat="47.25476" lon="-2.32707">
        <ele>21.60000038147</ele>
        <time>2022-05-08T10:26:20.000Z</time>
      </trkpt>
      <trkpt lat="47.25482" lon="-2.32698">
        <ele>21.60000038147</ele>
        <time>2022-05-08T10:26:22.000Z</time>
      </trkpt>
      <trkpt lat="47.25487" lon="-2.3268">
        <ele>21.60000038147</ele>
        <time>2022-05-08T10:26:25.000Z</time>
      </trkpt>
      <trkpt lat="47.25486" lon="-2.32648">
        <ele>21.60000038147</ele>
        <time>2022-05-08T10:26:30.000Z</time>
      </trkpt>
      <trkpt lat="47.25484" lon="-2.32637">
        <ele>21.60000038147</ele>
        <time>2022-05-08T10:26:32.000Z</time>
      </trkpt>
      <trkpt lat="47.25481" lon="-2.32625">
        <ele>22</ele>
        <time>2022-05-08T10:26:34.000Z</time>
      </trkpt>
      <trkpt lat="47.2548" lon="-2.32619">
        <ele>22.39999961853</ele>
        <time>2022-05-08T10:26:35.000Z</time>
      </trkpt>
      <trkpt lat="47.25479" lon="-2.32613">
        <ele>22.799999237061</ele>
        <time>2022-05-08T10:26:36.000Z</time>
      </trkpt>
      <trkpt lat="47.25479" lon="-2.32606">
        <ele>23.200000762939</ele>
        <time>2022-05-08T10:26:37.000Z</time>
      </trkpt>
      <trkpt lat="47.25477" lon="-2.326">
        <ele>23.60000038147</ele>
        <time>2022-05-08T10:26:38.000Z</time>
      </trkpt>
      <trkpt lat="47.25475" lon="-2.32573">
        <ele>23.60000038147</ele>
        <time>2022-05-08T10:26:43.000Z</time>
      </trkpt>
      <trkpt lat="47.25484" lon="-2.32555">
        <ele>23.60000038147</ele>
        <time>2022-05-08T10:26:47.000Z</time>
      </trkpt>
      <trkpt lat="47.25487" lon="-2.32551">
        <ele>23.60000038147</ele>
        <time>2022-05-08T10:26:48.000Z</time>
      </trkpt>
      <trkpt lat="47.255" lon="-2.32539">
        <ele>23.60000038147</ele>
        <time>2022-05-08T10:26:51.000Z</time>
      </trkpt>
      <trkpt lat="47.25504" lon="-2.32535">
        <ele>23.60000038147</ele>
        <time>2022-05-08T10:26:52.000Z</time>
      </trkpt>
      <trkpt lat="47.25535" lon="-2.32506">
        <ele>23.60000038147</ele>
        <time>2022-05-08T10:27:00.000Z</time>
      </trkpt>
      <trkpt lat="47.25551" lon="-2.32491">
        <ele>23.200000762939</ele>
        <time>2022-05-08T10:27:03.000Z</time>
      </trkpt>
      <trkpt lat="47.25556" lon="-2.32487">
        <ele>22.60000038147</ele>
        <time>2022-05-08T10:27:04.000Z</time>
      </trkpt>
      <trkpt lat="47.25562" lon="-2.32482">
        <ele>22.200000762939</ele>
        <time>2022-05-08T10:27:05.000Z</time>
      </trkpt>
      <trkpt lat="47.25567" lon="-2.32477">
        <ele>21.799999237061</ele>
        <time>2022-05-08T10:27:06.000Z</time>
      </trkpt>
      <trkpt lat="47.25572" lon="-2.32472">
        <ele>21.39999961853</ele>
        <time>2022-05-08T10:27:07.000Z</time>
      </trkpt>
      <trkpt lat="47.25589" lon="-2.32454">
        <ele>21</ele>
        <time>2022-05-08T10:27:10.000Z</time>
      </trkpt>
      <trkpt lat="47.25594" lon="-2.32448">
        <ele>20.60000038147</ele>
        <time>2022-05-08T10:27:11.000Z</time>
      </trkpt>
      <trkpt lat="47.25599" lon="-2.32442">
        <ele>20</ele>
        <time>2022-05-08T10:27:12.000Z</time>
      </trkpt>
      <trkpt lat="47.25605" lon="-2.32436">
        <ele>19.200000762939</ele>
        <time>2022-05-08T10:27:13.000Z</time>
      </trkpt>
      <trkpt lat="47.25611" lon="-2.3243">
        <ele>19.200000762939</ele>
        <time>2022-05-08T10:27:14.000Z</time>
      </trkpt>
      <trkpt lat="47.25628" lon="-2.32412">
        <ele>18.799999237061</ele>
        <time>2022-05-08T10:27:17.000Z</time>
      </trkpt>
      <trkpt lat="47.25633" lon="-2.32407">
        <ele>18.39999961853</ele>
        <time>2022-05-08T10:27:18.000Z</time>
      </trkpt>
      <trkpt lat="47.25638" lon="-2.32403">
        <ele>18</ele>
        <time>2022-05-08T10:27:19.000Z</time>
      </trkpt>
      <trkpt lat="47.25644" lon="-2.32402">
        <ele>17.39999961853</ele>
        <time>2022-05-08T10:27:20.000Z</time>
      </trkpt>
      <trkpt lat="47.2565" lon="-2.32401">
        <ele>17</ele>
        <time>2022-05-08T10:27:21.000Z</time>
      </trkpt>
      <trkpt lat="47.25665" lon="-2.32406">
        <ele>17</ele>
        <time>2022-05-08T10:27:24.000Z</time>
      </trkpt>
      <trkpt lat="47.25693" lon="-2.32419">
        <ele>17</ele>
        <time>2022-05-08T10:27:29.000Z</time>
      </trkpt>
      <trkpt lat="47.25699" lon="-2.3242">
        <ele>17</ele>
        <time>2022-05-08T10:27:30.000Z</time>
      </trkpt>
      <trkpt lat="47.25728" lon="-2.32421">
        <ele>17</ele>
        <time>2022-05-08T10:27:35.000Z</time>
      </trkpt>
      <trkpt lat="47.25744" lon="-2.32422">
        <ele>16.200000762939</ele>
        <time>2022-05-08T10:27:38.000Z</time>
      </trkpt>
      <trkpt lat="47.2575" lon="-2.32422">
        <ele>15.800000190735</ele>
        <time>2022-05-08T10:27:39.000Z</time>
      </trkpt>
      <trkpt lat="47.25756" lon="-2.32421">
        <ele>15.39999961853</ele>
        <time>2022-05-08T10:27:40.000Z</time>
      </trkpt>
      <trkpt lat="47.25761" lon="-2.32419">
        <ele>15</ele>
        <time>2022-05-08T10:27:41.000Z</time>
      </trkpt>
      <trkpt lat="47.25781" lon="-2.32416">
        <ele>15</ele>
        <time>2022-05-08T10:27:45.000Z</time>
      </trkpt>
      <trkpt lat="47.25792" lon="-2.32433">
        <ele>15</ele>
        <time>2022-05-08T10:27:48.000Z</time>
      </trkpt>
      <trkpt lat="47.25796" lon="-2.32439">
        <ele>15</ele>
        <time>2022-05-08T10:27:49.000Z</time>
      </trkpt>
      <trkpt lat="47.258" lon="-2.32446">
        <ele>15</ele>
        <time>2022-05-08T10:27:50.000Z</time>
      </trkpt>
      <trkpt lat="47.25813" lon="-2.3246">
        <ele>15</ele>
        <time>2022-05-08T10:27:53.000Z</time>
      </trkpt>
      <trkpt lat="47.25819" lon="-2.32463">
        <ele>15</ele>
        <time>2022-05-08T10:27:54.000Z</time>
      </trkpt>
      <trkpt lat="47.25841" lon="-2.32473">
        <ele>15</ele>
        <time>2022-05-08T10:27:58.000Z</time>
      </trkpt>
      <trkpt lat="47.25857" lon="-2.32476">
        <ele>15</ele>
        <time>2022-05-08T10:28:01.000Z</time>
      </trkpt>
      <trkpt lat="47.25867" lon="-2.32474">
        <ele>15</ele>
        <time>2022-05-08T10:28:03.000Z</time>
      </trkpt>
      <trkpt lat="47.25883" lon="-2.32472">
        <ele>15</ele>
        <time>2022-05-08T10:28:06.000Z</time>
      </trkpt>
      <trkpt lat="47.25899" lon="-2.32464">
        <ele>15</ele>
        <time>2022-05-08T10:28:09.000Z</time>
      </trkpt>
      <trkpt lat="47.25915" lon="-2.32443">
        <ele>15</ele>
        <time>2022-05-08T10:28:13.000Z</time>
      </trkpt>
      <trkpt lat="47.25949" lon="-2.32396">
        <ele>15</ele>
        <time>2022-05-08T10:28:22.000Z</time>
      </trkpt>
      <trkpt lat="47.25987" lon="-2.32348">
        <ele>15</ele>
        <time>2022-05-08T10:28:32.000Z</time>
      </trkpt>
      <trkpt lat="47.26013" lon="-2.32314">
        <ele>15</ele>
        <time>2022-05-08T10:28:39.000Z</time>
      </trkpt>
      <trkpt lat="47.26044" lon="-2.32277">
        <ele>15</ele>
        <time>2022-05-08T10:28:47.000Z</time>
      </trkpt>
      <trkpt lat="47.26061" lon="-2.3226">
        <ele>15</ele>
        <time>2022-05-08T10:28:51.000Z</time>
      </trkpt>
      <trkpt lat="47.2607" lon="-2.3225">
        <ele>15</ele>
        <time>2022-05-08T10:28:53.000Z</time>
      </trkpt>
      <trkpt lat="47.26091" lon="-2.3222">
        <ele>15</ele>
        <time>2022-05-08T10:28:59.000Z</time>
      </trkpt>
      <trkpt lat="47.26098" lon="-2.32209">
        <ele>15</ele>
        <time>2022-05-08T10:29:01.000Z</time>
      </trkpt>
      <trkpt lat="47.2611" lon="-2.32183">
        <ele>15</ele>
        <time>2022-05-08T10:29:05.000Z</time>
      </trkpt>
      <trkpt lat="47.26128" lon="-2.32127">
        <ele>15</ele>
        <time>2022-05-08T10:29:13.000Z</time>
      </trkpt>
      <trkpt lat="47.26139" lon="-2.32086">
        <ele>15</ele>
        <time>2022-05-08T10:29:19.000Z</time>
      </trkpt>
      <trkpt lat="47.26154" lon="-2.32039">
        <ele>15</ele>
        <time>2022-05-08T10:29:26.000Z</time>
      </trkpt>
      <trkpt lat="47.26159" lon="-2.32028">
        <ele>15</ele>
        <time>2022-05-08T10:29:28.000Z</time>
      </trkpt>
      <trkpt lat="47.26166" lon="-2.32022">
        <ele>15</ele>
        <time>2022-05-08T10:29:30.000Z</time>
      </trkpt>
      <trkpt lat="47.26179" lon="-2.32022">
        <ele>15</ele>
        <time>2022-05-08T10:29:33.000Z</time>
      </trkpt>
      <trkpt lat="47.26183" lon="-2.32022">
        <ele>15</ele>
        <time>2022-05-08T10:29:34.000Z</time>
      </trkpt>
      <trkpt lat="47.26187" lon="-2.32024">
        <ele>15</ele>
        <time>2022-05-08T10:29:36.000Z</time>
      </trkpt>
      <trkpt lat="47.26189" lon="-2.32025">
        <ele>15</ele>
        <time>2022-05-08T10:29:37.000Z</time>
      </trkpt>
      <trkpt lat="47.26194" lon="-2.32025">
        <ele>15</ele>
        <time>2022-05-08T10:29:40.000Z</time>
      </trkpt>
      <trkpt lat="47.26195" lon="-2.32022">
        <ele>15</ele>
        <time>2022-05-08T10:29:41.000Z</time>
      </trkpt>
      <trkpt lat="47.26195" lon="-2.32018">
        <ele>15</ele>
        <time>2022-05-08T10:29:42.000Z</time>
      </trkpt>
      <trkpt lat="47.26203" lon="-2.32003">
        <ele>15</ele>
        <time>2022-05-08T10:29:47.000Z</time>
      </trkpt>
      <trkpt lat="47.26222" lon="-2.3198">
        <ele>15</ele>
        <time>2022-05-08T10:29:54.000Z</time>
      </trkpt>
      <trkpt lat="47.2624" lon="-2.31963">
        <ele>15</ele>
        <time>2022-05-08T10:29:59.000Z</time>
      </trkpt>
      <trkpt lat="47.26243" lon="-2.31959">
        <ele>15</ele>
        <time>2022-05-08T10:30:00.000Z</time>
      </trkpt>
      <trkpt lat="47.26249" lon="-2.31946">
        <ele>15</ele>
        <time>2022-05-08T10:30:03.000Z</time>
      </trkpt>
      <trkpt lat="47.26261" lon="-2.31929">
        <ele>15</ele>
        <time>2022-05-08T10:30:08.000Z</time>
      </trkpt>
      <trkpt lat="47.26267" lon="-2.31922">
        <ele>15</ele>
        <time>2022-05-08T10:30:10.000Z</time>
      </trkpt>
      <trkpt lat="47.26279" lon="-2.31908">
        <ele>15</ele>
        <time>2022-05-08T10:30:13.000Z</time>
      </trkpt>
      <trkpt lat="47.26298" lon="-2.31889">
        <ele>15</ele>
        <time>2022-05-08T10:30:19.000Z</time>
      </trkpt>
      <trkpt lat="47.26298" lon="-2.31883">
        <ele>15</ele>
        <time>2022-05-08T10:30:20.000Z</time>
      </trkpt>
      <trkpt lat="47.26298" lon="-2.31865">
        <ele>15</ele>
        <time>2022-05-08T10:30:23.000Z</time>
      </trkpt>
      <trkpt lat="47.26301" lon="-2.31824">
        <ele>15</ele>
        <time>2022-05-08T10:30:29.000Z</time>
      </trkpt>
      <trkpt lat="47.26302" lon="-2.31782">
        <ele>15</ele>
        <time>2022-05-08T10:30:36.000Z</time>
      </trkpt>
      <trkpt lat="47.26297" lon="-2.31747">
        <ele>15</ele>
        <time>2022-05-08T10:30:42.000Z</time>
      </trkpt>
      <trkpt lat="47.26299" lon="-2.31725">
        <ele>15</ele>
        <time>2022-05-08T10:30:46.000Z</time>
      </trkpt>
      <trkpt lat="47.26302" lon="-2.31721">
        <ele>15</ele>
        <time>2022-05-08T10:30:47.000Z</time>
      </trkpt>
      <trkpt lat="47.26317" lon="-2.31713">
        <ele>15</ele>
        <time>2022-05-08T10:30:51.000Z</time>
      </trkpt>
      <trkpt lat="47.26328" lon="-2.31701">
        <ele>15</ele>
        <time>2022-05-08T10:30:55.000Z</time>
      </trkpt>
      <trkpt lat="47.26334" lon="-2.31691">
        <ele>15.39999961853</ele>
        <time>2022-05-08T10:30:58.000Z</time>
      </trkpt>
      <trkpt lat="47.26337" lon="-2.3169">
        <ele>15.800000190735</ele>
        <time>2022-05-08T10:30:59.000Z</time>
      </trkpt>
      <trkpt lat="47.26339" lon="-2.31689">
        <ele>16.200000762939</ele>
        <time>2022-05-08T10:31:00.000Z</time>
      </trkpt>
      <trkpt lat="47.26342" lon="-2.31687">
        <ele>16.60000038147</ele>
        <time>2022-05-08T10:31:01.000Z</time>
      </trkpt>
      <trkpt lat="47.26345" lon="-2.31685">
        <ele>17</ele>
        <time>2022-05-08T10:31:02.000Z</time>
      </trkpt>
      <trkpt lat="47.26351" lon="-2.31682">
        <ele>17</ele>
        <time>2022-05-08T10:31:04.000Z</time>
      </trkpt>
      <trkpt lat="47.26355" lon="-2.3168">
        <ele>17</ele>
        <time>2022-05-08T10:31:05.000Z</time>
      </trkpt>
      <trkpt lat="47.26376" lon="-2.31672">
        <ele>17</ele>
        <time>2022-05-08T10:31:11.000Z</time>
      </trkpt>
      <trkpt lat="47.26396" lon="-2.3166">
        <ele>17</ele>
        <time>2022-05-08T10:31:17.000Z</time>
      </trkpt>
      <trkpt lat="47.26409" lon="-2.31649">
        <ele>17</ele>
        <time>2022-05-08T10:31:22.000Z</time>
      </trkpt>
      <trkpt lat="47.2641" lon="-2.31645">
        <ele>17.60000038147</ele>
        <time>2022-05-08T10:31:23.000Z</time>
      </trkpt>
      <trkpt lat="47.26409" lon="-2.3164">
        <ele>18</ele>
        <time>2022-05-08T10:31:24.000Z</time>
      </trkpt>
      <trkpt lat="47.26409" lon="-2.31635">
        <ele>18.39999961853</ele>
        <time>2022-05-08T10:31:25.000Z</time>
      </trkpt>
      <trkpt lat="47.26409" lon="-2.3163">
        <ele>18.799999237061</ele>
        <time>2022-05-08T10:31:26.000Z</time>
      </trkpt>
      <trkpt lat="47.26409" lon="-2.31625">
        <ele>19.200000762939</ele>
        <time>2022-05-08T10:31:27.000Z</time>
      </trkpt>
      <trkpt lat="47.26409" lon="-2.31598">
        <ele>19.200000762939</ele>
        <time>2022-05-08T10:31:32.000Z</time>
      </trkpt>
      <trkpt lat="47.2641" lon="-2.31567">
        <ele>19.200000762939</ele>
        <time>2022-05-08T10:31:39.000Z</time>
      </trkpt>
      <trkpt lat="47.26412" lon="-2.31553">
        <ele>19.200000762939</ele>
        <time>2022-05-08T10:31:43.000Z</time>
      </trkpt>
      <trkpt lat="47.26417" lon="-2.31555">
        <ele>19.200000762939</ele>
        <time>2022-05-08T10:31:46.000Z</time>
      </trkpt>
      <trkpt lat="47.26417" lon="-2.31557">
        <ele>19.200000762939</ele>
        <time>2022-05-08T10:31:49.000Z</time>
      </trkpt>
    </trkseg>
  </trk>
</gpx>